﻿<?xml version="1.0" encoding="utf-8"?><gpx creator="Garmin Desktop App" version="1.1" xsi:schemaLocation="http://www.topografix.com/GPX/1/1 http://www.topografix.com/GPX/1/1/gpx.xsd http://www.garmin.com/xmlschemas/WaypointExtension/v1 http://www8.garmin.com/xmlschemas/WaypointExtensionv1.xsd http://www.garmin.com/xmlschemas/TrackPointExtension/v1 http://www.garmin.com/xmlschemas/TrackPointExtensionv1.xsd http://www.garmin.com/xmlschemas/GpxExtensions/v3 http://www8.garmin.com/xmlschemas/GpxExtensionsv3.xsd http://www.garmin.com/xmlschemas/ActivityExtension/v1 http://www8.garmin.com/xmlschemas/ActivityExtensionv1.xsd http://www.garmin.com/xmlschemas/AdventuresExtensions/v1 http://www8.garmin.com/xmlschemas/AdventuresExtensionv1.xsd" xmlns="http://www.topografix.com/GPX/1/1" xmlns:xsi="http://www.w3.org/2001/XMLSchema-instance" xmlns:wptx1="http://www.garmin.com/xmlschemas/WaypointExtension/v1" xmlns:gpxtrx="http://www.garmin.com/xmlschemas/GpxExtensions/v3" xmlns:gpxtpx="http://www.garmin.com/xmlschemas/TrackPointExtension/v1" xmlns:gpxx="http://www.garmin.com/xmlschemas/GpxExtensions/v3" xmlns:trp="http://www.garmin.com/xmlschemas/TripExtensions/v1" xmlns:adv="http://www.garmin.com/xmlschemas/AdventuresExtensions/v1">

  <metadata>
    <link href="http://www.garmin.com">
      <text>Garmin International</text>
    </link>
    <time>2012-05-27T15:59:28Z</time>
    <bounds maxlat="46.582443891093135" maxlon="7.086062114685774" minlat="46.509092515334487" minlon="6.935680629685521" />
  </metadata>

  <trk>
    <name>Tracé actuel: 27 MAI 2012 10:02</name>
    <extensions>
      <gpxx:TrackExtension>
        <gpxx:DisplayColor>DarkGray</gpxx:DisplayColor>
      </gpxx:TrackExtension>
    </extensions>
    <trkseg>
      <trkpt lat="46.582443891093135" lon="7.07210959866643">
        <ele>749.97000000000003</ele>
        <time>2012-05-27T08:02:29Z</time>
      </trkpt>
      <trkpt lat="46.582441292703152" lon="7.072112197056413">
        <ele>750.45000000000005</ele>
        <time>2012-05-27T08:02:39Z</time>
      </trkpt>
      <trkpt lat="46.582394689321518" lon="7.072100378572941">
        <ele>750.45000000000005</ele>
        <time>2012-05-27T08:02:43Z</time>
      </trkpt>
      <trkpt lat="46.582376919686794" lon="7.07207933999598">
        <ele>750.92999999999995</ele>
        <time>2012-05-27T08:02:44Z</time>
      </trkpt>
      <trkpt lat="46.582363173365593" lon="7.072050590068102">
        <ele>750.92999999999995</ele>
        <time>2012-05-27T08:02:45Z</time>
      </trkpt>
      <trkpt lat="46.582353282719851" lon="7.072015050798655">
        <ele>750.92999999999995</ele>
        <time>2012-05-27T08:02:46Z</time>
      </trkpt>
      <trkpt lat="46.582353366538882" lon="7.071975655853748">
        <ele>751.40999999999997</ele>
        <time>2012-05-27T08:02:47Z</time>
      </trkpt>
      <trkpt lat="46.582365436479449" lon="7.071938356384635">
        <ele>751.40999999999997</ele>
        <time>2012-05-27T08:02:48Z</time>
      </trkpt>
      <trkpt lat="46.582382451742887" lon="7.071906924247742">
        <ele>751.88999999999999</ele>
        <time>2012-05-27T08:02:49Z</time>
      </trkpt>
      <trkpt lat="46.582400305196643" lon="7.071875743567944">
        <ele>752.37</ele>
        <time>2012-05-27T08:02:50Z</time>
      </trkpt>
      <trkpt lat="46.582411620765924" lon="7.071839114651084">
        <ele>752.37</ele>
        <time>2012-05-27T08:02:51Z</time>
      </trkpt>
      <trkpt lat="46.582412207499146" lon="7.071797456592321">
        <ele>752.37</ele>
        <time>2012-05-27T08:02:52Z</time>
      </trkpt>
      <trkpt lat="46.582404244691133" lon="7.071757391095161">
        <ele>752.85000000000002</ele>
        <time>2012-05-27T08:02:53Z</time>
      </trkpt>
      <trkpt lat="46.582372896373272" lon="7.071680445224047">
        <ele>753.80999999999995</ele>
        <time>2012-05-27T08:03:03Z</time>
      </trkpt>
      <trkpt lat="46.582356467843056" lon="7.071669129654765">
        <ele>753.80999999999995</ele>
        <time>2012-05-27T08:03:04Z</time>
      </trkpt>
      <trkpt lat="46.582331405952573" lon="7.071669884026051">
        <ele>753.33000000000004</ele>
        <time>2012-05-27T08:03:05Z</time>
      </trkpt>
      <trkpt lat="46.582302488386631" lon="7.071678685024381">
        <ele>753.33000000000004</ele>
        <time>2012-05-27T08:03:06Z</time>
      </trkpt>
      <trkpt lat="46.582274073734879" lon="7.071693437173963">
        <ele>753.33000000000004</ele>
        <time>2012-05-27T08:03:07Z</time>
      </trkpt>
      <trkpt lat="46.582244820892811" lon="7.071712967008352">
        <ele>753.33000000000004</ele>
        <time>2012-05-27T08:03:08Z</time>
      </trkpt>
      <trkpt lat="46.582211712375283" lon="7.071730401366949">
        <ele>753.33000000000004</ele>
        <time>2012-05-27T08:03:09Z</time>
      </trkpt>
      <trkpt lat="46.582035440951586" lon="7.071841545403004">
        <ele>753.33000000000004</ele>
        <time>2012-05-27T08:03:14Z</time>
      </trkpt>
      <trkpt lat="46.581996129825711" lon="7.071873061358929">
        <ele>753.33000000000004</ele>
        <time>2012-05-27T08:03:15Z</time>
      </trkpt>
      <trkpt lat="46.581960003823042" lon="7.071910444647074">
        <ele>753.33000000000004</ele>
        <time>2012-05-27T08:03:16Z</time>
      </trkpt>
      <trkpt lat="46.581927817314863" lon="7.0719557069242">
        <ele>753.33000000000004</ele>
        <time>2012-05-27T08:03:17Z</time>
      </trkpt>
      <trkpt lat="46.581900408491492" lon="7.072009686380625">
        <ele>753.33000000000004</ele>
        <time>2012-05-27T08:03:18Z</time>
      </trkpt>
      <trkpt lat="46.581877693533897" lon="7.072071209549904">
        <ele>752.85000000000002</ele>
        <time>2012-05-27T08:03:19Z</time>
      </trkpt>
      <trkpt lat="46.581859085708857" lon="7.072138600051403">
        <ele>752.85000000000002</ele>
        <time>2012-05-27T08:03:20Z</time>
      </trkpt>
      <trkpt lat="46.58184408210218" lon="7.072209678590298">
        <ele>752.37</ele>
        <time>2012-05-27T08:03:21Z</time>
      </trkpt>
      <trkpt lat="46.581831425428391" lon="7.072284780442715">
        <ele>751.88999999999999</ele>
        <time>2012-05-27T08:03:22Z</time>
      </trkpt>
      <trkpt lat="46.581806782633066" lon="7.072423500940204">
        <ele>751.40999999999997</ele>
        <time>2012-05-27T08:03:24Z</time>
      </trkpt>
      <trkpt lat="46.581782642751932" lon="7.072466751560569">
        <ele>750.92999999999995</ele>
        <time>2012-05-27T08:03:25Z</time>
      </trkpt>
      <trkpt lat="46.581633612513542" lon="7.072432050481439">
        <ele>750.45000000000005</ele>
        <time>2012-05-27T08:03:29Z</time>
      </trkpt>
      <trkpt lat="46.581172021105886" lon="7.072264915332198">
        <ele>753.33000000000004</ele>
        <time>2012-05-27T08:03:42Z</time>
      </trkpt>
      <trkpt lat="46.581044616177678" lon="7.072330629453063">
        <ele>754.76999999999998</ele>
        <time>2012-05-27T08:03:46Z</time>
      </trkpt>
      <trkpt lat="46.580719817429781" lon="7.072800938040018">
        <ele>754.76999999999998</ele>
        <time>2012-05-27T08:03:57Z</time>
      </trkpt>
      <trkpt lat="46.580243473872542" lon="7.073459001258016">
        <ele>752.37</ele>
        <time>2012-05-27T08:04:08Z</time>
      </trkpt>
      <trkpt lat="46.580203827470541" lon="7.073526559397578">
        <ele>752.37</ele>
        <time>2012-05-27T08:04:09Z</time>
      </trkpt>
      <trkpt lat="46.580168958753347" lon="7.073597051203251">
        <ele>751.88999999999999</ele>
        <time>2012-05-27T08:04:10Z</time>
      </trkpt>
      <trkpt lat="46.580085474997759" lon="7.073837276548147">
        <ele>750.92999999999995</ele>
        <time>2012-05-27T08:04:13Z</time>
      </trkpt>
      <trkpt lat="46.579983048141003" lon="7.074360307306051">
        <ele>749.97000000000003</ele>
        <time>2012-05-27T08:04:19Z</time>
      </trkpt>
      <trkpt lat="46.57995505258441" lon="7.07444136030972">
        <ele>749.49000000000001</ele>
        <time>2012-05-27T08:04:20Z</time>
      </trkpt>
      <trkpt lat="46.579919764772058" lon="7.074518222361803">
        <ele>749.49000000000001</ele>
        <time>2012-05-27T08:04:21Z</time>
      </trkpt>
      <trkpt lat="46.579877017065883" lon="7.074593575671315">
        <ele>749.49000000000001</ele>
        <time>2012-05-27T08:04:22Z</time>
      </trkpt>
      <trkpt lat="46.579830497503281" lon="7.074666833505034">
        <ele>749.49000000000001</ele>
        <time>2012-05-27T08:04:23Z</time>
      </trkpt>
      <trkpt lat="46.579611813649535" lon="7.07494561560452">
        <ele>749</ele>
        <time>2012-05-27T08:04:27Z</time>
      </trkpt>
      <trkpt lat="46.579558504745364" lon="7.075022393837571">
        <ele>749</ele>
        <time>2012-05-27T08:04:28Z</time>
      </trkpt>
      <trkpt lat="46.578878229483962" lon="7.076345980167389">
        <ele>744.67999999999995</ele>
        <time>2012-05-27T08:04:43Z</time>
      </trkpt>
      <trkpt lat="46.578292334452271" lon="7.078247917816043">
        <ele>739.87</ele>
        <time>2012-05-27T08:05:01Z</time>
      </trkpt>
      <trkpt lat="46.578268781304359" lon="7.078342046588659">
        <ele>739.38999999999999</ele>
        <time>2012-05-27T08:05:02Z</time>
      </trkpt>
      <trkpt lat="46.578250005841255" lon="7.078439192846417">
        <ele>739.38999999999999</ele>
        <time>2012-05-27T08:05:03Z</time>
      </trkpt>
      <trkpt lat="46.578230476006866" lon="7.078532567247748">
        <ele>738.90999999999997</ele>
        <time>2012-05-27T08:05:04Z</time>
      </trkpt>
      <trkpt lat="46.578200552612543" lon="7.078615631908178">
        <ele>738.42999999999995</ele>
        <time>2012-05-27T08:05:05Z</time>
      </trkpt>
      <trkpt lat="46.578156715258956" lon="7.078689727932215">
        <ele>737.95000000000005</ele>
        <time>2012-05-27T08:05:06Z</time>
      </trkpt>
      <trkpt lat="46.57809535972774" lon="7.078744797036052">
        <ele>737.47000000000003</ele>
        <time>2012-05-27T08:05:07Z</time>
      </trkpt>
      <trkpt lat="46.578023945912719" lon="7.078776061534882">
        <ele>736.99000000000001</ele>
        <time>2012-05-27T08:05:08Z</time>
      </trkpt>
      <trkpt lat="46.577950017526746" lon="7.078788550570607">
        <ele>736.99000000000001</ele>
        <time>2012-05-27T08:05:09Z</time>
      </trkpt>
      <trkpt lat="46.577877849340439" lon="7.078783353790641">
        <ele>736.50999999999999</ele>
        <time>2012-05-27T08:05:10Z</time>
      </trkpt>
      <trkpt lat="46.577811045572162" lon="7.078762818127871">
        <ele>736.99000000000001</ele>
        <time>2012-05-27T08:05:11Z</time>
      </trkpt>
      <trkpt lat="46.577753545716405" lon="7.078735660761595">
        <ele>737.47000000000003</ele>
        <time>2012-05-27T08:05:12Z</time>
      </trkpt>
      <trkpt lat="46.577657908201218" lon="7.07870070822537">
        <ele>738.42999999999995</ele>
        <time>2012-05-27T08:05:14Z</time>
      </trkpt>
      <trkpt lat="46.577615244314075" lon="7.078706324100494">
        <ele>738.90999999999997</ele>
        <time>2012-05-27T08:05:15Z</time>
      </trkpt>
      <trkpt lat="46.577577861025929" lon="7.078731637448072">
        <ele>739.38999999999999</ele>
        <time>2012-05-27T08:05:16Z</time>
      </trkpt>
      <trkpt lat="46.577546680346131" lon="7.078773630782962">
        <ele>739.38999999999999</ele>
        <time>2012-05-27T08:05:17Z</time>
      </trkpt>
      <trkpt lat="46.577517595142126" lon="7.078826185315847">
        <ele>739.38999999999999</ele>
        <time>2012-05-27T08:05:18Z</time>
      </trkpt>
      <trkpt lat="46.577493539080024" lon="7.078881757333875">
        <ele>739.38999999999999</ele>
        <time>2012-05-27T08:05:19Z</time>
      </trkpt>
      <trkpt lat="46.577470237389207" lon="7.078935988247395">
        <ele>739.38999999999999</ele>
        <time>2012-05-27T08:05:20Z</time>
      </trkpt>
      <trkpt lat="46.577443834394217" lon="7.07899197936058">
        <ele>739.87</ele>
        <time>2012-05-27T08:05:21Z</time>
      </trkpt>
      <trkpt lat="46.577414833009243" lon="7.079041684046388">
        <ele>739.87</ele>
        <time>2012-05-27T08:05:22Z</time>
      </trkpt>
      <trkpt lat="46.577384239062667" lon="7.079085605219007">
        <ele>739.87</ele>
        <time>2012-05-27T08:05:23Z</time>
      </trkpt>
      <trkpt lat="46.577355908229947" lon="7.079118713736534">
        <ele>739.87</ele>
        <time>2012-05-27T08:05:24Z</time>
      </trkpt>
      <trkpt lat="46.577329589053988" lon="7.079138243570924">
        <ele>740.35000000000002</ele>
        <time>2012-05-27T08:05:25Z</time>
      </trkpt>
      <trkpt lat="46.577305113896728" lon="7.079152911901474">
        <ele>740.35000000000002</ele>
        <time>2012-05-27T08:05:26Z</time>
      </trkpt>
      <trkpt lat="46.577280722558498" lon="7.07916246727109">
        <ele>740.83000000000004</ele>
        <time>2012-05-27T08:05:27Z</time>
      </trkpt>
      <trkpt lat="46.577158682048321" lon="7.07911410368979">
        <ele>744.67999999999995</ele>
        <time>2012-05-27T08:05:36Z</time>
      </trkpt>
      <trkpt lat="46.57706631347537" lon="7.078954428434372">
        <ele>756.69000000000005</ele>
        <time>2012-05-27T08:05:49Z</time>
      </trkpt>
      <trkpt lat="46.576978638768196" lon="7.078750412911177">
        <ele>772.08000000000004</ele>
        <time>2012-05-27T08:06:02Z</time>
      </trkpt>
      <trkpt lat="46.576749812811613" lon="7.078492753207684">
        <ele>777.84000000000003</ele>
        <time>2012-05-27T08:06:16Z</time>
      </trkpt>
      <trkpt lat="46.576706394553185" lon="7.078306758776307">
        <ele>785.52999999999997</ele>
        <time>2012-05-27T08:06:25Z</time>
      </trkpt>
      <trkpt lat="46.576645122841001" lon="7.078170049935579">
        <ele>785.52999999999997</ele>
        <time>2012-05-27T08:06:32Z</time>
      </trkpt>
      <trkpt lat="46.576606314629316" lon="7.078096456825733">
        <ele>786.01999999999998</ele>
        <time>2012-05-27T08:06:36Z</time>
      </trkpt>
      <trkpt lat="46.576501708477736" lon="7.077947678044438">
        <ele>789.38</ele>
        <time>2012-05-27T08:06:45Z</time>
      </trkpt>
      <trkpt lat="46.576378913596272" lon="7.077801749110222">
        <ele>791.29999999999995</ele>
        <time>2012-05-27T08:06:54Z</time>
      </trkpt>
      <trkpt lat="46.576326107606292" lon="7.077558841556311">
        <ele>791.29999999999995</ele>
        <time>2012-05-27T08:07:02Z</time>
      </trkpt>
      <trkpt lat="46.576295010745525" lon="7.077282322570682">
        <ele>791.77999999999997</ele>
        <time>2012-05-27T08:07:12Z</time>
      </trkpt>
      <trkpt lat="46.576219573616982" lon="7.077078726142645">
        <ele>792.25999999999999</ele>
        <time>2012-05-27T08:07:25Z</time>
      </trkpt>
      <trkpt lat="46.576139945536852" lon="7.076970767229796">
        <ele>792.74000000000001</ele>
        <time>2012-05-27T08:07:32Z</time>
      </trkpt>
      <trkpt lat="46.576137179508805" lon="7.076556785032153">
        <ele>792.74000000000001</ele>
        <time>2012-05-27T08:07:41Z</time>
      </trkpt>
      <trkpt lat="46.576053192839026" lon="7.076379340142012">
        <ele>790.82000000000005</ele>
        <time>2012-05-27T08:07:49Z</time>
      </trkpt>
      <trkpt lat="46.575799891725183" lon="7.075964100658894">
        <ele>787.94000000000005</ele>
        <time>2012-05-27T08:08:06Z</time>
      </trkpt>
      <trkpt lat="46.575765525922179" lon="7.075566966086626">
        <ele>789.86000000000001</ele>
        <time>2012-05-27T08:08:19Z</time>
      </trkpt>
      <trkpt lat="46.575761586427689" lon="7.074973443523049">
        <ele>790.82000000000005</ele>
        <time>2012-05-27T08:08:32Z</time>
      </trkpt>
      <trkpt lat="46.575696375221014" lon="7.074790969491005">
        <ele>791.29999999999995</ele>
        <time>2012-05-27T08:08:36Z</time>
      </trkpt>
      <trkpt lat="46.575377276167274" lon="7.074344716966152">
        <ele>791.77999999999997</ele>
        <time>2012-05-27T08:08:47Z</time>
      </trkpt>
      <trkpt lat="46.575184157118201" lon="7.073781369253993">
        <ele>796.11000000000001</ele>
        <time>2012-05-27T08:09:01Z</time>
      </trkpt>
      <trkpt lat="46.575148869305849" lon="7.07344844006002">
        <ele>799.47000000000003</ele>
        <time>2012-05-27T08:09:09Z</time>
      </trkpt>
      <trkpt lat="46.57494954764843" lon="7.073018196970224">
        <ele>803.79999999999995</ele>
        <time>2012-05-27T08:09:21Z</time>
      </trkpt>
      <trkpt lat="46.574977962300181" lon="7.072809655219317">
        <ele>804.75999999999999</ele>
        <time>2012-05-27T08:09:25Z</time>
      </trkpt>
      <trkpt lat="46.575091704726219" lon="7.072461806237698">
        <ele>808.61000000000001</ele>
        <time>2012-05-27T08:09:39Z</time>
      </trkpt>
      <trkpt lat="46.57510394230485" lon="7.072408832609654">
        <ele>809.09000000000003</ele>
        <time>2012-05-27T08:09:41Z</time>
      </trkpt>
      <trkpt lat="46.575112491846085" lon="7.072340771555901">
        <ele>809.09000000000003</ele>
        <time>2012-05-27T08:09:43Z</time>
      </trkpt>
      <trkpt lat="46.575076030567288" lon="7.072162823751569">
        <ele>808.13</ele>
        <time>2012-05-27T08:09:51Z</time>
      </trkpt>
      <trkpt lat="46.575058344751596" lon="7.07203240133822">
        <ele>808.61000000000001</ele>
        <time>2012-05-27T08:09:55Z</time>
      </trkpt>
      <trkpt lat="46.574946949258447" lon="7.071661166846752">
        <ele>814.85000000000002</ele>
        <time>2012-05-27T08:10:10Z</time>
      </trkpt>
      <trkpt lat="46.574946278706193" lon="7.071366459131241">
        <ele>819.65999999999997</ele>
        <time>2012-05-27T08:10:24Z</time>
      </trkpt>
      <trkpt lat="46.574916271492839" lon="7.071143332868815">
        <ele>823.02999999999997</ele>
        <time>2012-05-27T08:10:35Z</time>
      </trkpt>
      <trkpt lat="46.574880816042423" lon="7.070890367031097">
        <ele>827.83000000000004</ele>
        <time>2012-05-27T08:10:46Z</time>
      </trkpt>
      <trkpt lat="46.574846198782325" lon="7.070799423381686">
        <ele>831.20000000000005</ele>
        <time>2012-05-27T08:10:51Z</time>
      </trkpt>
      <trkpt lat="46.574834128841758" lon="7.070762543007731">
        <ele>833.60000000000002</ele>
        <time>2012-05-27T08:10:53Z</time>
      </trkpt>
      <trkpt lat="46.574849132448435" lon="7.070622062310576">
        <ele>836.96000000000004</ele>
        <time>2012-05-27T08:10:58Z</time>
      </trkpt>
      <trkpt lat="46.574822561815381" lon="7.070484096184373">
        <ele>842.25</ele>
        <time>2012-05-27T08:11:05Z</time>
      </trkpt>
      <trkpt lat="46.574807390570641" lon="7.070242865011096">
        <ele>844.17999999999995</ele>
        <time>2012-05-27T08:11:16Z</time>
      </trkpt>
      <trkpt lat="46.574767492711544" lon="7.070042788982391">
        <ele>844.17999999999995</ele>
        <time>2012-05-27T08:11:24Z</time>
      </trkpt>
      <trkpt lat="46.574757434427738" lon="7.069740705192089">
        <ele>843.69000000000005</ele>
        <time>2012-05-27T08:11:35Z</time>
      </trkpt>
      <trkpt lat="46.574741257354617" lon="7.069532414898276">
        <ele>848.98000000000002</ele>
        <time>2012-05-27T08:11:45Z</time>
      </trkpt>
      <trkpt lat="46.574714267626405" lon="7.069457396864891">
        <ele>850.89999999999998</ele>
        <time>2012-05-27T08:11:50Z</time>
      </trkpt>
      <trkpt lat="46.574636399745941" lon="7.069359160959721">
        <ele>852.35000000000002</ele>
        <time>2012-05-27T08:11:57Z</time>
      </trkpt>
      <trkpt lat="46.574487956240773" lon="7.069191690534353">
        <ele>853.78999999999996</ele>
        <time>2012-05-27T08:12:10Z</time>
      </trkpt>
      <trkpt lat="46.574392234906554" lon="7.069224715232849">
        <ele>857.63</ele>
        <time>2012-05-27T08:12:17Z</time>
      </trkpt>
      <trkpt lat="46.574341943487525" lon="7.069233600050211">
        <ele>860.03999999999996</ele>
        <time>2012-05-27T08:12:21Z</time>
      </trkpt>
      <trkpt lat="46.574106998741627" lon="7.069330411031842">
        <ele>861.48000000000002</ele>
        <time>2012-05-27T08:12:34Z</time>
      </trkpt>
      <trkpt lat="46.573989149183035" lon="7.069509532302618">
        <ele>866.28999999999996</ele>
        <time>2012-05-27T08:12:46Z</time>
      </trkpt>
      <trkpt lat="46.573762586340308" lon="7.069558566436172">
        <ele>866.76999999999998</ele>
        <time>2012-05-27T08:12:57Z</time>
      </trkpt>
      <trkpt lat="46.573744062334299" lon="7.069568876177073">
        <ele>866.28999999999996</ele>
        <time>2012-05-27T08:12:58Z</time>
      </trkpt>
      <trkpt lat="46.573705673217773" lon="7.069577928632498">
        <ele>865.32000000000005</ele>
        <time>2012-05-27T08:13:00Z</time>
      </trkpt>
      <trkpt lat="46.573618752881885" lon="7.069585137069225">
        <ele>861</ele>
        <time>2012-05-27T08:13:14Z</time>
      </trkpt>
      <trkpt lat="46.573601821437478" lon="7.069609528407455">
        <ele>859.08000000000004</ele>
        <time>2012-05-27T08:13:27Z</time>
      </trkpt>
      <trkpt lat="46.573495706543326" lon="7.069664681330323">
        <ele>860.03999999999996</ele>
        <time>2012-05-27T08:13:42Z</time>
      </trkpt>
      <trkpt lat="46.573388082906604" lon="7.069760989397764">
        <ele>861.48000000000002</ele>
        <time>2012-05-27T08:13:55Z</time>
      </trkpt>
      <trkpt lat="46.573313819244504" lon="7.069835672155023">
        <ele>864.36000000000001</ele>
        <time>2012-05-27T08:14:03Z</time>
      </trkpt>
      <trkpt lat="46.573292277753353" lon="7.069865763187408">
        <ele>865.32000000000005</ele>
        <time>2012-05-27T08:14:06Z</time>
      </trkpt>
      <trkpt lat="46.573223127052188" lon="7.069931058213115">
        <ele>869.64999999999998</ele>
        <time>2012-05-27T08:14:20Z</time>
      </trkpt>
      <trkpt lat="46.57316604629159" lon="7.070023342967033">
        <ele>875.89999999999998</ele>
        <time>2012-05-27T08:14:32Z</time>
      </trkpt>
      <trkpt lat="46.573113407939672" lon="7.070139348506928">
        <ele>881.66999999999996</ele>
        <time>2012-05-27T08:14:44Z</time>
      </trkpt>
      <trkpt lat="46.573026655241847" lon="7.070268345996738">
        <ele>888.39999999999998</ele>
        <time>2012-05-27T08:14:57Z</time>
      </trkpt>
      <trkpt lat="46.572992624714971" lon="7.070415448397398">
        <ele>892.72000000000003</ele>
        <time>2012-05-27T08:15:09Z</time>
      </trkpt>
      <trkpt lat="46.572839990258217" lon="7.070536063984036">
        <ele>894.15999999999997</ele>
        <time>2012-05-27T08:15:21Z</time>
      </trkpt>
      <trkpt lat="46.57282792031765" lon="7.07054209895432">
        <ele>894.15999999999997</ele>
        <time>2012-05-27T08:15:22Z</time>
      </trkpt>
      <trkpt lat="46.572673358023167" lon="7.070491639897227">
        <ele>890.79999999999995</ele>
        <time>2012-05-27T08:15:39Z</time>
      </trkpt>
      <trkpt lat="46.572608314454556" lon="7.070473534986377">
        <ele>891.75999999999999</ele>
        <time>2012-05-27T08:15:45Z</time>
      </trkpt>
      <trkpt lat="46.572571350261569" lon="7.070333221927285">
        <ele>893.67999999999995</ele>
        <time>2012-05-27T08:15:58Z</time>
      </trkpt>
      <trkpt lat="46.572517203167081" lon="7.070265412330627">
        <ele>897.52999999999997</ele>
        <time>2012-05-27T08:16:10Z</time>
      </trkpt>
      <trkpt lat="46.572489961981773" lon="7.070184862241149">
        <ele>898.97000000000003</ele>
        <time>2012-05-27T08:16:23Z</time>
      </trkpt>
      <trkpt lat="46.572462134063244" lon="7.070108000189066">
        <ele>899.45000000000005</ele>
        <time>2012-05-27T08:16:34Z</time>
      </trkpt>
      <trkpt lat="46.572421230375767" lon="7.070015296339989">
        <ele>899.45000000000005</ele>
        <time>2012-05-27T08:16:46Z</time>
      </trkpt>
      <trkpt lat="46.572407819330692" lon="7.069899626076222">
        <ele>902.82000000000005</ele>
        <time>2012-05-27T08:16:56Z</time>
      </trkpt>
      <trkpt lat="46.572397844865918" lon="7.069753864780068">
        <ele>904.74000000000001</ele>
        <time>2012-05-27T08:17:08Z</time>
      </trkpt>
      <trkpt lat="46.572390636429191" lon="7.06947198137641">
        <ele>899.45000000000005</ele>
        <time>2012-05-27T08:17:20Z</time>
      </trkpt>
      <trkpt lat="46.572395162656903" lon="7.069425126537681">
        <ele>894.63999999999999</ele>
        <time>2012-05-27T08:17:33Z</time>
      </trkpt>
      <trkpt lat="46.572504881769419" lon="7.069093873724341">
        <ele>894.63999999999999</ele>
        <time>2012-05-27T08:17:49Z</time>
      </trkpt>
      <trkpt lat="46.572670927271247" lon="7.068935539573431">
        <ele>895.12</ele>
        <time>2012-05-27T08:18:01Z</time>
      </trkpt>
      <trkpt lat="46.572660282254219" lon="7.068821880966425">
        <ele>894.63999999999999</ele>
        <time>2012-05-27T08:18:06Z</time>
      </trkpt>
      <trkpt lat="46.572372280061245" lon="7.068831603974104">
        <ele>896.09000000000003</ele>
        <time>2012-05-27T08:18:23Z</time>
      </trkpt>
      <trkpt lat="46.572162145748734" lon="7.06873806193471">
        <ele>898.00999999999999</ele>
        <time>2012-05-27T08:18:37Z</time>
      </trkpt>
      <trkpt lat="46.57202317379415" lon="7.068466152995825">
        <ele>900.40999999999997</ele>
        <time>2012-05-27T08:18:52Z</time>
      </trkpt>
      <trkpt lat="46.571932481601834" lon="7.068178569898009">
        <ele>904.25999999999999</ele>
        <time>2012-05-27T08:19:06Z</time>
      </trkpt>
      <trkpt lat="46.571714468300343" lon="7.067748578265309">
        <ele>909.53999999999996</ele>
        <time>2012-05-27T08:19:28Z</time>
      </trkpt>
      <trkpt lat="46.57154431566596" lon="7.067405506968498">
        <ele>913.38999999999999</ele>
        <time>2012-05-27T08:19:46Z</time>
      </trkpt>
      <trkpt lat="46.571433255448937" lon="7.067043157294393">
        <ele>916.75</ele>
        <time>2012-05-27T08:20:03Z</time>
      </trkpt>
      <trkpt lat="46.571248937398195" lon="7.066724309697747">
        <ele>921.08000000000004</ele>
        <time>2012-05-27T08:20:21Z</time>
      </trkpt>
      <trkpt lat="46.571027738973498" lon="7.066355757415295">
        <ele>924.92999999999995</ele>
        <time>2012-05-27T08:20:41Z</time>
      </trkpt>
      <trkpt lat="46.570881642401218" lon="7.066086698323488">
        <ele>930.69000000000005</ele>
        <time>2012-05-27T08:20:57Z</time>
      </trkpt>
      <trkpt lat="46.570770163089037" lon="7.065862314775586">
        <ele>935.98000000000002</ele>
        <time>2012-05-27T08:21:09Z</time>
      </trkpt>
      <trkpt lat="46.57062373124063" lon="7.065608929842711">
        <ele>939.35000000000002</ele>
        <time>2012-05-27T08:21:22Z</time>
      </trkpt>
      <trkpt lat="46.57041996717453" lon="7.065302738919854">
        <ele>941.26999999999998</ele>
        <time>2012-05-27T08:21:39Z</time>
      </trkpt>
      <trkpt lat="46.570141855627298" lon="7.065156809985638">
        <ele>943.66999999999996</ele>
        <time>2012-05-27T08:21:57Z</time>
      </trkpt>
      <trkpt lat="46.569860391318798" lon="7.065031249076128">
        <ele>947.03999999999996</ele>
        <time>2012-05-27T08:22:15Z</time>
      </trkpt>
      <trkpt lat="46.569630475714803" lon="7.06469907425344">
        <ele>949.44000000000005</ele>
        <time>2012-05-27T08:22:34Z</time>
      </trkpt>
      <trkpt lat="46.569475242868066" lon="7.064464213326573">
        <ele>951.84000000000003</ele>
        <time>2012-05-27T08:22:47Z</time>
      </trkpt>
      <trkpt lat="46.569586638361216" lon="7.064335215836763">
        <ele>953.27999999999997</ele>
        <time>2012-05-27T08:22:59Z</time>
      </trkpt>
      <trkpt lat="46.569620165973902" lon="7.06437167711556">
        <ele>953.27999999999997</ele>
        <time>2012-05-27T08:23:01Z</time>
      </trkpt>
      <trkpt lat="46.569831222295761" lon="7.064456837251782">
        <ele>953.76999999999998</ele>
        <time>2012-05-27T08:23:12Z</time>
      </trkpt>
      <trkpt lat="46.569872796535492" lon="7.06436731852591">
        <ele>955.21000000000004</ele>
        <time>2012-05-27T08:23:16Z</time>
      </trkpt>
      <trkpt lat="46.569922585040331" lon="7.063995245844126">
        <ele>957.13</ele>
        <time>2012-05-27T08:23:32Z</time>
      </trkpt>
      <trkpt lat="46.570150405168533" lon="7.06378435716033">
        <ele>960.98000000000002</ele>
        <time>2012-05-27T08:23:49Z</time>
      </trkpt>
      <trkpt lat="46.570414518937469" lon="7.063757786527276">
        <ele>964.82000000000005</ele>
        <time>2012-05-27T08:24:07Z</time>
      </trkpt>
      <trkpt lat="46.570631274953485" lon="7.063851077109575">
        <ele>966.74000000000001</ele>
        <time>2012-05-27T08:24:22Z</time>
      </trkpt>
      <trkpt lat="46.570878541097045" lon="7.064060792326927">
        <ele>970.11000000000001</ele>
        <time>2012-05-27T08:24:40Z</time>
      </trkpt>
      <trkpt lat="46.570935202762485" lon="7.064029108732939">
        <ele>970.11000000000001</ele>
        <time>2012-05-27T08:24:44Z</time>
      </trkpt>
      <trkpt lat="46.570903602987528" lon="7.063825931400061">
        <ele>973.95000000000005</ele>
        <time>2012-05-27T08:24:55Z</time>
      </trkpt>
      <trkpt lat="46.570850629359484" lon="7.063752254471183">
        <ele>975.38999999999999</ele>
        <time>2012-05-27T08:25:00Z</time>
      </trkpt>
      <trkpt lat="46.570669580250978" lon="7.063449416309595">
        <ele>980.67999999999995</ele>
        <time>2012-05-27T08:25:18Z</time>
      </trkpt>
      <trkpt lat="46.570611828938127" lon="7.063341457396746">
        <ele>982.12</ele>
        <time>2012-05-27T08:25:24Z</time>
      </trkpt>
      <trkpt lat="46.570553490892053" lon="7.0632419642061">
        <ele>982.60000000000002</ele>
        <time>2012-05-27T08:25:30Z</time>
      </trkpt>
      <trkpt lat="46.57049716450274" lon="7.063142471015453">
        <ele>984.04999999999995</ele>
        <time>2012-05-27T08:25:36Z</time>
      </trkpt>
      <trkpt lat="46.570328520610929" lon="7.062908280640841">
        <ele>985.97000000000003</ele>
        <time>2012-05-27T08:25:52Z</time>
      </trkpt>
      <trkpt lat="46.570061221718788" lon="7.062737122178078">
        <ele>989.80999999999995</ele>
        <time>2012-05-27T08:26:11Z</time>
      </trkpt>
      <trkpt lat="46.569796018302441" lon="7.062632432207465">
        <ele>994.13999999999999</ele>
        <time>2012-05-27T08:26:29Z</time>
      </trkpt>
      <trkpt lat="46.569564426317811" lon="7.062610052525997">
        <ele>997.01999999999998</ele>
        <time>2012-05-27T08:26:44Z</time>
      </trkpt>
      <trkpt lat="46.569301066920161" lon="7.06249438226223">
        <ele>1000.39</ele>
        <time>2012-05-27T08:27:02Z</time>
      </trkpt>
      <trkpt lat="46.569113899022341" lon="7.062294725328684">
        <ele>1002.79</ele>
        <time>2012-05-27T08:27:18Z</time>
      </trkpt>
      <trkpt lat="46.569117167964578" lon="7.062271675094962">
        <ele>1002.79</ele>
        <time>2012-05-27T08:27:19Z</time>
      </trkpt>
      <trkpt lat="46.569208363071084" lon="7.062234040349722">
        <ele>1004.23</ele>
        <time>2012-05-27T08:27:25Z</time>
      </trkpt>
      <trkpt lat="46.569269970059395" lon="7.062263796105981">
        <ele>1005.2</ele>
        <time>2012-05-27T08:27:29Z</time>
      </trkpt>
      <trkpt lat="46.569549171254039" lon="7.0623301807791">
        <ele>1009.04</ele>
        <time>2012-05-27T08:27:47Z</time>
      </trkpt>
      <trkpt lat="46.569795766845345" lon="7.062295731157064">
        <ele>1012.41</ele>
        <time>2012-05-27T08:28:04Z</time>
      </trkpt>
      <trkpt lat="46.569974552839994" lon="7.062246026471257">
        <ele>1014.33</ele>
        <time>2012-05-27T08:28:16Z</time>
      </trkpt>
      <trkpt lat="46.570121068507433" lon="7.062144605442882">
        <ele>1016.73</ele>
        <time>2012-05-27T08:28:27Z</time>
      </trkpt>
      <trkpt lat="46.570187956094742" lon="7.06198669038713">
        <ele>1019.13</ele>
        <time>2012-05-27T08:28:36Z</time>
      </trkpt>
      <trkpt lat="46.570151662454009" lon="7.061561727896333">
        <ele>1022.5</ele>
        <time>2012-05-27T08:28:56Z</time>
      </trkpt>
      <trkpt lat="46.570096677169204" lon="7.061366178095341">
        <ele>1024.4200000000001</ele>
        <time>2012-05-27T08:29:06Z</time>
      </trkpt>
      <trkpt lat="46.570085696876049" lon="7.061001565307379">
        <ele>1028.27</ele>
        <time>2012-05-27T08:29:23Z</time>
      </trkpt>
      <trkpt lat="46.570129366591573" lon="7.060638545081019">
        <ele>1031.6300000000001</ele>
        <time>2012-05-27T08:29:40Z</time>
      </trkpt>
      <trkpt lat="46.570362467318773" lon="7.060379879549146">
        <ele>1034.52</ele>
        <time>2012-05-27T08:29:59Z</time>
      </trkpt>
      <trkpt lat="46.570490878075361" lon="7.060146862640977">
        <ele>1036.9200000000001</ele>
        <time>2012-05-27T08:30:13Z</time>
      </trkpt>
      <trkpt lat="46.57050546258688" lon="7.059811083599925">
        <ele>1041.73</ele>
        <time>2012-05-27T08:30:29Z</time>
      </trkpt>
      <trkpt lat="46.570371687412262" lon="7.059470023959875">
        <ele>1043.1700000000001</ele>
        <time>2012-05-27T08:30:47Z</time>
      </trkpt>
      <trkpt lat="46.570338662713766" lon="7.059169113636017">
        <ele>1045.0899999999999</ele>
        <time>2012-05-27T08:31:02Z</time>
      </trkpt>
      <trkpt lat="46.570458021014929" lon="7.058958141133189">
        <ele>1045.0899999999999</ele>
        <time>2012-05-27T08:31:13Z</time>
      </trkpt>
      <trkpt lat="46.57037059776485" lon="7.058820091187954">
        <ele>1047.49</ele>
        <time>2012-05-27T08:31:22Z</time>
      </trkpt>
      <trkpt lat="46.57020153477788" lon="7.059062076732516">
        <ele>1053.26</ele>
        <time>2012-05-27T08:31:36Z</time>
      </trkpt>
      <trkpt lat="46.569982934743166" lon="7.059353180229664">
        <ele>1056.6300000000001</ele>
        <time>2012-05-27T08:31:51Z</time>
      </trkpt>
      <trkpt lat="46.569868018850684" lon="7.05956507474184">
        <ele>1058.0699999999999</ele>
        <time>2012-05-27T08:32:00Z</time>
      </trkpt>
      <trkpt lat="46.569769950583577" lon="7.059582341462374">
        <ele>1058.0699999999999</ele>
        <time>2012-05-27T08:32:06Z</time>
      </trkpt>
      <trkpt lat="46.569541962817311" lon="7.059635566547513">
        <ele>1062.3900000000001</ele>
        <time>2012-05-27T08:32:23Z</time>
      </trkpt>
      <trkpt lat="46.569527629762888" lon="7.059641685336828">
        <ele>1062.3900000000001</ele>
        <time>2012-05-27T08:32:24Z</time>
      </trkpt>
      <trkpt lat="46.569262845441699" lon="7.059683175757527">
        <ele>1067.2</ele>
        <time>2012-05-27T08:32:42Z</time>
      </trkpt>
      <trkpt lat="46.569043407216668" lon="7.059662137180567">
        <ele>1069.5999999999999</ele>
        <time>2012-05-27T08:32:57Z</time>
      </trkpt>
      <trkpt lat="46.568786920979619" lon="7.059548897668719">
        <ele>1073.45</ele>
        <time>2012-05-27T08:33:14Z</time>
      </trkpt>
      <trkpt lat="46.568683320656419" lon="7.059494918212295">
        <ele>1074.8900000000001</ele>
        <time>2012-05-27T08:33:21Z</time>
      </trkpt>
      <trkpt lat="46.568581648170948" lon="7.059411769732833">
        <ele>1076.8099999999999</ele>
        <time>2012-05-27T08:33:29Z</time>
      </trkpt>
      <trkpt lat="46.568345278501511" lon="7.059206329286099">
        <ele>1080.6600000000001</ele>
        <time>2012-05-27T08:33:47Z</time>
      </trkpt>
      <trkpt lat="46.568071441724896" lon="7.059124018996954">
        <ele>1085.47</ele>
        <time>2012-05-27T08:34:04Z</time>
      </trkpt>
      <trkpt lat="46.567735997959971" lon="7.05905394628644">
        <ele>1088.3499999999999</ele>
        <time>2012-05-27T08:34:24Z</time>
      </trkpt>
      <trkpt lat="46.567502310499549" lon="7.058847080916166">
        <ele>1092.6800000000001</ele>
        <time>2012-05-27T08:34:41Z</time>
      </trkpt>
      <trkpt lat="46.567449504509568" lon="7.058775331825018">
        <ele>1093.6400000000001</ele>
        <time>2012-05-27T08:34:46Z</time>
      </trkpt>
      <trkpt lat="46.567407343536615" lon="7.058700816705823">
        <ele>1095.5599999999999</ele>
        <time>2012-05-27T08:34:51Z</time>
      </trkpt>
      <trkpt lat="46.56714373268187" lon="7.0585604198277">
        <ele>1097.96</ele>
        <time>2012-05-27T08:35:08Z</time>
      </trkpt>
      <trkpt lat="46.566907027736306" lon="7.058495795354247">
        <ele>1100.3699999999999</ele>
        <time>2012-05-27T08:35:23Z</time>
      </trkpt>
      <trkpt lat="46.566797560080886" lon="7.058453969657421">
        <ele>1100.8499999999999</ele>
        <time>2012-05-27T08:35:30Z</time>
      </trkpt>
      <trkpt lat="46.566684236750007" lon="7.058389931917191">
        <ele>1104.6900000000001</ele>
        <time>2012-05-27T08:35:39Z</time>
      </trkpt>
      <trkpt lat="46.566476533189416" lon="7.058221036568284">
        <ele>1110.46</ele>
        <time>2012-05-27T08:35:53Z</time>
      </trkpt>
      <trkpt lat="46.566282575950027" lon="7.058113580569625">
        <ele>1111.4200000000001</ele>
        <time>2012-05-27T08:36:06Z</time>
      </trkpt>
      <trkpt lat="46.566137401387095" lon="7.058307453989983">
        <ele>1119.1099999999999</ele>
        <time>2012-05-27T08:36:20Z</time>
      </trkpt>
      <trkpt lat="46.566126924008131" lon="7.058326732367277">
        <ele>1119.5899999999999</ele>
        <time>2012-05-27T08:36:21Z</time>
      </trkpt>
      <trkpt lat="46.566037237644196" lon="7.058455562219024">
        <ele>1121.52</ele>
        <time>2012-05-27T08:36:28Z</time>
      </trkpt>
      <trkpt lat="46.565832048654556" lon="7.058557737618685">
        <ele>1122.48</ele>
        <time>2012-05-27T08:36:41Z</time>
      </trkpt>
      <trkpt lat="46.565722832456231" lon="7.058491352945566">
        <ele>1122.96</ele>
        <time>2012-05-27T08:36:50Z</time>
      </trkpt>
      <trkpt lat="46.565669439733028" lon="7.058466877788305">
        <ele>1122.48</ele>
        <time>2012-05-27T08:36:54Z</time>
      </trkpt>
      <trkpt lat="46.565601881593466" lon="7.058384902775288">
        <ele>1122.96</ele>
        <time>2012-05-27T08:37:00Z</time>
      </trkpt>
      <trkpt lat="46.565514374524355" lon="7.058303179219365">
        <ele>1123.4400000000001</ele>
        <time>2012-05-27T08:37:07Z</time>
      </trkpt>
      <trkpt lat="46.565336175262928" lon="7.05807720310986">
        <ele>1125.3599999999999</ele>
        <time>2012-05-27T08:37:22Z</time>
      </trkpt>
      <trkpt lat="46.565113551914692" lon="7.057969160377979">
        <ele>1131.1300000000001</ele>
        <time>2012-05-27T08:37:38Z</time>
      </trkpt>
      <trkpt lat="46.564903166145086" lon="7.05788710154593">
        <ele>1135.45</ele>
        <time>2012-05-27T08:37:53Z</time>
      </trkpt>
      <trkpt lat="46.564674591645598" lon="7.057829098775983">
        <ele>1140.74</ele>
        <time>2012-05-27T08:38:08Z</time>
      </trkpt>
      <trkpt lat="46.564481891691685" lon="7.057745447382331">
        <ele>1144.1099999999999</ele>
        <time>2012-05-27T08:38:22Z</time>
      </trkpt>
      <trkpt lat="46.56427008099854" lon="7.057736311107874">
        <ele>1150.3499999999999</ele>
        <time>2012-05-27T08:38:37Z</time>
      </trkpt>
      <trkpt lat="46.564202522858977" lon="7.057702280580998">
        <ele>1151.8</ele>
        <time>2012-05-27T08:38:41Z</time>
      </trkpt>
      <trkpt lat="46.564100766554475" lon="7.057647714391351">
        <ele>1151.8</ele>
        <time>2012-05-27T08:38:47Z</time>
      </trkpt>
      <trkpt lat="46.563842855393887" lon="7.057553334161639">
        <ele>1149.8699999999999</ele>
        <time>2012-05-27T08:39:01Z</time>
      </trkpt>
      <trkpt lat="46.563626099377871" lon="7.057477226480842">
        <ele>1149.8699999999999</ele>
        <time>2012-05-27T08:39:12Z</time>
      </trkpt>
      <trkpt lat="46.56347363255918" lon="7.057322664186359">
        <ele>1151.8</ele>
        <time>2012-05-27T08:39:22Z</time>
      </trkpt>
      <trkpt lat="46.563629535958171" lon="7.057295087724924">
        <ele>1156.1199999999999</ele>
        <time>2012-05-27T08:39:32Z</time>
      </trkpt>
      <trkpt lat="46.563734393566847" lon="7.057366501539946">
        <ele>1159.97</ele>
        <time>2012-05-27T08:39:38Z</time>
      </trkpt>
      <trkpt lat="46.56377219595015" lon="7.057382259517908">
        <ele>1160.9300000000001</ele>
        <time>2012-05-27T08:39:40Z</time>
      </trkpt>
      <trkpt lat="46.563975205644965" lon="7.057362645864487">
        <ele>1166.7</ele>
        <time>2012-05-27T08:39:52Z</time>
      </trkpt>
      <trkpt lat="46.564289694651961" lon="7.057336159050465">
        <ele>1166.7</ele>
        <time>2012-05-27T08:40:06Z</time>
      </trkpt>
      <trkpt lat="46.56461508013308" lon="7.057208083570004">
        <ele>1167.6600000000001</ele>
        <time>2012-05-27T08:40:22Z</time>
      </trkpt>
      <trkpt lat="46.564865615218878" lon="7.056973474100232">
        <ele>1169.5799999999999</ele>
        <time>2012-05-27T08:40:38Z</time>
      </trkpt>
      <trkpt lat="46.565088406205177" lon="7.056722603738308">
        <ele>1171.5</ele>
        <time>2012-05-27T08:40:55Z</time>
      </trkpt>
      <trkpt lat="46.565339276567101" lon="7.056493693962693">
        <ele>1173.9100000000001</ele>
        <time>2012-05-27T08:41:13Z</time>
      </trkpt>
      <trkpt lat="46.565597355365753" lon="7.056254222989082">
        <ele>1177.75</ele>
        <time>2012-05-27T08:41:31Z</time>
      </trkpt>
      <trkpt lat="46.565810842439532" lon="7.05602983944118">
        <ele>1181.1199999999999</ele>
        <time>2012-05-27T08:41:47Z</time>
      </trkpt>
      <trkpt lat="46.565876556560397" lon="7.055747536942363">
        <ele>1184</ele>
        <time>2012-05-27T08:42:01Z</time>
      </trkpt>
      <trkpt lat="46.565594589337707" lon="7.055750135332346">
        <ele>1187.3699999999999</ele>
        <time>2012-05-27T08:42:18Z</time>
      </trkpt>
      <trkpt lat="46.565323434770107" lon="7.055740160867572">
        <ele>1190.25</ele>
        <time>2012-05-27T08:42:34Z</time>
      </trkpt>
      <trkpt lat="46.565173733979464" lon="7.055537654086947">
        <ele>1193.6099999999999</ele>
        <time>2012-05-27T08:42:49Z</time>
      </trkpt>
      <trkpt lat="46.565396608784795" lon="7.055350234732032">
        <ele>1195.54</ele>
        <time>2012-05-27T08:43:03Z</time>
      </trkpt>
      <trkpt lat="46.565574556589127" lon="7.055132053792477">
        <ele>1198.4200000000001</ele>
        <time>2012-05-27T08:43:16Z</time>
      </trkpt>
      <trkpt lat="46.565583106130362" lon="7.054761908948422">
        <ele>1201.79</ele>
        <time>2012-05-27T08:43:31Z</time>
      </trkpt>
      <trkpt lat="46.565653681755066" lon="7.054352620616555">
        <ele>1206.1099999999999</ele>
        <time>2012-05-27T08:43:48Z</time>
      </trkpt>
      <trkpt lat="46.565747391432524" lon="7.05403620377183">
        <ele>1209.96</ele>
        <time>2012-05-27T08:44:02Z</time>
      </trkpt>
      <trkpt lat="46.565824085846543" lon="7.053530104458332">
        <ele>1214.76</ele>
        <time>2012-05-27T08:44:23Z</time>
      </trkpt>
      <trkpt lat="46.565742529928684" lon="7.05310539342463">
        <ele>1218.1300000000001</ele>
        <time>2012-05-27T08:44:41Z</time>
      </trkpt>
      <trkpt lat="46.565706571564078" lon="7.052767686545849">
        <ele>1222.9300000000001</ele>
        <time>2012-05-27T08:44:55Z</time>
      </trkpt>
      <trkpt lat="46.565682683140039" lon="7.052604239434004">
        <ele>1222.45</ele>
        <time>2012-05-27T08:45:10Z</time>
      </trkpt>
      <trkpt lat="46.565672289580107" lon="7.052600048482418">
        <ele>1221.97</ele>
        <time>2012-05-27T08:45:44Z</time>
      </trkpt>
      <trkpt lat="46.565684862434864" lon="7.052604909986258">
        <ele>1221.01</ele>
        <time>2012-05-27T08:46:18Z</time>
      </trkpt>
      <trkpt lat="46.56573741696775" lon="7.052494939416647">
        <ele>1220.53</ele>
        <time>2012-05-27T08:46:25Z</time>
      </trkpt>
      <trkpt lat="46.565804723650217" lon="7.052239794284105">
        <ele>1220.05</ele>
        <time>2012-05-27T08:46:37Z</time>
      </trkpt>
      <trkpt lat="46.565816625952721" lon="7.052066791802645">
        <ele>1219.0899999999999</ele>
        <time>2012-05-27T08:46:42Z</time>
      </trkpt>
      <trkpt lat="46.565836993977427" lon="7.051456924527884">
        <ele>1208.51</ele>
        <time>2012-05-27T08:46:57Z</time>
      </trkpt>
      <trkpt lat="46.565896170213819" lon="7.051061382517219">
        <ele>1197.46</ele>
        <time>2012-05-27T08:47:10Z</time>
      </trkpt>
      <trkpt lat="46.56587622128427" lon="7.05059040337801">
        <ele>1184.96</ele>
        <time>2012-05-27T08:47:24Z</time>
      </trkpt>
      <trkpt lat="46.565869431942701" lon="7.050128476694226">
        <ele>1172.47</ele>
        <time>2012-05-27T08:47:36Z</time>
      </trkpt>
      <trkpt lat="46.565874209627509" lon="7.049677446484566">
        <ele>1164.77</ele>
        <time>2012-05-27T08:47:47Z</time>
      </trkpt>
      <trkpt lat="46.565855434164405" lon="7.049619611352682">
        <ele>1163.3299999999999</ele>
        <time>2012-05-27T08:47:57Z</time>
      </trkpt>
      <trkpt lat="46.565852835774422" lon="7.049573929980397">
        <ele>1163.8099999999999</ele>
        <time>2012-05-27T08:48:03Z</time>
      </trkpt>
      <trkpt lat="46.565837915986776" lon="7.049538725987077">
        <ele>1162.3699999999999</ele>
        <time>2012-05-27T08:48:07Z</time>
      </trkpt>
      <trkpt lat="46.565824504941702" lon="7.049518609419465">
        <ele>1161.8900000000001</ele>
        <time>2012-05-27T08:48:08Z</time>
      </trkpt>
      <trkpt lat="46.565808411687613" lon="7.049500169232488">
        <ele>1161.8900000000001</ele>
        <time>2012-05-27T08:48:09Z</time>
      </trkpt>
      <trkpt lat="46.5656519215554" lon="7.049327502027154">
        <ele>1159.97</ele>
        <time>2012-05-27T08:48:16Z</time>
      </trkpt>
      <trkpt lat="46.565306084230542" lon="7.049089204519987">
        <ele>1156.5999999999999</ele>
        <time>2012-05-27T08:48:28Z</time>
      </trkpt>
      <trkpt lat="46.564839882776141" lon="7.048904970288277">
        <ele>1156.1199999999999</ele>
        <time>2012-05-27T08:48:42Z</time>
      </trkpt>
      <trkpt lat="46.564572667703032" lon="7.04878200776875">
        <ele>1154.6800000000001</ele>
        <time>2012-05-27T08:48:51Z</time>
      </trkpt>
      <trkpt lat="46.564488261938095" lon="7.048770440742374">
        <ele>1154.6800000000001</ele>
        <time>2012-05-27T08:48:53Z</time>
      </trkpt>
      <trkpt lat="46.56444744206965" lon="7.048772452399135">
        <ele>1154.6800000000001</ele>
        <time>2012-05-27T08:48:54Z</time>
      </trkpt>
      <trkpt lat="46.564408298581839" lon="7.048774380236864">
        <ele>1154.6800000000001</ele>
        <time>2012-05-27T08:48:55Z</time>
      </trkpt>
      <trkpt lat="46.564365634694695" lon="7.048770692199469">
        <ele>1154.2</ele>
        <time>2012-05-27T08:48:56Z</time>
      </trkpt>
      <trkpt lat="46.564318360760808" lon="7.04876440577209">
        <ele>1153.72</ele>
        <time>2012-05-27T08:48:57Z</time>
      </trkpt>
      <trkpt lat="46.564267734065652" lon="7.048749569803476">
        <ele>1153.72</ele>
        <time>2012-05-27T08:48:58Z</time>
      </trkpt>
      <trkpt lat="46.564217107370496" lon="7.048731716349721">
        <ele>1153.24</ele>
        <time>2012-05-27T08:48:59Z</time>
      </trkpt>
      <trkpt lat="46.564078219234943" lon="7.048702798783779">
        <ele>1151.8</ele>
        <time>2012-05-27T08:49:07Z</time>
      </trkpt>
      <trkpt lat="46.564040500670671" lon="7.048669438809156">
        <ele>1154.2</ele>
        <time>2012-05-27T08:49:25Z</time>
      </trkpt>
      <trkpt lat="46.564032454043627" lon="7.048663152381778">
        <ele>1154.2</ele>
        <time>2012-05-27T08:49:26Z</time>
      </trkpt>
      <trkpt lat="46.564023066312075" lon="7.048651501536369">
        <ele>1154.2</ele>
        <time>2012-05-27T08:49:27Z</time>
      </trkpt>
      <trkpt lat="46.563906976953149" lon="7.048407504335046">
        <ele>1155.1600000000001</ele>
        <time>2012-05-27T08:49:37Z</time>
      </trkpt>
      <trkpt lat="46.563950059935451" lon="7.047983212396503">
        <ele>1155.6400000000001</ele>
        <time>2012-05-27T08:49:48Z</time>
      </trkpt>
      <trkpt lat="46.563947293907404" lon="7.047922778874636">
        <ele>1155.6400000000001</ele>
        <time>2012-05-27T08:49:49Z</time>
      </trkpt>
      <trkpt lat="46.563930278643966" lon="7.04772706143558">
        <ele>1155.6400000000001</ele>
        <time>2012-05-27T08:49:52Z</time>
      </trkpt>
      <trkpt lat="46.563911000266671" lon="7.047427659854293">
        <ele>1154.6800000000001</ele>
        <time>2012-05-27T08:49:57Z</time>
      </trkpt>
      <trkpt lat="46.563920639455318" lon="7.047367310151458">
        <ele>1154.2</ele>
        <time>2012-05-27T08:49:58Z</time>
      </trkpt>
      <trkpt lat="46.563926506787539" lon="7.047296734526753">
        <ele>1153.72</ele>
        <time>2012-05-27T08:49:59Z</time>
      </trkpt>
      <trkpt lat="46.563983419910073" lon="7.046680161729455">
        <ele>1151.3199999999999</ele>
        <time>2012-05-27T08:50:09Z</time>
      </trkpt>
      <trkpt lat="46.563985347747803" lon="7.046454437077045">
        <ele>1152.28</ele>
        <time>2012-05-27T08:50:17Z</time>
      </trkpt>
      <trkpt lat="46.563993394374847" lon="7.046437924727798">
        <ele>1151.8</ele>
        <time>2012-05-27T08:50:21Z</time>
      </trkpt>
      <trkpt lat="46.564007643610239" lon="7.04643708653748">
        <ele>1151.8</ele>
        <time>2012-05-27T08:50:22Z</time>
      </trkpt>
      <trkpt lat="46.564003955572844" lon="7.046418562531471">
        <ele>1150.8399999999999</ele>
        <time>2012-05-27T08:50:34Z</time>
      </trkpt>
      <trkpt lat="46.563978809863329" lon="7.046390818431974">
        <ele>1150.8399999999999</ele>
        <time>2012-05-27T08:50:44Z</time>
      </trkpt>
      <trkpt lat="46.563965398818254" lon="7.046380676329136">
        <ele>1151.3199999999999</ele>
        <time>2012-05-27T08:50:45Z</time>
      </trkpt>
      <trkpt lat="46.563948215916753" lon="7.046376569196582">
        <ele>1151.3199999999999</ele>
        <time>2012-05-27T08:50:46Z</time>
      </trkpt>
      <trkpt lat="46.563900355249643" lon="7.046358631923795">
        <ele>1151.8</ele>
        <time>2012-05-27T08:50:49Z</time>
      </trkpt>
      <trkpt lat="46.563885016366839" lon="7.046343460679054">
        <ele>1151.8</ele>
        <time>2012-05-27T08:50:50Z</time>
      </trkpt>
      <trkpt lat="46.563570611178875" lon="7.046171966940165">
        <ele>1151.3199999999999</ele>
        <time>2012-05-27T08:51:02Z</time>
      </trkpt>
      <trkpt lat="46.56303433701396" lon="7.045898633077741">
        <ele>1147.95</ele>
        <time>2012-05-27T08:51:12Z</time>
      </trkpt>
      <trkpt lat="46.562990667298436" lon="7.045849598944187">
        <ele>1147.47</ele>
        <time>2012-05-27T08:51:13Z</time>
      </trkpt>
      <trkpt lat="46.562863262370229" lon="7.045665280893445">
        <ele>1146.03</ele>
        <time>2012-05-27T08:51:16Z</time>
      </trkpt>
      <trkpt lat="46.56281397677958" lon="7.045612558722496">
        <ele>1146.03</ele>
        <time>2012-05-27T08:51:17Z</time>
      </trkpt>
      <trkpt lat="46.562764942646027" lon="7.045563524588943">
        <ele>1145.55</ele>
        <time>2012-05-27T08:51:18Z</time>
      </trkpt>
      <trkpt lat="46.562496721744537" lon="7.045179465785623">
        <ele>1142.1800000000001</ele>
        <time>2012-05-27T08:51:24Z</time>
      </trkpt>
      <trkpt lat="46.562470821663737" lon="7.045093718916178">
        <ele>1141.7</ele>
        <time>2012-05-27T08:51:25Z</time>
      </trkpt>
      <trkpt lat="46.562462691217661" lon="7.044993974268436">
        <ele>1141.22</ele>
        <time>2012-05-27T08:51:26Z</time>
      </trkpt>
      <trkpt lat="46.562470905482769" lon="7.044883416965604">
        <ele>1140.26</ele>
        <time>2012-05-27T08:51:27Z</time>
      </trkpt>
      <trkpt lat="46.562488088384271" lon="7.044767998158932">
        <ele>1139.78</ele>
        <time>2012-05-27T08:51:28Z</time>
      </trkpt>
      <trkpt lat="46.562509965151548" lon="7.044655429199338">
        <ele>1139.3</ele>
        <time>2012-05-27T08:51:29Z</time>
      </trkpt>
      <trkpt lat="46.562590012326837" lon="7.044308083131909">
        <ele>1138.3399999999999</ele>
        <time>2012-05-27T08:51:33Z</time>
      </trkpt>
      <trkpt lat="46.562586911022663" lon="7.044249325990677">
        <ele>1138.3399999999999</ele>
        <time>2012-05-27T08:51:34Z</time>
      </trkpt>
      <trkpt lat="46.56257014721632" lon="7.044197525829077">
        <ele>1138.3399999999999</ele>
        <time>2012-05-27T08:51:35Z</time>
      </trkpt>
      <trkpt lat="46.562542906031013" lon="7.044161064550281">
        <ele>1137.8599999999999</ele>
        <time>2012-05-27T08:51:36Z</time>
      </trkpt>
      <trkpt lat="46.562511390075088" lon="7.044133823364973">
        <ele>1138.3399999999999</ele>
        <time>2012-05-27T08:51:37Z</time>
      </trkpt>
      <trkpt lat="46.562238642945886" lon="7.043969538062811">
        <ele>1137.8599999999999</ele>
        <time>2012-05-27T08:51:45Z</time>
      </trkpt>
      <trkpt lat="46.562185753136873" lon="7.043955540284514">
        <ele>1137.3800000000001</ele>
        <time>2012-05-27T08:51:46Z</time>
      </trkpt>
      <trkpt lat="46.562124565243721" lon="7.043949840590358">
        <ele>1136.4200000000001</ele>
        <time>2012-05-27T08:51:47Z</time>
      </trkpt>
      <trkpt lat="46.562058096751571" lon="7.043951181694865">
        <ele>1136.4200000000001</ele>
        <time>2012-05-27T08:51:48Z</time>
      </trkpt>
      <trkpt lat="46.561990454792976" lon="7.043958557769656">
        <ele>1135.9400000000001</ele>
        <time>2012-05-27T08:51:49Z</time>
      </trkpt>
      <trkpt lat="46.561923064291477" lon="7.043973645195365">
        <ele>1135.9400000000001</ele>
        <time>2012-05-27T08:51:50Z</time>
      </trkpt>
      <trkpt lat="46.561366925016046" lon="7.044095518067479">
        <ele>1136.9000000000001</ele>
        <time>2012-05-27T08:51:59Z</time>
      </trkpt>
      <trkpt lat="46.561318142339587" lon="7.044109348207712">
        <ele>1137.3800000000001</ele>
        <time>2012-05-27T08:52:00Z</time>
      </trkpt>
      <trkpt lat="46.561271706596017" lon="7.044129045680165">
        <ele>1137.3800000000001</ele>
        <time>2012-05-27T08:52:01Z</time>
      </trkpt>
      <trkpt lat="46.561224851757288" lon="7.044146228581667">
        <ele>1137.3800000000001</ele>
        <time>2012-05-27T08:52:02Z</time>
      </trkpt>
      <trkpt lat="46.561180595308542" lon="7.044150503352284">
        <ele>1137.3800000000001</ele>
        <time>2012-05-27T08:52:03Z</time>
      </trkpt>
      <trkpt lat="46.561142038553953" lon="7.044139355421066">
        <ele>1137.3800000000001</ele>
        <time>2012-05-27T08:52:04Z</time>
      </trkpt>
      <trkpt lat="46.561112282797694" lon="7.04411412589252">
        <ele>1137.3800000000001</ele>
        <time>2012-05-27T08:52:05Z</time>
      </trkpt>
      <trkpt lat="46.561095854267478" lon="7.044085459783673">
        <ele>1137.8599999999999</ele>
        <time>2012-05-27T08:52:06Z</time>
      </trkpt>
      <trkpt lat="46.561090238392353" lon="7.044056039303541">
        <ele>1137.8599999999999</ele>
        <time>2012-05-27T08:52:07Z</time>
      </trkpt>
      <trkpt lat="46.561093591153622" lon="7.044014716520906">
        <ele>1137.8599999999999</ele>
        <time>2012-05-27T08:52:08Z</time>
      </trkpt>
      <trkpt lat="46.561103649437428" lon="7.043957551941276">
        <ele>1138.3399999999999</ele>
        <time>2012-05-27T08:52:09Z</time>
      </trkpt>
      <trkpt lat="46.561116725206375" lon="7.04389032907784">
        <ele>1138.3399999999999</ele>
        <time>2012-05-27T08:52:10Z</time>
      </trkpt>
      <trkpt lat="46.561142792925239" lon="7.043666616082192">
        <ele>1138.8199999999999</ele>
        <time>2012-05-27T08:52:13Z</time>
      </trkpt>
      <trkpt lat="46.561135081574321" lon="7.043586317449808">
        <ele>1138.3399999999999</ele>
        <time>2012-05-27T08:52:14Z</time>
      </trkpt>
      <trkpt lat="46.561117647215724" lon="7.04350283369422">
        <ele>1138.3399999999999</ele>
        <time>2012-05-27T08:52:15Z</time>
      </trkpt>
      <trkpt lat="46.561086131259799" lon="7.043340476229787">
        <ele>1137.3800000000001</ele>
        <time>2012-05-27T08:52:17Z</time>
      </trkpt>
      <trkpt lat="46.561077665537596" lon="7.043252047151327">
        <ele>1137.3800000000001</ele>
        <time>2012-05-27T08:52:18Z</time>
      </trkpt>
      <trkpt lat="46.561066014692187" lon="7.04287888482213">
        <ele>1135.45</ele>
        <time>2012-05-27T08:52:22Z</time>
      </trkpt>
      <trkpt lat="46.561075150966644" lon="7.042771009728313">
        <ele>1134.97</ele>
        <time>2012-05-27T08:52:23Z</time>
      </trkpt>
      <trkpt lat="46.561149246990681" lon="7.042164327576757">
        <ele>1128.24</ele>
        <time>2012-05-27T08:52:29Z</time>
      </trkpt>
      <trkpt lat="46.561143631115556" lon="7.042064163833857">
        <ele>1127.28</ele>
        <time>2012-05-27T08:52:30Z</time>
      </trkpt>
      <trkpt lat="46.561119575053453" lon="7.041888814419508">
        <ele>1125.8399999999999</ele>
        <time>2012-05-27T08:52:32Z</time>
      </trkpt>
      <trkpt lat="46.561102895066142" lon="7.04181270673871">
        <ele>1124.8800000000001</ele>
        <time>2012-05-27T08:52:33Z</time>
      </trkpt>
      <trkpt lat="46.560979764908552" lon="7.041427055373788">
        <ele>1119.5899999999999</ele>
        <time>2012-05-27T08:52:38Z</time>
      </trkpt>
      <trkpt lat="46.560943722724915" lon="7.041357150301337">
        <ele>1118.6300000000001</ele>
        <time>2012-05-27T08:52:39Z</time>
      </trkpt>
      <trkpt lat="46.560896281152964" lon="7.04129378311336">
        <ele>1117.1900000000001</ele>
        <time>2012-05-27T08:52:40Z</time>
      </trkpt>
      <trkpt lat="46.560834757983685" lon="7.041234439238906">
        <ele>1115.75</ele>
        <time>2012-05-27T08:52:41Z</time>
      </trkpt>
      <trkpt lat="46.560764266178012" lon="7.041173838078976">
        <ele>1114.3099999999999</ele>
        <time>2012-05-27T08:52:42Z</time>
      </trkpt>
      <trkpt lat="46.560487328097224" lon="7.040936043485999">
        <ele>1109.02</ele>
        <time>2012-05-27T08:52:47Z</time>
      </trkpt>
      <trkpt lat="46.560409627854824" lon="7.040894469246268">
        <ele>1107.5799999999999</ele>
        <time>2012-05-27T08:52:49Z</time>
      </trkpt>
      <trkpt lat="46.560367131605744" lon="7.040888098999858">
        <ele>1106.6099999999999</ele>
        <time>2012-05-27T08:52:50Z</time>
      </trkpt>
      <trkpt lat="46.559973182156682" lon="7.040876699611545">
        <ele>1106.6099999999999</ele>
        <time>2012-05-27T08:52:57Z</time>
      </trkpt>
      <trkpt lat="46.559911826625466" lon="7.040850045159459">
        <ele>1106.6099999999999</ele>
        <time>2012-05-27T08:52:58Z</time>
      </trkpt>
      <trkpt lat="46.55984946526587" lon="7.040813500061631">
        <ele>1106.6099999999999</ele>
        <time>2012-05-27T08:52:59Z</time>
      </trkpt>
      <trkpt lat="46.55895184725523" lon="7.040228694677353">
        <ele>1105.6500000000001</ele>
        <time>2012-05-27T08:53:12Z</time>
      </trkpt>
      <trkpt lat="46.558826956897974" lon="7.040094332769513">
        <ele>1105.6500000000001</ele>
        <time>2012-05-27T08:53:14Z</time>
      </trkpt>
      <trkpt lat="46.558776749297976" lon="7.040011938661337">
        <ele>1105.6500000000001</ele>
        <time>2012-05-27T08:53:15Z</time>
      </trkpt>
      <trkpt lat="46.558743892237544" lon="7.039916887879372">
        <ele>1105.6500000000001</ele>
        <time>2012-05-27T08:53:16Z</time>
      </trkpt>
      <trkpt lat="46.558733666315675" lon="7.039811778813601">
        <ele>1105.6500000000001</ele>
        <time>2012-05-27T08:53:17Z</time>
      </trkpt>
      <trkpt lat="46.558744143694639" lon="7.039710273966193">
        <ele>1105.6500000000001</ele>
        <time>2012-05-27T08:53:18Z</time>
      </trkpt>
      <trkpt lat="46.558771636337042" lon="7.039622766897082">
        <ele>1105.1700000000001</ele>
        <time>2012-05-27T08:53:19Z</time>
      </trkpt>
      <trkpt lat="46.558814886957407" lon="7.039546240121126">
        <ele>1105.1700000000001</ele>
        <time>2012-05-27T08:53:20Z</time>
      </trkpt>
      <trkpt lat="46.55886827968061" lon="7.039480358362198">
        <ele>1104.6900000000001</ele>
        <time>2012-05-27T08:53:21Z</time>
      </trkpt>
      <trkpt lat="46.558930054306984" lon="7.039430066943169">
        <ele>1104.6900000000001</ele>
        <time>2012-05-27T08:53:22Z</time>
      </trkpt>
      <trkpt lat="46.558997947722673" lon="7.039396623149514">
        <ele>1104.6900000000001</ele>
        <time>2012-05-27T08:53:23Z</time>
      </trkpt>
      <trkpt lat="46.559068690985441" lon="7.039376674219966">
        <ele>1104.6900000000001</ele>
        <time>2012-05-27T08:53:24Z</time>
      </trkpt>
      <trkpt lat="46.559139685705304" lon="7.039363263174892">
        <ele>1104.6900000000001</ele>
        <time>2012-05-27T08:53:25Z</time>
      </trkpt>
      <trkpt lat="46.559696914628148" lon="7.039308864623308">
        <ele>1106.1300000000001</ele>
        <time>2012-05-27T08:53:33Z</time>
      </trkpt>
      <trkpt lat="46.560454051941633" lon="7.039025304839015">
        <ele>1108.54</ele>
        <time>2012-05-27T08:53:44Z</time>
      </trkpt>
      <trkpt lat="46.561075318604708" lon="7.038586931303144">
        <ele>1109.02</ele>
        <time>2012-05-27T08:53:54Z</time>
      </trkpt>
      <trkpt lat="46.561123682186007" lon="7.038530688732863">
        <ele>1109.5</ele>
        <time>2012-05-27T08:53:55Z</time>
      </trkpt>
      <trkpt lat="46.561167100444436" lon="7.038467153906822">
        <ele>1109.5</ele>
        <time>2012-05-27T08:53:56Z</time>
      </trkpt>
      <trkpt lat="46.561201466247439" lon="7.038402026519179">
        <ele>1109.5</ele>
        <time>2012-05-27T08:53:57Z</time>
      </trkpt>
      <trkpt lat="46.561229210346937" lon="7.038334216922522">
        <ele>1109.02</ele>
        <time>2012-05-27T08:53:58Z</time>
      </trkpt>
      <trkpt lat="46.561253182590008" lon="7.038269089534879">
        <ele>1108.54</ele>
        <time>2012-05-27T08:53:59Z</time>
      </trkpt>
      <trkpt lat="46.56155476346612" lon="7.037525363266468">
        <ele>1109.02</ele>
        <time>2012-05-27T08:54:14Z</time>
      </trkpt>
      <trkpt lat="46.561932703480124" lon="7.037229482084513">
        <ele>1110.46</ele>
        <time>2012-05-27T08:54:27Z</time>
      </trkpt>
      <trkpt lat="46.562695037573576" lon="7.037166366353631">
        <ele>1109.02</ele>
        <time>2012-05-27T08:54:41Z</time>
      </trkpt>
      <trkpt lat="46.563613945618272" lon="7.037130827084184">
        <ele>1108.54</ele>
        <time>2012-05-27T08:54:55Z</time>
      </trkpt>
      <trkpt lat="46.563787870109081" lon="7.037194445729256">
        <ele>1109.5</ele>
        <time>2012-05-27T08:54:58Z</time>
      </trkpt>
      <trkpt lat="46.56443327665329" lon="7.037721499800682">
        <ele>1106.6099999999999</ele>
        <time>2012-05-27T08:55:09Z</time>
      </trkpt>
      <trkpt lat="46.565003581345081" lon="7.038178062066436">
        <ele>1103.25</ele>
        <time>2012-05-27T08:55:16Z</time>
      </trkpt>
      <trkpt lat="46.565097458660603" lon="7.038226006552577">
        <ele>1102.77</ele>
        <time>2012-05-27T08:55:17Z</time>
      </trkpt>
      <trkpt lat="46.565194940194488" lon="7.038256600499153">
        <ele>1101.8099999999999</ele>
        <time>2012-05-27T08:55:18Z</time>
      </trkpt>
      <trkpt lat="46.566145531833172" lon="7.038428848609328">
        <ele>1103.25</ele>
        <time>2012-05-27T08:55:29Z</time>
      </trkpt>
      <trkpt lat="46.566640147939324" lon="7.038576537743211">
        <ele>1106.6099999999999</ele>
        <time>2012-05-27T08:55:40Z</time>
      </trkpt>
      <trkpt lat="46.567140966653824" lon="7.038669995963574">
        <ele>1108.54</ele>
        <time>2012-05-27T08:55:54Z</time>
      </trkpt>
      <trkpt lat="46.567242387682199" lon="7.038690531626344">
        <ele>1109.02</ele>
        <time>2012-05-27T08:55:58Z</time>
      </trkpt>
      <trkpt lat="46.567265437915921" lon="7.03870746307075">
        <ele>1109.5</ele>
        <time>2012-05-27T08:55:59Z</time>
      </trkpt>
      <trkpt lat="46.567288739606738" lon="7.03872355632484">
        <ele>1109.5</ele>
        <time>2012-05-27T08:56:00Z</time>
      </trkpt>
      <trkpt lat="46.567314472049475" lon="7.038740152493119">
        <ele>1109.98</ele>
        <time>2012-05-27T08:56:01Z</time>
      </trkpt>
      <trkpt lat="46.567340707406402" lon="7.03875339590013">
        <ele>1109.98</ele>
        <time>2012-05-27T08:56:02Z</time>
      </trkpt>
      <trkpt lat="46.567771537229419" lon="7.038921117782593">
        <ele>1115.75</ele>
        <time>2012-05-27T08:56:17Z</time>
      </trkpt>
      <trkpt lat="46.568269422277808" lon="7.039058078080416">
        <ele>1121.03</ele>
        <time>2012-05-27T08:56:34Z</time>
      </trkpt>
      <trkpt lat="46.568719865754247" lon="7.039313977584243">
        <ele>1122</ele>
        <time>2012-05-27T08:56:51Z</time>
      </trkpt>
      <trkpt lat="46.56909822486341" lon="7.039639949798584">
        <ele>1124.4000000000001</ele>
        <time>2012-05-27T08:57:09Z</time>
      </trkpt>
      <trkpt lat="46.569367703050375" lon="7.039828123524785">
        <ele>1128.73</ele>
        <time>2012-05-27T08:57:23Z</time>
      </trkpt>
      <trkpt lat="46.56938455067575" lon="7.039810521528125">
        <ele>1129.21</ele>
        <time>2012-05-27T08:57:24Z</time>
      </trkpt>
      <trkpt lat="46.569397710263729" lon="7.039787052199245">
        <ele>1129.21</ele>
        <time>2012-05-27T08:57:25Z</time>
      </trkpt>
      <trkpt lat="46.569408355280757" lon="7.039760062471032">
        <ele>1129.6900000000001</ele>
        <time>2012-05-27T08:57:26Z</time>
      </trkpt>
      <trkpt lat="46.569418245926499" lon="7.039729971438646">
        <ele>1129.6900000000001</ele>
        <time>2012-05-27T08:57:27Z</time>
      </trkpt>
      <trkpt lat="46.569426124915481" lon="7.039699796587229">
        <ele>1130.1700000000001</ele>
        <time>2012-05-27T08:57:28Z</time>
      </trkpt>
      <trkpt lat="46.569431992247701" lon="7.039668280631304">
        <ele>1130.1700000000001</ele>
        <time>2012-05-27T08:57:29Z</time>
      </trkpt>
      <trkpt lat="46.569435596466064" lon="7.039635675027967">
        <ele>1130.6500000000001</ele>
        <time>2012-05-27T08:57:30Z</time>
      </trkpt>
      <trkpt lat="46.569439703598619" lon="7.039601476863027">
        <ele>1130.6500000000001</ele>
        <time>2012-05-27T08:57:31Z</time>
      </trkpt>
      <trkpt lat="46.569441212341189" lon="7.039567949250341">
        <ele>1131.1300000000001</ele>
        <time>2012-05-27T08:57:32Z</time>
      </trkpt>
      <trkpt lat="46.569439200684428" lon="7.039536014199257">
        <ele>1131.1300000000001</ele>
        <time>2012-05-27T08:57:33Z</time>
      </trkpt>
      <trkpt lat="46.569438446313143" lon="7.039501899853349">
        <ele>1131.1300000000001</ele>
        <time>2012-05-27T08:57:34Z</time>
      </trkpt>
      <trkpt lat="46.569439116865396" lon="7.039469042792916">
        <ele>1131.6099999999999</ele>
        <time>2012-05-27T08:57:35Z</time>
      </trkpt>
      <trkpt lat="46.56935378909111" lon="7.038902090862393">
        <ele>1137.3800000000001</ele>
        <time>2012-05-27T08:57:53Z</time>
      </trkpt>
      <trkpt lat="46.569325290620327" lon="7.038522390648723">
        <ele>1139.3</ele>
        <time>2012-05-27T08:58:05Z</time>
      </trkpt>
      <trkpt lat="46.569318836554885" lon="7.038499927148223">
        <ele>1139.78</ele>
        <time>2012-05-27T08:58:06Z</time>
      </trkpt>
      <trkpt lat="46.569314226508141" lon="7.038478218019009">
        <ele>1139.78</ele>
        <time>2012-05-27T08:58:07Z</time>
      </trkpt>
      <trkpt lat="46.569313472136855" lon="7.038457933813334">
        <ele>1139.78</ele>
        <time>2012-05-27T08:58:08Z</time>
      </trkpt>
      <trkpt lat="46.569312382489443" lon="7.03843429684639">
        <ele>1140.26</ele>
        <time>2012-05-27T08:58:09Z</time>
      </trkpt>
      <trkpt lat="46.569293523207307" lon="7.038150820881128">
        <ele>1141.7</ele>
        <time>2012-05-27T08:58:21Z</time>
      </trkpt>
      <trkpt lat="46.569269970059395" lon="7.037850162014365">
        <ele>1143.1400000000001</ele>
        <time>2012-05-27T08:58:34Z</time>
      </trkpt>
      <trkpt lat="46.569265024736524" lon="7.037679925560951">
        <ele>1143.1400000000001</ele>
        <time>2012-05-27T08:58:42Z</time>
      </trkpt>
      <trkpt lat="46.569257481023669" lon="7.037610774859786">
        <ele>1145.0699999999999</ele>
        <time>2012-05-27T08:58:52Z</time>
      </trkpt>
      <trkpt lat="46.569245830178261" lon="7.03752058558166">
        <ele>1146.51</ele>
        <time>2012-05-27T08:59:00Z</time>
      </trkpt>
      <trkpt lat="46.569254798814654" lon="7.037500469014049">
        <ele>1146.51</ele>
        <time>2012-05-27T08:59:01Z</time>
      </trkpt>
      <trkpt lat="46.569261001423001" lon="7.037481106817722">
        <ele>1146.51</ele>
        <time>2012-05-27T08:59:02Z</time>
      </trkpt>
      <trkpt lat="46.56926728785038" lon="7.037454703822732">
        <ele>1146.99</ele>
        <time>2012-05-27T08:59:03Z</time>
      </trkpt>
      <trkpt lat="46.569273406639695" lon="7.037423690780997">
        <ele>1146.99</ele>
        <time>2012-05-27T08:59:04Z</time>
      </trkpt>
      <trkpt lat="46.56934792175889" lon="7.036948185414076">
        <ele>1147.95</ele>
        <time>2012-05-27T08:59:18Z</time>
      </trkpt>
      <trkpt lat="46.569473147392273" lon="7.036506710574031">
        <ele>1151.3199999999999</ele>
        <time>2012-05-27T08:59:32Z</time>
      </trkpt>
      <trkpt lat="46.569570628926158" lon="7.036031540483236">
        <ele>1153.24</ele>
        <time>2012-05-27T08:59:47Z</time>
      </trkpt>
      <trkpt lat="46.569648077711463" lon="7.035570200532675">
        <ele>1155.1600000000001</ele>
        <time>2012-05-27T09:00:01Z</time>
      </trkpt>
      <trkpt lat="46.569684119895101" lon="7.035077009350061">
        <ele>1156.5999999999999</ele>
        <time>2012-05-27T09:00:16Z</time>
      </trkpt>
      <trkpt lat="46.569705745205283" lon="7.034739051014185">
        <ele>1160.45</ele>
        <time>2012-05-27T09:00:31Z</time>
      </trkpt>
      <trkpt lat="46.569694429636002" lon="7.034378880634904">
        <ele>1164.77</ele>
        <time>2012-05-27T09:00:49Z</time>
      </trkpt>
      <trkpt lat="46.56967531889677" lon="7.034074030816555">
        <ele>1169.5799999999999</ele>
        <time>2012-05-27T09:01:04Z</time>
      </trkpt>
      <trkpt lat="46.56961765140295" lon="7.033767169341445">
        <ele>1173.9100000000001</ele>
        <time>2012-05-27T09:01:21Z</time>
      </trkpt>
      <trkpt lat="46.569578088819981" lon="7.033495679497719">
        <ele>1177.75</ele>
        <time>2012-05-27T09:01:36Z</time>
      </trkpt>
      <trkpt lat="46.569585800170898" lon="7.033273726701737">
        <ele>1179.6700000000001</ele>
        <time>2012-05-27T09:01:48Z</time>
      </trkpt>
      <trkpt lat="46.569582531228662" lon="7.033252688124776">
        <ele>1179.6700000000001</ele>
        <time>2012-05-27T09:01:49Z</time>
      </trkpt>
      <trkpt lat="46.569520086050034" lon="7.033082116395235">
        <ele>1181.1199999999999</ele>
        <time>2012-05-27T09:02:00Z</time>
      </trkpt>
      <trkpt lat="46.569511787965894" lon="7.033072393387556">
        <ele>1181.1199999999999</ele>
        <time>2012-05-27T09:02:01Z</time>
      </trkpt>
      <trkpt lat="46.569502148777246" lon="7.033061161637306">
        <ele>1181.1199999999999</ele>
        <time>2012-05-27T09:02:02Z</time>
      </trkpt>
      <trkpt lat="46.569337444379926" lon="7.032914394512773">
        <ele>1184</ele>
        <time>2012-05-27T09:02:18Z</time>
      </trkpt>
      <trkpt lat="46.569318668916821" lon="7.032892936840653">
        <ele>1184.48</ele>
        <time>2012-05-27T09:02:20Z</time>
      </trkpt>
      <trkpt lat="46.569306766614318" lon="7.032858738675714">
        <ele>1184.48</ele>
        <time>2012-05-27T09:02:22Z</time>
      </trkpt>
      <trkpt lat="46.569305174052715" lon="7.032838454470038">
        <ele>1184.96</ele>
        <time>2012-05-27T09:02:23Z</time>
      </trkpt>
      <trkpt lat="46.569298887625337" lon="7.032820181921125">
        <ele>1184.96</ele>
        <time>2012-05-27T09:02:24Z</time>
      </trkpt>
      <trkpt lat="46.569228144362569" lon="7.032488761469722">
        <ele>1187.3699999999999</ele>
        <time>2012-05-27T09:02:40Z</time>
      </trkpt>
      <trkpt lat="46.569225210696459" lon="7.032468561083078">
        <ele>1186.8800000000001</ele>
        <time>2012-05-27T09:02:41Z</time>
      </trkpt>
      <trkpt lat="46.569225545972586" lon="7.032445846125484">
        <ele>1186.8800000000001</ele>
        <time>2012-05-27T09:02:42Z</time>
      </trkpt>
      <trkpt lat="46.569216325879097" lon="7.032278627157211">
        <ele>1187.8499999999999</ele>
        <time>2012-05-27T09:02:54Z</time>
      </trkpt>
      <trkpt lat="46.569218672811985" lon="7.032285667955875">
        <ele>1189.77</ele>
        <time>2012-05-27T09:03:14Z</time>
      </trkpt>
      <trkpt lat="46.569219343364239" lon="7.032281309366226">
        <ele>1191.21</ele>
        <time>2012-05-27T09:03:41Z</time>
      </trkpt>
      <trkpt lat="46.569218337535858" lon="7.032271083444357">
        <ele>1191.6900000000001</ele>
        <time>2012-05-27T09:03:48Z</time>
      </trkpt>
      <trkpt lat="46.569222444668412" lon="7.032251721248031">
        <ele>1191.6900000000001</ele>
        <time>2012-05-27T09:03:49Z</time>
      </trkpt>
      <trkpt lat="46.569221438840032" lon="7.032222636044025">
        <ele>1191.21</ele>
        <time>2012-05-27T09:03:50Z</time>
      </trkpt>
      <trkpt lat="46.56921498477459" lon="7.03218818642199">
        <ele>1191.21</ele>
        <time>2012-05-27T09:03:51Z</time>
      </trkpt>
      <trkpt lat="46.569206267595291" lon="7.032152647152543">
        <ele>1191.21</ele>
        <time>2012-05-27T09:03:52Z</time>
      </trkpt>
      <trkpt lat="46.569194700568914" lon="7.032123226672411">
        <ele>1191.21</ele>
        <time>2012-05-27T09:03:53Z</time>
      </trkpt>
      <trkpt lat="46.569181373342872" lon="7.032103026285768">
        <ele>1191.21</ele>
        <time>2012-05-27T09:03:54Z</time>
      </trkpt>
      <trkpt lat="46.569166872650385" lon="7.032087603583932">
        <ele>1191.21</ele>
        <time>2012-05-27T09:03:55Z</time>
      </trkpt>
      <trkpt lat="46.569152539595962" lon="7.032072264701128">
        <ele>1191.21</ele>
        <time>2012-05-27T09:03:56Z</time>
      </trkpt>
      <trkpt lat="46.569140385836363" lon="7.032055668532848">
        <ele>1191.21</ele>
        <time>2012-05-27T09:03:57Z</time>
      </trkpt>
      <trkpt lat="46.569128902629018" lon="7.032032199203968">
        <ele>1191.21</ele>
        <time>2012-05-27T09:03:58Z</time>
      </trkpt>
      <trkpt lat="46.568861771374941" lon="7.031690888106823">
        <ele>1191.6900000000001</ele>
        <time>2012-05-27T09:04:15Z</time>
      </trkpt>
      <trkpt lat="46.568862944841385" lon="7.031317390501499">
        <ele>1193.1300000000001</ele>
        <time>2012-05-27T09:04:27Z</time>
      </trkpt>
      <trkpt lat="46.568807121366262" lon="7.030859822407365">
        <ele>1194.0899999999999</ele>
        <time>2012-05-27T09:04:38Z</time>
      </trkpt>
      <trkpt lat="46.568439658731222" lon="7.030068067833781">
        <ele>1194.5799999999999</ele>
        <time>2012-05-27T09:04:58Z</time>
      </trkpt>
      <trkpt lat="46.568482993170619" lon="7.029622066766024">
        <ele>1195.54</ele>
        <time>2012-05-27T09:05:11Z</time>
      </trkpt>
      <trkpt lat="46.568571841344237" lon="7.029169192537665">
        <ele>1196.98</ele>
        <time>2012-05-27T09:05:24Z</time>
      </trkpt>
      <trkpt lat="46.568805444985628" lon="7.029079087078571">
        <ele>1200.3399999999999</ele>
        <time>2012-05-27T09:05:32Z</time>
      </trkpt>
      <trkpt lat="46.568852635100484" lon="7.029037261381745">
        <ele>1200.8199999999999</ele>
        <time>2012-05-27T09:05:33Z</time>
      </trkpt>
      <trkpt lat="46.569371977820992" lon="7.028747834265232">
        <ele>1203.23</ele>
        <time>2012-05-27T09:05:47Z</time>
      </trkpt>
      <trkpt lat="46.569764837622643" lon="7.028757892549038">
        <ele>1202.27</ele>
        <time>2012-05-27T09:05:57Z</time>
      </trkpt>
      <trkpt lat="46.569807836785913" lon="7.02875604853034">
        <ele>1202.27</ele>
        <time>2012-05-27T09:05:58Z</time>
      </trkpt>
      <trkpt lat="46.569851590320468" lon="7.028746325522661">
        <ele>1201.79</ele>
        <time>2012-05-27T09:05:59Z</time>
      </trkpt>
      <trkpt lat="46.569992071017623" lon="7.028704667463899">
        <ele>1201.3</ele>
        <time>2012-05-27T09:06:02Z</time>
      </trkpt>
      <trkpt lat="46.570041524246335" lon="7.02867784537375">
        <ele>1201.3</ele>
        <time>2012-05-27T09:06:03Z</time>
      </trkpt>
      <trkpt lat="46.570089804008603" lon="7.028645658865571">
        <ele>1200.8199999999999</ele>
        <time>2012-05-27T09:06:04Z</time>
      </trkpt>
      <trkpt lat="46.57013850286603" lon="7.028602743521333">
        <ele>1200.8199999999999</ele>
        <time>2012-05-27T09:06:05Z</time>
      </trkpt>
      <trkpt lat="46.570186698809266" lon="7.028551446273923">
        <ele>1200.3399999999999</ele>
        <time>2012-05-27T09:06:06Z</time>
      </trkpt>
      <trkpt lat="46.570235816761851" lon="7.028503501787782">
        <ele>1200.3399999999999</ele>
        <time>2012-05-27T09:06:07Z</time>
      </trkpt>
      <trkpt lat="46.57029046677053" lon="7.028473243117333">
        <ele>1199.8599999999999</ele>
        <time>2012-05-27T09:06:08Z</time>
      </trkpt>
      <trkpt lat="46.57034469768405" lon="7.028473243117333">
        <ele>1199.8599999999999</ele>
        <time>2012-05-27T09:06:09Z</time>
      </trkpt>
      <trkpt lat="46.570390043780208" lon="7.028495455160737">
        <ele>1199.8599999999999</ele>
        <time>2012-05-27T09:06:10Z</time>
      </trkpt>
      <trkpt lat="46.570428600534797" lon="7.028523031622171">
        <ele>1200.3399999999999</ele>
        <time>2012-05-27T09:06:11Z</time>
      </trkpt>
      <trkpt lat="46.570681901648641" lon="7.028664769604802">
        <ele>1199.8599999999999</ele>
        <time>2012-05-27T09:06:22Z</time>
      </trkpt>
      <trkpt lat="46.570997061207891" lon="7.028695195913315">
        <ele>1200.8199999999999</ele>
        <time>2012-05-27T09:06:35Z</time>
      </trkpt>
      <trkpt lat="46.571014327928424" lon="7.028676336631179">
        <ele>1201.3</ele>
        <time>2012-05-27T09:06:36Z</time>
      </trkpt>
      <trkpt lat="46.571034444496036" lon="7.028659321367741">
        <ele>1201.3</ele>
        <time>2012-05-27T09:06:37Z</time>
      </trkpt>
      <trkpt lat="46.571055315434933" lon="7.028642138466239">
        <ele>1201.3</ele>
        <time>2012-05-27T09:06:38Z</time>
      </trkpt>
      <trkpt lat="46.571076437830925" lon="7.028633421286941">
        <ele>1201.3</ele>
        <time>2012-05-27T09:06:39Z</time>
      </trkpt>
      <trkpt lat="46.571098566055298" lon="7.028632583096623">
        <ele>1201.79</ele>
        <time>2012-05-27T09:06:40Z</time>
      </trkpt>
      <trkpt lat="46.57111968845129" lon="7.028637863695622">
        <ele>1201.79</ele>
        <time>2012-05-27T09:06:41Z</time>
      </trkpt>
      <trkpt lat="46.5711416490376" lon="7.028653454035521">
        <ele>1201.79</ele>
        <time>2012-05-27T09:06:42Z</time>
      </trkpt>
      <trkpt lat="46.571160927414894" lon="7.02867784537375">
        <ele>1201.79</ele>
        <time>2012-05-27T09:06:43Z</time>
      </trkpt>
      <trkpt lat="46.571177607402205" lon="7.028708942234516">
        <ele>1201.3</ele>
        <time>2012-05-27T09:06:44Z</time>
      </trkpt>
      <trkpt lat="46.57119395211339" lon="7.028742805123329">
        <ele>1200.8199999999999</ele>
        <time>2012-05-27T09:06:45Z</time>
      </trkpt>
      <trkpt lat="46.571209793910384" lon="7.028776835650206">
        <ele>1200.8199999999999</ele>
        <time>2012-05-27T09:06:46Z</time>
      </trkpt>
      <trkpt lat="46.571229910477996" lon="7.028806423768401">
        <ele>1200.8199999999999</ele>
        <time>2012-05-27T09:06:47Z</time>
      </trkpt>
      <trkpt lat="46.571251535788178" lon="7.028835928067565">
        <ele>1200.3399999999999</ele>
        <time>2012-05-27T09:06:48Z</time>
      </trkpt>
      <trkpt lat="46.571568036451936" lon="7.029044888913631">
        <ele>1203.71</ele>
        <time>2012-05-27T09:07:03Z</time>
      </trkpt>
      <trkpt lat="46.571720251813531" lon="7.028948748484254">
        <ele>1206.5899999999999</ele>
        <time>2012-05-27T09:07:17Z</time>
      </trkpt>
      <trkpt lat="46.571777584031224" lon="7.028846656903625">
        <ele>1208.51</ele>
        <time>2012-05-27T09:07:28Z</time>
      </trkpt>
      <trkpt lat="46.571862157434225" lon="7.028619423508644">
        <ele>1212.8399999999999</ele>
        <time>2012-05-27T09:07:48Z</time>
      </trkpt>
      <trkpt lat="46.571968691423535" lon="7.028430160135031">
        <ele>1215.72</ele>
        <time>2012-05-27T09:08:05Z</time>
      </trkpt>
      <trkpt lat="46.572024766355753" lon="7.028395794332027">
        <ele>1216.21</ele>
        <time>2012-05-27T09:08:19Z</time>
      </trkpt>
      <trkpt lat="46.572035662829876" lon="7.028389256447554">
        <ele>1216.21</ele>
        <time>2012-05-27T09:08:20Z</time>
      </trkpt>
      <trkpt lat="46.572047146037221" lon="7.028385400772095">
        <ele>1216.6900000000001</ele>
        <time>2012-05-27T09:08:21Z</time>
      </trkpt>
      <trkpt lat="46.57205929979682" lon="7.028382970020175">
        <ele>1216.6900000000001</ele>
        <time>2012-05-27T09:08:22Z</time>
      </trkpt>
      <trkpt lat="46.572073381394148" lon="7.028375510126352">
        <ele>1216.6900000000001</ele>
        <time>2012-05-27T09:08:23Z</time>
      </trkpt>
      <trkpt lat="46.572083523496985" lon="7.028366541489959">
        <ele>1216.6900000000001</ele>
        <time>2012-05-27T09:08:24Z</time>
      </trkpt>
      <trkpt lat="46.572095341980457" lon="7.028357069939375">
        <ele>1216.6900000000001</ele>
        <time>2012-05-27T09:08:25Z</time>
      </trkpt>
      <trkpt lat="46.572107495740056" lon="7.028348352760077">
        <ele>1217.1700000000001</ele>
        <time>2012-05-27T09:08:26Z</time>
      </trkpt>
      <trkpt lat="46.572298854589462" lon="7.028270233422518">
        <ele>1218.6099999999999</ele>
        <time>2012-05-27T09:08:38Z</time>
      </trkpt>
      <trkpt lat="46.572528267279267" lon="7.028178619220853">
        <ele>1220.05</ele>
        <time>2012-05-27T09:08:54Z</time>
      </trkpt>
      <trkpt lat="46.572592556476593" lon="7.02814819291234">
        <ele>1222.45</ele>
        <time>2012-05-27T09:09:03Z</time>
      </trkpt>
      <trkpt lat="46.572791123762727" lon="7.028078120201826">
        <ele>1224.3800000000001</ele>
        <time>2012-05-27T09:09:20Z</time>
      </trkpt>
      <trkpt lat="46.57280495390296" lon="7.028081221506">
        <ele>1224.8599999999999</ele>
        <time>2012-05-27T09:09:21Z</time>
      </trkpt>
      <trkpt lat="46.572912996634841" lon="7.028100164607167">
        <ele>1228.22</ele>
        <time>2012-05-27T09:09:36Z</time>
      </trkpt>
      <trkpt lat="46.573035875335336" lon="7.028096728026867">
        <ele>1229.6600000000001</ele>
        <time>2012-05-27T09:09:48Z</time>
      </trkpt>
      <trkpt lat="46.573066301643848" lon="7.028062278404832">
        <ele>1230.1400000000001</ele>
        <time>2012-05-27T09:09:51Z</time>
      </trkpt>
      <trkpt lat="46.573075689375401" lon="7.027770839631558">
        <ele>1233.51</ele>
        <time>2012-05-27T09:10:07Z</time>
      </trkpt>
      <trkpt lat="46.573108294978738" lon="7.027462050318718">
        <ele>1235.9100000000001</ele>
        <time>2012-05-27T09:10:24Z</time>
      </trkpt>
      <trkpt lat="46.573117766529322" lon="7.027376974001527">
        <ele>1236.8699999999999</ele>
        <time>2012-05-27T09:10:29Z</time>
      </trkpt>
      <trkpt lat="46.573114581406116" lon="7.027270775288343">
        <ele>1239.28</ele>
        <time>2012-05-27T09:10:37Z</time>
      </trkpt>
      <trkpt lat="46.573100248351693" lon="7.027208665385842">
        <ele>1241.2</ele>
        <time>2012-05-27T09:10:43Z</time>
      </trkpt>
      <trkpt lat="46.573136374354362" lon="7.027155105024576">
        <ele>1242.1600000000001</ele>
        <time>2012-05-27T09:10:47Z</time>
      </trkpt>
      <trkpt lat="46.573166633024812" lon="7.026907335966826">
        <ele>1245.53</ele>
        <time>2012-05-27T09:11:02Z</time>
      </trkpt>
      <trkpt lat="46.573203848674893" lon="7.026688819751144">
        <ele>1246.97</ele>
        <time>2012-05-27T09:11:14Z</time>
      </trkpt>
      <trkpt lat="46.573218433186412" lon="7.026447420939803">
        <ele>1249.8499999999999</ele>
        <time>2012-05-27T09:11:29Z</time>
      </trkpt>
      <trkpt lat="46.573231257498264" lon="7.026361841708422">
        <ele>1250.8099999999999</ele>
        <time>2012-05-27T09:11:34Z</time>
      </trkpt>
      <trkpt lat="46.573347011581063" lon="7.026222450658679">
        <ele>1253.7</ele>
        <time>2012-05-27T09:11:50Z</time>
      </trkpt>
      <trkpt lat="46.573409708216786" lon="7.026120945811272">
        <ele>1256.5799999999999</ele>
        <time>2012-05-27T09:12:04Z</time>
      </trkpt>
      <trkpt lat="46.573448097333312" lon="7.025989852845669">
        <ele>1256.5799999999999</ele>
        <time>2012-05-27T09:12:16Z</time>
      </trkpt>
      <trkpt lat="46.573445163667202" lon="7.025797320529819">
        <ele>1262.8299999999999</ele>
        <time>2012-05-27T09:12:31Z</time>
      </trkpt>
      <trkpt lat="46.573454635217786" lon="7.025717943906784">
        <ele>1263.79</ele>
        <time>2012-05-27T09:12:46Z</time>
      </trkpt>
      <trkpt lat="46.573444996029139" lon="7.025616355240345">
        <ele>1264.27</ele>
        <time>2012-05-27T09:12:53Z</time>
      </trkpt>
      <trkpt lat="46.573453126475215" lon="7.025460032746196">
        <ele>1266.1900000000001</ele>
        <time>2012-05-27T09:13:01Z</time>
      </trkpt>
      <trkpt lat="46.573421023786068" lon="7.025198265910149">
        <ele>1268.5999999999999</ele>
        <time>2012-05-27T09:13:16Z</time>
      </trkpt>
      <trkpt lat="46.573391603305936" lon="7.025130037218332">
        <ele>1270.04</ele>
        <time>2012-05-27T09:13:30Z</time>
      </trkpt>
      <trkpt lat="46.573389591649175" lon="7.02511771582067">
        <ele>1270.04</ele>
        <time>2012-05-27T09:13:31Z</time>
      </trkpt>
      <trkpt lat="46.573365200310946" lon="7.025042362511158">
        <ele>1271.48</ele>
        <time>2012-05-27T09:13:36Z</time>
      </trkpt>
      <trkpt lat="46.573359165340662" lon="7.024999782443047">
        <ele>1271.48</ele>
        <time>2012-05-27T09:13:39Z</time>
      </trkpt>
      <trkpt lat="46.57332731410861" lon="7.024880675598979">
        <ele>1272.4400000000001</ele>
        <time>2012-05-27T09:13:46Z</time>
      </trkpt>
      <trkpt lat="46.573304012417793" lon="7.024840023368597">
        <ele>1272.9200000000001</ele>
        <time>2012-05-27T09:13:49Z</time>
      </trkpt>
      <trkpt lat="46.573267551138997" lon="7.024677665904164">
        <ele>1273.4000000000001</ele>
        <time>2012-05-27T09:14:01Z</time>
      </trkpt>
      <trkpt lat="46.573266880586743" lon="7.024487480521202">
        <ele>1276.77</ele>
        <time>2012-05-27T09:14:17Z</time>
      </trkpt>
      <trkpt lat="46.573281046003103" lon="7.024395950138569">
        <ele>1278.6900000000001</ele>
        <time>2012-05-27T09:14:28Z</time>
      </trkpt>
      <trkpt lat="46.573274172842503" lon="7.024336522445083">
        <ele>1280.1300000000001</ele>
        <time>2012-05-27T09:14:33Z</time>
      </trkpt>
      <trkpt lat="46.573233520612121" lon="7.024281453341246">
        <ele>1281.0899999999999</ele>
        <time>2012-05-27T09:14:40Z</time>
      </trkpt>
      <trkpt lat="46.573023302480578" lon="7.024425538256764">
        <ele>1281.0899999999999</ele>
        <time>2012-05-27T09:14:49Z</time>
      </trkpt>
      <trkpt lat="46.572904447093606" lon="7.024553949013352">
        <ele>1283.5</ele>
        <time>2012-05-27T09:14:59Z</time>
      </trkpt>
      <trkpt lat="46.57275072298944" lon="7.024496784433723">
        <ele>1284.9400000000001</ele>
        <time>2012-05-27T09:15:09Z</time>
      </trkpt>
      <trkpt lat="46.57273312099278" lon="7.02447758987546">
        <ele>1284.9400000000001</ele>
        <time>2012-05-27T09:15:10Z</time>
      </trkpt>
      <trkpt lat="46.572714764624834" lon="7.02445856295526">
        <ele>1284.9400000000001</ele>
        <time>2012-05-27T09:15:11Z</time>
      </trkpt>
      <trkpt lat="46.572696408256888" lon="7.02443459071219">
        <ele>1284.9400000000001</ele>
        <time>2012-05-27T09:15:12Z</time>
      </trkpt>
      <trkpt lat="46.572450650855899" lon="7.024077605456114">
        <ele>1285.4200000000001</ele>
        <time>2012-05-27T09:15:25Z</time>
      </trkpt>
      <trkpt lat="46.57221520319581" lon="7.023848863318563">
        <ele>1288.3</ele>
        <time>2012-05-27T09:15:40Z</time>
      </trkpt>
      <trkpt lat="46.571928290650249" lon="7.023750375956297">
        <ele>1291.1900000000001</ele>
        <time>2012-05-27T09:15:56Z</time>
      </trkpt>
      <trkpt lat="46.571857798844576" lon="7.023724224418402">
        <ele>1293.1099999999999</ele>
        <time>2012-05-27T09:16:01Z</time>
      </trkpt>
      <trkpt lat="46.571588572114706" lon="7.023606291040778">
        <ele>1295.51</ele>
        <time>2012-05-27T09:16:17Z</time>
      </trkpt>
      <trkpt lat="46.571177188307047" lon="7.023527417331934">
        <ele>1296.96</ele>
        <time>2012-05-27T09:16:32Z</time>
      </trkpt>
      <trkpt lat="46.5707962308079" lon="7.023475365713239">
        <ele>1296.96</ele>
        <time>2012-05-27T09:16:45Z</time>
      </trkpt>
      <trkpt lat="46.570441676303744" lon="7.023536134511232">
        <ele>1298.4000000000001</ele>
        <time>2012-05-27T09:16:57Z</time>
      </trkpt>
      <trkpt lat="46.570151830092072" lon="7.023576367646456">
        <ele>1297.4400000000001</ele>
        <time>2012-05-27T09:17:09Z</time>
      </trkpt>
      <trkpt lat="46.570015959441662" lon="7.023654906079173">
        <ele>1300.3199999999999</ele>
        <time>2012-05-27T09:17:19Z</time>
      </trkpt>
      <trkpt lat="46.570003973320127" lon="7.023665132001042">
        <ele>1300.3199999999999</ele>
        <time>2012-05-27T09:17:20Z</time>
      </trkpt>
      <trkpt lat="46.569989891722798" lon="7.023673094809055">
        <ele>1300.8</ele>
        <time>2012-05-27T09:17:21Z</time>
      </trkpt>
      <trkpt lat="46.569975139573216" lon="7.023680973798037">
        <ele>1300.8</ele>
        <time>2012-05-27T09:17:22Z</time>
      </trkpt>
      <trkpt lat="46.569959968328476" lon="7.023687595501542">
        <ele>1300.8</ele>
        <time>2012-05-27T09:17:23Z</time>
      </trkpt>
      <trkpt lat="46.569945048540831" lon="7.023693714290857">
        <ele>1300.8</ele>
        <time>2012-05-27T09:17:24Z</time>
      </trkpt>
      <trkpt lat="46.569929961115122" lon="7.023700168356299">
        <ele>1300.8</ele>
        <time>2012-05-27T09:17:25Z</time>
      </trkpt>
      <trkpt lat="46.569726364687085" lon="7.023736629635096">
        <ele>1303.6900000000001</ele>
        <time>2012-05-27T09:17:40Z</time>
      </trkpt>
      <trkpt lat="46.569699626415968" lon="7.023740652948618">
        <ele>1304.1700000000001</ele>
        <time>2012-05-27T09:17:42Z</time>
      </trkpt>
      <trkpt lat="46.569688562303782" lon="7.023747693747282">
        <ele>1304.1700000000001</ele>
        <time>2012-05-27T09:17:43Z</time>
      </trkpt>
      <trkpt lat="46.569676492363214" lon="7.023750124499202">
        <ele>1304.1700000000001</ele>
        <time>2012-05-27T09:17:44Z</time>
      </trkpt>
      <trkpt lat="46.569576328620315" lon="7.023766888305545">
        <ele>1306.0899999999999</ele>
        <time>2012-05-27T09:17:51Z</time>
      </trkpt>
      <trkpt lat="46.56956191174686" lon="7.023772755637765">
        <ele>1306.0899999999999</ele>
        <time>2012-05-27T09:17:52Z</time>
      </trkpt>
      <trkpt lat="46.569363931193948" lon="7.023782813921571">
        <ele>1309.9300000000001</ele>
        <time>2012-05-27T09:18:07Z</time>
      </trkpt>
      <trkpt lat="46.569256139919162" lon="7.023815419524908">
        <ele>1312.3399999999999</ele>
        <time>2012-05-27T09:18:15Z</time>
      </trkpt>
      <trkpt lat="46.569244991987944" lon="7.023825393989682">
        <ele>1312.3399999999999</ele>
        <time>2012-05-27T09:18:16Z</time>
      </trkpt>
      <trkpt lat="46.569233005866408" lon="7.023831428959966">
        <ele>1312.3399999999999</ele>
        <time>2012-05-27T09:18:17Z</time>
      </trkpt>
      <trkpt lat="46.569073079153895" lon="7.023854982107878">
        <ele>1315.7</ele>
        <time>2012-05-27T09:18:33Z</time>
      </trkpt>
      <trkpt lat="46.569062601774931" lon="7.023858586326242">
        <ele>1315.7</ele>
        <time>2012-05-27T09:18:34Z</time>
      </trkpt>
      <trkpt lat="46.568918935954571" lon="7.023916589096189">
        <ele>1319.55</ele>
        <time>2012-05-27T09:18:50Z</time>
      </trkpt>
      <trkpt lat="46.568801840767264" lon="7.023969059810042">
        <ele>1322.9100000000001</ele>
        <time>2012-05-27T09:19:05Z</time>
      </trkpt>
      <trkpt lat="46.568705029785633" lon="7.023996384814382">
        <ele>1324.8299999999999</ele>
        <time>2012-05-27T09:19:17Z</time>
      </trkpt>
      <trkpt lat="46.568695809692144" lon="7.02399336732924">
        <ele>1324.8299999999999</ele>
        <time>2012-05-27T09:19:18Z</time>
      </trkpt>
      <trkpt lat="46.568659180775285" lon="7.024000743404031">
        <ele>1325.3099999999999</ele>
        <time>2012-05-27T09:19:22Z</time>
      </trkpt>
      <trkpt lat="46.568649290129542" lon="7.024008119478822">
        <ele>1325.3099999999999</ele>
        <time>2012-05-27T09:19:23Z</time>
      </trkpt>
      <trkpt lat="46.568627413362265" lon="7.024020943790674">
        <ele>1325.8</ele>
        <time>2012-05-27T09:19:32Z</time>
      </trkpt>
      <trkpt lat="46.568613415583968" lon="7.024024464190006">
        <ele>1325.8</ele>
        <time>2012-05-27T09:19:33Z</time>
      </trkpt>
      <trkpt lat="46.568598244339228" lon="7.024031253531575">
        <ele>1325.8</ele>
        <time>2012-05-27T09:19:34Z</time>
      </trkpt>
      <trkpt lat="46.568353828042746" lon="7.024155305698514">
        <ele>1328.2</ele>
        <time>2012-05-27T09:19:52Z</time>
      </trkpt>
      <trkpt lat="46.568315271288157" lon="7.024189084768295">
        <ele>1328.2</ele>
        <time>2012-05-27T09:19:59Z</time>
      </trkpt>
      <trkpt lat="46.568232122808695" lon="7.024153964594007">
        <ele>1330.1199999999999</ele>
        <time>2012-05-27T09:20:12Z</time>
      </trkpt>
      <trkpt lat="46.568219466134906" lon="7.024159664288163">
        <ele>1330.1199999999999</ele>
        <time>2012-05-27T09:20:13Z</time>
      </trkpt>
      <trkpt lat="46.568208066746593" lon="7.024160418659449">
        <ele>1330.1199999999999</ele>
        <time>2012-05-27T09:20:14Z</time>
      </trkpt>
      <trkpt lat="46.568196751177311" lon="7.024154048413038">
        <ele>1330.5999999999999</ele>
        <time>2012-05-27T09:20:15Z</time>
      </trkpt>
      <trkpt lat="46.568185351788998" lon="7.024144744500518">
        <ele>1330.5999999999999</ele>
        <time>2012-05-27T09:20:16Z</time>
      </trkpt>
      <trkpt lat="46.568000698462129" lon="7.023953134194017">
        <ele>1331.5599999999999</ele>
        <time>2012-05-27T09:20:31Z</time>
      </trkpt>
      <trkpt lat="46.567754605785012" lon="7.023686170578003">
        <ele>1331.5599999999999</ele>
        <time>2012-05-27T09:20:44Z</time>
      </trkpt>
      <trkpt lat="46.567477416247129" lon="7.023591035977006">
        <ele>1331.0799999999999</ele>
        <time>2012-05-27T09:20:54Z</time>
      </trkpt>
      <trkpt lat="46.567436512559652" lon="7.023569662123919">
        <ele>1330.5999999999999</ele>
        <time>2012-05-27T09:20:55Z</time>
      </trkpt>
      <trkpt lat="46.567016579210758" lon="7.02335961163044">
        <ele>1329.6400000000001</ele>
        <time>2012-05-27T09:21:04Z</time>
      </trkpt>
      <trkpt lat="46.566714746877551" lon="7.023377967998385">
        <ele>1329.6400000000001</ele>
        <time>2012-05-27T09:21:16Z</time>
      </trkpt>
      <trkpt lat="46.566691529005766" lon="7.023372268304229">
        <ele>1329.6400000000001</ele>
        <time>2012-05-27T09:21:17Z</time>
      </trkpt>
      <trkpt lat="46.56667216680944" lon="7.023352151736617">
        <ele>1329.6400000000001</ele>
        <time>2012-05-27T09:21:18Z</time>
      </trkpt>
      <trkpt lat="46.566654313355684" lon="7.023325748741627">
        <ele>1329.1600000000001</ele>
        <time>2012-05-27T09:21:19Z</time>
      </trkpt>
      <trkpt lat="46.566636459901929" lon="7.023297166451812">
        <ele>1329.1600000000001</ele>
        <time>2012-05-27T09:21:20Z</time>
      </trkpt>
      <trkpt lat="46.56634870916605" lon="7.022987203672528">
        <ele>1329.1600000000001</ele>
        <time>2012-05-27T09:21:34Z</time>
      </trkpt>
      <trkpt lat="46.566332532092929" lon="7.0229731220752">
        <ele>1329.1600000000001</ele>
        <time>2012-05-27T09:21:35Z</time>
      </trkpt>
      <trkpt lat="46.566316690295935" lon="7.022955184802413">
        <ele>1329.6400000000001</ele>
        <time>2012-05-27T09:21:36Z</time>
      </trkpt>
      <trkpt lat="46.566139915958047" lon="7.022884273901582">
        <ele>1331.5599999999999</ele>
        <time>2012-05-27T09:21:48Z</time>
      </trkpt>
      <trkpt lat="46.566072106361389" lon="7.022897014394403">
        <ele>1333.49</ele>
        <time>2012-05-27T09:21:54Z</time>
      </trkpt>
      <trkpt lat="46.566060958430171" lon="7.022897098213434">
        <ele>1333.49</ele>
        <time>2012-05-27T09:21:55Z</time>
      </trkpt>
      <trkpt lat="46.566050983965397" lon="7.022901540622115">
        <ele>1333.49</ele>
        <time>2012-05-27T09:21:56Z</time>
      </trkpt>
      <trkpt lat="46.566038830205798" lon="7.022904474288225">
        <ele>1333.49</ele>
        <time>2012-05-27T09:21:57Z</time>
      </trkpt>
      <trkpt lat="46.566027095541358" lon="7.02290715649724">
        <ele>1333.97</ele>
        <time>2012-05-27T09:21:58Z</time>
      </trkpt>
      <trkpt lat="46.565979737788439" lon="7.022903971374035">
        <ele>1334.45</ele>
        <time>2012-05-27T09:22:02Z</time>
      </trkpt>
      <trkpt lat="46.565966494381428" lon="7.022896762937307">
        <ele>1334.9300000000001</ele>
        <time>2012-05-27T09:22:03Z</time>
      </trkpt>
      <trkpt lat="46.565954089164734" lon="7.02289299108088">
        <ele>1334.9300000000001</ele>
        <time>2012-05-27T09:22:04Z</time>
      </trkpt>
      <trkpt lat="46.565941348671913" lon="7.022886704653502">
        <ele>1335.4100000000001</ele>
        <time>2012-05-27T09:22:05Z</time>
      </trkpt>
      <trkpt lat="46.565928105264902" lon="7.022879663854837">
        <ele>1335.8900000000001</ele>
        <time>2012-05-27T09:22:06Z</time>
      </trkpt>
      <trkpt lat="46.565915029495955" lon="7.02287488617003">
        <ele>1335.8900000000001</ele>
        <time>2012-05-27T09:22:07Z</time>
      </trkpt>
      <trkpt lat="46.565903294831514" lon="7.022873209789395">
        <ele>1336.3699999999999</ele>
        <time>2012-05-27T09:22:08Z</time>
      </trkpt>
      <trkpt lat="46.565709253773093" lon="7.022755779325962">
        <ele>1336.8499999999999</ele>
        <time>2012-05-27T09:22:20Z</time>
      </trkpt>
      <trkpt lat="46.565462071448565" lon="7.0225137937814">
        <ele>1338.29</ele>
        <time>2012-05-27T09:22:34Z</time>
      </trkpt>
      <trkpt lat="46.565231652930379" lon="7.022343892604113">
        <ele>1339.25</ele>
        <time>2012-05-27T09:22:47Z</time>
      </trkpt>
      <trkpt lat="46.5652184933424" lon="7.022339701652527">
        <ele>1339.25</ele>
        <time>2012-05-27T09:22:48Z</time>
      </trkpt>
      <trkpt lat="46.564979609102011" lon="7.02227876521647">
        <ele>1342.1400000000001</ele>
        <time>2012-05-27T09:23:05Z</time>
      </trkpt>
      <trkpt lat="46.564709125086665" lon="7.022201986983419">
        <ele>1345.5</ele>
        <time>2012-05-27T09:23:23Z</time>
      </trkpt>
      <trkpt lat="46.564559927210212" lon="7.02210484072566">
        <ele>1346.46</ele>
        <time>2012-05-27T09:23:35Z</time>
      </trkpt>
      <trkpt lat="46.564329257234931" lon="7.022029487416148">
        <ele>1348.3900000000001</ele>
        <time>2012-05-27T09:23:51Z</time>
      </trkpt>
      <trkpt lat="46.56424711458385" lon="7.022002665325999">
        <ele>1349.8299999999999</ele>
        <time>2012-05-27T09:23:57Z</time>
      </trkpt>
      <trkpt lat="46.564233787357807" lon="7.021999480202794">
        <ele>1350.3099999999999</ele>
        <time>2012-05-27T09:23:58Z</time>
      </trkpt>
      <trkpt lat="46.564062712714076" lon="7.022031918168068">
        <ele>1355.1199999999999</ele>
        <time>2012-05-27T09:24:12Z</time>
      </trkpt>
      <trkpt lat="46.564052235335112" lon="7.022039880976081">
        <ele>1355.1199999999999</ele>
        <time>2012-05-27T09:24:13Z</time>
      </trkpt>
      <trkpt lat="46.564024155959487" lon="7.022047508507967">
        <ele>1356.0799999999999</ele>
        <time>2012-05-27T09:24:16Z</time>
      </trkpt>
      <trkpt lat="46.56401015818119" lon="7.022039964795113">
        <ele>1356.0799999999999</ele>
        <time>2012-05-27T09:24:17Z</time>
      </trkpt>
      <trkpt lat="46.563992723822594" lon="7.022018590942025">
        <ele>1356.5599999999999</ele>
        <time>2012-05-27T09:24:19Z</time>
      </trkpt>
      <trkpt lat="46.563985431566834" lon="7.022006269544363">
        <ele>1357.04</ele>
        <time>2012-05-27T09:24:20Z</time>
      </trkpt>
      <trkpt lat="46.563975624740124" lon="7.021992271766067">
        <ele>1357.52</ele>
        <time>2012-05-27T09:24:21Z</time>
      </trkpt>
      <trkpt lat="46.563858278095722" lon="7.021888168528676">
        <ele>1361.8399999999999</ele>
        <time>2012-05-27T09:24:32Z</time>
      </trkpt>
      <trkpt lat="46.563845872879028" lon="7.021882049739361">
        <ele>1361.8399999999999</ele>
        <time>2012-05-27T09:24:33Z</time>
      </trkpt>
      <trkpt lat="46.563831875100732" lon="7.021879786625505">
        <ele>1362.3299999999999</ele>
        <time>2012-05-27T09:24:34Z</time>
      </trkpt>
      <trkpt lat="46.563705559819937" lon="7.021897891536355">
        <ele>1364.73</ele>
        <time>2012-05-27T09:24:48Z</time>
      </trkpt>
      <trkpt lat="46.563588296994567" lon="7.021923959255219">
        <ele>1369.54</ele>
        <time>2012-05-27T09:25:04Z</time>
      </trkpt>
      <trkpt lat="46.563444966450334" lon="7.021936615929008">
        <ele>1374.3399999999999</ele>
        <time>2012-05-27T09:25:22Z</time>
      </trkpt>
      <trkpt lat="46.563383778557181" lon="7.021963186562061">
        <ele>1375.3</ele>
        <time>2012-05-27T09:25:31Z</time>
      </trkpt>
      <trkpt lat="46.563368020579219" lon="7.021959666162729">
        <ele>1375.3</ele>
        <time>2012-05-27T09:25:32Z</time>
      </trkpt>
      <trkpt lat="46.563355196267366" lon="7.021957989782095">
        <ele>1375.3</ele>
        <time>2012-05-27T09:25:33Z</time>
      </trkpt>
      <trkpt lat="46.56333776190877" lon="7.021959414705634">
        <ele>1375.3</ele>
        <time>2012-05-27T09:25:34Z</time>
      </trkpt>
      <trkpt lat="46.563320579007268" lon="7.021956648677588">
        <ele>1375.78</ele>
        <time>2012-05-27T09:25:35Z</time>
      </trkpt>
      <trkpt lat="46.563305156305432" lon="7.021950194612145">
        <ele>1375.78</ele>
        <time>2012-05-27T09:25:36Z</time>
      </trkpt>
      <trkpt lat="46.563289314508438" lon="7.021947093307972">
        <ele>1376.26</ele>
        <time>2012-05-27T09:25:37Z</time>
      </trkpt>
      <trkpt lat="46.563270874321461" lon="7.021950697526336">
        <ele>1376.26</ele>
        <time>2012-05-27T09:25:38Z</time>
      </trkpt>
      <trkpt lat="46.563255032524467" lon="7.021953966468573">
        <ele>1376.26</ele>
        <time>2012-05-27T09:25:39Z</time>
      </trkpt>
      <trkpt lat="46.562955882400274" lon="7.02198900282383">
        <ele>1376.26</ele>
        <time>2012-05-27T09:25:55Z</time>
      </trkpt>
      <trkpt lat="46.562741473317146" lon="7.022039629518986">
        <ele>1374.8199999999999</ele>
        <time>2012-05-27T09:26:08Z</time>
      </trkpt>
      <trkpt lat="46.562539720907807" lon="7.022196035832167">
        <ele>1375.3</ele>
        <time>2012-05-27T09:26:23Z</time>
      </trkpt>
      <trkpt lat="46.562352385371923" lon="7.022310448810458">
        <ele>1377.71</ele>
        <time>2012-05-27T09:26:38Z</time>
      </trkpt>
      <trkpt lat="46.562334364280105" lon="7.022331655025482">
        <ele>1378.1900000000001</ele>
        <time>2012-05-27T09:26:40Z</time>
      </trkpt>
      <trkpt lat="46.562322964891791" lon="7.022338947281241">
        <ele>1378.1900000000001</ele>
        <time>2012-05-27T09:26:41Z</time>
      </trkpt>
      <trkpt lat="46.562310475856066" lon="7.022347413003445">
        <ele>1378.1900000000001</ele>
        <time>2012-05-27T09:26:42Z</time>
      </trkpt>
      <trkpt lat="46.562297819182277" lon="7.02235939912498">
        <ele>1378.1900000000001</ele>
        <time>2012-05-27T09:26:43Z</time>
      </trkpt>
      <trkpt lat="46.562286503612995" lon="7.022371804341674">
        <ele>1378.1900000000001</ele>
        <time>2012-05-27T09:26:44Z</time>
      </trkpt>
      <trkpt lat="46.562122721225023" lon="7.022499460726976">
        <ele>1380.1099999999999</ele>
        <time>2012-05-27T09:26:57Z</time>
      </trkpt>
      <trkpt lat="46.561922058463097" lon="7.022614879533649">
        <ele>1383.47</ele>
        <time>2012-05-27T09:27:13Z</time>
      </trkpt>
      <trkpt lat="46.561894817277789" lon="7.022627452388406">
        <ele>1383.47</ele>
        <time>2012-05-27T09:27:15Z</time>
      </trkpt>
      <trkpt lat="46.561851231381297" lon="7.022641198709607">
        <ele>1383.47</ele>
        <time>2012-05-27T09:27:18Z</time>
      </trkpt>
      <trkpt lat="46.561838742345572" lon="7.022637175396085">
        <ele>1383.47</ele>
        <time>2012-05-27T09:27:19Z</time>
      </trkpt>
      <trkpt lat="46.561824325472116" lon="7.022636840119958">
        <ele>1383.96</ele>
        <time>2012-05-27T09:27:20Z</time>
      </trkpt>
      <trkpt lat="46.561807645484805" lon="7.02264036051929">
        <ele>1383.96</ele>
        <time>2012-05-27T09:27:21Z</time>
      </trkpt>
      <trkpt lat="46.561793480068445" lon="7.022643461823463">
        <ele>1384.4400000000001</ele>
        <time>2012-05-27T09:27:22Z</time>
      </trkpt>
      <trkpt lat="46.561777386814356" lon="7.022646311670542">
        <ele>1384.4400000000001</ele>
        <time>2012-05-27T09:27:23Z</time>
      </trkpt>
      <trkpt lat="46.561761293560266" lon="7.022646898403764">
        <ele>1384.9200000000001</ele>
        <time>2012-05-27T09:27:24Z</time>
      </trkpt>
      <trkpt lat="46.561745284125209" lon="7.022643042728305">
        <ele>1384.9200000000001</ele>
        <time>2012-05-27T09:27:25Z</time>
      </trkpt>
      <trkpt lat="46.56172726303339" lon="7.022637343034148">
        <ele>1384.9200000000001</ele>
        <time>2012-05-27T09:27:26Z</time>
      </trkpt>
      <trkpt lat="46.561483182013035" lon="7.022428968921304">
        <ele>1385.4000000000001</ele>
        <time>2012-05-27T09:27:42Z</time>
      </trkpt>
      <trkpt lat="46.561250165104866" lon="7.022187151014805">
        <ele>1384.4400000000001</ele>
        <time>2012-05-27T09:27:53Z</time>
      </trkpt>
      <trkpt lat="46.560935508459806" lon="7.021797895431519">
        <ele>1385.4000000000001</ele>
        <time>2012-05-27T09:28:08Z</time>
      </trkpt>
      <trkpt lat="46.560692265629768" lon="7.02152481302619">
        <ele>1389.72</ele>
        <time>2012-05-27T09:28:21Z</time>
      </trkpt>
      <trkpt lat="46.560554634779692" lon="7.02149597927928">
        <ele>1390.2</ele>
        <time>2012-05-27T09:28:25Z</time>
      </trkpt>
      <trkpt lat="46.560512809082866" lon="7.021486340090632">
        <ele>1390.6800000000001</ele>
        <time>2012-05-27T09:28:26Z</time>
      </trkpt>
      <trkpt lat="46.560472240671515" lon="7.021469827741385">
        <ele>1390.6800000000001</ele>
        <time>2012-05-27T09:28:27Z</time>
      </trkpt>
      <trkpt lat="46.560269482433796" lon="7.021344350650907">
        <ele>1391.6500000000001</ele>
        <time>2012-05-27T09:28:32Z</time>
      </trkpt>
      <trkpt lat="46.560229500755668" lon="7.021316606551409">
        <ele>1392.1300000000001</ele>
        <time>2012-05-27T09:28:33Z</time>
      </trkpt>
      <trkpt lat="46.559805208817124" lon="7.021082583814859">
        <ele>1392.6099999999999</ele>
        <time>2012-05-27T09:28:47Z</time>
      </trkpt>
      <trkpt lat="46.559455180540681" lon="7.020904384553433">
        <ele>1392.1300000000001</ele>
        <time>2012-05-27T09:29:00Z</time>
      </trkpt>
      <trkpt lat="46.55916491523385" lon="7.020828612148762">
        <ele>1394.53</ele>
        <time>2012-05-27T09:29:11Z</time>
      </trkpt>
      <trkpt lat="46.558811282739043" lon="7.020693831145763">
        <ele>1395.97</ele>
        <time>2012-05-27T09:29:25Z</time>
      </trkpt>
      <trkpt lat="46.558743137866259" lon="7.020674971863627">
        <ele>1397.4100000000001</ele>
        <time>2012-05-27T09:29:29Z</time>
      </trkpt>
      <trkpt lat="46.558533003553748" lon="7.020657705143094">
        <ele>1402.22</ele>
        <time>2012-05-27T09:29:44Z</time>
      </trkpt>
      <trkpt lat="46.558506013825536" lon="7.020647814497352">
        <ele>1403.1800000000001</ele>
        <time>2012-05-27T09:29:46Z</time>
      </trkpt>
      <trkpt lat="46.558480868116021" lon="7.020638175308704">
        <ele>1404.1400000000001</ele>
        <time>2012-05-27T09:29:48Z</time>
      </trkpt>
      <trkpt lat="46.558465780690312" lon="7.020635074004531">
        <ele>1404.1400000000001</ele>
        <time>2012-05-27T09:29:49Z</time>
      </trkpt>
      <trkpt lat="46.558363102376461" lon="7.020606659352779">
        <ele>1407.03</ele>
        <time>2012-05-27T09:30:00Z</time>
      </trkpt>
      <trkpt lat="46.558284228667617" lon="7.020587716251612">
        <ele>1407.51</ele>
        <time>2012-05-27T09:30:06Z</time>
      </trkpt>
      <trkpt lat="46.558270063251257" lon="7.020583860576153">
        <ele>1407.51</ele>
        <time>2012-05-27T09:30:07Z</time>
      </trkpt>
      <trkpt lat="46.558157578110695" lon="7.020573299378157">
        <ele>1409.4300000000001</ele>
        <time>2012-05-27T09:30:17Z</time>
      </trkpt>
      <trkpt lat="46.558069232851267" lon="7.020563324913383">
        <ele>1412.3099999999999</ele>
        <time>2012-05-27T09:30:29Z</time>
      </trkpt>
      <trkpt lat="46.557903690263629" lon="7.020559888333082">
        <ele>1418.0799999999999</ele>
        <time>2012-05-27T09:30:43Z</time>
      </trkpt>
      <trkpt lat="46.557656424120069" lon="7.020531054586172">
        <ele>1419.52</ele>
        <time>2012-05-27T09:31:00Z</time>
      </trkpt>
      <trkpt lat="46.557512758299708" lon="7.020454192534089">
        <ele>1420.49</ele>
        <time>2012-05-27T09:31:11Z</time>
      </trkpt>
      <trkpt lat="46.557377558201551" lon="7.020461149513722">
        <ele>1418.5599999999999</ele>
        <time>2012-05-27T09:31:19Z</time>
      </trkpt>
      <trkpt lat="46.557295583188534" lon="7.020421335473657">
        <ele>1418.5599999999999</ele>
        <time>2012-05-27T09:31:28Z</time>
      </trkpt>
      <trkpt lat="46.557192653417587" lon="7.020341036841273">
        <ele>1420.97</ele>
        <time>2012-05-27T09:31:41Z</time>
      </trkpt>
      <trkpt lat="46.557122832164168" lon="7.020301390439272">
        <ele>1422.4100000000001</ele>
        <time>2012-05-27T09:31:56Z</time>
      </trkpt>
      <trkpt lat="46.557034403085709" lon="7.020249338820577">
        <ele>1424.3299999999999</ele>
        <time>2012-05-27T09:32:06Z</time>
      </trkpt>
      <trkpt lat="46.556893587112427" lon="7.020198460668325">
        <ele>1425.29</ele>
        <time>2012-05-27T09:32:21Z</time>
      </trkpt>
      <trkpt lat="46.556720249354839" lon="7.020113719627261">
        <ele>1426.25</ele>
        <time>2012-05-27T09:32:38Z</time>
      </trkpt>
      <trkpt lat="46.556538781151175" lon="7.020018501207233">
        <ele>1427.7</ele>
        <time>2012-05-27T09:32:53Z</time>
      </trkpt>
      <trkpt lat="46.556364269927144" lon="7.020032918080688">
        <ele>1428.1800000000001</ele>
        <time>2012-05-27T09:33:04Z</time>
      </trkpt>
      <trkpt lat="46.556351780891418" lon="7.020031744614244">
        <ele>1428.1800000000001</ele>
        <time>2012-05-27T09:33:05Z</time>
      </trkpt>
      <trkpt lat="46.556340046226978" lon="7.020032163709402">
        <ele>1428.1800000000001</ele>
        <time>2012-05-27T09:33:06Z</time>
      </trkpt>
      <trkpt lat="46.556326635181904" lon="7.020031744614244">
        <ele>1428.1800000000001</ele>
        <time>2012-05-27T09:33:07Z</time>
      </trkpt>
      <trkpt lat="46.556313140317798" lon="7.020032247528434">
        <ele>1428.1800000000001</ele>
        <time>2012-05-27T09:33:08Z</time>
      </trkpt>
      <trkpt lat="46.556064449250698" lon="7.020046664401889">
        <ele>1431.0599999999999</ele>
        <time>2012-05-27T09:33:26Z</time>
      </trkpt>
      <trkpt lat="46.556034022942185" lon="7.020037025213242">
        <ele>1431.54</ele>
        <time>2012-05-27T09:33:29Z</time>
      </trkpt>
      <trkpt lat="46.555857500061393" lon="7.019904339686036">
        <ele>1434.4200000000001</ele>
        <time>2012-05-27T09:33:44Z</time>
      </trkpt>
      <trkpt lat="46.555735375732183" lon="7.019739132374525">
        <ele>1438.75</ele>
        <time>2012-05-27T09:33:58Z</time>
      </trkpt>
      <trkpt lat="46.555712157860398" lon="7.019647937268019">
        <ele>1440.6700000000001</ele>
        <time>2012-05-27T09:34:03Z</time>
      </trkpt>
      <trkpt lat="46.55570151284337" lon="7.01961818151176">
        <ele>1440.1900000000001</ele>
        <time>2012-05-27T09:34:05Z</time>
      </trkpt>
      <trkpt lat="46.555697824805975" lon="7.019602255895734">
        <ele>1440.6700000000001</ele>
        <time>2012-05-27T09:34:06Z</time>
      </trkpt>
      <trkpt lat="46.555691454559565" lon="7.019585743546486">
        <ele>1441.1500000000001</ele>
        <time>2012-05-27T09:34:07Z</time>
      </trkpt>
      <trkpt lat="46.555684581398964" lon="7.01956931501627">
        <ele>1441.1500000000001</ele>
        <time>2012-05-27T09:34:08Z</time>
      </trkpt>
      <trkpt lat="46.555679384618998" lon="7.019551126286387">
        <ele>1441.6300000000001</ele>
        <time>2012-05-27T09:34:09Z</time>
      </trkpt>
      <trkpt lat="46.555604115128517" lon="7.019291538745165">
        <ele>1443.0799999999999</ele>
        <time>2012-05-27T09:34:24Z</time>
      </trkpt>
      <trkpt lat="46.555568408221006" lon="7.019178215414286">
        <ele>1444.04</ele>
        <time>2012-05-27T09:34:31Z</time>
      </trkpt>
      <trkpt lat="46.555561786517501" lon="7.019164049997926">
        <ele>1444.04</ele>
        <time>2012-05-27T09:34:32Z</time>
      </trkpt>
      <trkpt lat="46.555555416271091" lon="7.01915055513382">
        <ele>1443.5599999999999</ele>
        <time>2012-05-27T09:34:33Z</time>
      </trkpt>
      <trkpt lat="46.555548124015331" lon="7.019138485193253">
        <ele>1444.04</ele>
        <time>2012-05-27T09:34:34Z</time>
      </trkpt>
      <trkpt lat="46.555541502311826" lon="7.019124403595924">
        <ele>1444.04</ele>
        <time>2012-05-27T09:34:35Z</time>
      </trkpt>
      <trkpt lat="46.555534461513162" lon="7.019110238179565">
        <ele>1444.04</ele>
        <time>2012-05-27T09:34:36Z</time>
      </trkpt>
      <trkpt lat="46.555525828152895" lon="7.019096408039331">
        <ele>1444.52</ele>
        <time>2012-05-27T09:34:37Z</time>
      </trkpt>
      <trkpt lat="46.555490707978606" lon="7.019034381955862">
        <ele>1445</ele>
        <time>2012-05-27T09:34:41Z</time>
      </trkpt>
      <trkpt lat="46.555481823161244" lon="7.01901569031179">
        <ele>1445</ele>
        <time>2012-05-27T09:34:42Z</time>
      </trkpt>
      <trkpt lat="46.555472435429692" lon="7.018999177962542">
        <ele>1445</ele>
        <time>2012-05-27T09:34:43Z</time>
      </trkpt>
      <trkpt lat="46.555434465408325" lon="7.018925668671727">
        <ele>1445.48</ele>
        <time>2012-05-27T09:34:48Z</time>
      </trkpt>
      <trkpt lat="46.5554254129529" lon="7.018917286768556">
        <ele>1445.48</ele>
        <time>2012-05-27T09:34:49Z</time>
      </trkpt>
      <trkpt lat="46.555416779592633" lon="7.018905468285084">
        <ele>1445.96</ele>
        <time>2012-05-27T09:34:50Z</time>
      </trkpt>
      <trkpt lat="46.555309575051069" lon="7.018661387264729">
        <ele>1447.4000000000001</ele>
        <time>2012-05-27T09:35:05Z</time>
      </trkpt>
      <trkpt lat="46.555255260318518" lon="7.018542950972915">
        <ele>1447.4000000000001</ele>
        <time>2012-05-27T09:35:12Z</time>
      </trkpt>
      <trkpt lat="46.555248973891139" lon="7.018524929881096">
        <ele>1447.4000000000001</ele>
        <time>2012-05-27T09:35:13Z</time>
      </trkpt>
      <trkpt lat="46.555241430178285" lon="7.018506992608309">
        <ele>1447.4000000000001</ele>
        <time>2012-05-27T09:35:14Z</time>
      </trkpt>
      <trkpt lat="46.555144283920527" lon="7.01823927462101">
        <ele>1449.3199999999999</ele>
        <time>2012-05-27T09:35:30Z</time>
      </trkpt>
      <trkpt lat="46.555130621418357" lon="7.018204238265753">
        <ele>1449.8099999999999</ele>
        <time>2012-05-27T09:35:32Z</time>
      </trkpt>
      <trkpt lat="46.555121149867773" lon="7.018186803907156">
        <ele>1449.8099999999999</ele>
        <time>2012-05-27T09:35:33Z</time>
      </trkpt>
      <trkpt lat="46.555115198716521" lon="7.018170040100813">
        <ele>1449.8099999999999</ele>
        <time>2012-05-27T09:35:34Z</time>
      </trkpt>
      <trkpt lat="46.555086364969611" lon="7.018100805580616">
        <ele>1450.77</ele>
        <time>2012-05-27T09:35:38Z</time>
      </trkpt>
      <trkpt lat="46.555055435746908" lon="7.018021009862423">
        <ele>1451.73</ele>
        <time>2012-05-27T09:35:43Z</time>
      </trkpt>
      <trkpt lat="46.555038336664438" lon="7.017990332096815">
        <ele>1452.21</ele>
        <time>2012-05-27T09:35:45Z</time>
      </trkpt>
      <trkpt lat="46.555033894255757" lon="7.017973652109504">
        <ele>1452.21</ele>
        <time>2012-05-27T09:35:46Z</time>
      </trkpt>
      <trkpt lat="46.55503012239933" lon="7.017957307398319">
        <ele>1452.21</ele>
        <time>2012-05-27T09:35:47Z</time>
      </trkpt>
      <trkpt lat="46.555023500695825" lon="7.017939034849405">
        <ele>1452.6900000000001</ele>
        <time>2012-05-27T09:35:48Z</time>
      </trkpt>
      <trkpt lat="46.555016711354256" lon="7.017924785614014">
        <ele>1452.6900000000001</ele>
        <time>2012-05-27T09:35:49Z</time>
      </trkpt>
      <trkpt lat="46.555011011660099" lon="7.01791045255959">
        <ele>1452.6900000000001</ele>
        <time>2012-05-27T09:35:50Z</time>
      </trkpt>
      <trkpt lat="46.555000366643071" lon="7.017822358757258">
        <ele>1452.6900000000001</ele>
        <time>2012-05-27T09:35:55Z</time>
      </trkpt>
      <trkpt lat="46.554995086044073" lon="7.017800649628043">
        <ele>1452.6900000000001</ele>
        <time>2012-05-27T09:35:56Z</time>
      </trkpt>
      <trkpt lat="46.554924342781305" lon="7.017438551411033">
        <ele>1453.6500000000001</ele>
        <time>2012-05-27T09:36:14Z</time>
      </trkpt>
      <trkpt lat="46.554892072454095" lon="7.017304943874478">
        <ele>1453.6500000000001</ele>
        <time>2012-05-27T09:36:21Z</time>
      </trkpt>
      <trkpt lat="46.554888635873795" lon="7.01728792861104">
        <ele>1454.1300000000001</ele>
        <time>2012-05-27T09:36:22Z</time>
      </trkpt>
      <trkpt lat="46.554882768541574" lon="7.017272002995014">
        <ele>1454.1300000000001</ele>
        <time>2012-05-27T09:36:23Z</time>
      </trkpt>
      <trkpt lat="46.554881678894162" lon="7.017256831750274">
        <ele>1454.1300000000001</ele>
        <time>2012-05-27T09:36:24Z</time>
      </trkpt>
      <trkpt lat="46.554882433265448" lon="7.017238726839423">
        <ele>1454.1300000000001</ele>
        <time>2012-05-27T09:36:25Z</time>
      </trkpt>
      <trkpt lat="46.554877990856767" lon="7.017173431813717">
        <ele>1454.1300000000001</ele>
        <time>2012-05-27T09:36:29Z</time>
      </trkpt>
      <trkpt lat="46.554879248142242" lon="7.017161110416055">
        <ele>1455.0899999999999</ele>
        <time>2012-05-27T09:36:30Z</time>
      </trkpt>
      <trkpt lat="46.554846139624715" lon="7.017005626112223">
        <ele>1456.05</ele>
        <time>2012-05-27T09:36:43Z</time>
      </trkpt>
      <trkpt lat="46.554845636710525" lon="7.016873192042112">
        <ele>1458.9400000000001</ele>
        <time>2012-05-27T09:36:57Z</time>
      </trkpt>
      <trkpt lat="46.554839182645082" lon="7.01679247431457">
        <ele>1460.3800000000001</ele>
        <time>2012-05-27T09:37:10Z</time>
      </trkpt>
      <trkpt lat="46.554825687780976" lon="7.016678312793374">
        <ele>1464.71</ele>
        <time>2012-05-27T09:37:24Z</time>
      </trkpt>
      <trkpt lat="46.55480632558465" lon="7.016521655023098">
        <ele>1465.1900000000001</ele>
        <time>2012-05-27T09:37:38Z</time>
      </trkpt>
      <trkpt lat="46.554802302271128" lon="7.01641864143312">
        <ele>1466.1500000000001</ele>
        <time>2012-05-27T09:37:45Z</time>
      </trkpt>
      <trkpt lat="46.554744383320212" lon="7.016216469928622">
        <ele>1467.5899999999999</ele>
        <time>2012-05-27T09:38:01Z</time>
      </trkpt>
      <trkpt lat="46.554734157398343" lon="7.016159975901246">
        <ele>1467.1099999999999</ele>
        <time>2012-05-27T09:38:04Z</time>
      </trkpt>
      <trkpt lat="46.554726110771298" lon="7.016138853505254">
        <ele>1467.5899999999999</ele>
        <time>2012-05-27T09:38:05Z</time>
      </trkpt>
      <trkpt lat="46.554719405248761" lon="7.016118401661515">
        <ele>1467.1099999999999</ele>
        <time>2012-05-27T09:38:06Z</time>
      </trkpt>
      <trkpt lat="46.554714627563953" lon="7.016098704189062">
        <ele>1467.1099999999999</ele>
        <time>2012-05-27T09:38:07Z</time>
      </trkpt>
      <trkpt lat="46.554708508774638" lon="7.01607707887888">
        <ele>1467.1099999999999</ele>
        <time>2012-05-27T09:38:08Z</time>
      </trkpt>
      <trkpt lat="46.554700629785657" lon="7.016056710854173">
        <ele>1467.1099999999999</ele>
        <time>2012-05-27T09:38:09Z</time>
      </trkpt>
      <trkpt lat="46.554597029462457" lon="7.015821430832148">
        <ele>1467.5899999999999</ele>
        <time>2012-05-27T09:38:22Z</time>
      </trkpt>
      <trkpt lat="46.554585043340921" lon="7.015805505216122">
        <ele>1467.5899999999999</ele>
        <time>2012-05-27T09:38:23Z</time>
      </trkpt>
      <trkpt lat="46.55457423068583" lon="7.015786562114954">
        <ele>1468.0699999999999</ele>
        <time>2012-05-27T09:38:24Z</time>
      </trkpt>
      <trkpt lat="46.554568195715547" lon="7.015769211575389">
        <ele>1467.5899999999999</ele>
        <time>2012-05-27T09:38:25Z</time>
      </trkpt>
      <trkpt lat="46.554562579840422" lon="7.01575362123549">
        <ele>1468.0699999999999</ele>
        <time>2012-05-27T09:38:26Z</time>
      </trkpt>
      <trkpt lat="46.554558891803026" lon="7.015737192705274">
        <ele>1468.0699999999999</ele>
        <time>2012-05-27T09:38:27Z</time>
      </trkpt>
      <trkpt lat="46.55455470085144" lon="7.015720596536994">
        <ele>1468.55</ele>
        <time>2012-05-27T09:38:28Z</time>
      </trkpt>
      <trkpt lat="46.554553527384996" lon="7.01570282690227">
        <ele>1469.03</ele>
        <time>2012-05-27T09:38:29Z</time>
      </trkpt>
      <trkpt lat="46.554551515728235" lon="7.015684889629483">
        <ele>1469.99</ele>
        <time>2012-05-27T09:38:30Z</time>
      </trkpt>
      <trkpt lat="46.554549084976315" lon="7.015666449442506">
        <ele>1470.47</ele>
        <time>2012-05-27T09:38:31Z</time>
      </trkpt>
      <trkpt lat="46.554544391110539" lon="7.015648512169719">
        <ele>1470.47</ele>
        <time>2012-05-27T09:38:32Z</time>
      </trkpt>
      <trkpt lat="46.554532069712877" lon="7.015611045062542">
        <ele>1469.99</ele>
        <time>2012-05-27T09:38:34Z</time>
      </trkpt>
      <trkpt lat="46.554511953145266" lon="7.015536949038506">
        <ele>1470.47</ele>
        <time>2012-05-27T09:38:38Z</time>
      </trkpt>
      <trkpt lat="46.554509270936251" lon="7.015515994280577">
        <ele>1470.47</ele>
        <time>2012-05-27T09:38:39Z</time>
      </trkpt>
      <trkpt lat="46.554506169632077" lon="7.015491686761379">
        <ele>1470.47</ele>
        <time>2012-05-27T09:38:40Z</time>
      </trkpt>
      <trkpt lat="46.554505918174982" lon="7.015472324565053">
        <ele>1470.47</ele>
        <time>2012-05-27T09:38:41Z</time>
      </trkpt>
      <trkpt lat="46.554496195167303" lon="7.015450280159712">
        <ele>1470.47</ele>
        <time>2012-05-27T09:38:42Z</time>
      </trkpt>
      <trkpt lat="46.55449066311121" lon="7.015429409220815">
        <ele>1469.99</ele>
        <time>2012-05-27T09:38:43Z</time>
      </trkpt>
      <trkpt lat="46.554490076377988" lon="7.015412729233503">
        <ele>1470.47</ele>
        <time>2012-05-27T09:38:44Z</time>
      </trkpt>
      <trkpt lat="46.554493512958288" lon="7.015396216884255">
        <ele>1470.47</ele>
        <time>2012-05-27T09:38:45Z</time>
      </trkpt>
      <trkpt lat="46.554493932053447" lon="7.015378195792437">
        <ele>1470.47</ele>
        <time>2012-05-27T09:38:46Z</time>
      </trkpt>
      <trkpt lat="46.554493764415383" lon="7.015358079224825">
        <ele>1469.99</ele>
        <time>2012-05-27T09:38:47Z</time>
      </trkpt>
      <trkpt lat="46.554498206824064" lon="7.015340477228165">
        <ele>1469.99</ele>
        <time>2012-05-27T09:38:48Z</time>
      </trkpt>
      <trkpt lat="46.554499799385667" lon="7.015320360660553">
        <ele>1469.99</ele>
        <time>2012-05-27T09:38:49Z</time>
      </trkpt>
      <trkpt lat="46.554499045014381" lon="7.01530116610229">
        <ele>1469.51</ele>
        <time>2012-05-27T09:38:50Z</time>
      </trkpt>
      <trkpt lat="46.554500469937921" lon="7.015084242448211">
        <ele>1470.47</ele>
        <time>2012-05-27T09:39:02Z</time>
      </trkpt>
      <trkpt lat="46.554503906518221" lon="7.014838652685285">
        <ele>1472.8800000000001</ele>
        <time>2012-05-27T09:39:15Z</time>
      </trkpt>
      <trkpt lat="46.554502146318555" lon="7.01460194773972">
        <ele>1474.3199999999999</ele>
        <time>2012-05-27T09:39:27Z</time>
      </trkpt>
      <trkpt lat="46.554507175460458" lon="7.014585435390472">
        <ele>1474.3199999999999</ele>
        <time>2012-05-27T09:39:28Z</time>
      </trkpt>
      <trkpt lat="46.554506337270141" lon="7.014569258317351">
        <ele>1474.8</ele>
        <time>2012-05-27T09:39:29Z</time>
      </trkpt>
      <trkpt lat="46.554508851841092" lon="7.014553332701325">
        <ele>1474.8</ele>
        <time>2012-05-27T09:39:30Z</time>
      </trkpt>
      <trkpt lat="46.554515054449439" lon="7.014534808695316">
        <ele>1474.8</ele>
        <time>2012-05-27T09:39:31Z</time>
      </trkpt>
      <trkpt lat="46.554523268714547" lon="7.014518296346068">
        <ele>1474.8</ele>
        <time>2012-05-27T09:39:32Z</time>
      </trkpt>
      <trkpt lat="46.554530896246433" lon="7.014500191435218">
        <ele>1475.28</ele>
        <time>2012-05-27T09:39:33Z</time>
      </trkpt>
      <trkpt lat="46.554535171017051" lon="7.014479655772448">
        <ele>1475.28</ele>
        <time>2012-05-27T09:39:34Z</time>
      </trkpt>
      <trkpt lat="46.554543385282159" lon="7.014425592496991">
        <ele>1475.28</ele>
        <time>2012-05-27T09:39:37Z</time>
      </trkpt>
      <trkpt lat="46.554589066654444" lon="7.014324506744742">
        <ele>1475.76</ele>
        <time>2012-05-27T09:39:44Z</time>
      </trkpt>
      <trkpt lat="46.554598873481154" lon="7.014305898919702">
        <ele>1476.24</ele>
        <time>2012-05-27T09:39:45Z</time>
      </trkpt>
      <trkpt lat="46.554636592045426" lon="7.014037594199181">
        <ele>1476.24</ele>
        <time>2012-05-27T09:39:58Z</time>
      </trkpt>
      <trkpt lat="46.554644890129566" lon="7.013855036348105">
        <ele>1477.2</ele>
        <time>2012-05-27T09:40:11Z</time>
      </trkpt>
      <trkpt lat="46.554652685299516" lon="7.013819245621562">
        <ele>1477.2</ele>
        <time>2012-05-27T09:40:14Z</time>
      </trkpt>
      <trkpt lat="46.554660145193338" lon="7.013756800442934">
        <ele>1476.24</ele>
        <time>2012-05-27T09:40:27Z</time>
      </trkpt>
      <trkpt lat="46.554721165448427" lon="7.013550773262978">
        <ele>1475.28</ele>
        <time>2012-05-27T09:40:39Z</time>
      </trkpt>
      <trkpt lat="46.554762320592999" lon="7.013417165726423">
        <ele>1474.8</ele>
        <time>2012-05-27T09:40:44Z</time>
      </trkpt>
      <trkpt lat="46.554773971438408" lon="7.013399060815573">
        <ele>1474.8</ele>
        <time>2012-05-27T09:40:45Z</time>
      </trkpt>
      <trkpt lat="46.554781347513199" lon="7.013381458818913">
        <ele>1474.8</ele>
        <time>2012-05-27T09:40:46Z</time>
      </trkpt>
      <trkpt lat="46.554786376655102" lon="7.01336570084095">
        <ele>1474.8</ele>
        <time>2012-05-27T09:40:47Z</time>
      </trkpt>
      <trkpt lat="46.55479266308248" lon="7.0133475959301">
        <ele>1474.8</ele>
        <time>2012-05-27T09:40:48Z</time>
      </trkpt>
      <trkpt lat="46.554799620062113" lon="7.013327479362488">
        <ele>1474.8</ele>
        <time>2012-05-27T09:40:49Z</time>
      </trkpt>
      <trkpt lat="46.554807918146253" lon="7.013308117166162">
        <ele>1475.28</ele>
        <time>2012-05-27T09:40:50Z</time>
      </trkpt>
      <trkpt lat="46.554817724972963" lon="7.013288335874677">
        <ele>1475.28</ele>
        <time>2012-05-27T09:40:51Z</time>
      </trkpt>
      <trkpt lat="46.55482686124742" lon="7.013265369459987">
        <ele>1475.28</ele>
        <time>2012-05-27T09:40:52Z</time>
      </trkpt>
      <trkpt lat="46.554838512092829" lon="7.013243576511741">
        <ele>1475.28</ele>
        <time>2012-05-27T09:40:53Z</time>
      </trkpt>
      <trkpt lat="46.554851252585649" lon="7.013223711401224">
        <ele>1475.76</ele>
        <time>2012-05-27T09:40:54Z</time>
      </trkpt>
      <trkpt lat="46.554862819612026" lon="7.013204684481025">
        <ele>1475.76</ele>
        <time>2012-05-27T09:40:55Z</time>
      </trkpt>
      <trkpt lat="46.554875057190657" lon="7.013188088312745">
        <ele>1475.76</ele>
        <time>2012-05-27T09:40:56Z</time>
      </trkpt>
      <trkpt lat="46.554888468235731" lon="7.013173419982195">
        <ele>1475.76</ele>
        <time>2012-05-27T09:40:57Z</time>
      </trkpt>
      <trkpt lat="46.55490355566144" lon="7.013162691146135">
        <ele>1475.76</ele>
        <time>2012-05-27T09:40:58Z</time>
      </trkpt>
      <trkpt lat="46.554915206506848" lon="7.01315263286233">
        <ele>1475.76</ele>
        <time>2012-05-27T09:40:59Z</time>
      </trkpt>
      <trkpt lat="46.554927863180637" lon="7.013138551265001">
        <ele>1476.24</ele>
        <time>2012-05-27T09:41:00Z</time>
      </trkpt>
      <trkpt lat="46.554943872615695" lon="7.013127403333783">
        <ele>1476.24</ele>
        <time>2012-05-27T09:41:01Z</time>
      </trkpt>
      <trkpt lat="46.554959127679467" lon="7.013116423040628">
        <ele>1476.24</ele>
        <time>2012-05-27T09:41:02Z</time>
      </trkpt>
      <trkpt lat="46.554974131286144" lon="7.013095719739795">
        <ele>1476.24</ele>
        <time>2012-05-27T09:41:03Z</time>
      </trkpt>
      <trkpt lat="46.554989721626043" lon="7.013074345886707">
        <ele>1476.24</ele>
        <time>2012-05-27T09:41:04Z</time>
      </trkpt>
      <trkpt lat="46.555008245632052" lon="7.013061605393887">
        <ele>1476.24</ele>
        <time>2012-05-27T09:41:05Z</time>
      </trkpt>
      <trkpt lat="46.55502618290484" lon="7.013053223490715">
        <ele>1476.24</ele>
        <time>2012-05-27T09:41:06Z</time>
      </trkpt>
      <trkpt lat="46.55504914931953" lon="7.013047859072685">
        <ele>1475.76</ele>
        <time>2012-05-27T09:41:07Z</time>
      </trkpt>
      <trkpt lat="46.55508385039866" lon="7.013048697263002">
        <ele>1475.76</ele>
        <time>2012-05-27T09:41:08Z</time>
      </trkpt>
      <trkpt lat="46.555119892582297" lon="7.013048026710749">
        <ele>1475.76</ele>
        <time>2012-05-27T09:41:09Z</time>
      </trkpt>
      <trkpt lat="46.555155515670776" lon="7.013042746111751">
        <ele>1475.76</ele>
        <time>2012-05-27T09:41:10Z</time>
      </trkpt>
      <trkpt lat="46.555195497348905" lon="7.013033609837294">
        <ele>1475.28</ele>
        <time>2012-05-27T09:41:11Z</time>
      </trkpt>
      <trkpt lat="46.555437985807657" lon="7.012940822169185">
        <ele>1475.28</ele>
        <time>2012-05-27T09:41:20Z</time>
      </trkpt>
      <trkpt lat="46.555455420166254" lon="7.012923387810588">
        <ele>1475.28</ele>
        <time>2012-05-27T09:41:21Z</time>
      </trkpt>
      <trkpt lat="46.555465729907155" lon="7.012899499386549">
        <ele>1475.76</ele>
        <time>2012-05-27T09:41:22Z</time>
      </trkpt>
      <trkpt lat="46.555471513420343" lon="7.012874018400908">
        <ele>1475.76</ele>
        <time>2012-05-27T09:41:23Z</time>
      </trkpt>
      <trkpt lat="46.555475201457739" lon="7.012845100834966">
        <ele>1475.76</ele>
        <time>2012-05-27T09:41:24Z</time>
      </trkpt>
      <trkpt lat="46.55547478236258" lon="7.012818697839975">
        <ele>1475.76</ele>
        <time>2012-05-27T09:41:25Z</time>
      </trkpt>
      <trkpt lat="46.555470926687121" lon="7.012794222682715">
        <ele>1476.24</ele>
        <time>2012-05-27T09:41:26Z</time>
      </trkpt>
      <trkpt lat="46.555465143173933" lon="7.012775866314769">
        <ele>1476.72</ele>
        <time>2012-05-27T09:41:27Z</time>
      </trkpt>
      <trkpt lat="46.555457012727857" lon="7.012757677584887">
        <ele>1477.2</ele>
        <time>2012-05-27T09:41:28Z</time>
      </trkpt>
      <trkpt lat="46.555452235043049" lon="7.012733621522784">
        <ele>1477.2</ele>
        <time>2012-05-27T09:41:29Z</time>
      </trkpt>
      <trkpt lat="46.555351316928864" lon="7.012278400361538">
        <ele>1476.72</ele>
        <time>2012-05-27T09:41:40Z</time>
      </trkpt>
      <trkpt lat="46.555226845666766" lon="7.011813540011644">
        <ele>1478.1600000000001</ele>
        <time>2012-05-27T09:41:51Z</time>
      </trkpt>
      <trkpt lat="46.555137746036053" lon="7.011368880048394">
        <ele>1474.8</ele>
        <time>2012-05-27T09:42:01Z</time>
      </trkpt>
      <trkpt lat="46.55504914931953" lon="7.011191351339221">
        <ele>1472.8800000000001</ele>
        <time>2012-05-27T09:42:05Z</time>
      </trkpt>
      <trkpt lat="46.555028697475791" lon="7.011135695502162">
        <ele>1472.4000000000001</ele>
        <time>2012-05-27T09:42:06Z</time>
      </trkpt>
      <trkpt lat="46.554987961426377" lon="7.011013654991984">
        <ele>1471.9200000000001</ele>
        <time>2012-05-27T09:42:08Z</time>
      </trkpt>
      <trkpt lat="46.554807582870126" lon="7.010517613962293">
        <ele>1472.8800000000001</ele>
        <time>2012-05-27T09:42:18Z</time>
      </trkpt>
      <trkpt lat="46.55478872358799" lon="7.010465646162629">
        <ele>1472.8800000000001</ele>
        <time>2012-05-27T09:42:19Z</time>
      </trkpt>
      <trkpt lat="46.5547726303339" lon="7.010406386107206">
        <ele>1473.3599999999999</ele>
        <time>2012-05-27T09:42:20Z</time>
      </trkpt>
      <trkpt lat="46.554760728031397" lon="7.010349221527576">
        <ele>1473.8399999999999</ele>
        <time>2012-05-27T09:42:21Z</time>
      </trkpt>
      <trkpt lat="46.55475502833724" lon="7.010301863774657">
        <ele>1474.3199999999999</ele>
        <time>2012-05-27T09:42:22Z</time>
      </trkpt>
      <trkpt lat="46.554752513766289" lon="7.010258864611387">
        <ele>1474.3199999999999</ele>
        <time>2012-05-27T09:42:23Z</time>
      </trkpt>
      <trkpt lat="46.554542211815715" lon="7.009773133322597">
        <ele>1475.76</ele>
        <time>2012-05-27T09:42:36Z</time>
      </trkpt>
      <trkpt lat="46.554443556815386" lon="7.009485550224781">
        <ele>1476.72</ele>
        <time>2012-05-27T09:42:47Z</time>
      </trkpt>
      <trkpt lat="46.554468534886837" lon="7.009155889973044">
        <ele>1477.6800000000001</ele>
        <time>2012-05-27T09:42:59Z</time>
      </trkpt>
      <trkpt lat="46.554469708353281" lon="7.009127726778388">
        <ele>1478.1600000000001</ele>
        <time>2012-05-27T09:43:00Z</time>
      </trkpt>
      <trkpt lat="46.554472725838423" lon="7.009097971022129">
        <ele>1478.1600000000001</ele>
        <time>2012-05-27T09:43:01Z</time>
      </trkpt>
      <trkpt lat="46.554471468552947" lon="7.009066790342331">
        <ele>1478.1600000000001</ele>
        <time>2012-05-27T09:43:02Z</time>
      </trkpt>
      <trkpt lat="46.554470043629408" lon="7.009036196395755">
        <ele>1478.6500000000001</ele>
        <time>2012-05-27T09:43:03Z</time>
      </trkpt>
      <trkpt lat="46.554468534886837" lon="7.009003087878227">
        <ele>1478.6500000000001</ele>
        <time>2012-05-27T09:43:04Z</time>
      </trkpt>
      <trkpt lat="46.55446819961071" lon="7.008968722075224">
        <ele>1478.6500000000001</ele>
        <time>2012-05-27T09:43:05Z</time>
      </trkpt>
      <trkpt lat="46.55447012744844" lon="7.008935445919633">
        <ele>1478.6500000000001</ele>
        <time>2012-05-27T09:43:06Z</time>
      </trkpt>
      <trkpt lat="46.554500469937921" lon="7.008790019899607">
        <ele>1479.1300000000001</ele>
        <time>2012-05-27T09:43:13Z</time>
      </trkpt>
      <trkpt lat="46.554505918174982" lon="7.008768813684583">
        <ele>1479.1300000000001</ele>
        <time>2012-05-27T09:43:14Z</time>
      </trkpt>
      <trkpt lat="46.554509522393346" lon="7.008747607469559">
        <ele>1479.1300000000001</ele>
        <time>2012-05-27T09:43:15Z</time>
      </trkpt>
      <trkpt lat="46.554624773561954" lon="7.008428759872913">
        <ele>1482.01</ele>
        <time>2012-05-27T09:43:30Z</time>
      </trkpt>
      <trkpt lat="46.554645728319883" lon="7.008143691346049">
        <ele>1484.4100000000001</ele>
        <time>2012-05-27T09:43:43Z</time>
      </trkpt>
      <trkpt lat="46.55465142801404" lon="7.008122988045216">
        <ele>1484.8900000000001</ele>
        <time>2012-05-27T09:43:44Z</time>
      </trkpt>
      <trkpt lat="46.554655535146594" lon="7.008100776001811">
        <ele>1484.8900000000001</ele>
        <time>2012-05-27T09:43:45Z</time>
      </trkpt>
      <trkpt lat="46.554655367508531" lon="7.008077558130026">
        <ele>1484.8900000000001</ele>
        <time>2012-05-27T09:43:46Z</time>
      </trkpt>
      <trkpt lat="46.554653691127896" lon="7.00805383734405">
        <ele>1484.8900000000001</ele>
        <time>2012-05-27T09:43:47Z</time>
      </trkpt>
      <trkpt lat="46.554651092737913" lon="7.00803087092936">
        <ele>1484.8900000000001</ele>
        <time>2012-05-27T09:43:48Z</time>
      </trkpt>
      <trkpt lat="46.554647572338581" lon="7.00801033526659">
        <ele>1484.8900000000001</ele>
        <time>2012-05-27T09:43:49Z</time>
      </trkpt>
      <trkpt lat="46.554641537368298" lon="7.007969012483954">
        <ele>1485.3699999999999</ele>
        <time>2012-05-27T09:43:51Z</time>
      </trkpt>
      <trkpt lat="46.554640782997012" lon="7.007945291697979">
        <ele>1485.3699999999999</ele>
        <time>2012-05-27T09:43:52Z</time>
      </trkpt>
      <trkpt lat="46.554577583447099" lon="7.007615212351084">
        <ele>1486.8199999999999</ele>
        <time>2012-05-27T09:44:06Z</time>
      </trkpt>
      <trkpt lat="46.554497787728906" lon="7.007289407774806">
        <ele>1487.3</ele>
        <time>2012-05-27T09:44:18Z</time>
      </trkpt>
      <trkpt lat="46.554480269551277" lon="7.007017079740763">
        <ele>1487.78</ele>
        <time>2012-05-27T09:44:28Z</time>
      </trkpt>
      <trkpt lat="46.554427966475487" lon="7.006723461672664">
        <ele>1488.74</ele>
        <time>2012-05-27T09:44:39Z</time>
      </trkpt>
      <trkpt lat="46.554353702813387" lon="7.006338480859995">
        <ele>1486.8199999999999</ele>
        <time>2012-05-27T09:44:51Z</time>
      </trkpt>
      <trkpt lat="46.554347248747945" lon="7.006318783387542">
        <ele>1486.8199999999999</ele>
        <time>2012-05-27T09:44:52Z</time>
      </trkpt>
      <trkpt lat="46.554340124130249" lon="7.006300259381533">
        <ele>1486.8199999999999</ele>
        <time>2012-05-27T09:44:53Z</time>
      </trkpt>
      <trkpt lat="46.55433383770287" lon="7.006278214976192">
        <ele>1486.8199999999999</ele>
        <time>2012-05-27T09:44:54Z</time>
      </trkpt>
      <trkpt lat="46.554325455799699" lon="7.006256673485041">
        <ele>1486.8199999999999</ele>
        <time>2012-05-27T09:44:55Z</time>
      </trkpt>
      <trkpt lat="46.554316822439432" lon="7.006229683756828">
        <ele>1486.8199999999999</ele>
        <time>2012-05-27T09:44:56Z</time>
      </trkpt>
      <trkpt lat="46.554311038926244" lon="7.006198670715094">
        <ele>1486.8199999999999</ele>
        <time>2012-05-27T09:44:57Z</time>
      </trkpt>
      <trkpt lat="46.554203582927585" lon="7.005885606631637">
        <ele>1486.3399999999999</ele>
        <time>2012-05-27T09:45:08Z</time>
      </trkpt>
      <trkpt lat="46.554121105000377" lon="7.005664994940162">
        <ele>1484.8900000000001</ele>
        <time>2012-05-27T09:45:14Z</time>
      </trkpt>
      <trkpt lat="46.55412177555263" lon="7.005635071545839">
        <ele>1484.8900000000001</ele>
        <time>2012-05-27T09:45:15Z</time>
      </trkpt>
      <trkpt lat="46.554117919877172" lon="7.005605986341834">
        <ele>1485.3699999999999</ele>
        <time>2012-05-27T09:45:16Z</time>
      </trkpt>
      <trkpt lat="46.554108615964651" lon="7.005581175908446">
        <ele>1485.3699999999999</ele>
        <time>2012-05-27T09:45:17Z</time>
      </trkpt>
      <trkpt lat="46.554096713662148" lon="7.005554353818297">
        <ele>1484.8900000000001</ele>
        <time>2012-05-27T09:45:18Z</time>
      </trkpt>
      <trkpt lat="46.554085314273834" lon="7.005521496757865">
        <ele>1484.8900000000001</ele>
        <time>2012-05-27T09:45:19Z</time>
      </trkpt>
      <trkpt lat="46.554073663428426" lon="7.005482856184244">
        <ele>1484.4100000000001</ele>
        <time>2012-05-27T09:45:20Z</time>
      </trkpt>
      <trkpt lat="46.553969895467162" lon="7.005062252283096">
        <ele>1482.01</ele>
        <time>2012-05-27T09:45:32Z</time>
      </trkpt>
      <trkpt lat="46.553956735879183" lon="7.005046913400292">
        <ele>1482.01</ele>
        <time>2012-05-27T09:45:33Z</time>
      </trkpt>
      <trkpt lat="46.553943827748299" lon="7.005035681650043">
        <ele>1481.53</ele>
        <time>2012-05-27T09:45:34Z</time>
      </trkpt>
      <trkpt lat="46.553932931274176" lon="7.005023779347539">
        <ele>1481.05</ele>
        <time>2012-05-27T09:45:35Z</time>
      </trkpt>
      <trkpt lat="46.553923794999719" lon="7.005012212321162">
        <ele>1481.05</ele>
        <time>2012-05-27T09:45:36Z</time>
      </trkpt>
      <trkpt lat="46.55391214415431" lon="7.005000058561564">
        <ele>1481.05</ele>
        <time>2012-05-27T09:45:37Z</time>
      </trkpt>
      <trkpt lat="46.553899487480521" lon="7.00498865917325">
        <ele>1481.05</ele>
        <time>2012-05-27T09:45:38Z</time>
      </trkpt>
      <trkpt lat="46.553886411711574" lon="7.004980277270079">
        <ele>1481.05</ele>
        <time>2012-05-27T09:45:39Z</time>
      </trkpt>
      <trkpt lat="46.553873168304563" lon="7.004972901195288">
        <ele>1481.53</ele>
        <time>2012-05-27T09:45:40Z</time>
      </trkpt>
      <trkpt lat="46.553830085322261" lon="7.004948258399963">
        <ele>1482.01</ele>
        <time>2012-05-27T09:45:43Z</time>
      </trkpt>
      <trkpt lat="46.553815584629774" lon="7.004942474886775">
        <ele>1482.01</ele>
        <time>2012-05-27T09:45:44Z</time>
      </trkpt>
      <trkpt lat="46.553653227165341" lon="7.004713313654065">
        <ele>1485.3699999999999</ele>
        <time>2012-05-27T09:45:59Z</time>
      </trkpt>
      <trkpt lat="46.553580388426781" lon="7.004531593993306">
        <ele>1486.3399999999999</ele>
        <time>2012-05-27T09:46:09Z</time>
      </trkpt>
      <trkpt lat="46.553570330142975" lon="7.004517931491137">
        <ele>1486.8199999999999</ele>
        <time>2012-05-27T09:46:10Z</time>
      </trkpt>
      <trkpt lat="46.553561864420772" lon="7.004498736932874">
        <ele>1486.8199999999999</ele>
        <time>2012-05-27T09:46:11Z</time>
      </trkpt>
      <trkpt lat="46.553552560508251" lon="7.004480715841055">
        <ele>1486.8199999999999</ele>
        <time>2012-05-27T09:46:12Z</time>
      </trkpt>
      <trkpt lat="46.55354275368154" lon="7.004461940377951">
        <ele>1486.8199999999999</ele>
        <time>2012-05-27T09:46:13Z</time>
      </trkpt>
      <trkpt lat="46.553534036502242" lon="7.004442159086466">
        <ele>1486.8199999999999</ele>
        <time>2012-05-27T09:46:14Z</time>
      </trkpt>
      <trkpt lat="46.553525319322944" lon="7.004424137994647">
        <ele>1486.8199999999999</ele>
        <time>2012-05-27T09:46:15Z</time>
      </trkpt>
      <trkpt lat="46.553399004042149" lon="7.004272509366274">
        <ele>1487.3</ele>
        <time>2012-05-27T09:46:27Z</time>
      </trkpt>
      <trkpt lat="46.553285513073206" lon="7.004003534093499">
        <ele>1488.26</ele>
        <time>2012-05-27T09:46:39Z</time>
      </trkpt>
      <trkpt lat="46.553007904440165" lon="7.003563651815057">
        <ele>1486.8199999999999</ele>
        <time>2012-05-27T09:46:52Z</time>
      </trkpt>
      <trkpt lat="46.552944034337997" lon="7.00347145088017">
        <ele>1486.3399999999999</ele>
        <time>2012-05-27T09:46:54Z</time>
      </trkpt>
      <trkpt lat="46.55285669490695" lon="7.003300460055471">
        <ele>1484.4100000000001</ele>
        <time>2012-05-27T09:46:57Z</time>
      </trkpt>
      <trkpt lat="46.552839931100607" lon="7.003244301304221">
        <ele>1483.9300000000001</ele>
        <time>2012-05-27T09:46:58Z</time>
      </trkpt>
      <trkpt lat="46.552776983007789" lon="7.003048835322261">
        <ele>1480.5699999999999</ele>
        <time>2012-05-27T09:47:02Z</time>
      </trkpt>
      <trkpt lat="46.552748568356037" lon="7.003019582480192">
        <ele>1480.0899999999999</ele>
        <time>2012-05-27T09:47:03Z</time>
      </trkpt>
      <trkpt lat="46.552723925560713" lon="7.002991586923599">
        <ele>1479.6099999999999</ele>
        <time>2012-05-27T09:47:04Z</time>
      </trkpt>
      <trkpt lat="46.552709173411131" lon="7.002961160615087">
        <ele>1479.1300000000001</ele>
        <time>2012-05-27T09:47:05Z</time>
      </trkpt>
      <trkpt lat="46.552700791507959" lon="7.0029207598418">
        <ele>1478.6500000000001</ele>
        <time>2012-05-27T09:47:06Z</time>
      </trkpt>
      <trkpt lat="46.552698109298944" lon="7.002876419574022">
        <ele>1478.1600000000001</ele>
        <time>2012-05-27T09:47:07Z</time>
      </trkpt>
      <trkpt lat="46.552689978852868" lon="7.002837862819433">
        <ele>1478.1600000000001</ele>
        <time>2012-05-27T09:47:08Z</time>
      </trkpt>
      <trkpt lat="46.552668688818812" lon="7.002803161740303">
        <ele>1477.6800000000001</ele>
        <time>2012-05-27T09:47:09Z</time>
      </trkpt>
      <trkpt lat="46.552639184519649" lon="7.00277122668922">
        <ele>1477.6800000000001</ele>
        <time>2012-05-27T09:47:10Z</time>
      </trkpt>
      <trkpt lat="46.552603393793106" lon="7.002742476761341">
        <ele>1477.2</ele>
        <time>2012-05-27T09:47:11Z</time>
      </trkpt>
      <trkpt lat="46.552563831210136" lon="7.002720097079873">
        <ele>1476.24</ele>
        <time>2012-05-27T09:47:12Z</time>
      </trkpt>
      <trkpt lat="46.552519910037518" lon="7.002698974683881">
        <ele>1475.76</ele>
        <time>2012-05-27T09:47:13Z</time>
      </trkpt>
      <trkpt lat="46.552433157339692" lon="7.002659495919943">
        <ele>1474.3199999999999</ele>
        <time>2012-05-27T09:47:15Z</time>
      </trkpt>
      <trkpt lat="46.552239367738366" lon="7.002579616382718">
        <ele>1469.51</ele>
        <time>2012-05-27T09:47:21Z</time>
      </trkpt>
      <trkpt lat="46.552227549254894" lon="7.002540389075875">
        <ele>1469.03</ele>
        <time>2012-05-27T09:47:22Z</time>
      </trkpt>
      <trkpt lat="46.552234422415495" lon="7.002493869513273">
        <ele>1468.0699999999999</ele>
        <time>2012-05-27T09:47:23Z</time>
      </trkpt>
      <trkpt lat="46.552250012755394" lon="7.00244776904583">
        <ele>1467.5899999999999</ele>
        <time>2012-05-27T09:47:24Z</time>
      </trkpt>
      <trkpt lat="46.552273901179433" lon="7.002402171492577">
        <ele>1467.1099999999999</ele>
        <time>2012-05-27T09:47:25Z</time>
      </trkpt>
      <trkpt lat="46.552296448498964" lon="7.002351544797421">
        <ele>1466.6300000000001</ele>
        <time>2012-05-27T09:47:26Z</time>
      </trkpt>
      <trkpt lat="46.552320336923003" lon="7.002298990264535">
        <ele>1466.1500000000001</ele>
        <time>2012-05-27T09:47:27Z</time>
      </trkpt>
      <trkpt lat="46.552346823737025" lon="7.002249956130981">
        <ele>1465.1900000000001</ele>
        <time>2012-05-27T09:47:28Z</time>
      </trkpt>
      <trkpt lat="46.552371717989445" lon="7.002206621691585">
        <ele>1464.71</ele>
        <time>2012-05-27T09:47:29Z</time>
      </trkpt>
      <trkpt lat="46.552396276965737" lon="7.001998079940677">
        <ele>1461.3399999999999</ele>
        <time>2012-05-27T09:47:33Z</time>
      </trkpt>
      <trkpt lat="46.552376914769411" lon="7.001941669732332">
        <ele>1460.8599999999999</ele>
        <time>2012-05-27T09:47:34Z</time>
      </trkpt>
      <trkpt lat="46.552348081022501" lon="7.001887690275908">
        <ele>1459.9000000000001</ele>
        <time>2012-05-27T09:47:35Z</time>
      </trkpt>
      <trkpt lat="46.552312877029181" lon="7.001842679455876">
        <ele>1459.4200000000001</ele>
        <time>2012-05-27T09:47:36Z</time>
      </trkpt>
      <trkpt lat="46.552275158464909" lon="7.001807726919651">
        <ele>1458.46</ele>
        <time>2012-05-27T09:47:37Z</time>
      </trkpt>
      <trkpt lat="46.552234506234527" lon="7.00178375467658">
        <ele>1457.98</ele>
        <time>2012-05-27T09:47:38Z</time>
      </trkpt>
      <trkpt lat="46.552191255614161" lon="7.00177495367825">
        <ele>1457.5</ele>
        <time>2012-05-27T09:47:39Z</time>
      </trkpt>
      <trkpt lat="46.552151944488287" lon="7.001780066639185">
        <ele>1457.5</ele>
        <time>2012-05-27T09:47:40Z</time>
      </trkpt>
      <trkpt lat="46.552120009437203" lon="7.001792471855879">
        <ele>1457.02</ele>
        <time>2012-05-27T09:47:41Z</time>
      </trkpt>
      <trkpt lat="46.552091259509325" lon="7.001810576766729">
        <ele>1456.53</ele>
        <time>2012-05-27T09:47:42Z</time>
      </trkpt>
      <trkpt lat="46.552064856514335" lon="7.001835638657212">
        <ele>1456.05</ele>
        <time>2012-05-27T09:47:43Z</time>
      </trkpt>
      <trkpt lat="46.552040716633201" lon="7.001864975318313">
        <ele>1455.5699999999999</ele>
        <time>2012-05-27T09:47:44Z</time>
      </trkpt>
      <trkpt lat="46.551907444372773" lon="7.002025572583079">
        <ele>1451.73</ele>
        <time>2012-05-27T09:47:49Z</time>
      </trkpt>
      <trkpt lat="46.55187064781785" lon="7.002053484320641">
        <ele>1451.25</ele>
        <time>2012-05-27T09:47:50Z</time>
      </trkpt>
      <trkpt lat="46.551687922328711" lon="7.002129424363375">
        <ele>1448.8399999999999</ele>
        <time>2012-05-27T09:47:55Z</time>
      </trkpt>
      <trkpt lat="46.551585411652923" lon="7.002125317230821">
        <ele>1447.4000000000001</ele>
        <time>2012-05-27T09:47:57Z</time>
      </trkpt>
      <trkpt lat="46.550967497751117" lon="7.001988189294934">
        <ele>1442.5999999999999</ele>
        <time>2012-05-27T09:48:08Z</time>
      </trkpt>
      <trkpt lat="46.550922486931086" lon="7.001969832926989">
        <ele>1442.1099999999999</ele>
        <time>2012-05-27T09:48:09Z</time>
      </trkpt>
      <trkpt lat="46.550879320129752" lon="7.00194007717073">
        <ele>1441.6300000000001</ele>
        <time>2012-05-27T09:48:10Z</time>
      </trkpt>
      <trkpt lat="46.550723416730762" lon="7.001874949783087">
        <ele>1438.75</ele>
        <time>2012-05-27T09:48:14Z</time>
      </trkpt>
      <trkpt lat="46.550688128918409" lon="7.001901520416141">
        <ele>1438.27</ele>
        <time>2012-05-27T09:48:15Z</time>
      </trkpt>
      <trkpt lat="46.550585869699717" lon="7.001993553712964">
        <ele>1435.8699999999999</ele>
        <time>2012-05-27T09:48:18Z</time>
      </trkpt>
      <trkpt lat="46.550541780889034" lon="7.002003192901611">
        <ele>1435.3900000000001</ele>
        <time>2012-05-27T09:48:19Z</time>
      </trkpt>
      <trkpt lat="46.550492662936449" lon="7.001999840140343">
        <ele>1434.4200000000001</ele>
        <time>2012-05-27T09:48:20Z</time>
      </trkpt>
      <trkpt lat="46.550340028479695" lon="7.001955667510629">
        <ele>1433.46</ele>
        <time>2012-05-27T09:48:23Z</time>
      </trkpt>
      <trkpt lat="46.550298202782869" lon="7.001928593963385">
        <ele>1432.98</ele>
        <time>2012-05-27T09:48:24Z</time>
      </trkpt>
      <trkpt lat="46.550254533067346" lon="7.001897664740682">
        <ele>1432.5</ele>
        <time>2012-05-27T09:48:25Z</time>
      </trkpt>
      <trkpt lat="46.550208767876029" lon="7.001872938126326">
        <ele>1432.02</ele>
        <time>2012-05-27T09:48:26Z</time>
      </trkpt>
      <trkpt lat="46.550163170322776" lon="7.001850977540016">
        <ele>1432.02</ele>
        <time>2012-05-27T09:48:27Z</time>
      </trkpt>
      <trkpt lat="46.549910372123122" lon="7.001752993091941">
        <ele>1429.6199999999999</ele>
        <time>2012-05-27T09:48:33Z</time>
      </trkpt>
      <trkpt lat="46.549700237810612" lon="7.001645620912314">
        <ele>1427.21</ele>
        <time>2012-05-27T09:48:37Z</time>
      </trkpt>
      <trkpt lat="46.549164047464728" lon="7.001461051404476">
        <ele>1421.9300000000001</ele>
        <time>2012-05-27T09:48:47Z</time>
      </trkpt>
      <trkpt lat="46.548961708322167" lon="7.001336831599474">
        <ele>1419.04</ele>
        <time>2012-05-27T09:48:52Z</time>
      </trkpt>
      <trkpt lat="46.548785855993629" lon="7.001185538247228">
        <ele>1416.1600000000001</ele>
        <time>2012-05-27T09:48:55Z</time>
      </trkpt>
      <trkpt lat="46.548724584281445" lon="7.001127200201154">
        <ele>1415.2</ele>
        <time>2012-05-27T09:48:56Z</time>
      </trkpt>
      <trkpt lat="46.548658031970263" lon="7.001076238229871">
        <ele>1414.24</ele>
        <time>2012-05-27T09:48:57Z</time>
      </trkpt>
      <trkpt lat="46.548593239858747" lon="7.001028880476952">
        <ele>1413.76</ele>
        <time>2012-05-27T09:48:58Z</time>
      </trkpt>
      <trkpt lat="46.548532219603658" lon="7.000986216589809">
        <ele>1413.76</ele>
        <time>2012-05-27T09:48:59Z</time>
      </trkpt>
      <trkpt lat="46.548480335623026" lon="7.000952772796154">
        <ele>1413.76</ele>
        <time>2012-05-27T09:49:00Z</time>
      </trkpt>
      <trkpt lat="46.548280091956258" lon="7.000771807506681">
        <ele>1414.72</ele>
        <time>2012-05-27T09:49:09Z</time>
      </trkpt>
      <trkpt lat="46.548040620982647" lon="7.000470394268632">
        <ele>1416.6400000000001</ele>
        <time>2012-05-27T09:49:22Z</time>
      </trkpt>
      <trkpt lat="46.547683551907539" lon="7.000223379582167">
        <ele>1415.2</ele>
        <time>2012-05-27T09:49:36Z</time>
      </trkpt>
      <trkpt lat="46.547609623521566" lon="7.00016001239419">
        <ele>1414.72</ele>
        <time>2012-05-27T09:49:38Z</time>
      </trkpt>
      <trkpt lat="46.547320112586021" lon="6.999875949695706">
        <ele>1416.6400000000001</ele>
        <time>2012-05-27T09:49:49Z</time>
      </trkpt>
      <trkpt lat="46.547109642997384" lon="6.999706635251641">
        <ele>1419.04</ele>
        <time>2012-05-27T09:50:01Z</time>
      </trkpt>
      <trkpt lat="46.54687000438571" lon="6.999475294724107">
        <ele>1419.52</ele>
        <time>2012-05-27T09:50:15Z</time>
      </trkpt>
      <trkpt lat="46.546518802642822" lon="6.99932936578989">
        <ele>1414.72</ele>
        <time>2012-05-27T09:50:25Z</time>
      </trkpt>
      <trkpt lat="46.546472869813442" lon="6.999298688024283">
        <ele>1414.24</ele>
        <time>2012-05-27T09:50:26Z</time>
      </trkpt>
      <trkpt lat="46.546423584222794" lon="6.999273374676704">
        <ele>1413.76</ele>
        <time>2012-05-27T09:50:27Z</time>
      </trkpt>
      <trkpt lat="46.546372538432479" lon="6.999256610870361">
        <ele>1413.28</ele>
        <time>2012-05-27T09:50:28Z</time>
      </trkpt>
      <trkpt lat="46.546324007213116" lon="6.999247306957841">
        <ele>1412.79</ele>
        <time>2012-05-27T09:50:29Z</time>
      </trkpt>
      <trkpt lat="46.546197691932321" lon="6.999203553423286">
        <ele>1411.3499999999999</ele>
        <time>2012-05-27T09:50:32Z</time>
      </trkpt>
      <trkpt lat="46.546051511541009" lon="6.999103473499417">
        <ele>1409.4300000000001</ele>
        <time>2012-05-27T09:50:35Z</time>
      </trkpt>
      <trkpt lat="46.545996023342013" lon="6.999058797955513">
        <ele>1408.95</ele>
        <time>2012-05-27T09:50:36Z</time>
      </trkpt>
      <trkpt lat="46.545937517657876" lon="6.999023929238319">
        <ele>1408.47</ele>
        <time>2012-05-27T09:50:37Z</time>
      </trkpt>
      <trkpt lat="46.545879850164056" lon="6.999000627547503">
        <ele>1407.99</ele>
        <time>2012-05-27T09:50:38Z</time>
      </trkpt>
      <trkpt lat="46.545828385278583" lon="6.998983947560191">
        <ele>1407.51</ele>
        <time>2012-05-27T09:50:39Z</time>
      </trkpt>
      <trkpt lat="46.545667285099626" lon="6.99891353957355">
        <ele>1406.55</ele>
        <time>2012-05-27T09:50:42Z</time>
      </trkpt>
      <trkpt lat="46.545617748051882" lon="6.998880095779896">
        <ele>1406.55</ele>
        <time>2012-05-27T09:50:43Z</time>
      </trkpt>
      <trkpt lat="46.545461090281606" lon="6.998741291463375">
        <ele>1405.0999999999999</ele>
        <time>2012-05-27T09:50:46Z</time>
      </trkpt>
      <trkpt lat="46.545410798862576" lon="6.998673230409622">
        <ele>1404.6199999999999</ele>
        <time>2012-05-27T09:50:47Z</time>
      </trkpt>
      <trkpt lat="46.545363357290626" lon="6.998592596501112">
        <ele>1404.1400000000001</ele>
        <time>2012-05-27T09:50:48Z</time>
      </trkpt>
      <trkpt lat="46.544799506664276" lon="6.997572602704167">
        <ele>1397.8900000000001</ele>
        <time>2012-05-27T09:50:59Z</time>
      </trkpt>
      <trkpt lat="46.544754831120372" lon="6.997510325163603">
        <ele>1398.3699999999999</ele>
        <time>2012-05-27T09:51:00Z</time>
      </trkpt>
      <trkpt lat="46.544711831957102" lon="6.997460955753923">
        <ele>1398.3699999999999</ele>
        <time>2012-05-27T09:51:01Z</time>
      </trkpt>
      <trkpt lat="46.544674783945084" lon="6.997420638799667">
        <ele>1398.8599999999999</ele>
        <time>2012-05-27T09:51:02Z</time>
      </trkpt>
      <trkpt lat="46.544651063159108" lon="6.997385183349252">
        <ele>1399.3399999999999</ele>
        <time>2012-05-27T09:51:03Z</time>
      </trkpt>
      <trkpt lat="46.544633461162448" lon="6.997356852516532">
        <ele>1399.8199999999999</ele>
        <time>2012-05-27T09:51:04Z</time>
      </trkpt>
      <trkpt lat="46.544591132551432" lon="6.997260460630059">
        <ele>1400.78</ele>
        <time>2012-05-27T09:51:10Z</time>
      </trkpt>
      <trkpt lat="46.544587193056941" lon="6.99724487029016">
        <ele>1401.26</ele>
        <time>2012-05-27T09:51:11Z</time>
      </trkpt>
      <trkpt lat="46.544579230248928" lon="6.997226933017373">
        <ele>1401.74</ele>
        <time>2012-05-27T09:51:12Z</time>
      </trkpt>
      <trkpt lat="46.544571937993169" lon="6.997208157554269">
        <ele>1401.74</ele>
        <time>2012-05-27T09:51:13Z</time>
      </trkpt>
      <trkpt lat="46.544561963528395" lon="6.997191561385989">
        <ele>1402.22</ele>
        <time>2012-05-27T09:51:14Z</time>
      </trkpt>
      <trkpt lat="46.544451154768467" lon="6.996991317719221">
        <ele>1404.1400000000001</ele>
        <time>2012-05-27T09:51:26Z</time>
      </trkpt>
      <trkpt lat="46.544299190863967" lon="6.996777327731252">
        <ele>1403.6600000000001</ele>
        <time>2012-05-27T09:51:40Z</time>
      </trkpt>
      <trkpt lat="46.544189974665642" lon="6.996519500389695">
        <ele>1404.6199999999999</ele>
        <time>2012-05-27T09:51:54Z</time>
      </trkpt>
      <trkpt lat="46.544189555570483" lon="6.996331913396716">
        <ele>1406.55</ele>
        <time>2012-05-27T09:52:03Z</time>
      </trkpt>
      <trkpt lat="46.544194836169481" lon="6.99631062336266">
        <ele>1407.03</ele>
        <time>2012-05-27T09:52:04Z</time>
      </trkpt>
      <trkpt lat="46.544201541692019" lon="6.99629008769989">
        <ele>1407.03</ele>
        <time>2012-05-27T09:52:05Z</time>
      </trkpt>
      <trkpt lat="46.544212438166142" lon="6.996268378570676">
        <ele>1407.51</ele>
        <time>2012-05-27T09:52:06Z</time>
      </trkpt>
      <trkpt lat="46.54422115534544" lon="6.996247507631779">
        <ele>1407.51</ele>
        <time>2012-05-27T09:52:07Z</time>
      </trkpt>
      <trkpt lat="46.544230123981833" lon="6.996228648349643">
        <ele>1407.51</ele>
        <time>2012-05-27T09:52:08Z</time>
      </trkpt>
      <trkpt lat="46.544253844767809" lon="6.996193863451481">
        <ele>1407.99</ele>
        <time>2012-05-27T09:52:10Z</time>
      </trkpt>
      <trkpt lat="46.544269854202867" lon="6.996173914521933">
        <ele>1408.47</ele>
        <time>2012-05-27T09:52:11Z</time>
      </trkpt>
      <trkpt lat="46.544286869466305" lon="6.996157988905907">
        <ele>1408.95</ele>
        <time>2012-05-27T09:52:12Z</time>
      </trkpt>
      <trkpt lat="46.544301956892014" lon="6.99614005163312">
        <ele>1409.4300000000001</ele>
        <time>2012-05-27T09:52:13Z</time>
      </trkpt>
      <trkpt lat="46.544314362108707" lon="6.996121527627111">
        <ele>1409.9100000000001</ele>
        <time>2012-05-27T09:52:14Z</time>
      </trkpt>
      <trkpt lat="46.544328359887004" lon="6.996102668344975">
        <ele>1410.3900000000001</ele>
        <time>2012-05-27T09:52:15Z</time>
      </trkpt>
      <trkpt lat="46.544340597465634" lon="6.996082635596395">
        <ele>1410.8699999999999</ele>
        <time>2012-05-27T09:52:16Z</time>
      </trkpt>
      <trkpt lat="46.544353673234582" lon="6.99606386013329">
        <ele>1411.3499999999999</ele>
        <time>2012-05-27T09:52:17Z</time>
      </trkpt>
      <trkpt lat="46.54438435100019" lon="6.995976101607084">
        <ele>1413.28</ele>
        <time>2012-05-27T09:52:21Z</time>
      </trkpt>
      <trkpt lat="46.544203469529748" lon="6.995857832953334">
        <ele>1414.72</ele>
        <time>2012-05-27T09:52:34Z</time>
      </trkpt>
      <trkpt lat="46.543940864503384" lon="6.995761189609766">
        <ele>1414.72</ele>
        <time>2012-05-27T09:52:47Z</time>
      </trkpt>
      <trkpt lat="46.543582370504737" lon="6.995581397786737">
        <ele>1417.5999999999999</ele>
        <time>2012-05-27T09:53:03Z</time>
      </trkpt>
      <trkpt lat="46.543248519301414" lon="6.995391044765711">
        <ele>1417.1199999999999</ele>
        <time>2012-05-27T09:53:19Z</time>
      </trkpt>
      <trkpt lat="46.543081887066364" lon="6.995161715894938">
        <ele>1417.1199999999999</ele>
        <time>2012-05-27T09:53:34Z</time>
      </trkpt>
      <trkpt lat="46.542870495468378" lon="6.995054930448532">
        <ele>1420.49</ele>
        <time>2012-05-27T09:53:49Z</time>
      </trkpt>
      <trkpt lat="46.542708473280072" lon="6.994745135307312">
        <ele>1423.8499999999999</ele>
        <time>2012-05-27T09:54:05Z</time>
      </trkpt>
      <trkpt lat="46.54261845164001" lon="6.994416229426861">
        <ele>1427.7</ele>
        <time>2012-05-27T09:54:18Z</time>
      </trkpt>
      <trkpt lat="46.542491046711802" lon="6.994072152301669">
        <ele>1431.54</ele>
        <time>2012-05-27T09:54:31Z</time>
      </trkpt>
      <trkpt lat="46.542234057560563" lon="6.9939392991364">
        <ele>1430.0999999999999</ele>
        <time>2012-05-27T09:54:42Z</time>
      </trkpt>
      <trkpt lat="46.54201989993453" lon="6.993561359122396">
        <ele>1431.54</ele>
        <time>2012-05-27T09:54:54Z</time>
      </trkpt>
      <trkpt lat="46.541917305439711" lon="6.993363294750452">
        <ele>1435.3900000000001</ele>
        <time>2012-05-27T09:55:04Z</time>
      </trkpt>
      <trkpt lat="46.541901715099812" lon="6.993346614763141">
        <ele>1435.3900000000001</ele>
        <time>2012-05-27T09:55:05Z</time>
      </trkpt>
      <trkpt lat="46.541890483349562" lon="6.993323061615229">
        <ele>1435.8699999999999</ele>
        <time>2012-05-27T09:55:06Z</time>
      </trkpt>
      <trkpt lat="46.541881011798978" lon="6.993296071887016">
        <ele>1435.8699999999999</ele>
        <time>2012-05-27T09:55:07Z</time>
      </trkpt>
      <trkpt lat="46.541872126981616" lon="6.993271009996533">
        <ele>1436.3499999999999</ele>
        <time>2012-05-27T09:55:08Z</time>
      </trkpt>
      <trkpt lat="46.541865756735206" lon="6.993243601173163">
        <ele>1436.8299999999999</ele>
        <time>2012-05-27T09:55:09Z</time>
      </trkpt>
      <trkpt lat="46.54186206869781" lon="6.993217030540109">
        <ele>1436.8299999999999</ele>
        <time>2012-05-27T09:55:10Z</time>
      </trkpt>
      <trkpt lat="46.541862403973937" lon="6.99319071136415">
        <ele>1437.3099999999999</ele>
        <time>2012-05-27T09:55:11Z</time>
      </trkpt>
      <trkpt lat="46.54186500236392" lon="6.993163134902716">
        <ele>1437.79</ele>
        <time>2012-05-27T09:55:12Z</time>
      </trkpt>
      <trkpt lat="46.541871707886457" lon="6.99313597753644">
        <ele>1437.79</ele>
        <time>2012-05-27T09:55:13Z</time>
      </trkpt>
      <trkpt lat="46.541959634050727" lon="6.992888040840626">
        <ele>1441.1500000000001</ele>
        <time>2012-05-27T09:55:23Z</time>
      </trkpt>
      <trkpt lat="46.541958125308156" lon="6.992860799655318">
        <ele>1441.6300000000001</ele>
        <time>2012-05-27T09:55:24Z</time>
      </trkpt>
      <trkpt lat="46.541955191642046" lon="6.99283204972744">
        <ele>1441.6300000000001</ele>
        <time>2012-05-27T09:55:25Z</time>
      </trkpt>
      <trkpt lat="46.54195049777627" lon="6.992806317284703">
        <ele>1442.1099999999999</ele>
        <time>2012-05-27T09:55:26Z</time>
      </trkpt>
      <trkpt lat="46.54194270260632" lon="6.992778489366174">
        <ele>1442.1099999999999</ele>
        <time>2012-05-27T09:55:27Z</time>
      </trkpt>
      <trkpt lat="46.541831810027361" lon="6.992295440286398">
        <ele>1447.4000000000001</ele>
        <time>2012-05-27T09:55:46Z</time>
      </trkpt>
      <trkpt lat="46.541665932163596" lon="6.992001654580236">
        <ele>1449.3199999999999</ele>
        <time>2012-05-27T09:56:02Z</time>
      </trkpt>
      <trkpt lat="46.541425958275795" lon="6.992084886878729">
        <ele>1451.25</ele>
        <time>2012-05-27T09:56:16Z</time>
      </trkpt>
      <trkpt lat="46.541155474260449" lon="6.992177506908774">
        <ele>1453.6500000000001</ele>
        <time>2012-05-27T09:56:31Z</time>
      </trkpt>
      <trkpt lat="46.541064362972975" lon="6.992120426148176">
        <ele>1455.0899999999999</ele>
        <time>2012-05-27T09:56:37Z</time>
      </trkpt>
      <trkpt lat="46.541063860058784" lon="6.9920932687819">
        <ele>1455.0899999999999</ele>
        <time>2012-05-27T09:56:38Z</time>
      </trkpt>
      <trkpt lat="46.541066206991673" lon="6.992066698148847">
        <ele>1455.0899999999999</ele>
        <time>2012-05-27T09:56:39Z</time>
      </trkpt>
      <trkpt lat="46.541071068495512" lon="6.992042809724808">
        <ele>1455.5699999999999</ele>
        <time>2012-05-27T09:56:40Z</time>
      </trkpt>
      <trkpt lat="46.541078109294176" lon="6.992019508033991">
        <ele>1455.5699999999999</ele>
        <time>2012-05-27T09:56:41Z</time>
      </trkpt>
      <trkpt lat="46.541084982454777" lon="6.991994446143508">
        <ele>1456.05</ele>
        <time>2012-05-27T09:56:42Z</time>
      </trkpt>
      <trkpt lat="46.541092777624726" lon="6.991968294605613">
        <ele>1456.05</ele>
        <time>2012-05-27T09:56:43Z</time>
      </trkpt>
      <trkpt lat="46.541100237518549" lon="6.99194080196321">
        <ele>1456.53</ele>
        <time>2012-05-27T09:56:44Z</time>
      </trkpt>
      <trkpt lat="46.54110568575561" lon="6.991912638768554">
        <ele>1456.53</ele>
        <time>2012-05-27T09:56:45Z</time>
      </trkpt>
      <trkpt lat="46.541112223640084" lon="6.991531848907471">
        <ele>1458.9400000000001</ele>
        <time>2012-05-27T09:57:00Z</time>
      </trkpt>
      <trkpt lat="46.541105937212706" lon="6.991507792845368">
        <ele>1459.4200000000001</ele>
        <time>2012-05-27T09:57:01Z</time>
      </trkpt>
      <trkpt lat="46.541096968576312" lon="6.99148734100163">
        <ele>1459.4200000000001</ele>
        <time>2012-05-27T09:57:02Z</time>
      </trkpt>
      <trkpt lat="46.541088754311204" lon="6.991467894986272">
        <ele>1459.9000000000001</ele>
        <time>2012-05-27T09:57:03Z</time>
      </trkpt>
      <trkpt lat="46.541078696027398" lon="6.991450544446707">
        <ele>1459.9000000000001</ele>
        <time>2012-05-27T09:57:04Z</time>
      </trkpt>
      <trkpt lat="46.541067464277148" lon="6.991434702649713">
        <ele>1459.9000000000001</ele>
        <time>2012-05-27T09:57:05Z</time>
      </trkpt>
      <trkpt lat="46.541057070717216" lon="6.991418357938528">
        <ele>1459.4200000000001</ele>
        <time>2012-05-27T09:57:06Z</time>
      </trkpt>
      <trkpt lat="46.541045419871807" lon="6.991409137845039">
        <ele>1459.9000000000001</ele>
        <time>2012-05-27T09:57:07Z</time>
      </trkpt>
      <trkpt lat="46.541032260283828" lon="6.991400336846709">
        <ele>1459.9000000000001</ele>
        <time>2012-05-27T09:57:08Z</time>
      </trkpt>
      <trkpt lat="46.541022034361959" lon="6.991393798962236">
        <ele>1459.9000000000001</ele>
        <time>2012-05-27T09:57:09Z</time>
      </trkpt>
      <trkpt lat="46.541014071553946" lon="6.991381729021668">
        <ele>1459.9000000000001</ele>
        <time>2012-05-27T09:57:10Z</time>
      </trkpt>
      <trkpt lat="46.540997223928571" lon="6.991327917203307">
        <ele>1460.3800000000001</ele>
        <time>2012-05-27T09:57:23Z</time>
      </trkpt>
      <trkpt lat="46.5409922786057" lon="6.99131291359663">
        <ele>1459.9000000000001</ele>
        <time>2012-05-27T09:57:24Z</time>
      </trkpt>
      <trkpt lat="46.540984567254782" lon="6.991296820342541">
        <ele>1459.9000000000001</ele>
        <time>2012-05-27T09:57:25Z</time>
      </trkpt>
      <trkpt lat="46.540975766256452" lon="6.991278883069754">
        <ele>1459.9000000000001</ele>
        <time>2012-05-27T09:57:26Z</time>
      </trkpt>
      <trkpt lat="46.540964283049107" lon="6.991259437054396">
        <ele>1459.9000000000001</ele>
        <time>2012-05-27T09:57:27Z</time>
      </trkpt>
      <trkpt lat="46.540952464565635" lon="6.991217276081443">
        <ele>1460.3800000000001</ele>
        <time>2012-05-27T09:57:32Z</time>
      </trkpt>
      <trkpt lat="46.540951207280159" lon="6.991183077916503">
        <ele>1459.4200000000001</ele>
        <time>2012-05-27T09:57:42Z</time>
      </trkpt>
      <trkpt lat="46.540943160653114" lon="6.991171427071095">
        <ele>1457.5</ele>
        <time>2012-05-27T09:58:13Z</time>
      </trkpt>
      <trkpt lat="46.540946010500193" lon="6.991164302453399">
        <ele>1457.02</ele>
        <time>2012-05-27T09:58:51Z</time>
      </trkpt>
      <trkpt lat="46.54094148427248" lon="6.991165224462748">
        <ele>1456.53</ele>
        <time>2012-05-27T09:59:35Z</time>
      </trkpt>
      <trkpt lat="46.540932515636086" lon="6.991174360737205">
        <ele>1457.02</ele>
        <time>2012-05-27T09:59:51Z</time>
      </trkpt>
      <trkpt lat="46.540887169539928" lon="6.991186263039708">
        <ele>1456.53</ele>
        <time>2012-05-27T09:59:54Z</time>
      </trkpt>
      <trkpt lat="46.540862610563636" lon="6.991187520325184">
        <ele>1456.53</ele>
        <time>2012-05-27T09:59:55Z</time>
      </trkpt>
      <trkpt lat="46.540831094607711" lon="6.991185424849391">
        <ele>1456.53</ele>
        <time>2012-05-27T09:59:56Z</time>
      </trkpt>
      <trkpt lat="46.540258191525936" lon="6.991107473149896">
        <ele>1451.25</ele>
        <time>2012-05-27T10:00:05Z</time>
      </trkpt>
      <trkpt lat="46.540179485455155" lon="6.991061205044389">
        <ele>1450.29</ele>
        <time>2012-05-27T10:00:06Z</time>
      </trkpt>
      <trkpt lat="46.53946777805686" lon="6.990517722442746">
        <ele>1439.71</ele>
        <time>2012-05-27T10:00:15Z</time>
      </trkpt>
      <trkpt lat="46.53940717689693" lon="6.990437842905521">
        <ele>1438.27</ele>
        <time>2012-05-27T10:00:16Z</time>
      </trkpt>
      <trkpt lat="46.539352526888251" lon="6.990342540666461">
        <ele>1437.3099999999999</ele>
        <time>2012-05-27T10:00:17Z</time>
      </trkpt>
      <trkpt lat="46.539092687889934" lon="6.989815151318908">
        <ele>1430.5799999999999</ele>
        <time>2012-05-27T10:00:22Z</time>
      </trkpt>
      <trkpt lat="46.538933096453547" lon="6.989557994529605">
        <ele>1426.25</ele>
        <time>2012-05-27T10:00:25Z</time>
      </trkpt>
      <trkpt lat="46.538872327655554" lon="6.989502590149641">
        <ele>1425.29</ele>
        <time>2012-05-27T10:00:26Z</time>
      </trkpt>
      <trkpt lat="46.538803931325674" lon="6.989458166062832">
        <ele>1424.8099999999999</ele>
        <time>2012-05-27T10:00:27Z</time>
      </trkpt>
      <trkpt lat="46.538730086758733" lon="6.98941265232861">
        <ele>1423.8499999999999</ele>
        <time>2012-05-27T10:00:28Z</time>
      </trkpt>
      <trkpt lat="46.53865858912468" lon="6.989351212978363">
        <ele>1422.8900000000001</ele>
        <time>2012-05-27T10:00:29Z</time>
      </trkpt>
      <trkpt lat="46.538592036813498" lon="6.989270746707916">
        <ele>1422.4100000000001</ele>
        <time>2012-05-27T10:00:30Z</time>
      </trkpt>
      <trkpt lat="46.538534536957741" lon="6.98917125351727">
        <ele>1421.45</ele>
        <time>2012-05-27T10:00:31Z</time>
      </trkpt>
      <trkpt lat="46.538485838100314" lon="6.989058936014772">
        <ele>1420.97</ele>
        <time>2012-05-27T10:00:32Z</time>
      </trkpt>
      <trkpt lat="46.538441497832537" lon="6.988947372883558">
        <ele>1420.49</ele>
        <time>2012-05-27T10:00:33Z</time>
      </trkpt>
      <trkpt lat="46.538373017683625" lon="6.988732544705272">
        <ele>1419.04</ele>
        <time>2012-05-27T10:00:35Z</time>
      </trkpt>
      <trkpt lat="46.538352901116014" lon="6.988611342385411">
        <ele>1418.5599999999999</ele>
        <time>2012-05-27T10:00:36Z</time>
      </trkpt>
      <trkpt lat="46.538295317441225" lon="6.988119743764401">
        <ele>1414.72</ele>
        <time>2012-05-27T10:00:40Z</time>
      </trkpt>
      <trkpt lat="46.538271931931376" lon="6.988028464838862">
        <ele>1413.76</ele>
        <time>2012-05-27T10:00:41Z</time>
      </trkpt>
      <trkpt lat="46.538242427632213" lon="6.987946154549718">
        <ele>1412.3099999999999</ele>
        <time>2012-05-27T10:00:42Z</time>
      </trkpt>
      <trkpt lat="46.538203367963433" lon="6.987868957221508">
        <ele>1411.3499999999999</ele>
        <time>2012-05-27T10:00:43Z</time>
      </trkpt>
      <trkpt lat="46.538152322173119" lon="6.987805170938373">
        <ele>1409.9100000000001</ele>
        <time>2012-05-27T10:00:44Z</time>
      </trkpt>
      <trkpt lat="46.538091469556093" lon="6.987752364948392">
        <ele>1408.95</ele>
        <time>2012-05-27T10:00:45Z</time>
      </trkpt>
      <trkpt lat="46.538023911416531" lon="6.987706935033202">
        <ele>1407.99</ele>
        <time>2012-05-27T10:00:46Z</time>
      </trkpt>
      <trkpt lat="46.537955850362778" lon="6.98766334913671">
        <ele>1407.51</ele>
        <time>2012-05-27T10:00:47Z</time>
      </trkpt>
      <trkpt lat="46.537762982770801" lon="6.98752605356276">
        <ele>1405.0999999999999</ele>
        <time>2012-05-27T10:00:50Z</time>
      </trkpt>
      <trkpt lat="46.537691066041589" lon="6.987455729395151">
        <ele>1404.6199999999999</ele>
        <time>2012-05-27T10:00:51Z</time>
      </trkpt>
      <trkpt lat="46.537617305293679" lon="6.987361600622535">
        <ele>1403.6600000000001</ele>
        <time>2012-05-27T10:00:52Z</time>
      </trkpt>
      <trkpt lat="46.537203742191195" lon="6.986712589859963">
        <ele>1395.01</ele>
        <time>2012-05-27T10:01:00Z</time>
      </trkpt>
      <trkpt lat="46.537151355296373" lon="6.986603876575828">
        <ele>1395.01</ele>
        <time>2012-05-27T10:01:02Z</time>
      </trkpt>
      <trkpt lat="46.537117324769497" lon="6.986565571278334">
        <ele>1395.01</ele>
        <time>2012-05-27T10:01:03Z</time>
      </trkpt>
      <trkpt lat="46.537082036957145" lon="6.986539587378502">
        <ele>1395.49</ele>
        <time>2012-05-27T10:01:04Z</time>
      </trkpt>
      <trkpt lat="46.537050940096378" lon="6.98651947081089">
        <ele>1395.49</ele>
        <time>2012-05-27T10:01:05Z</time>
      </trkpt>
      <trkpt lat="46.537017663940787" lon="6.986502707004547">
        <ele>1395.49</ele>
        <time>2012-05-27T10:01:06Z</time>
      </trkpt>
      <trkpt lat="46.536983046680689" lon="6.9864896312356">
        <ele>1395.49</ele>
        <time>2012-05-27T10:01:07Z</time>
      </trkpt>
      <trkpt lat="46.5369444899261" lon="6.986476806923747">
        <ele>1395.01</ele>
        <time>2012-05-27T10:01:08Z</time>
      </trkpt>
      <trkpt lat="46.536858407780528" lon="6.986450403928757">
        <ele>1394.05</ele>
        <time>2012-05-27T10:01:10Z</time>
      </trkpt>
      <trkpt lat="46.536764781922102" lon="6.986431712284684">
        <ele>1393.0899999999999</ele>
        <time>2012-05-27T10:01:12Z</time>
      </trkpt>
      <trkpt lat="46.536651123315096" lon="6.986416624858975">
        <ele>1392.1300000000001</ele>
        <time>2012-05-27T10:01:14Z</time>
      </trkpt>
      <trkpt lat="46.536529250442982" lon="6.986376056447625">
        <ele>1390.2</ele>
        <time>2012-05-27T10:01:16Z</time>
      </trkpt>
      <trkpt lat="46.536472588777542" lon="6.986335404217243">
        <ele>1389.24</ele>
        <time>2012-05-27T10:01:17Z</time>
      </trkpt>
      <trkpt lat="46.536424560472369" lon="6.986267678439617">
        <ele>1387.8</ele>
        <time>2012-05-27T10:01:18Z</time>
      </trkpt>
      <trkpt lat="46.536384914070368" lon="6.98617497459054">
        <ele>1386.3599999999999</ele>
        <time>2012-05-27T10:01:19Z</time>
      </trkpt>
      <trkpt lat="46.536348788067698" lon="6.986077660694718">
        <ele>1384.4400000000001</ele>
        <time>2012-05-27T10:01:20Z</time>
      </trkpt>
      <trkpt lat="46.536309644579887" lon="6.985991327092052">
        <ele>1382.99</ele>
        <time>2012-05-27T10:01:21Z</time>
      </trkpt>
      <trkpt lat="46.536268824711442" lon="6.985919829457998">
        <ele>1381.0699999999999</ele>
        <time>2012-05-27T10:01:22Z</time>
      </trkpt>
      <trkpt lat="46.536221886053681" lon="6.985871130600572">
        <ele>1379.6300000000001</ele>
        <time>2012-05-27T10:01:23Z</time>
      </trkpt>
      <trkpt lat="46.536169331520796" lon="6.985848834738135">
        <ele>1378.6700000000001</ele>
        <time>2012-05-27T10:01:24Z</time>
      </trkpt>
      <trkpt lat="46.536118118092418" lon="6.98584615252912">
        <ele>1377.71</ele>
        <time>2012-05-27T10:01:25Z</time>
      </trkpt>
      <trkpt lat="46.536068832501769" lon="6.985869286581874">
        <ele>1377.23</ele>
        <time>2012-05-27T10:01:26Z</time>
      </trkpt>
      <trkpt lat="46.536023318767548" lon="6.985911363735795">
        <ele>1375.78</ele>
        <time>2012-05-27T10:01:27Z</time>
      </trkpt>
      <trkpt lat="46.535983504727483" lon="6.985964002087712">
        <ele>1374.8199999999999</ele>
        <time>2012-05-27T10:01:28Z</time>
      </trkpt>
      <trkpt lat="46.53595207259059" lon="6.986015299335122">
        <ele>1374.3399999999999</ele>
        <time>2012-05-27T10:01:29Z</time>
      </trkpt>
      <trkpt lat="46.535927262157202" lon="6.986059388145804">
        <ele>1373.3800000000001</ele>
        <time>2012-05-27T10:01:30Z</time>
      </trkpt>
      <trkpt lat="46.535819554701447" lon="6.9862375035882">
        <ele>1370.98</ele>
        <time>2012-05-27T10:01:35Z</time>
      </trkpt>
      <trkpt lat="46.535783931612968" lon="6.986273629590869">
        <ele>1370.5</ele>
        <time>2012-05-27T10:01:36Z</time>
      </trkpt>
      <trkpt lat="46.535735400393605" lon="6.986293913796544">
        <ele>1370.02</ele>
        <time>2012-05-27T10:01:37Z</time>
      </trkpt>
      <trkpt lat="46.535677313804626" lon="6.986294835805893">
        <ele>1369.54</ele>
        <time>2012-05-27T10:01:38Z</time>
      </trkpt>
      <trkpt lat="46.535611767321825" lon="6.986287208274007">
        <ele>1369.05</ele>
        <time>2012-05-27T10:01:39Z</time>
      </trkpt>
      <trkpt lat="46.535538844764233" lon="6.986269690096378">
        <ele>1368.5699999999999</ele>
        <time>2012-05-27T10:01:40Z</time>
      </trkpt>
      <trkpt lat="46.535463239997625" lon="6.986243622377515">
        <ele>1367.6099999999999</ele>
        <time>2012-05-27T10:01:41Z</time>
      </trkpt>
      <trkpt lat="46.535325441509485" lon="6.986178494989872">
        <ele>1365.21</ele>
        <time>2012-05-27T10:01:43Z</time>
      </trkpt>
      <trkpt lat="46.535271881148219" lon="6.986129293218255">
        <ele>1363.77</ele>
        <time>2012-05-27T10:01:44Z</time>
      </trkpt>
      <trkpt lat="46.535232318565249" lon="6.986064249649644">
        <ele>1362.8099999999999</ele>
        <time>2012-05-27T10:01:45Z</time>
      </trkpt>
      <trkpt lat="46.535208011046052" lon="6.985983531922102">
        <ele>1361.3599999999999</ele>
        <time>2012-05-27T10:01:46Z</time>
      </trkpt>
      <trkpt lat="46.535203317180276" lon="6.985891750082374">
        <ele>1360.4000000000001</ele>
        <time>2012-05-27T10:01:47Z</time>
      </trkpt>
      <trkpt lat="46.535216476768255" lon="6.985788904130459">
        <ele>1358.96</ele>
        <time>2012-05-27T10:01:48Z</time>
      </trkpt>
      <trkpt lat="46.535242209210992" lon="6.985676251351833">
        <ele>1358</ele>
        <time>2012-05-27T10:01:49Z</time>
      </trkpt>
      <trkpt lat="46.535266935825348" lon="6.985564436763525">
        <ele>1357.04</ele>
        <time>2012-05-27T10:01:50Z</time>
      </trkpt>
      <trkpt lat="46.535277916118503" lon="6.985458992421627">
        <ele>1355.5999999999999</ele>
        <time>2012-05-27T10:01:51Z</time>
      </trkpt>
      <trkpt lat="46.535269618034363" lon="6.985358577221632">
        <ele>1354.6300000000001</ele>
        <time>2012-05-27T10:01:52Z</time>
      </trkpt>
      <trkpt lat="46.535233994945884" lon="6.985259670764208">
        <ele>1353.1900000000001</ele>
        <time>2012-05-27T10:01:53Z</time>
      </trkpt>
      <trkpt lat="46.535179344937205" lon="6.985163614153862">
        <ele>1351.75</ele>
        <time>2012-05-27T10:01:54Z</time>
      </trkpt>
      <trkpt lat="46.535115893930197" lon="6.985066216439009">
        <ele>1350.3099999999999</ele>
        <time>2012-05-27T10:01:55Z</time>
      </trkpt>
      <trkpt lat="46.534714316949248" lon="6.984262643381953">
        <ele>1337.8099999999999</ele>
        <time>2012-05-27T10:02:03Z</time>
      </trkpt>
      <trkpt lat="46.534700319170952" lon="6.98415451683104">
        <ele>1336.3699999999999</ele>
        <time>2012-05-27T10:02:04Z</time>
      </trkpt>
      <trkpt lat="46.534693697467446" lon="6.984050162136555">
        <ele>1335.4100000000001</ele>
        <time>2012-05-27T10:02:05Z</time>
      </trkpt>
      <trkpt lat="46.534695709124207" lon="6.983956955373287">
        <ele>1334.45</ele>
        <time>2012-05-27T10:02:06Z</time>
      </trkpt>
      <trkpt lat="46.534708952531219" lon="6.983876740559936">
        <ele>1333.49</ele>
        <time>2012-05-27T10:02:07Z</time>
      </trkpt>
      <trkpt lat="46.53473393060267" lon="6.983797280117869">
        <ele>1332.52</ele>
        <time>2012-05-27T10:02:08Z</time>
      </trkpt>
      <trkpt lat="46.534774331375957" lon="6.983715472742915">
        <ele>1331.0799999999999</ele>
        <time>2012-05-27T10:02:09Z</time>
      </trkpt>
      <trkpt lat="46.534832334145904" lon="6.983630228787661">
        <ele>1329.6400000000001</ele>
        <time>2012-05-27T10:02:10Z</time>
      </trkpt>
      <trkpt lat="46.534899305552244" lon="6.983539285138249">
        <ele>1328.2</ele>
        <time>2012-05-27T10:02:11Z</time>
      </trkpt>
      <trkpt lat="46.535535324364901" lon="6.982989432290196">
        <ele>1314.74</ele>
        <time>2012-05-27T10:02:18Z</time>
      </trkpt>
      <trkpt lat="46.535755852237344" lon="6.982864122837782">
        <ele>1310.9000000000001</ele>
        <time>2012-05-27T10:02:21Z</time>
      </trkpt>
      <trkpt lat="46.535812430083752" lon="6.982791451737285">
        <ele>1309.45</ele>
        <time>2012-05-27T10:02:22Z</time>
      </trkpt>
      <trkpt lat="46.535853585228324" lon="6.982696233317256">
        <ele>1308.49</ele>
        <time>2012-05-27T10:02:23Z</time>
      </trkpt>
      <trkpt lat="46.535881413146853" lon="6.982597829774022">
        <ele>1307.05</ele>
        <time>2012-05-27T10:02:24Z</time>
      </trkpt>
      <trkpt lat="46.535896081477404" lon="6.982504120096564">
        <ele>1305.6099999999999</ele>
        <time>2012-05-27T10:02:25Z</time>
      </trkpt>
      <trkpt lat="46.535893650725484" lon="6.982420803979039">
        <ele>1304.6500000000001</ele>
        <time>2012-05-27T10:02:26Z</time>
      </trkpt>
      <trkpt lat="46.535875461995602" lon="6.982354838401079">
        <ele>1303.2</ele>
        <time>2012-05-27T10:02:27Z</time>
      </trkpt>
      <trkpt lat="46.535848304629326" lon="6.982308989390731">
        <ele>1302.72</ele>
        <time>2012-05-27T10:02:28Z</time>
      </trkpt>
      <trkpt lat="46.535812765359879" lon="6.982277221977711">
        <ele>1302.24</ele>
        <time>2012-05-27T10:02:29Z</time>
      </trkpt>
      <trkpt lat="46.535767167806625" lon="6.982252411544323">
        <ele>1301.28</ele>
        <time>2012-05-27T10:02:30Z</time>
      </trkpt>
      <trkpt lat="46.535715367645025" lon="6.982229528948665">
        <ele>1300.3199999999999</ele>
        <time>2012-05-27T10:02:31Z</time>
      </trkpt>
      <trkpt lat="46.535658454522491" lon="6.982209580019116">
        <ele>1299.3599999999999</ele>
        <time>2012-05-27T10:02:32Z</time>
      </trkpt>
      <trkpt lat="46.535600619390607" lon="6.982185859233141">
        <ele>1298.4000000000001</ele>
        <time>2012-05-27T10:02:33Z</time>
      </trkpt>
      <trkpt lat="46.535545298829675" lon="6.982154594734311">
        <ele>1297.9200000000001</ele>
        <time>2012-05-27T10:02:34Z</time>
      </trkpt>
      <trkpt lat="46.535483691841364" lon="6.982115618884563">
        <ele>1296.96</ele>
        <time>2012-05-27T10:02:35Z</time>
      </trkpt>
      <trkpt lat="46.53541412204504" lon="6.9820861145854">
        <ele>1295.99</ele>
        <time>2012-05-27T10:02:36Z</time>
      </trkpt>
      <trkpt lat="46.535071637481451" lon="6.982009671628475">
        <ele>1289.27</ele>
        <time>2012-05-27T10:02:41Z</time>
      </trkpt>
      <trkpt lat="46.535015981644392" lon="6.981981340795755">
        <ele>1288.3</ele>
        <time>2012-05-27T10:02:42Z</time>
      </trkpt>
      <trkpt lat="46.534970132634044" lon="6.981937754899263">
        <ele>1287.3399999999999</ele>
        <time>2012-05-27T10:02:43Z</time>
      </trkpt>
      <trkpt lat="46.534937443211675" lon="6.981880841776729">
        <ele>1285.9000000000001</ele>
        <time>2012-05-27T10:02:44Z</time>
      </trkpt>
      <trkpt lat="46.534924451261759" lon="6.981804734095931">
        <ele>1284.9400000000001</ele>
        <time>2012-05-27T10:02:45Z</time>
      </trkpt>
      <trkpt lat="46.534929731860757" lon="6.981711946427822">
        <ele>1283.98</ele>
        <time>2012-05-27T10:02:46Z</time>
      </trkpt>
      <trkpt lat="46.534947836771607" lon="6.981608513742685">
        <ele>1283.02</ele>
        <time>2012-05-27T10:02:47Z</time>
      </trkpt>
      <trkpt lat="46.534973485395312" lon="6.981507008895278">
        <ele>1281.5699999999999</ele>
        <time>2012-05-27T10:02:48Z</time>
      </trkpt>
      <trkpt lat="46.534993937239051" lon="6.981410197913647">
        <ele>1279.6500000000001</ele>
        <time>2012-05-27T10:02:49Z</time>
      </trkpt>
      <trkpt lat="46.535001480951905" lon="6.981315985321999">
        <ele>1278.21</ele>
        <time>2012-05-27T10:02:50Z</time>
      </trkpt>
      <trkpt lat="46.534998882561922" lon="6.98122663423419">
        <ele>1276.77</ele>
        <time>2012-05-27T10:02:51Z</time>
      </trkpt>
      <trkpt lat="46.534990416839719" lon="6.98114407248795">
        <ele>1275.3299999999999</ele>
        <time>2012-05-27T10:02:52Z</time>
      </trkpt>
      <trkpt lat="46.534974491223693" lon="6.981063522398472">
        <ele>1273.8800000000001</ele>
        <time>2012-05-27T10:02:53Z</time>
      </trkpt>
      <trkpt lat="46.534955631941557" lon="6.980982637032867">
        <ele>1272.9200000000001</ele>
        <time>2012-05-27T10:02:54Z</time>
      </trkpt>
      <trkpt lat="46.534940460696816" lon="6.980906194075942">
        <ele>1271.96</ele>
        <time>2012-05-27T10:02:55Z</time>
      </trkpt>
      <trkpt lat="46.534934509545565" lon="6.980826146900654">
        <ele>1271</ele>
        <time>2012-05-27T10:02:56Z</time>
      </trkpt>
      <trkpt lat="46.534945489838719" lon="6.980735622346401">
        <ele>1270.04</ele>
        <time>2012-05-27T10:02:57Z</time>
      </trkpt>
      <trkpt lat="46.534968791529536" lon="6.980636632069945">
        <ele>1268.5999999999999</ele>
        <time>2012-05-27T10:02:58Z</time>
      </trkpt>
      <trkpt lat="46.53499242849648" lon="6.980534289032221">
        <ele>1267.1600000000001</ele>
        <time>2012-05-27T10:02:59Z</time>
      </trkpt>
      <trkpt lat="46.535001061856747" lon="6.980433203279972">
        <ele>1265.71</ele>
        <time>2012-05-27T10:03:00Z</time>
      </trkpt>
      <trkpt lat="46.534993099048734" lon="6.980336476117373">
        <ele>1263.79</ele>
        <time>2012-05-27T10:03:01Z</time>
      </trkpt>
      <trkpt lat="46.534975497052073" lon="6.980249974876642">
        <ele>1262.8299999999999</ele>
        <time>2012-05-27T10:03:02Z</time>
      </trkpt>
      <trkpt lat="46.534947082400322" lon="6.980180824175477">
        <ele>1261.3900000000001</ele>
        <time>2012-05-27T10:03:03Z</time>
      </trkpt>
      <trkpt lat="46.534906681627035" lon="6.98013505898416">
        <ele>1260.4300000000001</ele>
        <time>2012-05-27T10:03:04Z</time>
      </trkpt>
      <trkpt lat="46.534856306388974" lon="6.980122402310371">
        <ele>1259.9400000000001</ele>
        <time>2012-05-27T10:03:05Z</time>
      </trkpt>
      <trkpt lat="46.534801488742232" lon="6.980151487514377">
        <ele>1258.98</ele>
        <time>2012-05-27T10:03:06Z</time>
      </trkpt>
      <trkpt lat="46.534743402153254" lon="6.980212088674307">
        <ele>1257.54</ele>
        <time>2012-05-27T10:03:07Z</time>
      </trkpt>
      <trkpt lat="46.534682214260101" lon="6.980289286002517">
        <ele>1256.5799999999999</ele>
        <time>2012-05-27T10:03:08Z</time>
      </trkpt>
      <trkpt lat="46.534549277275801" lon="6.980447452515364">
        <ele>1253.7</ele>
        <time>2012-05-27T10:03:10Z</time>
      </trkpt>
      <trkpt lat="46.534487754106522" lon="6.980501934885979">
        <ele>1252.74</ele>
        <time>2012-05-27T10:03:11Z</time>
      </trkpt>
      <trkpt lat="46.534433607012033" lon="6.980541497468948">
        <ele>1252.25</ele>
        <time>2012-05-27T10:03:12Z</time>
      </trkpt>
      <trkpt lat="46.53438750654459" lon="6.980561781674624">
        <ele>1251.77</ele>
        <time>2012-05-27T10:03:13Z</time>
      </trkpt>
      <trkpt lat="46.534347608685493" lon="6.980551807209849">
        <ele>1250.8099999999999</ele>
        <time>2012-05-27T10:03:14Z</time>
      </trkpt>
      <trkpt lat="46.534322546795011" lon="6.980508137494326">
        <ele>1250.3299999999999</ele>
        <time>2012-05-27T10:03:15Z</time>
      </trkpt>
      <trkpt lat="46.534322211518884" lon="6.980439154431224">
        <ele>1249.3699999999999</ele>
        <time>2012-05-27T10:03:16Z</time>
      </trkpt>
      <trkpt lat="46.534344423562288" lon="6.980359861627221">
        <ele>1248.4100000000001</ele>
        <time>2012-05-27T10:03:17Z</time>
      </trkpt>
      <trkpt lat="46.534383567050099" lon="6.980282077565789">
        <ele>1247.9300000000001</ele>
        <time>2012-05-27T10:03:18Z</time>
      </trkpt>
      <trkpt lat="46.534428158774972" lon="6.980209825560451">
        <ele>1246.49</ele>
        <time>2012-05-27T10:03:19Z</time>
      </trkpt>
      <trkpt lat="46.534464452415705" lon="6.980142518877983">
        <ele>1245.53</ele>
        <time>2012-05-27T10:03:20Z</time>
      </trkpt>
      <trkpt lat="46.534482222050428" lon="6.980072446167469">
        <ele>1244.5599999999999</ele>
        <time>2012-05-27T10:03:21Z</time>
      </trkpt>
      <trkpt lat="46.534477779641747" lon="6.980003798380494">
        <ele>1243.1199999999999</ele>
        <time>2012-05-27T10:03:22Z</time>
      </trkpt>
      <trkpt lat="46.534445928409696" lon="6.979946549981833">
        <ele>1242.1600000000001</ele>
        <time>2012-05-27T10:03:23Z</time>
      </trkpt>
      <trkpt lat="46.534389518201351" lon="6.979911010712385">
        <ele>1240.24</ele>
        <time>2012-05-27T10:03:24Z</time>
      </trkpt>
      <trkpt lat="46.534317266196012" lon="6.979891732335091">
        <ele>1238.8</ele>
        <time>2012-05-27T10:03:25Z</time>
      </trkpt>
      <trkpt lat="46.534231267869473" lon="6.979882847517729">
        <ele>1236.8699999999999</ele>
        <time>2012-05-27T10:03:26Z</time>
      </trkpt>
      <trkpt lat="46.534135211259127" lon="6.9798912294209">
        <ele>1235.4300000000001</ele>
        <time>2012-05-27T10:03:27Z</time>
      </trkpt>
      <trkpt lat="46.534030437469482" lon="6.979916794225574">
        <ele>1233.51</ele>
        <time>2012-05-27T10:03:28Z</time>
      </trkpt>
      <trkpt lat="46.533920802175999" lon="6.979952584952116">
        <ele>1232.0699999999999</ele>
        <time>2012-05-27T10:03:29Z</time>
      </trkpt>
      <trkpt lat="46.533644618466496" lon="6.980059118941426">
        <ele>1228.7</ele>
        <time>2012-05-27T10:03:32Z</time>
      </trkpt>
      <trkpt lat="46.533568259328604" lon="6.980066662654281">
        <ele>1228.22</ele>
        <time>2012-05-27T10:03:33Z</time>
      </trkpt>
      <trkpt lat="46.53349332511425" lon="6.980046713724732">
        <ele>1227.26</ele>
        <time>2012-05-27T10:03:34Z</time>
      </trkpt>
      <trkpt lat="46.533419815823436" lon="6.979990303516388">
        <ele>1226.3</ele>
        <time>2012-05-27T10:03:35Z</time>
      </trkpt>
      <trkpt lat="46.533350329846144" lon="6.979905478656292">
        <ele>1225.3399999999999</ele>
        <time>2012-05-27T10:03:36Z</time>
      </trkpt>
      <trkpt lat="46.533287046477199" lon="6.979811433702707">
        <ele>1223.9000000000001</ele>
        <time>2012-05-27T10:03:37Z</time>
      </trkpt>
      <trkpt lat="46.533233067020774" lon="6.979719065129757">
        <ele>1222.9300000000001</ele>
        <time>2012-05-27T10:03:38Z</time>
      </trkpt>
      <trkpt lat="46.53319283388555" lon="6.979625774547458">
        <ele>1221.49</ele>
        <time>2012-05-27T10:03:39Z</time>
      </trkpt>
      <trkpt lat="46.533166514709592" lon="6.979528293013573">
        <ele>1219.5699999999999</ele>
        <time>2012-05-27T10:03:40Z</time>
      </trkpt>
      <trkpt lat="46.533154947683215" lon="6.97942117229104">
        <ele>1218.1300000000001</ele>
        <time>2012-05-27T10:03:41Z</time>
      </trkpt>
      <trkpt lat="46.533165005967021" lon="6.97930483147502">
        <ele>1216.6900000000001</ele>
        <time>2012-05-27T10:03:42Z</time>
      </trkpt>
      <trkpt lat="46.533193252980709" lon="6.979181449860334">
        <ele>1215.24</ele>
        <time>2012-05-27T10:03:43Z</time>
      </trkpt>
      <trkpt lat="46.53322895988822" lon="6.979071144014597">
        <ele>1213.8</ele>
        <time>2012-05-27T10:03:44Z</time>
      </trkpt>
      <trkpt lat="46.533267181366682" lon="6.978978356346488">
        <ele>1212.3599999999999</ele>
        <time>2012-05-27T10:03:45Z</time>
      </trkpt>
      <trkpt lat="46.533312443643808" lon="6.978895794600248">
        <ele>1211.4000000000001</ele>
        <time>2012-05-27T10:03:46Z</time>
      </trkpt>
      <trkpt lat="46.53336726129055" lon="6.978817256167531">
        <ele>1210.4400000000001</ele>
        <time>2012-05-27T10:03:47Z</time>
      </trkpt>
      <trkpt lat="46.53343515470624" lon="6.978740813210607">
        <ele>1209</ele>
        <time>2012-05-27T10:03:48Z</time>
      </trkpt>
      <trkpt lat="46.533514447510242" lon="6.978665459901094">
        <ele>1207.55</ele>
        <time>2012-05-27T10:03:49Z</time>
      </trkpt>
      <trkpt lat="46.533602960407734" lon="6.97859195061028">
        <ele>1206.1099999999999</ele>
        <time>2012-05-27T10:03:50Z</time>
      </trkpt>
      <trkpt lat="46.533973021432757" lon="6.978282323107123">
        <ele>1198.4200000000001</ele>
        <time>2012-05-27T10:03:55Z</time>
      </trkpt>
      <trkpt lat="46.534057762473822" lon="6.978252734988928">
        <ele>1196.98</ele>
        <time>2012-05-27T10:03:56Z</time>
      </trkpt>
      <trkpt lat="46.534150550141931" lon="6.978242760524154">
        <ele>1195.54</ele>
        <time>2012-05-27T10:03:57Z</time>
      </trkpt>
      <trkpt lat="46.534314835444093" lon="6.978230606764555">
        <ele>1193.1300000000001</ele>
        <time>2012-05-27T10:03:59Z</time>
      </trkpt>
      <trkpt lat="46.534377699717879" lon="6.978200683370233">
        <ele>1192.1700000000001</ele>
        <time>2012-05-27T10:04:00Z</time>
      </trkpt>
      <trkpt lat="46.534428494051099" lon="6.978152822703123">
        <ele>1191.21</ele>
        <time>2012-05-27T10:04:01Z</time>
      </trkpt>
      <trkpt lat="46.534460010007024" lon="6.978085180744529">
        <ele>1190.25</ele>
        <time>2012-05-27T10:04:02Z</time>
      </trkpt>
      <trkpt lat="46.534477025270462" lon="6.977999517694116">
        <ele>1189.29</ele>
        <time>2012-05-27T10:04:03Z</time>
      </trkpt>
      <trkpt lat="46.534481467679143" lon="6.977897090837359">
        <ele>1188.3299999999999</ele>
        <time>2012-05-27T10:04:04Z</time>
      </trkpt>
      <trkpt lat="46.534470655024052" lon="6.977779408916831">
        <ele>1187.3699999999999</ele>
        <time>2012-05-27T10:04:05Z</time>
      </trkpt>
      <trkpt lat="46.5344456769526" lon="6.977650998160243">
        <ele>1185.9200000000001</ele>
        <time>2012-05-27T10:04:06Z</time>
      </trkpt>
      <trkpt lat="46.534408461302519" lon="6.977517139166594">
        <ele>1184.48</ele>
        <time>2012-05-27T10:04:07Z</time>
      </trkpt>
      <trkpt lat="46.534359259530902" lon="6.977378837764263">
        <ele>1183.04</ele>
        <time>2012-05-27T10:04:08Z</time>
      </trkpt>
      <trkpt lat="46.534301927313209" lon="6.977242296561599">
        <ele>1181.1199999999999</ele>
        <time>2012-05-27T10:04:09Z</time>
      </trkpt>
      <trkpt lat="46.534247528761625" lon="6.977118412032723">
        <ele>1180.1600000000001</ele>
        <time>2012-05-27T10:04:10Z</time>
      </trkpt>
      <trkpt lat="46.534197572618723" lon="6.977009614929557">
        <ele>1179.1900000000001</ele>
        <time>2012-05-27T10:04:11Z</time>
      </trkpt>
      <trkpt lat="46.534050973132253" lon="6.976639553904533">
        <ele>1174.3900000000001</ele>
        <time>2012-05-27T10:04:15Z</time>
      </trkpt>
      <trkpt lat="46.534038400277495" lon="6.976530589163303">
        <ele>1172.95</ele>
        <time>2012-05-27T10:04:16Z</time>
      </trkpt>
      <trkpt lat="46.534035382792354" lon="6.976415924727917">
        <ele>1171.98</ele>
        <time>2012-05-27T10:04:17Z</time>
      </trkpt>
      <trkpt lat="46.534042926505208" lon="6.976311402395368">
        <ele>1170.54</ele>
        <time>2012-05-27T10:04:18Z</time>
      </trkpt>
      <trkpt lat="46.534057511016726" lon="6.976210400462151">
        <ele>1169.5799999999999</ele>
        <time>2012-05-27T10:04:19Z</time>
      </trkpt>
      <trkpt lat="46.534085255116224" lon="6.976105459034443">
        <ele>1168.6199999999999</ele>
        <time>2012-05-27T10:04:20Z</time>
      </trkpt>
      <trkpt lat="46.534128589555621" lon="6.976000014692545">
        <ele>1167.6600000000001</ele>
        <time>2012-05-27T10:04:21Z</time>
      </trkpt>
      <trkpt lat="46.534183323383331" lon="6.975894821807742">
        <ele>1166.7</ele>
        <time>2012-05-27T10:04:22Z</time>
      </trkpt>
      <trkpt lat="46.534459255635738" lon="6.975375479087234">
        <ele>1161.8900000000001</ele>
        <time>2012-05-27T10:04:28Z</time>
      </trkpt>
      <trkpt lat="46.534469900652766" lon="6.97531714104116">
        <ele>1161.4100000000001</ele>
        <time>2012-05-27T10:04:29Z</time>
      </trkpt>
      <trkpt lat="46.534459674730897" lon="6.975260060280561">
        <ele>1161.4100000000001</ele>
        <time>2012-05-27T10:04:30Z</time>
      </trkpt>
      <trkpt lat="46.534433020278811" lon="6.975204069167376">
        <ele>1160.9300000000001</ele>
        <time>2012-05-27T10:04:31Z</time>
      </trkpt>
      <trkpt lat="46.534393792971969" lon="6.975149838253856">
        <ele>1160.9300000000001</ele>
        <time>2012-05-27T10:04:32Z</time>
      </trkpt>
      <trkpt lat="46.534344423562288" lon="6.975095439702272">
        <ele>1160.45</ele>
        <time>2012-05-27T10:04:33Z</time>
      </trkpt>
      <trkpt lat="46.534292791038752" lon="6.975033832713962">
        <ele>1160.45</ele>
        <time>2012-05-27T10:04:34Z</time>
      </trkpt>
      <trkpt lat="46.533601116389036" lon="6.974273258820176">
        <ele>1156.5999999999999</ele>
        <time>2012-05-27T10:04:44Z</time>
      </trkpt>
      <trkpt lat="46.532712047919631" lon="6.9736572727561">
        <ele>1148.9100000000001</ele>
        <time>2012-05-27T10:04:52Z</time>
      </trkpt>
      <trkpt lat="46.532614314928651" lon="6.973543195053935">
        <ele>1147.95</ele>
        <time>2012-05-27T10:04:53Z</time>
      </trkpt>
      <trkpt lat="46.532539799809456" lon="6.973409922793508">
        <ele>1146.99</ele>
        <time>2012-05-27T10:04:54Z</time>
      </trkpt>
      <trkpt lat="46.532483724877238" lon="6.973262233659625">
        <ele>1146.51</ele>
        <time>2012-05-27T10:04:55Z</time>
      </trkpt>
      <trkpt lat="46.532434271648526" lon="6.973114879801869">
        <ele>1145.55</ele>
        <time>2012-05-27T10:04:56Z</time>
      </trkpt>
      <trkpt lat="46.532099582254887" lon="6.97219823487103">
        <ele>1141.22</ele>
        <time>2012-05-27T10:05:03Z</time>
      </trkpt>
      <trkpt lat="46.532035376876593" lon="6.972097400575876">
        <ele>1140.74</ele>
        <time>2012-05-27T10:05:04Z</time>
      </trkpt>
      <trkpt lat="46.531966561451554" lon="6.972002349793911">
        <ele>1139.78</ele>
        <time>2012-05-27T10:05:05Z</time>
      </trkpt>
      <trkpt lat="46.531892800703645" lon="6.971919871866703">
        <ele>1139.3</ele>
        <time>2012-05-27T10:05:06Z</time>
      </trkpt>
      <trkpt lat="46.531813088804483" lon="6.971844099462032">
        <ele>1138.8199999999999</ele>
        <time>2012-05-27T10:05:07Z</time>
      </trkpt>
      <trkpt lat="46.531670344993472" lon="6.971671264618635">
        <ele>1137.8599999999999</ele>
        <time>2012-05-27T10:05:09Z</time>
      </trkpt>
      <trkpt lat="46.531615192070603" lon="6.971561796963215">
        <ele>1137.3800000000001</ele>
        <time>2012-05-27T10:05:10Z</time>
      </trkpt>
      <trkpt lat="46.531569762155414" lon="6.971445288509131">
        <ele>1137.3800000000001</ele>
        <time>2012-05-27T10:05:11Z</time>
      </trkpt>
      <trkpt lat="46.531302547082305" lon="6.970758475363255">
        <ele>1136.9000000000001</ele>
        <time>2012-05-27T10:05:17Z</time>
      </trkpt>
      <trkpt lat="46.531238928437233" lon="6.970658479258418">
        <ele>1136.9000000000001</ele>
        <time>2012-05-27T10:05:18Z</time>
      </trkpt>
      <trkpt lat="46.530478689819574" lon="6.969681484624744">
        <ele>1137.3800000000001</ele>
        <time>2012-05-27T10:05:29Z</time>
      </trkpt>
      <trkpt lat="46.530396295711398" lon="6.969622895121574">
        <ele>1137.3800000000001</ele>
        <time>2012-05-27T10:05:30Z</time>
      </trkpt>
      <trkpt lat="46.530309040099382" lon="6.969584422186017">
        <ele>1136.9000000000001</ele>
        <time>2012-05-27T10:05:31Z</time>
      </trkpt>
      <trkpt lat="46.529327435418963" lon="6.969348387792707">
        <ele>1131.1300000000001</ele>
        <time>2012-05-27T10:05:42Z</time>
      </trkpt>
      <trkpt lat="46.529245292767882" lon="6.969286864623427">
        <ele>1131.1300000000001</ele>
        <time>2012-05-27T10:05:43Z</time>
      </trkpt>
      <trkpt lat="46.529166754335165" lon="6.969213439151645">
        <ele>1131.1300000000001</ele>
        <time>2012-05-27T10:05:44Z</time>
      </trkpt>
      <trkpt lat="46.529093999415636" lon="6.969128949567676">
        <ele>1130.6500000000001</ele>
        <time>2012-05-27T10:05:45Z</time>
      </trkpt>
      <trkpt lat="46.529024513438344" lon="6.969036497175694">
        <ele>1130.6500000000001</ele>
        <time>2012-05-27T10:05:46Z</time>
      </trkpt>
      <trkpt lat="46.527978954836726" lon="6.967416610568762">
        <ele>1127.76</ele>
        <time>2012-05-27T10:06:02Z</time>
      </trkpt>
      <trkpt lat="46.527284346520901" lon="6.966021861881018">
        <ele>1125.3599999999999</ele>
        <time>2012-05-27T10:06:15Z</time>
      </trkpt>
      <trkpt lat="46.526632653549314" lon="6.964666843414307">
        <ele>1122</ele>
        <time>2012-05-27T10:06:27Z</time>
      </trkpt>
      <trkpt lat="46.526200314983726" lon="6.963868970051408">
        <ele>1120.0699999999999</ele>
        <time>2012-05-27T10:06:35Z</time>
      </trkpt>
      <trkpt lat="46.526150107383728" lon="6.963764866814017">
        <ele>1120.0699999999999</ele>
        <time>2012-05-27T10:06:36Z</time>
      </trkpt>
      <trkpt lat="46.525834025815129" lon="6.9631820730865">
        <ele>1120.0699999999999</ele>
        <time>2012-05-27T10:06:42Z</time>
      </trkpt>
      <trkpt lat="46.525799660012126" lon="6.963072186335921">
        <ele>1120.55</ele>
        <time>2012-05-27T10:06:43Z</time>
      </trkpt>
      <trkpt lat="46.525494977831841" lon="6.961657488718629">
        <ele>1120.0699999999999</ele>
        <time>2012-05-27T10:06:55Z</time>
      </trkpt>
      <trkpt lat="46.525487517938018" lon="6.961536537855864">
        <ele>1119.5899999999999</ele>
        <time>2012-05-27T10:06:56Z</time>
      </trkpt>
      <trkpt lat="46.525496067479253" lon="6.961419442668557">
        <ele>1119.5899999999999</ele>
        <time>2012-05-27T10:06:57Z</time>
      </trkpt>
      <trkpt lat="46.525515764951706" lon="6.961306286975741">
        <ele>1118.6300000000001</ele>
        <time>2012-05-27T10:06:58Z</time>
      </trkpt>
      <trkpt lat="46.525542167946696" lon="6.961195478215814">
        <ele>1117.6700000000001</ele>
        <time>2012-05-27T10:06:59Z</time>
      </trkpt>
      <trkpt lat="46.525926059111953" lon="6.959917237982154">
        <ele>1109.98</ele>
        <time>2012-05-27T10:07:10Z</time>
      </trkpt>
      <trkpt lat="46.526527628302574" lon="6.958635309711099">
        <ele>1103.73</ele>
        <time>2012-05-27T10:07:21Z</time>
      </trkpt>
      <trkpt lat="46.526917722076178" lon="6.957583967596293">
        <ele>1098.4400000000001</ele>
        <time>2012-05-27T10:07:29Z</time>
      </trkpt>
      <trkpt lat="46.527338325977325" lon="6.956755081191659">
        <ele>1093.6400000000001</ele>
        <time>2012-05-27T10:07:36Z</time>
      </trkpt>
      <trkpt lat="46.527368752285838" lon="6.956615606322885">
        <ele>1093.1600000000001</ele>
        <time>2012-05-27T10:07:37Z</time>
      </trkpt>
      <trkpt lat="46.527373949065804" lon="6.956470347940922">
        <ele>1092.6800000000001</ele>
        <time>2012-05-27T10:07:38Z</time>
      </trkpt>
      <trkpt lat="46.527361460030079" lon="6.956325843930244">
        <ele>1092.2</ele>
        <time>2012-05-27T10:07:39Z</time>
      </trkpt>
      <trkpt lat="46.527343606576324" lon="6.956183686852455">
        <ele>1091.71</ele>
        <time>2012-05-27T10:07:40Z</time>
      </trkpt>
      <trkpt lat="46.527212848886847" lon="6.954980967566371">
        <ele>1088.3499999999999</ele>
        <time>2012-05-27T10:07:49Z</time>
      </trkpt>
      <trkpt lat="46.527219219133258" lon="6.954850209876895">
        <ele>1087.8699999999999</ele>
        <time>2012-05-27T10:07:50Z</time>
      </trkpt>
      <trkpt lat="46.52723740786314" lon="6.954721380025148">
        <ele>1086.9100000000001</ele>
        <time>2012-05-27T10:07:51Z</time>
      </trkpt>
      <trkpt lat="46.527266828343272" lon="6.954597495496273">
        <ele>1086.4300000000001</ele>
        <time>2012-05-27T10:07:52Z</time>
      </trkpt>
      <trkpt lat="46.527302535250783" lon="6.95447126403451">
        <ele>1085.95</ele>
        <time>2012-05-27T10:07:53Z</time>
      </trkpt>
      <trkpt lat="46.527341343462467" lon="6.954346625134349">
        <ele>1085.47</ele>
        <time>2012-05-27T10:07:54Z</time>
      </trkpt>
      <trkpt lat="46.527859764173627" lon="6.952513083815575">
        <ele>1079.7</ele>
        <time>2012-05-27T10:08:08Z</time>
      </trkpt>
      <trkpt lat="46.528134439140558" lon="6.950787166133523">
        <ele>1069.1199999999999</ele>
        <time>2012-05-27T10:08:19Z</time>
      </trkpt>
      <trkpt lat="46.528378687798977" lon="6.94924833253026">
        <ele>1060.47</ele>
        <time>2012-05-27T10:08:28Z</time>
      </trkpt>
      <trkpt lat="46.528438534587622" lon="6.949103744700551">
        <ele>1059.51</ele>
        <time>2012-05-27T10:08:29Z</time>
      </trkpt>
      <trkpt lat="46.528512546792626" lon="6.948973909020424">
        <ele>1059.03</ele>
        <time>2012-05-27T10:08:30Z</time>
      </trkpt>
      <trkpt lat="46.528598545119166" lon="6.948855891823769">
        <ele>1058.0699999999999</ele>
        <time>2012-05-27T10:08:31Z</time>
      </trkpt>
      <trkpt lat="46.528690159320831" lon="6.948741814121604">
        <ele>1056.6300000000001</ele>
        <time>2012-05-27T10:08:32Z</time>
      </trkpt>
      <trkpt lat="46.529761198908091" lon="6.947402637451887">
        <ele>1045.5699999999999</ele>
        <time>2012-05-27T10:08:44Z</time>
      </trkpt>
      <trkpt lat="46.529807550832629" lon="6.947301551699638">
        <ele>1045.0899999999999</ele>
        <time>2012-05-27T10:08:45Z</time>
      </trkpt>
      <trkpt lat="46.529820878058672" lon="6.947181941941381">
        <ele>1044.1300000000001</ele>
        <time>2012-05-27T10:08:46Z</time>
      </trkpt>
      <trkpt lat="46.529799336567521" lon="6.947065852582455">
        <ele>1043.1700000000001</ele>
        <time>2012-05-27T10:08:47Z</time>
      </trkpt>
      <trkpt lat="46.529750972986221" lon="6.946975914761424">
        <ele>1042.21</ele>
        <time>2012-05-27T10:08:48Z</time>
      </trkpt>
      <trkpt lat="46.529686180874705" lon="6.946901064366102">
        <ele>1041.25</ele>
        <time>2012-05-27T10:08:49Z</time>
      </trkpt>
      <trkpt lat="46.529613928869367" lon="6.946829315274954">
        <ele>1040.28</ele>
        <time>2012-05-27T10:08:50Z</time>
      </trkpt>
      <trkpt lat="46.529544023796916" lon="6.946748932823539">
        <ele>1039.3199999999999</ele>
        <time>2012-05-27T10:08:51Z</time>
      </trkpt>
      <trkpt lat="46.529483422636986" lon="6.946649355813861">
        <ele>1038.3599999999999</ele>
        <time>2012-05-27T10:08:52Z</time>
      </trkpt>
      <trkpt lat="46.52943279594183" lon="6.946536200121045">
        <ele>1037.8800000000001</ele>
        <time>2012-05-27T10:08:53Z</time>
      </trkpt>
      <trkpt lat="46.529391137883067" lon="6.94641818292439">
        <ele>1036.9200000000001</ele>
        <time>2012-05-27T10:08:54Z</time>
      </trkpt>
      <trkpt lat="46.529362723231316" lon="6.9462950527668">
        <ele>1036.4400000000001</ele>
        <time>2012-05-27T10:08:55Z</time>
      </trkpt>
      <trkpt lat="46.529354928061366" lon="6.946158930659294">
        <ele>1035.96</ele>
        <time>2012-05-27T10:08:56Z</time>
      </trkpt>
      <trkpt lat="46.529361549764872" lon="6.946015767753124">
        <ele>1035.48</ele>
        <time>2012-05-27T10:08:57Z</time>
      </trkpt>
      <trkpt lat="46.529376469552517" lon="6.945872688665986">
        <ele>1035</ele>
        <time>2012-05-27T10:08:58Z</time>
      </trkpt>
      <trkpt lat="46.529398513957858" lon="6.945732459425926">
        <ele>1034.52</ele>
        <time>2012-05-27T10:08:59Z</time>
      </trkpt>
      <trkpt lat="46.529640331864357" lon="6.944092120975256">
        <ele>1028.75</ele>
        <time>2012-05-27T10:09:10Z</time>
      </trkpt>
      <trkpt lat="46.529676960781217" lon="6.943938648328185">
        <ele>1028.27</ele>
        <time>2012-05-27T10:09:11Z</time>
      </trkpt>
      <trkpt lat="46.529770670458674" lon="6.943639749661088">
        <ele>1026.8299999999999</ele>
        <time>2012-05-27T10:09:13Z</time>
      </trkpt>
      <trkpt lat="46.529966639354825" lon="6.943067768588662">
        <ele>1024.9000000000001</ele>
        <time>2012-05-27T10:09:17Z</time>
      </trkpt>
      <trkpt lat="46.529968902468681" lon="6.942918403074145">
        <ele>1023.9400000000001</ele>
        <time>2012-05-27T10:09:18Z</time>
      </trkpt>
      <trkpt lat="46.529938643798232" lon="6.942775407806039">
        <ele>1022.98</ele>
        <time>2012-05-27T10:09:19Z</time>
      </trkpt>
      <trkpt lat="46.529889525845647" lon="6.942642722278833">
        <ele>1022.5</ele>
        <time>2012-05-27T10:09:20Z</time>
      </trkpt>
      <trkpt lat="46.529831271618605" lon="6.942518167197704">
        <ele>1021.54</ele>
        <time>2012-05-27T10:09:21Z</time>
      </trkpt>
      <trkpt lat="46.529769077897072" lon="6.942396545782685">
        <ele>1020.58</ele>
        <time>2012-05-27T10:09:22Z</time>
      </trkpt>
      <trkpt lat="46.529595907777548" lon="6.942035704851151">
        <ele>1017.6900000000001</ele>
        <time>2012-05-27T10:09:25Z</time>
      </trkpt>
      <trkpt lat="46.529565481469035" lon="6.94190276786685">
        <ele>1016.73</ele>
        <time>2012-05-27T10:09:26Z</time>
      </trkpt>
      <trkpt lat="46.529541425406933" lon="6.941752983257175">
        <ele>1015.77</ele>
        <time>2012-05-27T10:09:27Z</time>
      </trkpt>
      <trkpt lat="46.52953639626503" lon="6.941566988825798">
        <ele>1015.29</ele>
        <time>2012-05-27T10:09:28Z</time>
      </trkpt>
      <trkpt lat="46.529496414586902" lon="6.941417958587408">
        <ele>1014.8099999999999</ele>
        <time>2012-05-27T10:09:29Z</time>
      </trkpt>
      <trkpt lat="46.529164826497436" lon="6.93980997428298">
        <ele>1009.52</ele>
        <time>2012-05-27T10:09:40Z</time>
      </trkpt>
      <trkpt lat="46.529165832325816" lon="6.9396604411304">
        <ele>1009.04</ele>
        <time>2012-05-27T10:09:41Z</time>
      </trkpt>
      <trkpt lat="46.52918167412281" lon="6.939506381750107">
        <ele>1008.5599999999999</ele>
        <time>2012-05-27T10:09:42Z</time>
      </trkpt>
      <trkpt lat="46.529208663851023" lon="6.939356094226241">
        <ele>1008.08</ele>
        <time>2012-05-27T10:09:43Z</time>
      </trkpt>
      <trkpt lat="46.529245376586914" lon="6.939205722883344">
        <ele>1007.6</ele>
        <time>2012-05-27T10:09:44Z</time>
      </trkpt>
      <trkpt lat="46.529475376009941" lon="6.938377087935805">
        <ele>1006.64</ele>
        <time>2012-05-27T10:09:50Z</time>
      </trkpt>
      <trkpt lat="46.529487110674381" lon="6.938234679400921">
        <ele>1006.16</ele>
        <time>2012-05-27T10:09:51Z</time>
      </trkpt>
      <trkpt lat="46.52948509901762" lon="6.938090678304434">
        <ele>1006.16</ele>
        <time>2012-05-27T10:09:52Z</time>
      </trkpt>
      <trkpt lat="46.529391556978226" lon="6.936991978436709">
        <ele>1002.79</ele>
        <time>2012-05-27T10:10:00Z</time>
      </trkpt>
      <trkpt lat="46.529409075155854" lon="6.936859879642725">
        <ele>1002.3099999999999</ele>
        <time>2012-05-27T10:10:01Z</time>
      </trkpt>
      <trkpt lat="46.529441345483065" lon="6.936729876324534">
        <ele>1001.35</ele>
        <time>2012-05-27T10:10:02Z</time>
      </trkpt>
      <trkpt lat="46.529648210853338" lon="6.936113722622395">
        <ele>999.42999999999995</ele>
        <time>2012-05-27T10:10:07Z</time>
      </trkpt>
      <trkpt lat="46.529705626890063" lon="6.936010625213385">
        <ele>998.95000000000005</ele>
        <time>2012-05-27T10:10:08Z</time>
      </trkpt>
      <trkpt lat="46.529768072068691" lon="6.935928063467145">
        <ele>998.47000000000003</ele>
        <time>2012-05-27T10:10:09Z</time>
      </trkpt>
      <trkpt lat="46.529923975467682" lon="6.935712732374668">
        <ele>997.01999999999998</ele>
        <time>2012-05-27T10:10:13Z</time>
      </trkpt>
      <trkpt lat="46.529912408441305" lon="6.935680629685521">
        <ele>996.05999999999995</ele>
        <time>2012-05-27T10:10:14Z</time>
      </trkpt>
      <trkpt lat="46.529679391533136" lon="6.935816835612059">
        <ele>992.70000000000005</ele>
        <time>2012-05-27T10:10:21Z</time>
      </trkpt>
      <trkpt lat="46.529411254450679" lon="6.936242133378983">
        <ele>993.65999999999997</ele>
        <time>2012-05-27T10:10:31Z</time>
      </trkpt>
      <trkpt lat="46.529205646365881" lon="6.936602890491486">
        <ele>994.62</ele>
        <time>2012-05-27T10:10:42Z</time>
      </trkpt>
      <trkpt lat="46.529138255864382" lon="6.936737420037389">
        <ele>995.10000000000002</ele>
        <time>2012-05-27T10:10:47Z</time>
      </trkpt>
      <trkpt lat="46.52912400662899" lon="6.936980914324522">
        <ele>994.62</ele>
        <time>2012-05-27T10:10:52Z</time>
      </trkpt>
      <trkpt lat="46.529178991913795" lon="6.937715588137507">
        <ele>993.17999999999995</ele>
        <time>2012-05-27T10:11:02Z</time>
      </trkpt>
      <trkpt lat="46.529064159840345" lon="6.938190003857017">
        <ele>993.17999999999995</ele>
        <time>2012-05-27T10:11:09Z</time>
      </trkpt>
      <trkpt lat="46.52876291424036" lon="6.939190803095698">
        <ele>990.77999999999997</ele>
        <time>2012-05-27T10:11:23Z</time>
      </trkpt>
      <trkpt lat="46.52865101583302" lon="6.939694806933403">
        <ele>989.80999999999995</ele>
        <time>2012-05-27T10:11:33Z</time>
      </trkpt>
      <trkpt lat="46.528580691665411" lon="6.939895721152425">
        <ele>989.80999999999995</ele>
        <time>2012-05-27T10:11:37Z</time>
      </trkpt>
      <trkpt lat="46.528464686125517" lon="6.940253963693976">
        <ele>991.25999999999999</ele>
        <time>2012-05-27T10:11:43Z</time>
      </trkpt>
      <trkpt lat="46.528388578444719" lon="6.94040609523654">
        <ele>991.74000000000001</ele>
        <time>2012-05-27T10:11:46Z</time>
      </trkpt>
      <trkpt lat="46.528285732492805" lon="6.940545905381441">
        <ele>992.22000000000003</ele>
        <time>2012-05-27T10:11:49Z</time>
      </trkpt>
      <trkpt lat="46.528138378635049" lon="6.940673645585775">
        <ele>993.17999999999995</ele>
        <time>2012-05-27T10:11:53Z</time>
      </trkpt>
      <trkpt lat="46.52779052965343" lon="6.940884366631508">
        <ele>992.70000000000005</ele>
        <time>2012-05-27T10:12:01Z</time>
      </trkpt>
      <trkpt lat="46.527598416432738" lon="6.941000372171402">
        <ele>991.74000000000001</ele>
        <time>2012-05-27T10:12:05Z</time>
      </trkpt>
      <trkpt lat="46.527399597689509" lon="6.941402284428477">
        <ele>989.33000000000004</ele>
        <time>2012-05-27T10:12:12Z</time>
      </trkpt>
      <trkpt lat="46.527384426444769" lon="6.941611580550671">
        <ele>989.33000000000004</ele>
        <time>2012-05-27T10:12:15Z</time>
      </trkpt>
      <trkpt lat="46.527322316542268" lon="6.942181214690208">
        <ele>988.37</ele>
        <time>2012-05-27T10:12:22Z</time>
      </trkpt>
      <trkpt lat="46.527339499443769" lon="6.942487070336938">
        <ele>989.80999999999995</ele>
        <time>2012-05-27T10:12:26Z</time>
      </trkpt>
      <trkpt lat="46.527299517765641" lon="6.942785046994686">
        <ele>991.74000000000001</ele>
        <time>2012-05-27T10:12:31Z</time>
      </trkpt>
      <trkpt lat="46.527190720662475" lon="6.943151839077473">
        <ele>993.17999999999995</ele>
        <time>2012-05-27T10:12:37Z</time>
      </trkpt>
      <trkpt lat="46.527146296575665" lon="6.943515529856086">
        <ele>992.22000000000003</ele>
        <time>2012-05-27T10:12:41Z</time>
      </trkpt>
      <trkpt lat="46.527131041511893" lon="6.943710995838046">
        <ele>991.25999999999999</ele>
        <time>2012-05-27T10:12:43Z</time>
      </trkpt>
      <trkpt lat="46.527131125330925" lon="6.944012911990285">
        <ele>989.80999999999995</ele>
        <time>2012-05-27T10:12:46Z</time>
      </trkpt>
      <trkpt lat="46.527114948257804" lon="6.944442484527826">
        <ele>987.88999999999999</ele>
        <time>2012-05-27T10:12:50Z</time>
      </trkpt>
      <trkpt lat="46.52698134072125" lon="6.944813467562199">
        <ele>986.45000000000005</ele>
        <time>2012-05-27T10:12:54Z</time>
      </trkpt>
      <trkpt lat="46.526891151443124" lon="6.944977836683393">
        <ele>985.49000000000001</ele>
        <time>2012-05-27T10:12:56Z</time>
      </trkpt>
      <trkpt lat="46.526721753180027" lon="6.945311017334461">
        <ele>984.52999999999997</ele>
        <time>2012-05-27T10:13:01Z</time>
      </trkpt>
      <trkpt lat="46.52660071849823" lon="6.945492988452315">
        <ele>984.04999999999995</ele>
        <time>2012-05-27T10:13:10Z</time>
      </trkpt>
      <trkpt lat="46.526580350473523" lon="6.94551176391542">
        <ele>987.40999999999997</ele>
        <time>2012-05-27T10:13:22Z</time>
      </trkpt>
      <trkpt lat="46.526425369083881" lon="6.945753749459982">
        <ele>985.49000000000001</ele>
        <time>2012-05-27T10:13:31Z</time>
      </trkpt>
      <trkpt lat="46.526390416547656" lon="6.945827342569828">
        <ele>984.52999999999997</ele>
        <time>2012-05-27T10:13:35Z</time>
      </trkpt>
      <trkpt lat="46.526367366313934" lon="6.94596036337316">
        <ele>987.40999999999997</ele>
        <time>2012-05-27T10:13:49Z</time>
      </trkpt>
      <trkpt lat="46.526342472061515" lon="6.946026245132089">
        <ele>992.22000000000003</ele>
        <time>2012-05-27T10:14:02Z</time>
      </trkpt>
      <trkpt lat="46.526312883943319" lon="6.946030938997865">
        <ele>993.17999999999995</ele>
        <time>2012-05-27T10:14:06Z</time>
      </trkpt>
      <trkpt lat="46.52620542794466" lon="6.946005541831255">
        <ele>998.95000000000005</ele>
        <time>2012-05-27T10:14:20Z</time>
      </trkpt>
      <trkpt lat="46.52615069411695" lon="6.94601065479219">
        <ele>1001.83</ele>
        <time>2012-05-27T10:14:32Z</time>
      </trkpt>
      <trkpt lat="46.526049021631479" lon="6.946008978411555">
        <ele>1006.16</ele>
        <time>2012-05-27T10:14:48Z</time>
      </trkpt>
      <trkpt lat="46.526003088802099" lon="6.946013420820236">
        <ele>1007.6</ele>
        <time>2012-05-27T10:15:03Z</time>
      </trkpt>
      <trkpt lat="46.525958916172385" lon="6.94602825678885">
        <ele>1009.04</ele>
        <time>2012-05-27T10:15:19Z</time>
      </trkpt>
      <trkpt lat="46.525903763249516" lon="6.946043679490686">
        <ele>1008.5599999999999</ele>
        <time>2012-05-27T10:15:34Z</time>
      </trkpt>
      <trkpt lat="46.525866128504276" lon="6.946068573743105">
        <ele>1008.08</ele>
        <time>2012-05-27T10:15:49Z</time>
      </trkpt>
      <trkpt lat="46.525814244523644" lon="6.946073435246944">
        <ele>1008.5599999999999</ele>
        <time>2012-05-27T10:16:04Z</time>
      </trkpt>
      <trkpt lat="46.525780968368053" lon="6.946087013930082">
        <ele>1009.04</ele>
        <time>2012-05-27T10:16:21Z</time>
      </trkpt>
      <trkpt lat="46.525718690827489" lon="6.946095395833254">
        <ele>1010.48</ele>
        <time>2012-05-27T10:16:35Z</time>
      </trkpt>
      <trkpt lat="46.525650378316641" lon="6.946111572906375">
        <ele>1012.89</ele>
        <time>2012-05-27T10:16:48Z</time>
      </trkpt>
      <trkpt lat="46.525606540963054" lon="6.946112830191851">
        <ele>1015.29</ele>
        <time>2012-05-27T10:17:03Z</time>
      </trkpt>
      <trkpt lat="46.52556630782783" lon="6.946153147146106">
        <ele>1016.25</ele>
        <time>2012-05-27T10:17:15Z</time>
      </trkpt>
      <trkpt lat="46.525569828227162" lon="6.94615532644093">
        <ele>1017.21</ele>
        <time>2012-05-27T10:17:41Z</time>
      </trkpt>
      <trkpt lat="46.52555113658309" lon="6.946158595383167">
        <ele>1016.25</ele>
        <time>2012-05-27T10:18:05Z</time>
      </trkpt>
      <trkpt lat="46.525513250380754" lon="6.946183321997523">
        <ele>1017.6900000000001</ele>
        <time>2012-05-27T10:18:25Z</time>
      </trkpt>
      <trkpt lat="46.52542607858777" lon="6.946244593709707">
        <ele>1021.0599999999999</ele>
        <time>2012-05-27T10:18:40Z</time>
      </trkpt>
      <trkpt lat="46.525378553196788" lon="6.946283401921392">
        <ele>1023.46</ele>
        <time>2012-05-27T10:18:47Z</time>
      </trkpt>
      <trkpt lat="46.525318203493953" lon="6.946349116042256">
        <ele>1028.75</ele>
        <time>2012-05-27T10:18:59Z</time>
      </trkpt>
      <trkpt lat="46.525234552100301" lon="6.946364957839251">
        <ele>1031.6300000000001</ele>
        <time>2012-05-27T10:19:12Z</time>
      </trkpt>
      <trkpt lat="46.525145620107651" lon="6.946400664746761">
        <ele>1034.52</ele>
        <time>2012-05-27T10:19:24Z</time>
      </trkpt>
      <trkpt lat="46.525024585425854" lon="6.946456991136074">
        <ele>1036.9200000000001</ele>
        <time>2012-05-27T10:19:33Z</time>
      </trkpt>
      <trkpt lat="46.524892989546061" lon="6.946583390235901">
        <ele>1040.28</ele>
        <time>2012-05-27T10:19:46Z</time>
      </trkpt>
      <trkpt lat="46.524822330102324" lon="6.946734599769115">
        <ele>1044.1300000000001</ele>
        <time>2012-05-27T10:19:56Z</time>
      </trkpt>
      <trkpt lat="46.524823922663927" lon="6.946768378838897">
        <ele>1044.1300000000001</ele>
        <time>2012-05-27T10:19:58Z</time>
      </trkpt>
      <trkpt lat="46.524777738377452" lon="6.946905590593815">
        <ele>1045.0899999999999</ele>
        <time>2012-05-27T10:20:07Z</time>
      </trkpt>
      <trkpt lat="46.524764662608504" lon="6.946936855092645">
        <ele>1045.0899999999999</ele>
        <time>2012-05-27T10:20:09Z</time>
      </trkpt>
      <trkpt lat="46.524684615433216" lon="6.947032744064927">
        <ele>1044.6099999999999</ele>
        <time>2012-05-27T10:20:17Z</time>
      </trkpt>
      <trkpt lat="46.524638514965773" lon="6.947097452357411">
        <ele>1046.05</ele>
        <time>2012-05-27T10:20:24Z</time>
      </trkpt>
      <trkpt lat="46.524616470560431" lon="6.947141708806157">
        <ele>1047.01</ele>
        <time>2012-05-27T10:20:28Z</time>
      </trkpt>
      <trkpt lat="46.524585792794824" lon="6.947190742939711">
        <ele>1047.49</ele>
        <time>2012-05-27T10:20:33Z</time>
      </trkpt>
      <trkpt lat="46.524430476129055" lon="6.947367014363408">
        <ele>1049.4200000000001</ele>
        <time>2012-05-27T10:20:48Z</time>
      </trkpt>
      <trkpt lat="46.524287816137075" lon="6.947579411789775">
        <ele>1051.8199999999999</ele>
        <time>2012-05-27T10:21:03Z</time>
      </trkpt>
      <trkpt lat="46.524243727326393" lon="6.947669265791774">
        <ele>1052.78</ele>
        <time>2012-05-27T10:21:08Z</time>
      </trkpt>
      <trkpt lat="46.524061588570476" lon="6.947805471718311">
        <ele>1053.26</ele>
        <time>2012-05-27T10:21:22Z</time>
      </trkpt>
      <trkpt lat="46.523713320493698" lon="6.947801364585757">
        <ele>1053.26</ele>
        <time>2012-05-27T10:21:38Z</time>
      </trkpt>
      <trkpt lat="46.523410649970174" lon="6.947722658514977">
        <ele>1054.22</ele>
        <time>2012-05-27T10:21:52Z</time>
      </trkpt>
      <trkpt lat="46.523035727441311" lon="6.947550745680928">
        <ele>1057.1099999999999</ele>
        <time>2012-05-27T10:22:10Z</time>
      </trkpt>
      <trkpt lat="46.522682933136821" lon="6.947505986317992">
        <ele>1061.9100000000001</ele>
        <time>2012-05-27T10:22:28Z</time>
      </trkpt>
      <trkpt lat="46.522413706406951" lon="6.947489306330681">
        <ele>1066.24</ele>
        <time>2012-05-27T10:22:45Z</time>
      </trkpt>
      <trkpt lat="46.522326534613967" lon="6.947658620774746">
        <ele>1067.2</ele>
        <time>2012-05-27T10:22:54Z</time>
      </trkpt>
      <trkpt lat="46.522229555994272" lon="6.948180645704269">
        <ele>1070.5699999999999</ele>
        <time>2012-05-27T10:23:12Z</time>
      </trkpt>
      <trkpt lat="46.522094020619988" lon="6.948739634826779">
        <ele>1073.45</ele>
        <time>2012-05-27T10:23:30Z</time>
      </trkpt>
      <trkpt lat="46.521927304565907" lon="6.949334582313895">
        <ele>1075.8499999999999</ele>
        <time>2012-05-27T10:23:48Z</time>
      </trkpt>
      <trkpt lat="46.521920347586274" lon="6.949419071897864">
        <ele>1076.3299999999999</ele>
        <time>2012-05-27T10:23:51Z</time>
      </trkpt>
      <trkpt lat="46.521932585164905" lon="6.949446564540267">
        <ele>1076.3299999999999</ele>
        <time>2012-05-27T10:23:52Z</time>
      </trkpt>
      <trkpt lat="46.52202864177525" lon="6.949552092701197">
        <ele>1075.8499999999999</ele>
        <time>2012-05-27T10:24:02Z</time>
      </trkpt>
      <trkpt lat="46.522023444995284" lon="6.949569191783667">
        <ele>1075.8499999999999</ele>
        <time>2012-05-27T10:24:19Z</time>
      </trkpt>
      <trkpt lat="46.522014727815986" lon="6.949580674991012">
        <ele>1076.3299999999999</ele>
        <time>2012-05-27T10:24:59Z</time>
      </trkpt>
      <trkpt lat="46.522020092234015" lon="6.949558965861797">
        <ele>1075.8499999999999</ele>
        <time>2012-05-27T10:25:46Z</time>
      </trkpt>
      <trkpt lat="46.522015314549208" lon="6.949562318623066">
        <ele>1074.4100000000001</ele>
        <time>2012-05-27T10:26:24Z</time>
      </trkpt>
      <trkpt lat="46.522015146911144" lon="6.949550332501531">
        <ele>1074.8900000000001</ele>
        <time>2012-05-27T10:27:07Z</time>
      </trkpt>
      <trkpt lat="46.522015482187271" lon="6.949559971690178">
        <ele>1075.3699999999999</ele>
        <time>2012-05-27T10:27:35Z</time>
      </trkpt>
      <trkpt lat="46.522020008414984" lon="6.949569191783667">
        <ele>1075.8499999999999</ele>
        <time>2012-05-27T10:28:15Z</time>
      </trkpt>
      <trkpt lat="46.522018499672413" lon="6.949576735496521">
        <ele>1076.8099999999999</ele>
        <time>2012-05-27T10:28:52Z</time>
      </trkpt>
      <trkpt lat="46.522022355347872" lon="6.949581345543265">
        <ele>1076.3299999999999</ele>
        <time>2012-05-27T10:29:25Z</time>
      </trkpt>
      <trkpt lat="46.522017493844032" lon="6.949572460725904">
        <ele>1076.8099999999999</ele>
        <time>2012-05-27T10:30:00Z</time>
      </trkpt>
      <trkpt lat="46.522017410025001" lon="6.949570113793016">
        <ele>1077.78</ele>
        <time>2012-05-27T10:30:44Z</time>
      </trkpt>
      <trkpt lat="46.522020427510142" lon="6.949569694697857">
        <ele>1078.26</ele>
        <time>2012-05-27T10:31:26Z</time>
      </trkpt>
      <trkpt lat="46.52202277444303" lon="6.94955418817699">
        <ele>1077.78</ele>
        <time>2012-05-27T10:31:59Z</time>
      </trkpt>
      <trkpt lat="46.522020343691111" lon="6.949551505967975">
        <ele>1078.26</ele>
        <time>2012-05-27T10:32:28Z</time>
      </trkpt>
      <trkpt lat="46.522017745301127" lon="6.949552344158292">
        <ele>1078.26</ele>
        <time>2012-05-27T10:33:03Z</time>
      </trkpt>
      <trkpt lat="46.522019002586603" lon="6.949566509574652">
        <ele>1078.26</ele>
        <time>2012-05-27T10:33:39Z</time>
      </trkpt>
      <trkpt lat="46.522019505500793" lon="6.949559636414051">
        <ele>1077.78</ele>
        <time>2012-05-27T10:34:13Z</time>
      </trkpt>
      <trkpt lat="46.522026630118489" lon="6.949543124064803">
        <ele>1077.29</ele>
        <time>2012-05-27T10:35:00Z</time>
      </trkpt>
      <trkpt lat="46.522023612633348" lon="6.949550164863467">
        <ele>1077.29</ele>
        <time>2012-05-27T10:35:36Z</time>
      </trkpt>
      <trkpt lat="46.522013051435351" lon="6.949563911184669">
        <ele>1076.8099999999999</ele>
        <time>2012-05-27T10:36:17Z</time>
      </trkpt>
      <trkpt lat="46.522022355347872" lon="6.949555445462465">
        <ele>1077.78</ele>
        <time>2012-05-27T10:36:49Z</time>
      </trkpt>
      <trkpt lat="46.522020092234015" lon="6.94956692866981">
        <ele>1077.29</ele>
        <time>2012-05-27T10:37:24Z</time>
      </trkpt>
      <trkpt lat="46.522019086405635" lon="6.94955226033926">
        <ele>1077.29</ele>
        <time>2012-05-27T10:38:04Z</time>
      </trkpt>
      <trkpt lat="46.52201347053051" lon="6.949548739939928">
        <ele>1076.8099999999999</ele>
        <time>2012-05-27T10:38:40Z</time>
      </trkpt>
      <trkpt lat="46.52201103977859" lon="6.949566006660461">
        <ele>1076.8099999999999</ele>
        <time>2012-05-27T10:39:23Z</time>
      </trkpt>
      <trkpt lat="46.522016823291779" lon="6.949552092701197">
        <ele>1078.26</ele>
        <time>2012-05-27T10:40:08Z</time>
      </trkpt>
      <trkpt lat="46.522017493844032" lon="6.949571203440428">
        <ele>1078.26</ele>
        <time>2012-05-27T10:40:48Z</time>
      </trkpt>
      <trkpt lat="46.52201296761632" lon="6.949581848457456">
        <ele>1076.8099999999999</ele>
        <time>2012-05-27T10:41:32Z</time>
      </trkpt>
      <trkpt lat="46.52202176861465" lon="6.949575981125236">
        <ele>1075.8499999999999</ele>
        <time>2012-05-27T10:42:13Z</time>
      </trkpt>
      <trkpt lat="46.522025456652045" lon="6.949577992781997">
        <ele>1076.3299999999999</ele>
        <time>2012-05-27T10:42:46Z</time>
      </trkpt>
      <trkpt lat="46.522009531036019" lon="6.949551170691848">
        <ele>1076.8099999999999</ele>
        <time>2012-05-27T10:43:32Z</time>
      </trkpt>
      <trkpt lat="46.522017158567905" lon="6.949542704969645">
        <ele>1077.78</ele>
        <time>2012-05-27T10:44:06Z</time>
      </trkpt>
      <trkpt lat="46.522019673138857" lon="6.949547566473484">
        <ele>1078.74</ele>
        <time>2012-05-27T10:44:49Z</time>
      </trkpt>
      <trkpt lat="46.522011375054717" lon="6.949553182348609">
        <ele>1078.74</ele>
        <time>2012-05-27T10:45:25Z</time>
      </trkpt>
      <trkpt lat="46.522024534642696" lon="6.949572376906872">
        <ele>1078.74</ele>
        <time>2012-05-27T10:46:06Z</time>
      </trkpt>
      <trkpt lat="46.522019254043698" lon="6.949564665555954">
        <ele>1080.1800000000001</ele>
        <time>2012-05-27T10:46:44Z</time>
      </trkpt>
      <trkpt lat="46.522010201588273" lon="6.94955226033926">
        <ele>1079.7</ele>
        <time>2012-05-27T10:47:31Z</time>
      </trkpt>
      <trkpt lat="46.522019254043698" lon="6.949550164863467">
        <ele>1078.74</ele>
        <time>2012-05-27T10:48:12Z</time>
      </trkpt>
      <trkpt lat="46.522013302892447" lon="6.949538681656122">
        <ele>1080.6600000000001</ele>
        <time>2012-05-27T10:48:59Z</time>
      </trkpt>
      <trkpt lat="46.522017493844032" lon="6.94955125451088">
        <ele>1081.1400000000001</ele>
        <time>2012-05-27T10:49:47Z</time>
      </trkpt>
      <trkpt lat="46.522019673138857" lon="6.949568185955286">
        <ele>1079.7</ele>
        <time>2012-05-27T10:50:36Z</time>
      </trkpt>
      <trkpt lat="46.522015230730176" lon="6.94955569691956">
        <ele>1080.1800000000001</ele>
        <time>2012-05-27T10:51:20Z</time>
      </trkpt>
      <trkpt lat="46.522020427510142" lon="6.949554942548275">
        <ele>1080.6600000000001</ele>
        <time>2012-05-27T10:52:02Z</time>
      </trkpt>
      <trkpt lat="46.522023444995284" lon="6.949558211490512">
        <ele>1079.22</ele>
        <time>2012-05-27T10:52:50Z</time>
      </trkpt>
      <trkpt lat="46.52202419936657" lon="6.949563911184669">
        <ele>1079.7</ele>
        <time>2012-05-27T10:53:38Z</time>
      </trkpt>
      <trkpt lat="46.522021600976586" lon="6.949556870386004">
        <ele>1077.78</ele>
        <time>2012-05-27T10:54:18Z</time>
      </trkpt>
      <trkpt lat="46.522018332034349" lon="6.949564330279827">
        <ele>1076.8099999999999</ele>
        <time>2012-05-27T10:54:51Z</time>
      </trkpt>
      <trkpt lat="46.522015482187271" lon="6.949551505967975">
        <ele>1076.8099999999999</ele>
        <time>2012-05-27T10:55:40Z</time>
      </trkpt>
      <trkpt lat="46.522021014243364" lon="6.94955175742507">
        <ele>1077.29</ele>
        <time>2012-05-27T10:56:18Z</time>
      </trkpt>
      <trkpt lat="46.522019170224667" lon="6.949540190398693">
        <ele>1077.29</ele>
        <time>2012-05-27T10:56:41Z</time>
      </trkpt>
      <trkpt lat="46.521969549357891" lon="6.949512027204037">
        <ele>1077.29</ele>
        <time>2012-05-27T10:56:46Z</time>
      </trkpt>
      <trkpt lat="46.521922359243035" lon="6.949539771303535">
        <ele>1077.29</ele>
        <time>2012-05-27T10:56:50Z</time>
      </trkpt>
      <trkpt lat="46.521901823580265" lon="6.949558965861797">
        <ele>1077.29</ele>
        <time>2012-05-27T10:56:51Z</time>
      </trkpt>
      <trkpt lat="46.521883634850383" lon="6.949587967246771">
        <ele>1077.29</ele>
        <time>2012-05-27T10:56:52Z</time>
      </trkpt>
      <trkpt lat="46.521866954863071" lon="6.949622668325901">
        <ele>1077.78</ele>
        <time>2012-05-27T10:56:53Z</time>
      </trkpt>
      <trkpt lat="46.521851532161236" lon="6.949661811813712">
        <ele>1077.78</ele>
        <time>2012-05-27T10:56:54Z</time>
      </trkpt>
      <trkpt lat="46.521834935992956" lon="6.949704559519887">
        <ele>1077.78</ele>
        <time>2012-05-27T10:56:55Z</time>
      </trkpt>
      <trkpt lat="46.521612145006657" lon="6.95040293969214">
        <ele>1079.22</ele>
        <time>2012-05-27T10:57:11Z</time>
      </trkpt>
      <trkpt lat="46.521290028467774" lon="6.951194191351533">
        <ele>1080.1800000000001</ele>
        <time>2012-05-27T10:57:28Z</time>
      </trkpt>
      <trkpt lat="46.520980820059776" lon="6.951888632029295">
        <ele>1082.5799999999999</ele>
        <time>2012-05-27T10:57:43Z</time>
      </trkpt>
      <trkpt lat="46.520515205338597" lon="6.952390540391207">
        <ele>1085.47</ele>
        <time>2012-05-27T10:57:59Z</time>
      </trkpt>
      <trkpt lat="46.520160567015409" lon="6.953190676867962">
        <ele>1089.79</ele>
        <time>2012-05-27T10:58:18Z</time>
      </trkpt>
      <trkpt lat="46.519842306151986" lon="6.953973798081279">
        <ele>1093.1600000000001</ele>
        <time>2012-05-27T10:58:38Z</time>
      </trkpt>
      <trkpt lat="46.519611803814769" lon="6.954671842977405">
        <ele>1097.96</ele>
        <time>2012-05-27T10:58:57Z</time>
      </trkpt>
      <trkpt lat="46.519484398886561" lon="6.955153467133641">
        <ele>1100.3699999999999</ele>
        <time>2012-05-27T10:59:10Z</time>
      </trkpt>
      <trkpt lat="46.51927032507956" lon="6.955743804574013">
        <ele>1104.21</ele>
        <time>2012-05-27T10:59:27Z</time>
      </trkpt>
      <trkpt lat="46.519133197143674" lon="6.956175724044442">
        <ele>1103.25</ele>
        <time>2012-05-27T10:59:37Z</time>
      </trkpt>
      <trkpt lat="46.519127245992422" lon="6.956243282184005">
        <ele>1102.77</ele>
        <time>2012-05-27T10:59:38Z</time>
      </trkpt>
      <trkpt lat="46.519133616238832" lon="6.95654209703207">
        <ele>1101.8099999999999</ele>
        <time>2012-05-27T10:59:42Z</time>
      </trkpt>
      <trkpt lat="46.519213579595089" lon="6.957107037305832">
        <ele>1101.3299999999999</ele>
        <time>2012-05-27T10:59:49Z</time>
      </trkpt>
      <trkpt lat="46.519213663414121" lon="6.957184234634042">
        <ele>1101.8099999999999</ele>
        <time>2012-05-27T10:59:50Z</time>
      </trkpt>
      <trkpt lat="46.519204443320632" lon="6.957261264324188">
        <ele>1101.8099999999999</ele>
        <time>2012-05-27T10:59:51Z</time>
      </trkpt>
      <trkpt lat="46.519192457199097" lon="6.957336701452732">
        <ele>1101.8099999999999</ele>
        <time>2012-05-27T10:59:52Z</time>
      </trkpt>
      <trkpt lat="46.51917602866888" lon="6.95740794762969">
        <ele>1101.8099999999999</ele>
        <time>2012-05-27T10:59:53Z</time>
      </trkpt>
      <trkpt lat="46.519153146073222" lon="6.957475086674094">
        <ele>1101.8099999999999</ele>
        <time>2012-05-27T10:59:54Z</time>
      </trkpt>
      <trkpt lat="46.519123306497931" lon="6.957536274567246">
        <ele>1102.29</ele>
        <time>2012-05-27T10:59:55Z</time>
      </trkpt>
      <trkpt lat="46.519087851047516" lon="6.957590840756893">
        <ele>1102.29</ele>
        <time>2012-05-27T10:59:56Z</time>
      </trkpt>
      <trkpt lat="46.519048037007451" lon="6.957638114690781">
        <ele>1102.29</ele>
        <time>2012-05-27T10:59:57Z</time>
      </trkpt>
      <trkpt lat="46.519008558243513" lon="6.957687148824334">
        <ele>1102.77</ele>
        <time>2012-05-27T10:59:58Z</time>
      </trkpt>
      <trkpt lat="46.518971174955368" lon="6.957738948985934">
        <ele>1102.77</ele>
        <time>2012-05-27T10:59:59Z</time>
      </trkpt>
      <trkpt lat="46.518934713676572" lon="6.957791419699788">
        <ele>1102.77</ele>
        <time>2012-05-27T11:00:00Z</time>
      </trkpt>
      <trkpt lat="46.518905209377408" lon="6.957853026688099">
        <ele>1102.77</ele>
        <time>2012-05-27T11:00:01Z</time>
      </trkpt>
      <trkpt lat="46.518881488591433" lon="6.957921758294106">
        <ele>1102.77</ele>
        <time>2012-05-27T11:00:02Z</time>
      </trkpt>
      <trkpt lat="46.518865395337343" lon="6.957995602861047">
        <ele>1102.77</ele>
        <time>2012-05-27T11:00:03Z</time>
      </trkpt>
      <trkpt lat="46.518855253234506" lon="6.958072381094098">
        <ele>1102.77</ele>
        <time>2012-05-27T11:00:04Z</time>
      </trkpt>
      <trkpt lat="46.518850056454539" lon="6.95815016515553">
        <ele>1102.77</ele>
        <time>2012-05-27T11:00:05Z</time>
      </trkpt>
      <trkpt lat="46.518848212435842" lon="6.958227278664708">
        <ele>1103.25</ele>
        <time>2012-05-27T11:00:06Z</time>
      </trkpt>
      <trkpt lat="46.518846703693271" lon="6.95934047922492">
        <ele>1103.25</ele>
        <time>2012-05-27T11:00:21Z</time>
      </trkpt>
      <trkpt lat="46.518737487494946" lon="6.960131479427218">
        <ele>1108.0599999999999</ele>
        <time>2012-05-27T11:00:37Z</time>
      </trkpt>
      <trkpt lat="46.518752994015813" lon="6.960886269807816">
        <ele>1111.9000000000001</ele>
        <time>2012-05-27T11:00:54Z</time>
      </trkpt>
      <trkpt lat="46.518771182745695" lon="6.961663858965039">
        <ele>1114.79</ele>
        <time>2012-05-27T11:01:11Z</time>
      </trkpt>
      <trkpt lat="46.518567502498627" lon="6.962153865024447">
        <ele>1116.23</ele>
        <time>2012-05-27T11:01:24Z</time>
      </trkpt>
      <trkpt lat="46.518355859443545" lon="6.962699443101883">
        <ele>1118.6300000000001</ele>
        <time>2012-05-27T11:01:38Z</time>
      </trkpt>
      <trkpt lat="46.518286457285285" lon="6.963187186047435">
        <ele>1120.55</ele>
        <time>2012-05-27T11:01:50Z</time>
      </trkpt>
      <trkpt lat="46.518168691545725" lon="6.963634109124541">
        <ele>1126.3199999999999</ele>
        <time>2012-05-27T11:02:04Z</time>
      </trkpt>
      <trkpt lat="46.518146982416511" lon="6.963877268135548">
        <ele>1129.21</ele>
        <time>2012-05-27T11:02:12Z</time>
      </trkpt>
      <trkpt lat="46.518157627433538" lon="6.963911550119519">
        <ele>1128.73</ele>
        <time>2012-05-27T11:02:13Z</time>
      </trkpt>
      <trkpt lat="46.518169026821852" lon="6.963942311704159">
        <ele>1129.21</ele>
        <time>2012-05-27T11:02:14Z</time>
      </trkpt>
      <trkpt lat="46.518177576363087" lon="6.963980784639716">
        <ele>1128.73</ele>
        <time>2012-05-27T11:02:15Z</time>
      </trkpt>
      <trkpt lat="46.518184030428529" lon="6.964019425213337">
        <ele>1128.73</ele>
        <time>2012-05-27T11:02:16Z</time>
      </trkpt>
      <trkpt lat="46.518186461180449" lon="6.964054293930531">
        <ele>1128.73</ele>
        <time>2012-05-27T11:02:17Z</time>
      </trkpt>
      <trkpt lat="46.5181924123317" lon="6.96408555842936">
        <ele>1128.73</ele>
        <time>2012-05-27T11:02:18Z</time>
      </trkpt>
      <trkpt lat="46.518192579969764" lon="6.964121181517839">
        <ele>1129.21</ele>
        <time>2012-05-27T11:02:19Z</time>
      </trkpt>
      <trkpt lat="46.518193082883954" lon="6.964157810434699">
        <ele>1129.21</ele>
        <time>2012-05-27T11:02:20Z</time>
      </trkpt>
      <trkpt lat="46.518159890547395" lon="6.964690564200282">
        <ele>1131.1300000000001</ele>
        <time>2012-05-27T11:02:33Z</time>
      </trkpt>
      <trkpt lat="46.5181147120893" lon="6.965311579406261">
        <ele>1132.0899999999999</ele>
        <time>2012-05-27T11:02:48Z</time>
      </trkpt>
      <trkpt lat="46.518208086490631" lon="6.965644173324108">
        <ele>1133.05</ele>
        <time>2012-05-27T11:02:59Z</time>
      </trkpt>
      <trkpt lat="46.518273130059242" lon="6.965974671766162">
        <ele>1136.9000000000001</ele>
        <time>2012-05-27T11:03:11Z</time>
      </trkpt>
      <trkpt lat="46.518265251070261" lon="6.965995542705059">
        <ele>1137.3800000000001</ele>
        <time>2012-05-27T11:03:12Z</time>
      </trkpt>
      <trkpt lat="46.518263574689627" lon="6.966020856052637">
        <ele>1137.3800000000001</ele>
        <time>2012-05-27T11:03:13Z</time>
      </trkpt>
      <trkpt lat="46.518261898308992" lon="6.966048432514072">
        <ele>1137.8599999999999</ele>
        <time>2012-05-27T11:03:14Z</time>
      </trkpt>
      <trkpt lat="46.518262149766088" lon="6.96607475169003">
        <ele>1137.8599999999999</ele>
        <time>2012-05-27T11:03:15Z</time>
      </trkpt>
      <trkpt lat="46.518264999613166" lon="6.966102663427591">
        <ele>1138.3399999999999</ele>
        <time>2012-05-27T11:03:16Z</time>
      </trkpt>
      <trkpt lat="46.518265334889293" lon="6.966134095564485">
        <ele>1138.3399999999999</ele>
        <time>2012-05-27T11:03:17Z</time>
      </trkpt>
      <trkpt lat="46.518243961036205" lon="6.966475574299693">
        <ele>1141.7</ele>
        <time>2012-05-27T11:03:29Z</time>
      </trkpt>
      <trkpt lat="46.518265837803483" lon="6.966800121590495">
        <ele>1145.0699999999999</ele>
        <time>2012-05-27T11:03:43Z</time>
      </trkpt>
      <trkpt lat="46.518230214715004" lon="6.967203877866268">
        <ele>1152.76</ele>
        <time>2012-05-27T11:03:57Z</time>
      </trkpt>
      <trkpt lat="46.518272208049893" lon="6.967489784583449">
        <ele>1155.6400000000001</ele>
        <time>2012-05-27T11:04:08Z</time>
      </trkpt>
      <trkpt lat="46.518349824473262" lon="6.967891780659556">
        <ele>1155.6400000000001</ele>
        <time>2012-05-27T11:04:23Z</time>
      </trkpt>
      <trkpt lat="46.518339766189456" lon="6.968340128660202">
        <ele>1145.55</ele>
        <time>2012-05-27T11:04:39Z</time>
      </trkpt>
      <trkpt lat="46.518336916342378" lon="6.968407267704606">
        <ele>1143.6300000000001</ele>
        <time>2012-05-27T11:04:41Z</time>
      </trkpt>
      <trkpt lat="46.518333395943046" lon="6.968442220240831">
        <ele>1143.1400000000001</ele>
        <time>2012-05-27T11:04:42Z</time>
      </trkpt>
      <trkpt lat="46.518325684592128" lon="6.968475412577391">
        <ele>1142.1800000000001</ele>
        <time>2012-05-27T11:04:43Z</time>
      </trkpt>
      <trkpt lat="46.518306825309992" lon="6.968521596863866">
        <ele>1141.7</ele>
        <time>2012-05-27T11:04:45Z</time>
      </trkpt>
      <trkpt lat="46.518280589953065" lon="6.968559818342328">
        <ele>1141.22</ele>
        <time>2012-05-27T11:04:48Z</time>
      </trkpt>
      <trkpt lat="46.518263071775436" lon="6.96861119940877">
        <ele>1141.7</ele>
        <time>2012-05-27T11:04:51Z</time>
      </trkpt>
      <trkpt lat="46.518010189756751" lon="6.968607427552342">
        <ele>1152.28</ele>
        <time>2012-05-27T11:05:04Z</time>
      </trkpt>
      <trkpt lat="46.517834002152085" lon="6.968637686222792">
        <ele>1159.01</ele>
        <time>2012-05-27T11:05:15Z</time>
      </trkpt>
      <trkpt lat="46.517562344670296" lon="6.968653276562691">
        <ele>1165.26</ele>
        <time>2012-05-27T11:05:28Z</time>
      </trkpt>
      <trkpt lat="46.517251124605536" lon="6.968621509149671">
        <ele>1170.54</ele>
        <time>2012-05-27T11:05:43Z</time>
      </trkpt>
      <trkpt lat="46.517055239528418" lon="6.968838768079877">
        <ele>1172.95</ele>
        <time>2012-05-27T11:05:56Z</time>
      </trkpt>
      <trkpt lat="46.517040403559804" lon="6.968856872990727">
        <ele>1172.95</ele>
        <time>2012-05-27T11:05:57Z</time>
      </trkpt>
      <trkpt lat="46.517024058848619" lon="6.968874139711261">
        <ele>1172.95</ele>
        <time>2012-05-27T11:05:58Z</time>
      </trkpt>
      <trkpt lat="46.516808224841952" lon="6.969156358391047">
        <ele>1177.75</ele>
        <time>2012-05-27T11:06:15Z</time>
      </trkpt>
      <trkpt lat="46.516634132713079" lon="6.969388034194708">
        <ele>1176.79</ele>
        <time>2012-05-27T11:06:30Z</time>
      </trkpt>
      <trkpt lat="46.516526592895389" lon="6.96959875524044">
        <ele>1179.1900000000001</ele>
        <time>2012-05-27T11:06:42Z</time>
      </trkpt>
      <trkpt lat="46.516525503247976" lon="6.969619793817401">
        <ele>1179.6700000000001</ele>
        <time>2012-05-27T11:06:43Z</time>
      </trkpt>
      <trkpt lat="46.516520055010915" lon="6.969639910385013">
        <ele>1180.1600000000001</ele>
        <time>2012-05-27T11:06:44Z</time>
      </trkpt>
      <trkpt lat="46.516512762755156" lon="6.969658937305212">
        <ele>1180.1600000000001</ele>
        <time>2012-05-27T11:06:45Z</time>
      </trkpt>
      <trkpt lat="46.51650806888938" lon="6.969679975882173">
        <ele>1180.6400000000001</ele>
        <time>2012-05-27T11:06:46Z</time>
      </trkpt>
      <trkpt lat="46.516508236527443" lon="6.969700679183006">
        <ele>1180.6400000000001</ele>
        <time>2012-05-27T11:06:47Z</time>
      </trkpt>
      <trkpt lat="46.516513014212251" lon="6.969724399968982">
        <ele>1181.1199999999999</ele>
        <time>2012-05-27T11:06:48Z</time>
      </trkpt>
      <trkpt lat="46.516635222360492" lon="6.970050623640418">
        <ele>1183.52</ele>
        <time>2012-05-27T11:07:04Z</time>
      </trkpt>
      <trkpt lat="46.516778636723757" lon="6.970275677740574">
        <ele>1188.8099999999999</ele>
        <time>2012-05-27T11:07:19Z</time>
      </trkpt>
      <trkpt lat="46.516835214570165" lon="6.970355389639735">
        <ele>1191.6900000000001</ele>
        <time>2012-05-27T11:07:24Z</time>
      </trkpt>
      <trkpt lat="46.516850050538778" lon="6.970377685502172">
        <ele>1192.1700000000001</ele>
        <time>2012-05-27T11:07:25Z</time>
      </trkpt>
      <trkpt lat="46.516863545402884" lon="6.970400149002671">
        <ele>1192.1700000000001</ele>
        <time>2012-05-27T11:07:26Z</time>
      </trkpt>
      <trkpt lat="46.516996901482344" lon="6.97067809291184">
        <ele>1195.0599999999999</ele>
        <time>2012-05-27T11:07:41Z</time>
      </trkpt>
      <trkpt lat="46.517142159864306" lon="6.970901135355234">
        <ele>1198.4200000000001</ele>
        <time>2012-05-27T11:07:54Z</time>
      </trkpt>
      <trkpt lat="46.517274174839258" lon="6.971092661842704">
        <ele>1206.1099999999999</ele>
        <time>2012-05-27T11:08:09Z</time>
      </trkpt>
      <trkpt lat="46.517341900616884" lon="6.971210846677423">
        <ele>1209</ele>
        <time>2012-05-27T11:08:16Z</time>
      </trkpt>
      <trkpt lat="46.517367046326399" lon="6.971351243555546">
        <ele>1212.3599999999999</ele>
        <time>2012-05-27T11:08:22Z</time>
      </trkpt>
      <trkpt lat="46.517353719100356" lon="6.971429530531168">
        <ele>1211.8800000000001</ele>
        <time>2012-05-27T11:08:25Z</time>
      </trkpt>
      <trkpt lat="46.517350114881992" lon="6.971457106992602">
        <ele>1211.8800000000001</ele>
        <time>2012-05-27T11:08:26Z</time>
      </trkpt>
      <trkpt lat="46.517343744635582" lon="6.9714814145118">
        <ele>1212.3599999999999</ele>
        <time>2012-05-27T11:08:27Z</time>
      </trkpt>
      <trkpt lat="46.517334524542093" lon="6.971505470573902">
        <ele>1212.3599999999999</ele>
        <time>2012-05-27T11:08:28Z</time>
      </trkpt>
      <trkpt lat="46.517324717715383" lon="6.971532627940178">
        <ele>1212.3599999999999</ele>
        <time>2012-05-27T11:08:29Z</time>
      </trkpt>
      <trkpt lat="46.517317844554782" lon="6.971557773649693">
        <ele>1212.8399999999999</ele>
        <time>2012-05-27T11:08:30Z</time>
      </trkpt>
      <trkpt lat="46.517180800437927" lon="6.971778385341167">
        <ele>1211.8800000000001</ele>
        <time>2012-05-27T11:08:44Z</time>
      </trkpt>
      <trkpt lat="46.517060603946447" lon="6.971922470256686">
        <ele>1212.8399999999999</ele>
        <time>2012-05-27T11:08:57Z</time>
      </trkpt>
      <trkpt lat="46.516895899549127" lon="6.972154984250665">
        <ele>1219.5699999999999</ele>
        <time>2012-05-27T11:09:10Z</time>
      </trkpt>
      <trkpt lat="46.516787772998214" lon="6.972381044179201">
        <ele>1222.9300000000001</ele>
        <time>2012-05-27T11:09:22Z</time>
      </trkpt>
      <trkpt lat="46.516880225390196" lon="6.972661251202226">
        <ele>1221.01</ele>
        <time>2012-05-27T11:09:37Z</time>
      </trkpt>
      <trkpt lat="46.517023807391524" lon="6.972940284758806">
        <ele>1221.49</ele>
        <time>2012-05-27T11:09:54Z</time>
      </trkpt>
      <trkpt lat="46.517171580344439" lon="6.973234238103032">
        <ele>1224.8599999999999</ele>
        <time>2012-05-27T11:10:11Z</time>
      </trkpt>
      <trkpt lat="46.517308373004198" lon="6.973464237526059">
        <ele>1226.78</ele>
        <time>2012-05-27T11:10:26Z</time>
      </trkpt>
      <trkpt lat="46.517497887834907" lon="6.973721059039235">
        <ele>1228.7</ele>
        <time>2012-05-27T11:10:43Z</time>
      </trkpt>
      <trkpt lat="46.517658988013864" lon="6.973957596346736">
        <ele>1229.1800000000001</ele>
        <time>2012-05-27T11:10:58Z</time>
      </trkpt>
      <trkpt lat="46.517709530889988" lon="6.974272839725018">
        <ele>1231.1099999999999</ele>
        <time>2012-05-27T11:11:13Z</time>
      </trkpt>
      <trkpt lat="46.517601991072297" lon="6.974549861624837">
        <ele>1233.51</ele>
        <time>2012-05-27T11:11:27Z</time>
      </trkpt>
      <trkpt lat="46.517565278336406" lon="6.974585233256221">
        <ele>1234.47</ele>
        <time>2012-05-27T11:11:30Z</time>
      </trkpt>
      <trkpt lat="46.517554465681314" lon="6.974597806110978">
        <ele>1234.95</ele>
        <time>2012-05-27T11:11:31Z</time>
      </trkpt>
      <trkpt lat="46.517349779605865" lon="6.974806934595108">
        <ele>1236.3900000000001</ele>
        <time>2012-05-27T11:11:44Z</time>
      </trkpt>
      <trkpt lat="46.517332093790174" lon="6.97481825016439">
        <ele>1236.8699999999999</ele>
        <time>2012-05-27T11:11:45Z</time>
      </trkpt>
      <trkpt lat="46.517314491793513" lon="6.974836690351367">
        <ele>1236.8699999999999</ele>
        <time>2012-05-27T11:11:46Z</time>
      </trkpt>
      <trkpt lat="46.517296386882663" lon="6.974857142195106">
        <ele>1236.8699999999999</ele>
        <time>2012-05-27T11:11:47Z</time>
      </trkpt>
      <trkpt lat="46.517277108505368" lon="6.974876252934337">
        <ele>1237.3499999999999</ele>
        <time>2012-05-27T11:11:48Z</time>
      </trkpt>
      <trkpt lat="46.517256740480661" lon="6.974897794425488">
        <ele>1237.3499999999999</ele>
        <time>2012-05-27T11:11:49Z</time>
      </trkpt>
      <trkpt lat="46.517235450446606" lon="6.974918330088258">
        <ele>1237.3499999999999</ele>
        <time>2012-05-27T11:11:50Z</time>
      </trkpt>
      <trkpt lat="46.516919201239944" lon="6.975216642022133">
        <ele>1237.3499999999999</ele>
        <time>2012-05-27T11:12:05Z</time>
      </trkpt>
      <trkpt lat="46.516769835725427" lon="6.975556863471866">
        <ele>1238.3199999999999</ele>
        <time>2012-05-27T11:12:15Z</time>
      </trkpt>
      <trkpt lat="46.516629690304399" lon="6.976057011634111">
        <ele>1241.2</ele>
        <time>2012-05-27T11:12:27Z</time>
      </trkpt>
      <trkpt lat="46.516627930104733" lon="6.976451212540269">
        <ele>1239.28</ele>
        <time>2012-05-27T11:12:34Z</time>
      </trkpt>
      <trkpt lat="46.516642430797219" lon="6.976513657718897">
        <ele>1239.28</ele>
        <time>2012-05-27T11:12:35Z</time>
      </trkpt>
      <trkpt lat="46.516677131876349" lon="6.976635027676821">
        <ele>1238.8</ele>
        <time>2012-05-27T11:12:37Z</time>
      </trkpt>
      <trkpt lat="46.516868658363819" lon="6.977485958486795">
        <ele>1237.8299999999999</ele>
        <time>2012-05-27T11:12:52Z</time>
      </trkpt>
      <trkpt lat="46.516942922025919" lon="6.978117283433676">
        <ele>1239.28</ele>
        <time>2012-05-27T11:13:04Z</time>
      </trkpt>
      <trkpt lat="46.51695566251874" lon="6.978385001420975">
        <ele>1239.28</ele>
        <time>2012-05-27T11:13:09Z</time>
      </trkpt>
      <trkpt lat="46.516949292272329" lon="6.978444512933493">
        <ele>1238.8</ele>
        <time>2012-05-27T11:13:10Z</time>
      </trkpt>
      <trkpt lat="46.516935713589191" lon="6.978507796302438">
        <ele>1238.8</ele>
        <time>2012-05-27T11:13:11Z</time>
      </trkpt>
      <trkpt lat="46.516910819336772" lon="6.978567978367209">
        <ele>1238.8</ele>
        <time>2012-05-27T11:13:12Z</time>
      </trkpt>
      <trkpt lat="46.516880225390196" lon="6.978626986965537">
        <ele>1238.3199999999999</ele>
        <time>2012-05-27T11:13:13Z</time>
      </trkpt>
      <trkpt lat="46.516851056367159" lon="6.97868088260293">
        <ele>1238.3199999999999</ele>
        <time>2012-05-27T11:13:14Z</time>
      </trkpt>
      <trkpt lat="46.51682373136282" lon="6.978736873716116">
        <ele>1238.3199999999999</ele>
        <time>2012-05-27T11:13:15Z</time>
      </trkpt>
      <trkpt lat="46.516774278134108" lon="6.978864194825292">
        <ele>1238.3199999999999</ele>
        <time>2012-05-27T11:13:17Z</time>
      </trkpt>
      <trkpt lat="46.516755921766162" lon="6.978931082412601">
        <ele>1238.3199999999999</ele>
        <time>2012-05-27T11:13:18Z</time>
      </trkpt>
      <trkpt lat="46.516733122989535" lon="6.978991515934467">
        <ele>1238.8</ele>
        <time>2012-05-27T11:13:19Z</time>
      </trkpt>
      <trkpt lat="46.51671283878386" lon="6.979055469855666">
        <ele>1238.8</ele>
        <time>2012-05-27T11:13:20Z</time>
      </trkpt>
      <trkpt lat="46.516700936481357" lon="6.979119507595897">
        <ele>1238.8</ele>
        <time>2012-05-27T11:13:21Z</time>
      </trkpt>
      <trkpt lat="46.516693728044629" lon="6.979184886440635">
        <ele>1239.28</ele>
        <time>2012-05-27T11:13:22Z</time>
      </trkpt>
      <trkpt lat="46.516689956188202" lon="6.97925353422761">
        <ele>1239.76</ele>
        <time>2012-05-27T11:13:23Z</time>
      </trkpt>
      <trkpt lat="46.516694566234946" lon="6.979324528947473">
        <ele>1239.76</ele>
        <time>2012-05-27T11:13:24Z</time>
      </trkpt>
      <trkpt lat="46.516706887632608" lon="6.97939963079989">
        <ele>1240.24</ele>
        <time>2012-05-27T11:13:25Z</time>
      </trkpt>
      <trkpt lat="46.516721723601222" lon="6.979475319385529">
        <ele>1240.24</ele>
        <time>2012-05-27T11:13:26Z</time>
      </trkpt>
      <trkpt lat="46.516767907887697" lon="6.979712694883347">
        <ele>1239.76</ele>
        <time>2012-05-27T11:13:29Z</time>
      </trkpt>
      <trkpt lat="46.516778217628598" lon="6.97987899184227">
        <ele>1239.28</ele>
        <time>2012-05-27T11:13:31Z</time>
      </trkpt>
      <trkpt lat="46.516770673915744" lon="6.979965912178159">
        <ele>1238.8</ele>
        <time>2012-05-27T11:13:32Z</time>
      </trkpt>
      <trkpt lat="46.516754329204559" lon="6.980053251609206">
        <ele>1238.8</ele>
        <time>2012-05-27T11:13:33Z</time>
      </trkpt>
      <trkpt lat="46.516728680580854" lon="6.980137741193175">
        <ele>1238.3199999999999</ele>
        <time>2012-05-27T11:13:34Z</time>
      </trkpt>
      <trkpt lat="46.516699260100722" lon="6.980222146958113">
        <ele>1237.8299999999999</ele>
        <time>2012-05-27T11:13:35Z</time>
      </trkpt>
      <trkpt lat="46.516554253175855" lon="6.980853723362088">
        <ele>1236.8699999999999</ele>
        <time>2012-05-27T11:13:42Z</time>
      </trkpt>
      <trkpt lat="46.516551738604903" lon="6.980948271229863">
        <ele>1236.8699999999999</ele>
        <time>2012-05-27T11:13:43Z</time>
      </trkpt>
      <trkpt lat="46.516559114679694" lon="6.981041058897972">
        <ele>1236.8699999999999</ele>
        <time>2012-05-27T11:13:44Z</time>
      </trkpt>
      <trkpt lat="46.516574369743466" lon="6.981127727776766">
        <ele>1236.3900000000001</ele>
        <time>2012-05-27T11:13:45Z</time>
      </trkpt>
      <trkpt lat="46.516591887921095" lon="6.981205176562071">
        <ele>1236.8699999999999</ele>
        <time>2012-05-27T11:13:46Z</time>
      </trkpt>
      <trkpt lat="46.516659948974848" lon="6.981509691104293">
        <ele>1238.8</ele>
        <time>2012-05-27T11:13:54Z</time>
      </trkpt>
      <trkpt lat="46.51666447520256" lon="6.981526957824826">
        <ele>1239.28</ele>
        <time>2012-05-27T11:13:55Z</time>
      </trkpt>
      <trkpt lat="46.51666983962059" lon="6.981544811278582">
        <ele>1240.24</ele>
        <time>2012-05-27T11:13:56Z</time>
      </trkpt>
      <trkpt lat="46.516674617305398" lon="6.981564173474908">
        <ele>1240.72</ele>
        <time>2012-05-27T11:13:57Z</time>
      </trkpt>
      <trkpt lat="46.516678472980857" lon="6.981586301699281">
        <ele>1241.2</ele>
        <time>2012-05-27T11:13:58Z</time>
      </trkpt>
      <trkpt lat="46.516680987551808" lon="6.981607172638178">
        <ele>1241.6800000000001</ele>
        <time>2012-05-27T11:13:59Z</time>
      </trkpt>
      <trkpt lat="46.516681741923094" lon="6.981629217043519">
        <ele>1241.6800000000001</ele>
        <time>2012-05-27T11:14:00Z</time>
      </trkpt>
      <trkpt lat="46.516704373061657" lon="6.982034733518958">
        <ele>1244.5599999999999</ele>
        <time>2012-05-27T11:14:15Z</time>
      </trkpt>
      <trkpt lat="46.516670426353812" lon="6.982670249417424">
        <ele>1246.97</ele>
        <time>2012-05-27T11:14:33Z</time>
      </trkpt>
      <trkpt lat="46.516537573188543" lon="6.983269723132253">
        <ele>1249.8499999999999</ele>
        <time>2012-05-27T11:14:51Z</time>
      </trkpt>
      <trkpt lat="46.516516283154488" lon="6.983798705041409">
        <ele>1251.77</ele>
        <time>2012-05-27T11:15:08Z</time>
      </trkpt>
      <trkpt lat="46.516590798273683" lon="6.984277898445725">
        <ele>1253.7</ele>
        <time>2012-05-27T11:15:23Z</time>
      </trkpt>
      <trkpt lat="46.516648381948471" lon="6.984911905601621">
        <ele>1257.0599999999999</ele>
        <time>2012-05-27T11:15:41Z</time>
      </trkpt>
      <trkpt lat="46.516551990061998" lon="6.985509116202593">
        <ele>1258.02</ele>
        <time>2012-05-27T11:15:57Z</time>
      </trkpt>
      <trkpt lat="46.516516115516424" lon="6.986249908804894">
        <ele>1259.46</ele>
        <time>2012-05-27T11:16:14Z</time>
      </trkpt>
      <trkpt lat="46.516505135223269" lon="6.98693772777915">
        <ele>1259.46</ele>
        <time>2012-05-27T11:16:28Z</time>
      </trkpt>
      <trkpt lat="46.516378736123443" lon="6.987361013889313">
        <ele>1261.8699999999999</ele>
        <time>2012-05-27T11:16:40Z</time>
      </trkpt>
      <trkpt lat="46.51626281440258" lon="6.987712299451232">
        <ele>1265.71</ele>
        <time>2012-05-27T11:16:52Z</time>
      </trkpt>
      <trkpt lat="46.516282930970192" lon="6.988047827035189">
        <ele>1268.1199999999999</ele>
        <time>2012-05-27T11:17:03Z</time>
      </trkpt>
      <trkpt lat="46.516234148293734" lon="6.988302720710635">
        <ele>1273.4000000000001</ele>
        <time>2012-05-27T11:17:15Z</time>
      </trkpt>
      <trkpt lat="46.516234232112765" lon="6.988323759287596">
        <ele>1273.4000000000001</ele>
        <time>2012-05-27T11:17:16Z</time>
      </trkpt>
      <trkpt lat="46.516231466084719" lon="6.988344043493271">
        <ele>1273.8800000000001</ele>
        <time>2012-05-27T11:17:17Z</time>
      </trkpt>
      <trkpt lat="46.516223503276706" lon="6.988358879461885">
        <ele>1274.3599999999999</ele>
        <time>2012-05-27T11:17:18Z</time>
      </trkpt>
      <trkpt lat="46.516211852431297" lon="6.988372541964054">
        <ele>1274.3599999999999</ele>
        <time>2012-05-27T11:17:19Z</time>
      </trkpt>
      <trkpt lat="46.516208667308092" lon="6.988392155617476">
        <ele>1274.8499999999999</ele>
        <time>2012-05-27T11:17:20Z</time>
      </trkpt>
      <trkpt lat="46.516208415850997" lon="6.988412356004119">
        <ele>1275.3299999999999</ele>
        <time>2012-05-27T11:17:21Z</time>
      </trkpt>
      <trkpt lat="46.516208834946156" lon="6.988436579704285">
        <ele>1275.8099999999999</ele>
        <time>2012-05-27T11:17:22Z</time>
      </trkpt>
      <trkpt lat="46.516206655651331" lon="6.988457031548023">
        <ele>1275.8099999999999</ele>
        <time>2012-05-27T11:17:23Z</time>
      </trkpt>
      <trkpt lat="46.516207410022616" lon="6.988480500876904">
        <ele>1276.29</ele>
        <time>2012-05-27T11:17:24Z</time>
      </trkpt>
      <trkpt lat="46.516207410022616" lon="6.988620897755027">
        <ele>1278.6900000000001</ele>
        <time>2012-05-27T11:17:31Z</time>
      </trkpt>
      <trkpt lat="46.516072964295745" lon="6.988958353176713">
        <ele>1281.0899999999999</ele>
        <time>2012-05-27T11:17:49Z</time>
      </trkpt>
      <trkpt lat="46.515889065340161" lon="6.989268651232123">
        <ele>1283.98</ele>
        <time>2012-05-27T11:18:06Z</time>
      </trkpt>
      <trkpt lat="46.51570818386972" lon="6.989491358399391">
        <ele>1286.3800000000001</ele>
        <time>2012-05-27T11:18:22Z</time>
      </trkpt>
      <trkpt lat="46.515564685687423" lon="6.989677269011736">
        <ele>1288.3</ele>
        <time>2012-05-27T11:18:36Z</time>
      </trkpt>
      <trkpt lat="46.515362933278084" lon="6.989938449114561">
        <ele>1291.6700000000001</ele>
        <time>2012-05-27T11:18:54Z</time>
      </trkpt>
      <trkpt lat="46.515180878341198" lon="6.990135172381997">
        <ele>1294.55</ele>
        <time>2012-05-27T11:19:10Z</time>
      </trkpt>
      <trkpt lat="46.514939060434699" lon="6.990301301702857">
        <ele>1296.96</ele>
        <time>2012-05-27T11:19:29Z</time>
      </trkpt>
      <trkpt lat="46.514700511470437" lon="6.990483608096838">
        <ele>1300.8</ele>
        <time>2012-05-27T11:19:48Z</time>
      </trkpt>
      <trkpt lat="46.514457184821367" lon="6.99066742323339">
        <ele>1302.24</ele>
        <time>2012-05-27T11:20:07Z</time>
      </trkpt>
      <trkpt lat="46.514235064387321" lon="6.990813603624702">
        <ele>1306.5699999999999</ele>
        <time>2012-05-27T11:20:24Z</time>
      </trkpt>
      <trkpt lat="46.513993330299854" lon="6.990961795672774">
        <ele>1308.97</ele>
        <time>2012-05-27T11:20:42Z</time>
      </trkpt>
      <trkpt lat="46.513763330876827" lon="6.991039412096143">
        <ele>1310.9000000000001</ele>
        <time>2012-05-27T11:20:58Z</time>
      </trkpt>
      <trkpt lat="46.513542048633099" lon="6.991142425686121">
        <ele>1313.3</ele>
        <time>2012-05-27T11:21:15Z</time>
      </trkpt>
      <trkpt lat="46.51350986212492" lon="6.991154998540878">
        <ele>1313.3</ele>
        <time>2012-05-27T11:21:18Z</time>
      </trkpt>
      <trkpt lat="46.513497792184353" lon="6.991161368787289">
        <ele>1313.3</ele>
        <time>2012-05-27T11:21:19Z</time>
      </trkpt>
      <trkpt lat="46.51326552964747" lon="6.991168241947889">
        <ele>1314.74</ele>
        <time>2012-05-27T11:21:34Z</time>
      </trkpt>
      <trkpt lat="46.513048354536295" lon="6.99117511510849">
        <ele>1316.6600000000001</ele>
        <time>2012-05-27T11:21:49Z</time>
      </trkpt>
      <trkpt lat="46.512850625440478" lon="6.991240829229355">
        <ele>1319.0699999999999</ele>
        <time>2012-05-27T11:22:03Z</time>
      </trkpt>
      <trkpt lat="46.512691285461187" lon="6.991207050159574">
        <ele>1321.47</ele>
        <time>2012-05-27T11:22:14Z</time>
      </trkpt>
      <trkpt lat="46.512685921043158" lon="6.991185760125518">
        <ele>1321.47</ele>
        <time>2012-05-27T11:22:15Z</time>
      </trkpt>
      <trkpt lat="46.512682819738984" lon="6.991163548082113">
        <ele>1321.95</ele>
        <time>2012-05-27T11:22:16Z</time>
      </trkpt>
      <trkpt lat="46.512682400643826" lon="6.991142090409994">
        <ele>1321.95</ele>
        <time>2012-05-27T11:22:17Z</time>
      </trkpt>
      <trkpt lat="46.512679718434811" lon="6.991119291633368">
        <ele>1321.95</ele>
        <time>2012-05-27T11:22:18Z</time>
      </trkpt>
      <trkpt lat="46.512751635164022" lon="6.990790469571948">
        <ele>1323.8699999999999</ele>
        <time>2012-05-27T11:22:33Z</time>
      </trkpt>
      <trkpt lat="46.512757502496243" lon="6.990491319447756">
        <ele>1328.2</ele>
        <time>2012-05-27T11:22:47Z</time>
      </trkpt>
      <trkpt lat="46.512752724811435" lon="6.990473465994">
        <ele>1328.6800000000001</ele>
        <time>2012-05-27T11:22:48Z</time>
      </trkpt>
      <trkpt lat="46.51274953968823" lon="6.990456786006689">
        <ele>1329.1600000000001</ele>
        <time>2012-05-27T11:22:49Z</time>
      </trkpt>
      <trkpt lat="46.512747779488564" lon="6.99043775908649">
        <ele>1329.6400000000001</ele>
        <time>2012-05-27T11:22:50Z</time>
      </trkpt>
      <trkpt lat="46.512744762003422" lon="6.99041772633791">
        <ele>1330.1199999999999</ele>
        <time>2012-05-27T11:22:51Z</time>
      </trkpt>
      <trkpt lat="46.512740487232804" lon="6.990400962531567">
        <ele>1330.5999999999999</ele>
        <time>2012-05-27T11:22:52Z</time>
      </trkpt>
      <trkpt lat="46.512735709547997" lon="6.990380175411701">
        <ele>1331.0799999999999</ele>
        <time>2012-05-27T11:22:53Z</time>
      </trkpt>
      <trkpt lat="46.512731770053506" lon="6.99036056175828">
        <ele>1331.5599999999999</ele>
        <time>2012-05-27T11:22:54Z</time>
      </trkpt>
      <trkpt lat="46.512725483626127" lon="6.990342624485493">
        <ele>1332.52</ele>
        <time>2012-05-27T11:22:55Z</time>
      </trkpt>
      <trkpt lat="46.512714670971036" lon="6.990329129621387">
        <ele>1333.01</ele>
        <time>2012-05-27T11:22:56Z</time>
      </trkpt>
      <trkpt lat="46.512700757011771" lon="6.990313623100519">
        <ele>1333.49</ele>
        <time>2012-05-27T11:22:57Z</time>
      </trkpt>
      <trkpt lat="46.512537896633148" lon="6.990030314773321">
        <ele>1336.3699999999999</ele>
        <time>2012-05-27T11:23:12Z</time>
      </trkpt>
      <trkpt lat="46.51248031295836" lon="6.989837028086186">
        <ele>1343.5799999999999</ele>
        <time>2012-05-27T11:23:25Z</time>
      </trkpt>
      <trkpt lat="46.512338826432824" lon="6.989518264308572">
        <ele>1347.4300000000001</ele>
        <time>2012-05-27T11:23:41Z</time>
      </trkpt>
      <trkpt lat="46.512179486453533" lon="6.989244008436799">
        <ele>1349.3499999999999</ele>
        <time>2012-05-27T11:23:56Z</time>
      </trkpt>
      <trkpt lat="46.512111509218812" lon="6.989115346223116">
        <ele>1350.79</ele>
        <time>2012-05-27T11:24:04Z</time>
      </trkpt>
      <trkpt lat="46.512108659371734" lon="6.989084165543318">
        <ele>1351.27</ele>
        <time>2012-05-27T11:24:06Z</time>
      </trkpt>
      <trkpt lat="46.512031797319651" lon="6.988959442824125">
        <ele>1351.75</ele>
        <time>2012-05-27T11:24:17Z</time>
      </trkpt>
      <trkpt lat="46.511882347986102" lon="6.988689796999097">
        <ele>1354.6300000000001</ele>
        <time>2012-05-27T11:24:30Z</time>
      </trkpt>
      <trkpt lat="46.511807162314653" lon="6.988339936360717">
        <ele>1358</ele>
        <time>2012-05-27T11:24:46Z</time>
      </trkpt>
      <trkpt lat="46.511786626651883" lon="6.98803223669529">
        <ele>1359.4400000000001</ele>
        <time>2012-05-27T11:24:59Z</time>
      </trkpt>
      <trkpt lat="46.51178645901382" lon="6.988008935004473">
        <ele>1359.9200000000001</ele>
        <time>2012-05-27T11:25:00Z</time>
      </trkpt>
      <trkpt lat="46.511792493984103" lon="6.987985298037529">
        <ele>1360.4000000000001</ele>
        <time>2012-05-27T11:25:01Z</time>
      </trkpt>
      <trkpt lat="46.511800037696958" lon="6.987962834537029">
        <ele>1360.8800000000001</ele>
        <time>2012-05-27T11:25:02Z</time>
      </trkpt>
      <trkpt lat="46.511810263618827" lon="6.987939197570086">
        <ele>1361.3599999999999</ele>
        <time>2012-05-27T11:25:03Z</time>
      </trkpt>
      <trkpt lat="46.51181872934103" lon="6.987916063517332">
        <ele>1361.8399999999999</ele>
        <time>2012-05-27T11:25:04Z</time>
      </trkpt>
      <trkpt lat="46.511822836473584" lon="6.987896868959069">
        <ele>1362.3299999999999</ele>
        <time>2012-05-27T11:25:05Z</time>
      </trkpt>
      <trkpt lat="46.511826775968075" lon="6.987874824553728">
        <ele>1362.8099999999999</ele>
        <time>2012-05-27T11:25:06Z</time>
      </trkpt>
      <trkpt lat="46.511830631643534" lon="6.987853953614831">
        <ele>1363.29</ele>
        <time>2012-05-27T11:25:07Z</time>
      </trkpt>
      <trkpt lat="46.51195652782917" lon="6.987540302798152">
        <ele>1371.46</ele>
        <time>2012-05-27T11:25:22Z</time>
      </trkpt>
      <trkpt lat="46.511959964409471" lon="6.987458495423198">
        <ele>1372.4200000000001</ele>
        <time>2012-05-27T11:25:25Z</time>
      </trkpt>
      <trkpt lat="46.511966167017817" lon="6.987429158762097">
        <ele>1372.9000000000001</ele>
        <time>2012-05-27T11:25:26Z</time>
      </trkpt>
      <trkpt lat="46.511969519779086" lon="6.987397726625204">
        <ele>1372.9000000000001</ele>
        <time>2012-05-27T11:25:27Z</time>
      </trkpt>
      <trkpt lat="46.511976644396782" lon="6.987371407449246">
        <ele>1373.3800000000001</ele>
        <time>2012-05-27T11:25:28Z</time>
      </trkpt>
      <trkpt lat="46.511985613033175" lon="6.987353134900332">
        <ele>1373.3800000000001</ele>
        <time>2012-05-27T11:25:29Z</time>
      </trkpt>
      <trkpt lat="46.511996760964394" lon="6.987337460741401">
        <ele>1374.3399999999999</ele>
        <time>2012-05-27T11:25:30Z</time>
      </trkpt>
      <trkpt lat="46.512004137039185" lon="6.987319691106677">
        <ele>1374.3399999999999</ele>
        <time>2012-05-27T11:25:31Z</time>
      </trkpt>
      <trkpt lat="46.512007992714643" lon="6.987304016947746">
        <ele>1374.3399999999999</ele>
        <time>2012-05-27T11:25:32Z</time>
      </trkpt>
      <trkpt lat="46.512014614418149" lon="6.987287839874625">
        <ele>1373.8599999999999</ele>
        <time>2012-05-27T11:25:33Z</time>
      </trkpt>
      <trkpt lat="46.512017967179418" lon="6.987267807126045">
        <ele>1373.8599999999999</ele>
        <time>2012-05-27T11:25:34Z</time>
      </trkpt>
      <trkpt lat="46.51201126165688" lon="6.987237296998501">
        <ele>1373.8599999999999</ele>
        <time>2012-05-27T11:25:35Z</time>
      </trkpt>
      <trkpt lat="46.51200782507658" lon="6.987211313098669">
        <ele>1373.8599999999999</ele>
        <time>2012-05-27T11:25:36Z</time>
      </trkpt>
      <trkpt lat="46.512012351304293" lon="6.987195806577802">
        <ele>1373.8599999999999</ele>
        <time>2012-05-27T11:25:37Z</time>
      </trkpt>
      <trkpt lat="46.5120171289891" lon="6.987177953124046">
        <ele>1374.3399999999999</ele>
        <time>2012-05-27T11:25:38Z</time>
      </trkpt>
      <trkpt lat="46.512019475921988" lon="6.987156495451927">
        <ele>1374.3399999999999</ele>
        <time>2012-05-27T11:25:39Z</time>
      </trkpt>
      <trkpt lat="46.51201905682683" lon="6.987139144912362">
        <ele>1374.3399999999999</ele>
        <time>2012-05-27T11:25:40Z</time>
      </trkpt>
      <trkpt lat="46.512020984664559" lon="6.987121291458607">
        <ele>1374.8199999999999</ele>
        <time>2012-05-27T11:25:41Z</time>
      </trkpt>
      <trkpt lat="46.512028863653541" lon="6.987104779109359">
        <ele>1375.3</ele>
        <time>2012-05-27T11:25:42Z</time>
      </trkpt>
      <trkpt lat="46.512036072090268" lon="6.98708625510335">
        <ele>1375.78</ele>
        <time>2012-05-27T11:25:43Z</time>
      </trkpt>
      <trkpt lat="46.512039760127664" lon="6.987068988382816">
        <ele>1376.26</ele>
        <time>2012-05-27T11:25:44Z</time>
      </trkpt>
      <trkpt lat="46.51204839348793" lon="6.987052392214537">
        <ele>1376.75</ele>
        <time>2012-05-27T11:25:45Z</time>
      </trkpt>
      <trkpt lat="46.512055015191436" lon="6.987032443284988">
        <ele>1377.23</ele>
        <time>2012-05-27T11:25:46Z</time>
      </trkpt>
      <trkpt lat="46.512058284133673" lon="6.987011907622218">
        <ele>1377.71</ele>
        <time>2012-05-27T11:25:47Z</time>
      </trkpt>
      <trkpt lat="46.512062475085258" lon="6.986990366131067">
        <ele>1378.1900000000001</ele>
        <time>2012-05-27T11:25:48Z</time>
      </trkpt>
      <trkpt lat="46.512063648551702" lon="6.986969076097012">
        <ele>1378.1900000000001</ele>
        <time>2012-05-27T11:25:49Z</time>
      </trkpt>
      <trkpt lat="46.512068342417479" lon="6.986948540434241">
        <ele>1378.1900000000001</ele>
        <time>2012-05-27T11:25:50Z</time>
      </trkpt>
      <trkpt lat="46.512075383216143" lon="6.986928759142757">
        <ele>1378.1900000000001</ele>
        <time>2012-05-27T11:25:51Z</time>
      </trkpt>
      <trkpt lat="46.512080244719982" lon="6.986908055841923">
        <ele>1378.1900000000001</ele>
        <time>2012-05-27T11:25:52Z</time>
      </trkpt>
      <trkpt lat="46.512084184214473" lon="6.986886011436582">
        <ele>1378.1900000000001</ele>
        <time>2012-05-27T11:25:53Z</time>
      </trkpt>
      <trkpt lat="46.512082424014807" lon="6.98686539195478">
        <ele>1378.1900000000001</ele>
        <time>2012-05-27T11:25:54Z</time>
      </trkpt>
      <trkpt lat="46.512086112052202" lon="6.986847454681993">
        <ele>1378.1900000000001</ele>
        <time>2012-05-27T11:25:55Z</time>
      </trkpt>
      <trkpt lat="46.512086614966393" lon="6.986823985353112">
        <ele>1377.71</ele>
        <time>2012-05-27T11:25:56Z</time>
      </trkpt>
      <trkpt lat="46.512091308832169" lon="6.986803198233247">
        <ele>1377.71</ele>
        <time>2012-05-27T11:25:57Z</time>
      </trkpt>
      <trkpt lat="46.512095332145691" lon="6.986786182969809">
        <ele>1377.23</ele>
        <time>2012-05-27T11:25:58Z</time>
      </trkpt>
      <trkpt lat="46.512096337974072" lon="6.986769838258624">
        <ele>1376.75</ele>
        <time>2012-05-27T11:25:59Z</time>
      </trkpt>
      <trkpt lat="46.512109749019146" lon="6.986725246533752">
        <ele>1377.23</ele>
        <time>2012-05-27T11:26:02Z</time>
      </trkpt>
      <trkpt lat="46.512121064588428" lon="6.986710159108043">
        <ele>1377.23</ele>
        <time>2012-05-27T11:26:03Z</time>
      </trkpt>
      <trkpt lat="46.512132128700614" lon="6.986694484949112">
        <ele>1377.71</ele>
        <time>2012-05-27T11:26:04Z</time>
      </trkpt>
      <trkpt lat="46.512135732918978" lon="6.986681157723069">
        <ele>1377.71</ele>
        <time>2012-05-27T11:26:05Z</time>
      </trkpt>
      <trkpt lat="46.512138163670897" lon="6.986669758334756">
        <ele>1377.71</ele>
        <time>2012-05-27T11:26:06Z</time>
      </trkpt>
      <trkpt lat="46.51214168407023" lon="6.986656095832586">
        <ele>1377.71</ele>
        <time>2012-05-27T11:26:07Z</time>
      </trkpt>
      <trkpt lat="46.512150820344687" lon="6.986640589311719">
        <ele>1377.71</ele>
        <time>2012-05-27T11:26:08Z</time>
      </trkpt>
      <trkpt lat="46.512162555009127" lon="6.986628603190184">
        <ele>1377.71</ele>
        <time>2012-05-27T11:26:09Z</time>
      </trkpt>
      <trkpt lat="46.512172613292933" lon="6.986614186316729">
        <ele>1378.1900000000001</ele>
        <time>2012-05-27T11:26:10Z</time>
      </trkpt>
      <trkpt lat="46.512182001024485" lon="6.986602954566479">
        <ele>1378.1900000000001</ele>
        <time>2012-05-27T11:26:11Z</time>
      </trkpt>
      <trkpt lat="46.512191640213132" lon="6.986593902111054">
        <ele>1378.1900000000001</ele>
        <time>2012-05-27T11:26:12Z</time>
      </trkpt>
      <trkpt lat="46.512283505871892" lon="6.98652433231473">
        <ele>1379.1500000000001</ele>
        <time>2012-05-27T11:26:20Z</time>
      </trkpt>
      <trkpt lat="46.512299180030823" lon="6.986515196040273">
        <ele>1378.6700000000001</ele>
        <time>2012-05-27T11:26:21Z</time>
      </trkpt>
      <trkpt lat="46.512316698208451" lon="6.986504970118403">
        <ele>1379.1500000000001</ele>
        <time>2012-05-27T11:26:22Z</time>
      </trkpt>
      <trkpt lat="46.512333462014794" lon="6.986494157463312">
        <ele>1379.1500000000001</ele>
        <time>2012-05-27T11:26:23Z</time>
      </trkpt>
      <trkpt lat="46.512347040697932" lon="6.986478567123413">
        <ele>1379.1500000000001</ele>
        <time>2012-05-27T11:26:24Z</time>
      </trkpt>
      <trkpt lat="46.512360451743007" lon="6.986464653164148">
        <ele>1379.1500000000001</ele>
        <time>2012-05-27T11:26:25Z</time>
      </trkpt>
      <trkpt lat="46.51247494854033" lon="6.986177740618587">
        <ele>1373.8599999999999</ele>
        <time>2012-05-27T11:26:41Z</time>
      </trkpt>
      <trkpt lat="46.512510571628809" lon="6.986108757555485">
        <ele>1374.8199999999999</ele>
        <time>2012-05-27T11:26:45Z</time>
      </trkpt>
      <trkpt lat="46.512516271322966" lon="6.986089143902063">
        <ele>1374.8199999999999</ele>
        <time>2012-05-27T11:26:46Z</time>
      </trkpt>
      <trkpt lat="46.512524234130979" lon="6.986070955172181">
        <ele>1375.3</ele>
        <time>2012-05-27T11:26:47Z</time>
      </trkpt>
      <trkpt lat="46.512534460052848" lon="6.986056957393885">
        <ele>1375.3</ele>
        <time>2012-05-27T11:26:48Z</time>
      </trkpt>
      <trkpt lat="46.512546446174383" lon="6.986040528863668">
        <ele>1375.3</ele>
        <time>2012-05-27T11:26:49Z</time>
      </trkpt>
      <trkpt lat="46.512555163353682" lon="6.986024016514421">
        <ele>1375.78</ele>
        <time>2012-05-27T11:26:50Z</time>
      </trkpt>
      <trkpt lat="46.51256094686687" lon="6.986007587984204">
        <ele>1375.78</ele>
        <time>2012-05-27T11:26:51Z</time>
      </trkpt>
      <trkpt lat="46.512566227465868" lon="6.985991075634956">
        <ele>1376.26</ele>
        <time>2012-05-27T11:26:52Z</time>
      </trkpt>
      <trkpt lat="46.512571424245834" lon="6.985977664589882">
        <ele>1376.75</ele>
        <time>2012-05-27T11:26:53Z</time>
      </trkpt>
      <trkpt lat="46.512569161131978" lon="6.985697373747826">
        <ele>1381.0699999999999</ele>
        <time>2012-05-27T11:27:07Z</time>
      </trkpt>
      <trkpt lat="46.512563796713948" lon="6.985680190846324">
        <ele>1381.55</ele>
        <time>2012-05-27T11:27:08Z</time>
      </trkpt>
      <trkpt lat="46.512559689581394" lon="6.985662337392569">
        <ele>1381.55</ele>
        <time>2012-05-27T11:27:09Z</time>
      </trkpt>
      <trkpt lat="46.512553403154016" lon="6.985643059015274">
        <ele>1382.03</ele>
        <time>2012-05-27T11:27:10Z</time>
      </trkpt>
      <trkpt lat="46.512545691803098" lon="6.98562772013247">
        <ele>1382.03</ele>
        <time>2012-05-27T11:27:11Z</time>
      </trkpt>
      <trkpt lat="46.512534879148006" lon="6.985614057630301">
        <ele>1382.51</ele>
        <time>2012-05-27T11:27:12Z</time>
      </trkpt>
      <trkpt lat="46.512521132826805" lon="6.985601400956512">
        <ele>1382.51</ele>
        <time>2012-05-27T11:27:13Z</time>
      </trkpt>
      <trkpt lat="46.512509230524302" lon="6.985587822273374">
        <ele>1382.99</ele>
        <time>2012-05-27T11:27:14Z</time>
      </trkpt>
      <trkpt lat="46.512497495859861" lon="6.985575668513775">
        <ele>1383.47</ele>
        <time>2012-05-27T11:27:15Z</time>
      </trkpt>
      <trkpt lat="46.512486347928643" lon="6.985563095659018">
        <ele>1383.96</ele>
        <time>2012-05-27T11:27:16Z</time>
      </trkpt>
      <trkpt lat="46.512474613264203" lon="6.985549181699753">
        <ele>1383.96</ele>
        <time>2012-05-27T11:27:17Z</time>
      </trkpt>
      <trkpt lat="46.512464303523302" lon="6.98553929105401">
        <ele>1384.4400000000001</ele>
        <time>2012-05-27T11:27:18Z</time>
      </trkpt>
      <trkpt lat="46.512452065944672" lon="6.98553484864533">
        <ele>1384.9200000000001</ele>
        <time>2012-05-27T11:27:19Z</time>
      </trkpt>
      <trkpt lat="46.51243731379509" lon="6.985531747341156">
        <ele>1384.9200000000001</ele>
        <time>2012-05-27T11:27:20Z</time>
      </trkpt>
      <trkpt lat="46.512421639636159" lon="6.985528310760856">
        <ele>1385.4000000000001</ele>
        <time>2012-05-27T11:27:21Z</time>
      </trkpt>
      <trkpt lat="46.512407809495926" lon="6.985526047646999">
        <ele>1385.8800000000001</ele>
        <time>2012-05-27T11:27:22Z</time>
      </trkpt>
      <trkpt lat="46.512394482269883" lon="6.985526299104095">
        <ele>1385.8800000000001</ele>
        <time>2012-05-27T11:27:23Z</time>
      </trkpt>
      <trkpt lat="46.512381825596094" lon="6.985531412065029">
        <ele>1386.3599999999999</ele>
        <time>2012-05-27T11:27:24Z</time>
      </trkpt>
      <trkpt lat="46.512164734303951" lon="6.985657392069697">
        <ele>1388.28</ele>
        <time>2012-05-27T11:27:39Z</time>
      </trkpt>
      <trkpt lat="46.511975890025496" lon="6.985869035124779">
        <ele>1389.24</ele>
        <time>2012-05-27T11:27:53Z</time>
      </trkpt>
      <trkpt lat="46.511818477883935" lon="6.986113702878356">
        <ele>1392.1300000000001</ele>
        <time>2012-05-27T11:28:07Z</time>
      </trkpt>
      <trkpt lat="46.511725606396794" lon="6.986345881596208">
        <ele>1393.5699999999999</ele>
        <time>2012-05-27T11:28:19Z</time>
      </trkpt>
      <trkpt lat="46.511614127084613" lon="6.986651066690683">
        <ele>1395.97</ele>
        <time>2012-05-27T11:28:34Z</time>
      </trkpt>
      <trkpt lat="46.511489991098642" lon="6.986937392503023">
        <ele>1397.4100000000001</ele>
        <time>2012-05-27T11:28:49Z</time>
      </trkpt>
      <trkpt lat="46.511333752423525" lon="6.987184155732393">
        <ele>1396.9300000000001</ele>
        <time>2012-05-27T11:29:04Z</time>
      </trkpt>
      <trkpt lat="46.511214729398489" lon="6.987349195405841">
        <ele>1397.8900000000001</ele>
        <time>2012-05-27T11:29:16Z</time>
      </trkpt>
      <trkpt lat="46.511077769100666" lon="6.9875792786479">
        <ele>1398.3699999999999</ele>
        <time>2012-05-27T11:29:29Z</time>
      </trkpt>
      <trkpt lat="46.511065028607845" lon="6.987593024969101">
        <ele>1398.3699999999999</ele>
        <time>2012-05-27T11:29:30Z</time>
      </trkpt>
      <trkpt lat="46.511056059971452" lon="6.987611632794142">
        <ele>1398.3699999999999</ele>
        <time>2012-05-27T11:29:31Z</time>
      </trkpt>
      <trkpt lat="46.511049354448915" lon="6.987631916999817">
        <ele>1398.8599999999999</ele>
        <time>2012-05-27T11:29:32Z</time>
      </trkpt>
      <trkpt lat="46.511040134355426" lon="6.987651949748397">
        <ele>1398.3699999999999</ele>
        <time>2012-05-27T11:29:33Z</time>
      </trkpt>
      <trkpt lat="46.511030159890652" lon="6.987671311944723">
        <ele>1398.3699999999999</ele>
        <time>2012-05-27T11:29:34Z</time>
      </trkpt>
      <trkpt lat="46.511020436882973" lon="6.987690506502986">
        <ele>1398.3699999999999</ele>
        <time>2012-05-27T11:29:35Z</time>
      </trkpt>
      <trkpt lat="46.511007277294993" lon="6.987705677747726">
        <ele>1398.3699999999999</ele>
        <time>2012-05-27T11:29:36Z</time>
      </trkpt>
      <trkpt lat="46.510994620621204" lon="6.987723028287292">
        <ele>1398.3699999999999</ele>
        <time>2012-05-27T11:29:37Z</time>
      </trkpt>
      <trkpt lat="46.510984729975462" lon="6.987743899226189">
        <ele>1398.3699999999999</ele>
        <time>2012-05-27T11:29:38Z</time>
      </trkpt>
      <trkpt lat="46.510893534868956" lon="6.987958224490285">
        <ele>1397.8900000000001</ele>
        <time>2012-05-27T11:29:49Z</time>
      </trkpt>
      <trkpt lat="46.510884147137403" lon="6.988290818408132">
        <ele>1400.78</ele>
        <time>2012-05-27T11:30:04Z</time>
      </trkpt>
      <trkpt lat="46.510887332260609" lon="6.988313030451536">
        <ele>1400.78</ele>
        <time>2012-05-27T11:30:05Z</time>
      </trkpt>
      <trkpt lat="46.510881716385484" lon="6.988332141190767">
        <ele>1400.78</ele>
        <time>2012-05-27T11:30:06Z</time>
      </trkpt>
      <trkpt lat="46.510875765234232" lon="6.988348737359047">
        <ele>1400.78</ele>
        <time>2012-05-27T11:30:07Z</time>
      </trkpt>
      <trkpt lat="46.510868556797504" lon="6.988365584984422">
        <ele>1400.78</ele>
        <time>2012-05-27T11:30:08Z</time>
      </trkpt>
      <trkpt lat="46.510868221521378" lon="6.988387294113636">
        <ele>1401.26</ele>
        <time>2012-05-27T11:30:09Z</time>
      </trkpt>
      <trkpt lat="46.510875849053264" lon="6.988413780927658">
        <ele>1401.74</ele>
        <time>2012-05-27T11:30:10Z</time>
      </trkpt>
      <trkpt lat="46.510877106338739" lon="6.98843733407557">
        <ele>1401.74</ele>
        <time>2012-05-27T11:30:11Z</time>
      </trkpt>
      <trkpt lat="46.510876854881644" lon="6.988460971042514">
        <ele>1402.22</ele>
        <time>2012-05-27T11:30:12Z</time>
      </trkpt>
      <trkpt lat="46.510880207642913" lon="6.988484691828489">
        <ele>1402.7</ele>
        <time>2012-05-27T11:30:13Z</time>
      </trkpt>
      <trkpt lat="46.510883057489991" lon="6.988505646586418">
        <ele>1403.1800000000001</ele>
        <time>2012-05-27T11:30:14Z</time>
      </trkpt>
      <trkpt lat="46.510889260098338" lon="6.988547639921308">
        <ele>1404.6199999999999</ele>
        <time>2012-05-27T11:30:16Z</time>
      </trkpt>
      <trkpt lat="46.51088984683156" lon="6.988568343222141">
        <ele>1405.0999999999999</ele>
        <time>2012-05-27T11:30:17Z</time>
      </trkpt>
      <trkpt lat="46.510890517383814" lon="6.988590052351356">
        <ele>1405.5799999999999</ele>
        <time>2012-05-27T11:30:18Z</time>
      </trkpt>
      <trkpt lat="46.510887583717704" lon="6.988610504195094">
        <ele>1406.0699999999999</ele>
        <time>2012-05-27T11:30:19Z</time>
      </trkpt>
      <trkpt lat="46.510880962014198" lon="6.988627854734659">
        <ele>1406.0699999999999</ele>
        <time>2012-05-27T11:30:20Z</time>
      </trkpt>
      <trkpt lat="46.510880375280976" lon="6.988645708188415">
        <ele>1406.55</ele>
        <time>2012-05-27T11:30:21Z</time>
      </trkpt>
      <trkpt lat="46.510880878195167" lon="6.988666830584407">
        <ele>1406.55</ele>
        <time>2012-05-27T11:30:22Z</time>
      </trkpt>
      <trkpt lat="46.510879788547754" lon="6.988688539713621">
        <ele>1406.55</ele>
        <time>2012-05-27T11:30:23Z</time>
      </trkpt>
      <trkpt lat="46.510876100510359" lon="6.988706728443503">
        <ele>1407.03</ele>
        <time>2012-05-27T11:30:24Z</time>
      </trkpt>
      <trkpt lat="46.510876938700676" lon="6.988725336268544">
        <ele>1407.03</ele>
        <time>2012-05-27T11:30:25Z</time>
      </trkpt>
      <trkpt lat="46.510881213471293" lon="6.988741680979729">
        <ele>1407.51</ele>
        <time>2012-05-27T11:30:26Z</time>
      </trkpt>
      <trkpt lat="46.510882051661611" lon="6.988757606595755">
        <ele>1407.51</ele>
        <time>2012-05-27T11:30:27Z</time>
      </trkpt>
      <trkpt lat="46.510887332260609" lon="6.988781662657857">
        <ele>1407.99</ele>
        <time>2012-05-27T11:30:28Z</time>
      </trkpt>
      <trkpt lat="46.510892445221543" lon="6.988803539425135">
        <ele>1407.99</ele>
        <time>2012-05-27T11:30:29Z</time>
      </trkpt>
      <trkpt lat="46.510895797982812" lon="6.988824410364032">
        <ele>1407.99</ele>
        <time>2012-05-27T11:30:30Z</time>
      </trkpt>
      <trkpt lat="46.510906694456935" lon="6.989012416452169">
        <ele>1408.95</ele>
        <time>2012-05-27T11:30:37Z</time>
      </trkpt>
      <trkpt lat="46.510907700285316" lon="6.989036221057177">
        <ele>1408.95</ele>
        <time>2012-05-27T11:30:38Z</time>
      </trkpt>
      <trkpt lat="46.510908287018538" lon="6.989054661244154">
        <ele>1408.95</ele>
        <time>2012-05-27T11:30:39Z</time>
      </trkpt>
      <trkpt lat="46.510906862094998" lon="6.98907008394599">
        <ele>1409.4300000000001</ele>
        <time>2012-05-27T11:30:40Z</time>
      </trkpt>
      <trkpt lat="46.510909795761108" lon="6.989089949056506">
        <ele>1409.4300000000001</ele>
        <time>2012-05-27T11:30:41Z</time>
      </trkpt>
      <trkpt lat="46.510912561789155" lon="6.989110568538308">
        <ele>1409.4300000000001</ele>
        <time>2012-05-27T11:30:42Z</time>
      </trkpt>
      <trkpt lat="46.510910131037235" lon="6.989130014553666">
        <ele>1409.9100000000001</ele>
        <time>2012-05-27T11:30:43Z</time>
      </trkpt>
      <trkpt lat="46.51090694591403" lon="6.989147700369358">
        <ele>1409.9100000000001</ele>
        <time>2012-05-27T11:30:44Z</time>
      </trkpt>
      <trkpt lat="46.510857744142413" lon="6.989429667592049">
        <ele>1413.28</ele>
        <time>2012-05-27T11:30:58Z</time>
      </trkpt>
      <trkpt lat="46.510854139924049" lon="6.989449867978692">
        <ele>1413.28</ele>
        <time>2012-05-27T11:30:59Z</time>
      </trkpt>
      <trkpt lat="46.510848356410861" lon="6.989466715604067">
        <ele>1413.28</ele>
        <time>2012-05-27T11:31:00Z</time>
      </trkpt>
      <trkpt lat="46.510846596211195" lon="6.989485742524266">
        <ele>1413.76</ele>
        <time>2012-05-27T11:31:01Z</time>
      </trkpt>
      <trkpt lat="46.510841986164451" lon="6.989503428339958">
        <ele>1413.76</ele>
        <time>2012-05-27T11:31:02Z</time>
      </trkpt>
      <trkpt lat="46.510837124660611" lon="6.989524550735951">
        <ele>1414.24</ele>
        <time>2012-05-27T11:31:03Z</time>
      </trkpt>
      <trkpt lat="46.510834190994501" lon="6.989544248208404">
        <ele>1414.24</ele>
        <time>2012-05-27T11:31:04Z</time>
      </trkpt>
      <trkpt lat="46.510828575119376" lon="6.989561766386032">
        <ele>1414.72</ele>
        <time>2012-05-27T11:31:05Z</time>
      </trkpt>
      <trkpt lat="46.510822456330061" lon="6.989577859640122">
        <ele>1415.2</ele>
        <time>2012-05-27T11:31:06Z</time>
      </trkpt>
      <trkpt lat="46.510815834626555" lon="6.989593449980021">
        <ele>1415.6800000000001</ele>
        <time>2012-05-27T11:31:07Z</time>
      </trkpt>
      <trkpt lat="46.510804854333401" lon="6.989608705043793">
        <ele>1415.6800000000001</ele>
        <time>2012-05-27T11:31:08Z</time>
      </trkpt>
      <trkpt lat="46.510795382782817" lon="6.989623038098216">
        <ele>1415.6800000000001</ele>
        <time>2012-05-27T11:31:09Z</time>
      </trkpt>
      <trkpt lat="46.51078431867063" lon="6.989635191857815">
        <ele>1416.1600000000001</ele>
        <time>2012-05-27T11:31:10Z</time>
      </trkpt>
      <trkpt lat="46.510770572349429" lon="6.989642484113574">
        <ele>1416.6400000000001</ele>
        <time>2012-05-27T11:31:11Z</time>
      </trkpt>
      <trkpt lat="46.510758921504021" lon="6.989650195464492">
        <ele>1417.5999999999999</ele>
        <time>2012-05-27T11:31:12Z</time>
      </trkpt>
      <trkpt lat="46.510749533772469" lon="6.989664360880852">
        <ele>1417.5999999999999</ele>
        <time>2012-05-27T11:31:13Z</time>
      </trkpt>
      <trkpt lat="46.510739391669631" lon="6.98967793956399">
        <ele>1417.5999999999999</ele>
        <time>2012-05-27T11:31:14Z</time>
      </trkpt>
      <trkpt lat="46.510525736957788" lon="6.989642316475511">
        <ele>1421.45</ele>
        <time>2012-05-27T11:31:29Z</time>
      </trkpt>
      <trkpt lat="46.510404115542769" lon="6.98955187574029">
        <ele>1423.8499999999999</ele>
        <time>2012-05-27T11:31:38Z</time>
      </trkpt>
      <trkpt lat="46.510395146906376" lon="6.989538129419088">
        <ele>1424.3299999999999</ele>
        <time>2012-05-27T11:31:39Z</time>
      </trkpt>
      <trkpt lat="46.510381735861301" lon="6.989522203803062">
        <ele>1424.3299999999999</ele>
        <time>2012-05-27T11:31:40Z</time>
      </trkpt>
      <trkpt lat="46.510368073359132" lon="6.989516168832779">
        <ele>1424.3299999999999</ele>
        <time>2012-05-27T11:31:41Z</time>
      </trkpt>
      <trkpt lat="46.510352399200201" lon="6.989504517987371">
        <ele>1424.8099999999999</ele>
        <time>2012-05-27T11:31:42Z</time>
      </trkpt>
      <trkpt lat="46.510339826345444" lon="6.98949228040874">
        <ele>1424.8099999999999</ele>
        <time>2012-05-27T11:31:43Z</time>
      </trkpt>
      <trkpt lat="46.510325660929084" lon="6.989485323429108">
        <ele>1425.29</ele>
        <time>2012-05-27T11:31:44Z</time>
      </trkpt>
      <trkpt lat="46.510307220742106" lon="6.989475935697556">
        <ele>1425.77</ele>
        <time>2012-05-27T11:31:45Z</time>
      </trkpt>
      <trkpt lat="46.510287523269653" lon="6.9894580822438">
        <ele>1426.25</ele>
        <time>2012-05-27T11:31:46Z</time>
      </trkpt>
      <trkpt lat="46.510271262377501" lon="6.989450873807073">
        <ele>1426.73</ele>
        <time>2012-05-27T11:31:47Z</time>
      </trkpt>
      <trkpt lat="46.510250642895699" lon="6.989439139142633">
        <ele>1427.21</ele>
        <time>2012-05-27T11:31:48Z</time>
      </trkpt>
      <trkpt lat="46.510034305974841" lon="6.989305280148983">
        <ele>1426.73</ele>
        <time>2012-05-27T11:32:02Z</time>
      </trkpt>
      <trkpt lat="46.509976051747799" lon="6.989198159426451">
        <ele>1423.8499999999999</ele>
        <time>2012-05-27T11:32:07Z</time>
      </trkpt>
      <trkpt lat="46.509959707036614" lon="6.989175779744983">
        <ele>1423.3699999999999</ele>
        <time>2012-05-27T11:32:08Z</time>
      </trkpt>
      <trkpt lat="46.509941183030605" lon="6.989152058959007">
        <ele>1422.8900000000001</ele>
        <time>2012-05-27T11:32:09Z</time>
      </trkpt>
      <trkpt lat="46.509922575205564" lon="6.989128002896905">
        <ele>1422.4100000000001</ele>
        <time>2012-05-27T11:32:10Z</time>
      </trkpt>
      <trkpt lat="46.509904554113746" lon="6.98910428211093">
        <ele>1422.4100000000001</ele>
        <time>2012-05-27T11:32:11Z</time>
      </trkpt>
      <trkpt lat="46.509886113926768" lon="6.989083578810096">
        <ele>1421.9300000000001</ele>
        <time>2012-05-27T11:32:12Z</time>
      </trkpt>
      <trkpt lat="46.509867506101727" lon="6.989063797518611">
        <ele>1421.9300000000001</ele>
        <time>2012-05-27T11:32:13Z</time>
      </trkpt>
      <trkpt lat="46.509845545515418" lon="6.989044602960348">
        <ele>1422.4100000000001</ele>
        <time>2012-05-27T11:32:14Z</time>
      </trkpt>
      <trkpt lat="46.509634405374527" lon="6.988863218575716">
        <ele>1423.3699999999999</ele>
        <time>2012-05-27T11:32:22Z</time>
      </trkpt>
      <trkpt lat="46.509359730407596" lon="6.988652581349015">
        <ele>1424.8099999999999</ele>
        <time>2012-05-27T11:32:34Z</time>
      </trkpt>
      <trkpt lat="46.509135765954852" lon="6.988565241917968">
        <ele>1424.3299999999999</ele>
        <time>2012-05-27T11:32:42Z</time>
      </trkpt>
      <trkpt lat="46.509114475920796" lon="6.988587202504277">
        <ele>1424.3299999999999</ele>
        <time>2012-05-27T11:32:43Z</time>
      </trkpt>
      <trkpt lat="46.509102489799261" lon="6.988610420376062">
        <ele>1424.3299999999999</ele>
        <time>2012-05-27T11:32:44Z</time>
      </trkpt>
      <trkpt lat="46.509098298847675" lon="6.988630956038833">
        <ele>1424.3299999999999</ele>
        <time>2012-05-27T11:32:45Z</time>
      </trkpt>
      <trkpt lat="46.509095449000597" lon="6.988654844462872">
        <ele>1424.3299999999999</ele>
        <time>2012-05-27T11:32:46Z</time>
      </trkpt>
      <trkpt lat="46.509092515334487" lon="6.988678397610784">
        <ele>1424.3299999999999</ele>
        <time>2012-05-27T11:32:47Z</time>
      </trkpt>
      <trkpt lat="46.509159319102764" lon="6.989054242148995">
        <ele>1427.21</ele>
        <time>2012-05-27T11:33:03Z</time>
      </trkpt>
      <trkpt lat="46.509225703775883" lon="6.989369317889214">
        <ele>1431.0599999999999</ele>
        <time>2012-05-27T11:33:18Z</time>
      </trkpt>
      <trkpt lat="46.509159486740828" lon="6.989711886271834">
        <ele>1436.3499999999999</ele>
        <time>2012-05-27T11:33:33Z</time>
      </trkpt>
      <trkpt lat="46.509159989655018" lon="6.99018269777298">
        <ele>1437.3099999999999</ele>
        <time>2012-05-27T11:33:51Z</time>
      </trkpt>
      <trkpt lat="46.50920893996954" lon="6.990557033568621">
        <ele>1438.27</ele>
        <time>2012-05-27T11:34:06Z</time>
      </trkpt>
      <trkpt lat="46.50936677120626" lon="6.990930866450071">
        <ele>1439.71</ele>
        <time>2012-05-27T11:34:24Z</time>
      </trkpt>
      <trkpt lat="46.509499372914433" lon="6.991290617734194">
        <ele>1441.6300000000001</ele>
        <time>2012-05-27T11:34:40Z</time>
      </trkpt>
      <trkpt lat="46.509608756750822" lon="6.991614662110806">
        <ele>1443.5599999999999</ele>
        <time>2012-05-27T11:34:54Z</time>
      </trkpt>
      <trkpt lat="46.509724427014589" lon="6.9919862318784">
        <ele>1445.48</ele>
        <time>2012-05-27T11:35:08Z</time>
      </trkpt>
      <trkpt lat="46.509849149733782" lon="6.992436591535807">
        <ele>1447.8800000000001</ele>
        <time>2012-05-27T11:35:25Z</time>
      </trkpt>
      <trkpt lat="46.510037574917078" lon="6.992862392216921">
        <ele>1451.25</ele>
        <time>2012-05-27T11:35:43Z</time>
      </trkpt>
      <trkpt lat="46.510283164680004" lon="6.993349548429251">
        <ele>1452.6900000000001</ele>
        <time>2012-05-27T11:36:02Z</time>
      </trkpt>
      <trkpt lat="46.510595977306366" lon="6.99385522864759">
        <ele>1453.6500000000001</ele>
        <time>2012-05-27T11:36:19Z</time>
      </trkpt>
      <trkpt lat="46.510912897065282" lon="6.994064273312688">
        <ele>1454.1300000000001</ele>
        <time>2012-05-27T11:36:31Z</time>
      </trkpt>
      <trkpt lat="46.511301230639219" lon="6.994456378743053">
        <ele>1454.6099999999999</ele>
        <time>2012-05-27T11:36:47Z</time>
      </trkpt>
      <trkpt lat="46.511770701035857" lon="6.994608594104648">
        <ele>1454.6099999999999</ele>
        <time>2012-05-27T11:37:03Z</time>
      </trkpt>
      <trkpt lat="46.51193842291832" lon="6.995049230754376">
        <ele>1455.0899999999999</ele>
        <time>2012-05-27T11:37:14Z</time>
      </trkpt>
      <trkpt lat="46.512107905000448" lon="6.995501015335321">
        <ele>1458.9400000000001</ele>
        <time>2012-05-27T11:37:28Z</time>
      </trkpt>
      <trkpt lat="46.512352824211121" lon="6.99595925398171">
        <ele>1463.26</ele>
        <time>2012-05-27T11:37:44Z</time>
      </trkpt>
      <trkpt lat="46.512605622410774" lon="6.996419671922922">
        <ele>1466.6300000000001</ele>
        <time>2012-05-27T11:38:01Z</time>
      </trkpt>
      <trkpt lat="46.512852469459176" lon="6.996830217540264">
        <ele>1467.5899999999999</ele>
        <time>2012-05-27T11:38:18Z</time>
      </trkpt>
      <trkpt lat="46.513091353699565" lon="6.997190807014704">
        <ele>1469.99</ele>
        <time>2012-05-27T11:38:35Z</time>
      </trkpt>
      <trkpt lat="46.513312887400389" lon="6.997292060405016">
        <ele>1471.4400000000001</ele>
        <time>2012-05-27T11:38:49Z</time>
      </trkpt>
      <trkpt lat="46.51350793428719" lon="6.997452322393656">
        <ele>1474.3199999999999</ele>
        <time>2012-05-27T11:39:04Z</time>
      </trkpt>
      <trkpt lat="46.513712201267481" lon="6.997451484203339">
        <ele>1475.28</ele>
        <time>2012-05-27T11:39:16Z</time>
      </trkpt>
      <trkpt lat="46.513936249539256" lon="6.997424410656095">
        <ele>1479.6099999999999</ele>
        <time>2012-05-27T11:39:33Z</time>
      </trkpt>
      <trkpt lat="46.514178235083818" lon="6.997443689033389">
        <ele>1482.49</ele>
        <time>2012-05-27T11:39:48Z</time>
      </trkpt>
      <trkpt lat="46.514347046613693" lon="6.99747696518898">
        <ele>1484.8900000000001</ele>
        <time>2012-05-27T11:40:00Z</time>
      </trkpt>
      <trkpt lat="46.51455894112587" lon="6.997408652678132">
        <ele>1488.26</ele>
        <time>2012-05-27T11:40:15Z</time>
      </trkpt>
      <trkpt lat="46.514793802052736" lon="6.997279906645417">
        <ele>1490.6600000000001</ele>
        <time>2012-05-27T11:40:30Z</time>
      </trkpt>
      <trkpt lat="46.51506026275456" lon="6.997245289385319">
        <ele>1492.5799999999999</ele>
        <time>2012-05-27T11:40:48Z</time>
      </trkpt>
      <trkpt lat="46.515279533341527" lon="6.997052589431405">
        <ele>1494.99</ele>
        <time>2012-05-27T11:41:05Z</time>
      </trkpt>
      <trkpt lat="46.515431748703122" lon="6.996827367693186">
        <ele>1497.8699999999999</ele>
        <time>2012-05-27T11:41:20Z</time>
      </trkpt>
      <trkpt lat="46.5154829621315" lon="6.996805155649781">
        <ele>1498.8299999999999</ele>
        <time>2012-05-27T11:41:24Z</time>
      </trkpt>
      <trkpt lat="46.51549955829978" lon="6.9968007132411">
        <ele>1499.3099999999999</ele>
        <time>2012-05-27T11:41:25Z</time>
      </trkpt>
      <trkpt lat="46.515516238287091" lon="6.996796522289515">
        <ele>1499.3099999999999</ele>
        <time>2012-05-27T11:41:26Z</time>
      </trkpt>
      <trkpt lat="46.515534510836005" lon="6.996799372136593">
        <ele>1499.3099999999999</ele>
        <time>2012-05-27T11:41:27Z</time>
      </trkpt>
      <trkpt lat="46.515551107004285" lon="6.996803311631084">
        <ele>1499.3099999999999</ele>
        <time>2012-05-27T11:41:28Z</time>
      </trkpt>
      <trkpt lat="46.515709524974227" lon="6.996960053220391">
        <ele>1501.72</ele>
        <time>2012-05-27T11:41:42Z</time>
      </trkpt>
      <trkpt lat="46.515878504142165" lon="6.997199105098844">
        <ele>1504.5999999999999</ele>
        <time>2012-05-27T11:41:59Z</time>
      </trkpt>
      <trkpt lat="46.516068940982223" lon="6.997317289933562">
        <ele>1507.48</ele>
        <time>2012-05-27T11:42:14Z</time>
      </trkpt>
      <trkpt lat="46.516276895999908" lon="6.997199524194002">
        <ele>1511.8099999999999</ele>
        <time>2012-05-27T11:42:28Z</time>
      </trkpt>
      <trkpt lat="46.516465153545141" lon="6.997120985761285">
        <ele>1515.1800000000001</ele>
        <time>2012-05-27T11:42:43Z</time>
      </trkpt>
      <trkpt lat="46.516646789386868" lon="6.9970787409693">
        <ele>1516.6199999999999</ele>
        <time>2012-05-27T11:42:56Z</time>
      </trkpt>
      <trkpt lat="46.516882069408894" lon="6.99698050506413">
        <ele>1519.02</ele>
        <time>2012-05-27T11:43:12Z</time>
      </trkpt>
      <trkpt lat="46.517086839303374" lon="6.996867936104536">
        <ele>1521.4200000000001</ele>
        <time>2012-05-27T11:43:26Z</time>
      </trkpt>
      <trkpt lat="46.517362771555781" lon="6.996736591681838">
        <ele>1523.3499999999999</ele>
        <time>2012-05-27T11:43:42Z</time>
      </trkpt>
      <trkpt lat="46.517511215060949" lon="6.996693257242441">
        <ele>1523.3499999999999</ele>
        <time>2012-05-27T11:43:50Z</time>
      </trkpt>
      <trkpt lat="46.517528481781483" lon="6.996699292212725">
        <ele>1523.8299999999999</ele>
        <time>2012-05-27T11:43:51Z</time>
      </trkpt>
      <trkpt lat="46.517546670511365" lon="6.99670247733593">
        <ele>1523.8299999999999</ele>
        <time>2012-05-27T11:43:52Z</time>
      </trkpt>
      <trkpt lat="46.517562596127391" lon="6.996712451800704">
        <ele>1523.8299999999999</ele>
        <time>2012-05-27T11:43:53Z</time>
      </trkpt>
      <trkpt lat="46.51757868938148" lon="6.996727203950286">
        <ele>1523.8299999999999</ele>
        <time>2012-05-27T11:43:54Z</time>
      </trkpt>
      <trkpt lat="46.517593860626221" lon="6.996745644137263">
        <ele>1523.8299999999999</ele>
        <time>2012-05-27T11:43:55Z</time>
      </trkpt>
      <trkpt lat="46.517606349661946" lon="6.996768526732922">
        <ele>1523.8299999999999</ele>
        <time>2012-05-27T11:43:56Z</time>
      </trkpt>
      <trkpt lat="46.517623364925385" lon="6.996805490925908">
        <ele>1524.3099999999999</ele>
        <time>2012-05-27T11:44:07Z</time>
      </trkpt>
      <trkpt lat="46.517632165923715" lon="6.996793253347278">
        <ele>1523.8299999999999</ele>
        <time>2012-05-27T11:44:30Z</time>
      </trkpt>
      <trkpt lat="46.51763484813273" lon="6.996798533946276">
        <ele>1523.3499999999999</ele>
        <time>2012-05-27T11:45:01Z</time>
      </trkpt>
      <trkpt lat="46.517742555588484" lon="6.997102461755276">
        <ele>1522.3900000000001</ele>
        <time>2012-05-27T11:45:12Z</time>
      </trkpt>
      <trkpt lat="46.518139690160751" lon="6.997873848304153">
        <ele>1516.1400000000001</ele>
        <time>2012-05-27T11:45:21Z</time>
      </trkpt>
      <trkpt lat="46.518796747550368" lon="6.999017894268036">
        <ele>1504.5999999999999</ele>
        <time>2012-05-27T11:45:30Z</time>
      </trkpt>
      <trkpt lat="46.518909400328994" lon="6.999128451570869">
        <ele>1502.6800000000001</ele>
        <time>2012-05-27T11:45:31Z</time>
      </trkpt>
      <trkpt lat="46.519664442166686" lon="6.999620469287038">
        <ele>1493.0599999999999</ele>
        <time>2012-05-27T11:45:38Z</time>
      </trkpt>
      <trkpt lat="46.519739711657166" lon="6.999630443751812">
        <ele>1493.0599999999999</ele>
        <time>2012-05-27T11:45:39Z</time>
      </trkpt>
      <trkpt lat="46.519808527082205" lon="6.999619295820594">
        <ele>1492.5799999999999</ele>
        <time>2012-05-27T11:45:40Z</time>
      </trkpt>
      <trkpt lat="46.519874995574355" lon="6.99958342127502">
        <ele>1493.0599999999999</ele>
        <time>2012-05-27T11:45:41Z</time>
      </trkpt>
      <trkpt lat="46.519931070506573" lon="6.999530782923102">
        <ele>1493.0599999999999</ele>
        <time>2012-05-27T11:45:42Z</time>
      </trkpt>
      <trkpt lat="46.519982954487205" lon="6.999478815123439">
        <ele>1493.0599999999999</ele>
        <time>2012-05-27T11:45:43Z</time>
      </trkpt>
      <trkpt lat="46.520216474309564" lon="6.999209420755506">
        <ele>1495.47</ele>
        <time>2012-05-27T11:45:48Z</time>
      </trkpt>
      <trkpt lat="46.520251259207726" lon="6.999144796282053">
        <ele>1495.47</ele>
        <time>2012-05-27T11:45:49Z</time>
      </trkpt>
      <trkpt lat="46.520281182602048" lon="6.999080087989569">
        <ele>1495.95</ele>
        <time>2012-05-27T11:45:50Z</time>
      </trkpt>
      <trkpt lat="46.520303981378675" lon="6.999014625325799">
        <ele>1496.4300000000001</ele>
        <time>2012-05-27T11:45:51Z</time>
      </trkpt>
      <trkpt lat="46.520315632224083" lon="6.998943211510778">
        <ele>1496.4300000000001</ele>
        <time>2012-05-27T11:45:52Z</time>
      </trkpt>
      <trkpt lat="46.520322421565652" lon="6.998874731361866">
        <ele>1496.9100000000001</ele>
        <time>2012-05-27T11:45:53Z</time>
      </trkpt>
      <trkpt lat="46.520328959450126" lon="6.998804742470384">
        <ele>1496.4300000000001</ele>
        <time>2012-05-27T11:45:54Z</time>
      </trkpt>
      <trkpt lat="46.520317224785686" lon="6.99837994761765">
        <ele>1496.9100000000001</ele>
        <time>2012-05-27T11:46:00Z</time>
      </trkpt>
      <trkpt lat="46.52023390866816" lon="6.997911566868424">
        <ele>1496.9100000000001</ele>
        <time>2012-05-27T11:46:07Z</time>
      </trkpt>
      <trkpt lat="46.520212031900883" lon="6.997857922688127">
        <ele>1497.3900000000001</ele>
        <time>2012-05-27T11:46:08Z</time>
      </trkpt>
      <trkpt lat="46.520123770460486" lon="6.997629180550575">
        <ele>1498.3499999999999</ele>
        <time>2012-05-27T11:46:12Z</time>
      </trkpt>
      <trkpt lat="46.520110359415412" lon="6.997565142810345">
        <ele>1498.8299999999999</ele>
        <time>2012-05-27T11:46:13Z</time>
      </trkpt>
      <trkpt lat="46.520101139321923" lon="6.997494902461767">
        <ele>1498.3499999999999</ele>
        <time>2012-05-27T11:46:14Z</time>
      </trkpt>
      <trkpt lat="46.520095774903893" lon="6.997426170855761">
        <ele>1498.8299999999999</ele>
        <time>2012-05-27T11:46:15Z</time>
      </trkpt>
      <trkpt lat="46.520090410485864" lon="6.997356517240405">
        <ele>1498.8299999999999</ele>
        <time>2012-05-27T11:46:16Z</time>
      </trkpt>
      <trkpt lat="46.520101139321923" lon="6.997092654928565">
        <ele>1498.8299999999999</ele>
        <time>2012-05-27T11:46:20Z</time>
      </trkpt>
      <trkpt lat="46.520298533141613" lon="6.99636971578002">
        <ele>1499.79</ele>
        <time>2012-05-27T11:46:32Z</time>
      </trkpt>
      <trkpt lat="46.520321080461144" lon="6.996317245066166">
        <ele>1500.27</ele>
        <time>2012-05-27T11:46:33Z</time>
      </trkpt>
      <trkpt lat="46.520341616123915" lon="6.996260499581695">
        <ele>1500.27</ele>
        <time>2012-05-27T11:46:34Z</time>
      </trkpt>
      <trkpt lat="46.520362319424748" lon="6.99620459228754">
        <ele>1500.76</ele>
        <time>2012-05-27T11:46:35Z</time>
      </trkpt>
      <trkpt lat="46.520385034382343" lon="6.996150529012084">
        <ele>1500.76</ele>
        <time>2012-05-27T11:46:36Z</time>
      </trkpt>
      <trkpt lat="46.520410850644112" lon="6.996099734678865">
        <ele>1501.24</ele>
        <time>2012-05-27T11:46:37Z</time>
      </trkpt>
      <trkpt lat="46.520468518137932" lon="6.996003175154328">
        <ele>1501.24</ele>
        <time>2012-05-27T11:46:39Z</time>
      </trkpt>
      <trkpt lat="46.520500453189015" lon="6.995962942019105">
        <ele>1501.24</ele>
        <time>2012-05-27T11:46:40Z</time>
      </trkpt>
      <trkpt lat="46.520536579191685" lon="6.995929330587387">
        <ele>1501.72</ele>
        <time>2012-05-27T11:46:41Z</time>
      </trkpt>
      <trkpt lat="46.520574297755957" lon="6.995900245383382">
        <ele>1501.72</ele>
        <time>2012-05-27T11:46:42Z</time>
      </trkpt>
      <trkpt lat="46.520610926672816" lon="6.995874429121614">
        <ele>1501.72</ele>
        <time>2012-05-27T11:46:43Z</time>
      </trkpt>
      <trkpt lat="46.52064872905612" lon="6.995854480192065">
        <ele>1502.2</ele>
        <time>2012-05-27T11:46:44Z</time>
      </trkpt>
      <trkpt lat="46.520689548924565" lon="6.995840733870864">
        <ele>1502.2</ele>
        <time>2012-05-27T11:46:45Z</time>
      </trkpt>
      <trkpt lat="46.520731709897518" lon="6.9958371296525">
        <ele>1502.2</ele>
        <time>2012-05-27T11:46:46Z</time>
      </trkpt>
      <trkpt lat="46.520771691575646" lon="6.995843667536974">
        <ele>1502.2</ele>
        <time>2012-05-27T11:46:47Z</time>
      </trkpt>
      <trkpt lat="46.520812008529902" lon="6.995856324210763">
        <ele>1502.2</ele>
        <time>2012-05-27T11:46:48Z</time>
      </trkpt>
      <trkpt lat="46.520853582769632" lon="6.995874512940645">
        <ele>1502.2</ele>
        <time>2012-05-27T11:46:49Z</time>
      </trkpt>
      <trkpt lat="46.520976461470127" lon="6.995949279516935">
        <ele>1502.2</ele>
        <time>2012-05-27T11:46:52Z</time>
      </trkpt>
      <trkpt lat="46.521096071228385" lon="6.996046593412757">
        <ele>1502.2</ele>
        <time>2012-05-27T11:46:55Z</time>
      </trkpt>
      <trkpt lat="46.521656820550561" lon="6.996477087959647">
        <ele>1502.6800000000001</ele>
        <time>2012-05-27T11:47:09Z</time>
      </trkpt>
      <trkpt lat="46.522429464384913" lon="6.996792498975992">
        <ele>1503.1600000000001</ele>
        <time>2012-05-27T11:47:27Z</time>
      </trkpt>
      <trkpt lat="46.52306305244565" lon="6.996909426525235">
        <ele>1504.5999999999999</ele>
        <time>2012-05-27T11:47:41Z</time>
      </trkpt>
      <trkpt lat="46.52363134548068" lon="6.996773052960634">
        <ele>1504.5999999999999</ele>
        <time>2012-05-27T11:47:54Z</time>
      </trkpt>
      <trkpt lat="46.523671494796872" lon="6.996736591681838">
        <ele>1504.5999999999999</ele>
        <time>2012-05-27T11:47:55Z</time>
      </trkpt>
      <trkpt lat="46.523712063208222" lon="6.996693508699536">
        <ele>1504.5999999999999</ele>
        <time>2012-05-27T11:47:56Z</time>
      </trkpt>
      <trkpt lat="46.523982379585505" lon="6.996347168460488">
        <ele>1503.1600000000001</ele>
        <time>2012-05-27T11:48:03Z</time>
      </trkpt>
      <trkpt lat="46.524032335728407" lon="6.996308695524931">
        <ele>1502.6800000000001</ele>
        <time>2012-05-27T11:48:04Z</time>
      </trkpt>
      <trkpt lat="46.524799363687634" lon="6.995990602299571">
        <ele>1496.9100000000001</ele>
        <time>2012-05-27T11:48:14Z</time>
      </trkpt>
      <trkpt lat="46.524988040328026" lon="6.995980124920607">
        <ele>1495.47</ele>
        <time>2012-05-27T11:48:16Z</time>
      </trkpt>
      <trkpt lat="46.525079989805818" lon="6.995994038879871">
        <ele>1494.99</ele>
        <time>2012-05-27T11:48:17Z</time>
      </trkpt>
      <trkpt lat="46.526168631389737" lon="6.996307857334614">
        <ele>1493.55</ele>
        <time>2012-05-27T11:48:30Z</time>
      </trkpt>
      <trkpt lat="46.526473481208086" lon="6.996414978057146">
        <ele>1494.99</ele>
        <time>2012-05-27T11:48:34Z</time>
      </trkpt>
      <trkpt lat="46.526539362967014" lon="6.996456887573004">
        <ele>1495.47</ele>
        <time>2012-05-27T11:48:35Z</time>
      </trkpt>
      <trkpt lat="46.527120228856802" lon="6.996898278594017">
        <ele>1499.3099999999999</ele>
        <time>2012-05-27T11:48:47Z</time>
      </trkpt>
      <trkpt lat="46.52716213837266" lon="6.996914371848106">
        <ele>1499.3099999999999</ele>
        <time>2012-05-27T11:48:48Z</time>
      </trkpt>
      <trkpt lat="46.527404123917222" lon="6.99697270989418">
        <ele>1503.1600000000001</ele>
        <time>2012-05-27T11:48:59Z</time>
      </trkpt>
      <trkpt lat="46.527652563527226" lon="6.997074969112873">
        <ele>1505.0799999999999</ele>
        <time>2012-05-27T11:49:12Z</time>
      </trkpt>
      <trkpt lat="46.527662370353937" lon="6.997106652706862">
        <ele>1505.0799999999999</ele>
        <time>2012-05-27T11:49:13Z</time>
      </trkpt>
      <trkpt lat="46.527667818590999" lon="6.997143113985658">
        <ele>1505.5599999999999</ele>
        <time>2012-05-27T11:49:14Z</time>
      </trkpt>
      <trkpt lat="46.527671841904521" lon="6.997182676568627">
        <ele>1505.5599999999999</ele>
        <time>2012-05-27T11:49:15Z</time>
      </trkpt>
      <trkpt lat="46.527674859389663" lon="6.997218634933233">
        <ele>1505.5599999999999</ele>
        <time>2012-05-27T11:49:16Z</time>
      </trkpt>
      <trkpt lat="46.527715008705854" lon="6.997531363740563">
        <ele>1505.5599999999999</ele>
        <time>2012-05-27T11:49:27Z</time>
      </trkpt>
      <trkpt lat="46.527731604874134" lon="6.997552402317524">
        <ele>1505.5599999999999</ele>
        <time>2012-05-27T11:49:28Z</time>
      </trkpt>
      <trkpt lat="46.527752140536904" lon="6.997575033456087">
        <ele>1505.0799999999999</ele>
        <time>2012-05-27T11:49:29Z</time>
      </trkpt>
      <trkpt lat="46.527889352291822" lon="6.997684668749571">
        <ele>1503.6400000000001</ele>
        <time>2012-05-27T11:49:33Z</time>
      </trkpt>
      <trkpt lat="46.527976607903838" lon="6.997782904654741">
        <ele>1502.2</ele>
        <time>2012-05-27T11:49:35Z</time>
      </trkpt>
      <trkpt lat="46.528015583753586" lon="6.997848032042384">
        <ele>1501.72</ele>
        <time>2012-05-27T11:49:36Z</time>
      </trkpt>
      <trkpt lat="46.52804852463305" lon="6.997924223542213">
        <ele>1501.24</ele>
        <time>2012-05-27T11:49:37Z</time>
      </trkpt>
      <trkpt lat="46.52825865894556" lon="6.998496539890766">
        <ele>1496.9100000000001</ele>
        <time>2012-05-27T11:49:45Z</time>
      </trkpt>
      <trkpt lat="46.528290593996644" lon="6.998553704470396">
        <ele>1495.95</ele>
        <time>2012-05-27T11:49:46Z</time>
      </trkpt>
      <trkpt lat="46.528324456885457" lon="6.998604666441679">
        <ele>1494.99</ele>
        <time>2012-05-27T11:49:47Z</time>
      </trkpt>
      <trkpt lat="46.528436606749892" lon="6.998731903731823">
        <ele>1493.0599999999999</ele>
        <time>2012-05-27T11:49:50Z</time>
      </trkpt>
      <trkpt lat="46.528751514852047" lon="6.99908846989274">
        <ele>1490.6600000000001</ele>
        <time>2012-05-27T11:50:01Z</time>
      </trkpt>
      <trkpt lat="46.528898617252707" lon="6.99935233220458">
        <ele>1488.26</ele>
        <time>2012-05-27T11:50:10Z</time>
      </trkpt>
      <trkpt lat="46.5291235037148" lon="6.999740330502391">
        <ele>1484.8900000000001</ele>
        <time>2012-05-27T11:50:16Z</time>
      </trkpt>
      <trkpt lat="46.529148062691092" lon="6.999813420698047">
        <ele>1483.9300000000001</ele>
        <time>2012-05-27T11:50:17Z</time>
      </trkpt>
      <trkpt lat="46.529170861467719" lon="6.999887432903051">
        <ele>1483.45</ele>
        <time>2012-05-27T11:50:18Z</time>
      </trkpt>
      <trkpt lat="46.529196258634329" lon="6.999959098175168">
        <ele>1482.49</ele>
        <time>2012-05-27T11:50:19Z</time>
      </trkpt>
      <trkpt lat="46.529223499819636" lon="7.000029925256968">
        <ele>1482.01</ele>
        <time>2012-05-27T11:50:20Z</time>
      </trkpt>
      <trkpt lat="46.529329782351851" lon="7.000314155593514">
        <ele>1478.6500000000001</ele>
        <time>2012-05-27T11:50:24Z</time>
      </trkpt>
      <trkpt lat="46.529347887262702" lon="7.000390095636249">
        <ele>1477.6800000000001</ele>
        <time>2012-05-27T11:50:25Z</time>
      </trkpt>
      <trkpt lat="46.529357777908444" lon="7.000467209145427">
        <ele>1477.2</ele>
        <time>2012-05-27T11:50:26Z</time>
      </trkpt>
      <trkpt lat="46.529361382126808" lon="7.001017145812511">
        <ele>1471.9200000000001</ele>
        <time>2012-05-27T11:50:37Z</time>
      </trkpt>
      <trkpt lat="46.529352748766541" lon="7.001283690333366">
        <ele>1468.55</ele>
        <time>2012-05-27T11:50:42Z</time>
      </trkpt>
      <trkpt lat="46.529358616098762" lon="7.001345884054899">
        <ele>1468.0699999999999</ele>
        <time>2012-05-27T11:50:43Z</time>
      </trkpt>
      <trkpt lat="46.529369009658694" lon="7.001408161595464">
        <ele>1467.5899999999999</ele>
        <time>2012-05-27T11:50:44Z</time>
      </trkpt>
      <trkpt lat="46.52938392944634" lon="7.001473288983107">
        <ele>1467.1099999999999</ele>
        <time>2012-05-27T11:50:45Z</time>
      </trkpt>
      <trkpt lat="46.529400190338492" lon="7.001537075266242">
        <ele>1466.6300000000001</ele>
        <time>2012-05-27T11:50:46Z</time>
      </trkpt>
      <trkpt lat="46.529486691579223" lon="7.002134872600436">
        <ele>1460.3800000000001</ele>
        <time>2012-05-27T11:50:55Z</time>
      </trkpt>
      <trkpt lat="46.529495157301426" lon="7.002205196768045">
        <ele>1459.9000000000001</ele>
        <time>2012-05-27T11:50:56Z</time>
      </trkpt>
      <trkpt lat="46.529498929157853" lon="7.002272587269545">
        <ele>1458.9400000000001</ele>
        <time>2012-05-27T11:50:57Z</time>
      </trkpt>
      <trkpt lat="46.529494905844331" lon="7.002337547019124">
        <ele>1458.46</ele>
        <time>2012-05-27T11:50:58Z</time>
      </trkpt>
      <trkpt lat="46.529487865045667" lon="7.002400159835815">
        <ele>1457.5</ele>
        <time>2012-05-27T11:50:59Z</time>
      </trkpt>
      <trkpt lat="46.529470346868038" lon="7.002525217831135">
        <ele>1456.05</ele>
        <time>2012-05-27T11:51:01Z</time>
      </trkpt>
      <trkpt lat="46.529425252228975" lon="7.00277273543179">
        <ele>1454.1300000000001</ele>
        <time>2012-05-27T11:51:05Z</time>
      </trkpt>
      <trkpt lat="46.529358783736825" lon="7.003272296860814">
        <ele>1451.73</ele>
        <time>2012-05-27T11:51:14Z</time>
      </trkpt>
      <trkpt lat="46.529333721846342" lon="7.003288557752967">
        <ele>1451.73</ele>
        <time>2012-05-27T11:51:15Z</time>
      </trkpt>
      <trkpt lat="46.529304469004273" lon="7.003295598551631">
        <ele>1451.25</ele>
        <time>2012-05-27T11:51:16Z</time>
      </trkpt>
      <trkpt lat="46.529279155656695" lon="7.003302806988359">
        <ele>1451.25</ele>
        <time>2012-05-27T11:51:17Z</time>
      </trkpt>
      <trkpt lat="46.529260128736496" lon="7.003308590501547">
        <ele>1451.25</ele>
        <time>2012-05-27T11:51:18Z</time>
      </trkpt>
      <trkpt lat="46.529234647750854" lon="7.003286797553301">
        <ele>1449.8099999999999</ele>
        <time>2012-05-27T11:51:21Z</time>
      </trkpt>
      <trkpt lat="46.529226433485746" lon="7.003271961584687">
        <ele>1449.3199999999999</ele>
        <time>2012-05-27T11:51:22Z</time>
      </trkpt>
      <trkpt lat="46.529234396293759" lon="7.003258466720581">
        <ele>1449.3199999999999</ele>
        <time>2012-05-27T11:51:34Z</time>
      </trkpt>
      <trkpt lat="46.529209166765213" lon="7.00317389331758">
        <ele>1446.9200000000001</ele>
        <time>2012-05-27T11:51:51Z</time>
      </trkpt>
      <trkpt lat="46.529142362996936" lon="7.002898966893554">
        <ele>1441.6300000000001</ele>
        <time>2012-05-27T11:52:01Z</time>
      </trkpt>
      <trkpt lat="46.529095591977239" lon="7.002543993294239">
        <ele>1437.3099999999999</ele>
        <time>2012-05-27T11:52:11Z</time>
      </trkpt>
      <trkpt lat="46.528891995549202" lon="7.002392616122961">
        <ele>1432.98</ele>
        <time>2012-05-27T11:52:21Z</time>
      </trkpt>
      <trkpt lat="46.528860479593277" lon="7.002394460141659">
        <ele>1432.98</ele>
        <time>2012-05-27T11:52:31Z</time>
      </trkpt>
      <trkpt lat="46.528859976679087" lon="7.002390688285232">
        <ele>1432.98</ele>
        <time>2012-05-27T11:52:55Z</time>
      </trkpt>
      <trkpt lat="46.528702732175589" lon="7.002345845103264">
        <ele>1430.0999999999999</ele>
        <time>2012-05-27T11:53:01Z</time>
      </trkpt>
      <trkpt lat="46.528654368594289" lon="7.002336289733648">
        <ele>1429.6199999999999</ele>
        <time>2012-05-27T11:53:02Z</time>
      </trkpt>
      <trkpt lat="46.528611369431019" lon="7.002335703000426">
        <ele>1429.1400000000001</ele>
        <time>2012-05-27T11:53:03Z</time>
      </trkpt>
      <trkpt lat="46.528430571779609" lon="7.002310305833817">
        <ele>1426.73</ele>
        <time>2012-05-27T11:53:09Z</time>
      </trkpt>
      <trkpt lat="46.528417244553566" lon="7.00230410322547">
        <ele>1426.73</ele>
        <time>2012-05-27T11:53:10Z</time>
      </trkpt>
      <trkpt lat="46.528402492403984" lon="7.002309635281563">
        <ele>1426.73</ele>
        <time>2012-05-27T11:53:11Z</time>
      </trkpt>
      <trkpt lat="46.528381872922182" lon="7.002321118488908">
        <ele>1426.25</ele>
        <time>2012-05-27T11:53:12Z</time>
      </trkpt>
      <trkpt lat="46.528354380279779" lon="7.002336038276553">
        <ele>1425.77</ele>
        <time>2012-05-27T11:53:13Z</time>
      </trkpt>
      <trkpt lat="46.528318421915174" lon="7.002351125702262">
        <ele>1425.77</ele>
        <time>2012-05-27T11:53:14Z</time>
      </trkpt>
      <trkpt lat="46.528245164081454" lon="7.00238230638206">
        <ele>1424.3299999999999</ele>
        <time>2012-05-27T11:53:18Z</time>
      </trkpt>
      <trkpt lat="46.528230663388968" lon="7.002385910600424">
        <ele>1423.8499999999999</ele>
        <time>2012-05-27T11:53:19Z</time>
      </trkpt>
      <trkpt lat="46.528212055563927" lon="7.002385156229138">
        <ele>1423.8499999999999</ele>
        <time>2012-05-27T11:53:20Z</time>
      </trkpt>
      <trkpt lat="46.528181042522192" lon="7.002376690506935">
        <ele>1423.3699999999999</ele>
        <time>2012-05-27T11:53:22Z</time>
      </trkpt>
      <trkpt lat="46.52816285379231" lon="7.002376522868872">
        <ele>1422.8900000000001</ele>
        <time>2012-05-27T11:53:23Z</time>
      </trkpt>
      <trkpt lat="46.528139300644398" lon="7.002377361059189">
        <ele>1421.9300000000001</ele>
        <time>2012-05-27T11:53:24Z</time>
      </trkpt>
      <trkpt lat="46.528120609000325" lon="7.002384318038821">
        <ele>1421.45</ele>
        <time>2012-05-27T11:53:25Z</time>
      </trkpt>
      <trkpt lat="46.528104851022363" lon="7.002390772104263">
        <ele>1420.49</ele>
        <time>2012-05-27T11:53:26Z</time>
      </trkpt>
      <trkpt lat="46.528088925406337" lon="7.002394124865532">
        <ele>1420</ele>
        <time>2012-05-27T11:53:27Z</time>
      </trkpt>
      <trkpt lat="46.527930172160268" lon="7.002577856183052">
        <ele>1411.8299999999999</ele>
        <time>2012-05-27T11:53:38Z</time>
      </trkpt>
      <trkpt lat="46.527808215469122" lon="7.002815064042807">
        <ele>1406.55</ele>
        <time>2012-05-27T11:53:48Z</time>
      </trkpt>
      <trkpt lat="46.527805030345917" lon="7.003078926354647">
        <ele>1402.22</ele>
        <time>2012-05-27T11:53:56Z</time>
      </trkpt>
      <trkpt lat="46.52779689989984" lon="7.00310449115932">
        <ele>1401.74</ele>
        <time>2012-05-27T11:53:57Z</time>
      </trkpt>
      <trkpt lat="46.527782985940576" lon="7.003130475059152">
        <ele>1401.26</ele>
        <time>2012-05-27T11:53:58Z</time>
      </trkpt>
      <trkpt lat="46.52776412665844" lon="7.003149166703224">
        <ele>1400.78</ele>
        <time>2012-05-27T11:53:59Z</time>
      </trkpt>
      <trkpt lat="46.527745267376304" lon="7.00315578840673">
        <ele>1400.3</ele>
        <time>2012-05-27T11:54:00Z</time>
      </trkpt>
      <trkpt lat="46.527724815532565" lon="7.003158554434776">
        <ele>1399.8199999999999</ele>
        <time>2012-05-27T11:54:01Z</time>
      </trkpt>
      <trkpt lat="46.527705704793334" lon="7.003168109804392">
        <ele>1399.8199999999999</ele>
        <time>2012-05-27T11:54:02Z</time>
      </trkpt>
      <trkpt lat="46.527693048119545" lon="7.003189483657479">
        <ele>1398.8599999999999</ele>
        <time>2012-05-27T11:54:03Z</time>
      </trkpt>
      <trkpt lat="46.527691790834069" lon="7.003214377909899">
        <ele>1398.3699999999999</ele>
        <time>2012-05-27T11:54:04Z</time>
      </trkpt>
      <trkpt lat="46.527703693136573" lon="7.003239104524255">
        <ele>1397.4100000000001</ele>
        <time>2012-05-27T11:54:05Z</time>
      </trkpt>
      <trkpt lat="46.527727665379643" lon="7.003266094252467">
        <ele>1396.9300000000001</ele>
        <time>2012-05-27T11:54:06Z</time>
      </trkpt>
      <trkpt lat="46.52775825932622" lon="7.003299286589027">
        <ele>1395.97</ele>
        <time>2012-05-27T11:54:07Z</time>
      </trkpt>
      <trkpt lat="46.527785081416368" lon="7.003340860828757">
        <ele>1395.49</ele>
        <time>2012-05-27T11:54:08Z</time>
      </trkpt>
      <trkpt lat="46.527795391157269" lon="7.00339425355196">
        <ele>1394.05</ele>
        <time>2012-05-27T11:54:09Z</time>
      </trkpt>
      <trkpt lat="46.527789356186986" lon="7.003458626568317">
        <ele>1393.0899999999999</ele>
        <time>2012-05-27T11:54:10Z</time>
      </trkpt>
      <trkpt lat="46.52777636423707" lon="7.003529034554958">
        <ele>1392.1300000000001</ele>
        <time>2012-05-27T11:54:11Z</time>
      </trkpt>
      <trkpt lat="46.527756499126554" lon="7.003601957112551">
        <ele>1391.6500000000001</ele>
        <time>2012-05-27T11:54:12Z</time>
      </trkpt>
      <trkpt lat="46.527732191607356" lon="7.003666162490845">
        <ele>1391.1700000000001</ele>
        <time>2012-05-27T11:54:13Z</time>
      </trkpt>
      <trkpt lat="46.527708135545254" lon="7.003724919632077">
        <ele>1390.6800000000001</ele>
        <time>2012-05-27T11:54:14Z</time>
      </trkpt>
      <trkpt lat="46.52769036591053" lon="7.003785856068134">
        <ele>1390.2</ele>
        <time>2012-05-27T11:54:15Z</time>
      </trkpt>
      <trkpt lat="46.527677373960614" lon="7.003846624866128">
        <ele>1390.2</ele>
        <time>2012-05-27T11:54:16Z</time>
      </trkpt>
      <trkpt lat="46.527650551870465" lon="7.003972018137574">
        <ele>1389.24</ele>
        <time>2012-05-27T11:54:18Z</time>
      </trkpt>
      <trkpt lat="46.527644013985991" lon="7.004036391153932">
        <ele>1389.24</ele>
        <time>2012-05-27T11:54:19Z</time>
      </trkpt>
      <trkpt lat="46.527641750872135" lon="7.004101853817701">
        <ele>1389.24</ele>
        <time>2012-05-27T11:54:20Z</time>
      </trkpt>
      <trkpt lat="46.527776783332229" lon="7.004586327821016">
        <ele>1386.8399999999999</ele>
        <time>2012-05-27T11:54:30Z</time>
      </trkpt>
      <trkpt lat="46.52785993181169" lon="7.004792438820005">
        <ele>1385.4000000000001</ele>
        <time>2012-05-27T11:54:35Z</time>
      </trkpt>
      <trkpt lat="46.527860267087817" lon="7.004831079393625">
        <ele>1385.4000000000001</ele>
        <time>2012-05-27T11:54:36Z</time>
      </trkpt>
      <trkpt lat="46.527857668697834" lon="7.004876844584942">
        <ele>1384.9200000000001</ele>
        <time>2012-05-27T11:54:37Z</time>
      </trkpt>
      <trkpt lat="46.527849202975631" lon="7.004922442138195">
        <ele>1384.9200000000001</ele>
        <time>2012-05-27T11:54:38Z</time>
      </trkpt>
      <trkpt lat="46.527838977053761" lon="7.004961166530848">
        <ele>1384.4400000000001</ele>
        <time>2012-05-27T11:54:39Z</time>
      </trkpt>
      <trkpt lat="46.527835037559271" lon="7.004997292533517">
        <ele>1383.96</ele>
        <time>2012-05-27T11:54:40Z</time>
      </trkpt>
      <trkpt lat="46.527831433340907" lon="7.005032664164901">
        <ele>1383.96</ele>
        <time>2012-05-27T11:54:41Z</time>
      </trkpt>
      <trkpt lat="46.527830427512527" lon="7.005057893693447">
        <ele>1383.47</ele>
        <time>2012-05-27T11:54:42Z</time>
      </trkpt>
      <trkpt lat="46.527831936255097" lon="7.005080776289105">
        <ele>1382.99</ele>
        <time>2012-05-27T11:54:43Z</time>
      </trkpt>
      <trkpt lat="46.527833277359605" lon="7.005107766017318">
        <ele>1382.51</ele>
        <time>2012-05-27T11:54:44Z</time>
      </trkpt>
      <trkpt lat="46.527828080579638" lon="7.005136851221323">
        <ele>1382.51</ele>
        <time>2012-05-27T11:54:45Z</time>
      </trkpt>
      <trkpt lat="46.527826907113194" lon="7.005167864263058">
        <ele>1382.03</ele>
        <time>2012-05-27T11:54:46Z</time>
      </trkpt>
      <trkpt lat="46.527829170227051" lon="7.005193429067731">
        <ele>1381.55</ele>
        <time>2012-05-27T11:54:47Z</time>
      </trkpt>
      <trkpt lat="46.527828583493829" lon="7.005220586434007">
        <ele>1381.55</ele>
        <time>2012-05-27T11:54:48Z</time>
      </trkpt>
      <trkpt lat="46.527825817465782" lon="7.005248833447695">
        <ele>1381.0699999999999</ele>
        <time>2012-05-27T11:54:49Z</time>
      </trkpt>
      <trkpt lat="46.527822548523545" lon="7.005275571718812">
        <ele>1381.0699999999999</ele>
        <time>2012-05-27T11:54:50Z</time>
      </trkpt>
      <trkpt lat="46.527819531038404" lon="7.005299041047692">
        <ele>1380.5899999999999</ele>
        <time>2012-05-27T11:54:51Z</time>
      </trkpt>
      <trkpt lat="46.527811903506517" lon="7.005320666357875">
        <ele>1380.1099999999999</ele>
        <time>2012-05-27T11:54:52Z</time>
      </trkpt>
      <trkpt lat="46.527805281803012" lon="7.00534388422966">
        <ele>1380.1099999999999</ele>
        <time>2012-05-27T11:54:53Z</time>
      </trkpt>
      <trkpt lat="46.527803018689156" lon="7.005367688834667">
        <ele>1379.6300000000001</ele>
        <time>2012-05-27T11:54:54Z</time>
      </trkpt>
      <trkpt lat="46.52775976806879" lon="7.005509007722139">
        <ele>1378.1900000000001</ele>
        <time>2012-05-27T11:54:58Z</time>
      </trkpt>
      <trkpt lat="46.527751469984651" lon="7.005572207272053">
        <ele>1377.71</ele>
        <time>2012-05-27T11:54:59Z</time>
      </trkpt>
      <trkpt lat="46.527768317610025" lon="7.006003288552165">
        <ele>1373.8599999999999</ele>
        <time>2012-05-27T11:55:08Z</time>
      </trkpt>
      <trkpt lat="46.527797738090158" lon="7.006391538307071">
        <ele>1369.54</ele>
        <time>2012-05-27T11:55:18Z</time>
      </trkpt>
      <trkpt lat="46.527852555736899" lon="7.006742404773831">
        <ele>1366.1700000000001</ele>
        <time>2012-05-27T11:55:26Z</time>
      </trkpt>
      <trkpt lat="46.527941906824708" lon="7.007090756669641">
        <ele>1362.3299999999999</ele>
        <time>2012-05-27T11:55:35Z</time>
      </trkpt>
      <trkpt lat="46.527975266799331" lon="7.00738487765193">
        <ele>1358.48</ele>
        <time>2012-05-27T11:55:45Z</time>
      </trkpt>
      <trkpt lat="46.527787679806352" lon="7.00764094479382">
        <ele>1355.5999999999999</ele>
        <time>2012-05-27T11:55:54Z</time>
      </trkpt>
      <trkpt lat="46.527788015082479" lon="7.007679836824536">
        <ele>1355.5999999999999</ele>
        <time>2012-05-27T11:55:55Z</time>
      </trkpt>
      <trkpt lat="46.527829673141241" lon="7.007754519581795">
        <ele>1354.6300000000001</ele>
        <time>2012-05-27T11:56:03Z</time>
      </trkpt>
      <trkpt lat="46.527826488018036" lon="7.007747981697321">
        <ele>1354.6300000000001</ele>
        <time>2012-05-27T11:56:18Z</time>
      </trkpt>
      <trkpt lat="46.527869906276464" lon="7.00771420262754">
        <ele>1354.6300000000001</ele>
        <time>2012-05-27T11:56:21Z</time>
      </trkpt>
      <trkpt lat="46.527894213795662" lon="7.007694337517023">
        <ele>1354.6300000000001</ele>
        <time>2012-05-27T11:56:22Z</time>
      </trkpt>
      <trkpt lat="46.527922712266445" lon="7.007673634216189">
        <ele>1354.6300000000001</ele>
        <time>2012-05-27T11:56:23Z</time>
      </trkpt>
      <trkpt lat="46.528100911527872" lon="7.007566764950752">
        <ele>1354.6300000000001</ele>
        <time>2012-05-27T11:56:28Z</time>
      </trkpt>
      <trkpt lat="46.528145670890808" lon="7.007555868476629">
        <ele>1354.6300000000001</ele>
        <time>2012-05-27T11:56:29Z</time>
      </trkpt>
      <trkpt lat="46.528711030259728" lon="7.007554108276963">
        <ele>1356.0799999999999</ele>
        <time>2012-05-27T11:56:42Z</time>
      </trkpt>
      <trkpt lat="46.528754197061062" lon="7.007575733587146">
        <ele>1356.0799999999999</ele>
        <time>2012-05-27T11:56:43Z</time>
      </trkpt>
      <trkpt lat="46.528793508186936" lon="7.007612446323037">
        <ele>1356.0799999999999</ele>
        <time>2012-05-27T11:56:44Z</time>
      </trkpt>
      <trkpt lat="46.528824269771576" lon="7.007667347788811">
        <ele>1356.0799999999999</ele>
        <time>2012-05-27T11:56:45Z</time>
      </trkpt>
      <trkpt lat="46.5288454759866" lon="7.007728535681963">
        <ele>1356.5599999999999</ele>
        <time>2012-05-27T11:56:46Z</time>
      </trkpt>
      <trkpt lat="46.528862239792943" lon="7.007790897041559">
        <ele>1356.5599999999999</ele>
        <time>2012-05-27T11:56:47Z</time>
      </trkpt>
      <trkpt lat="46.529146889224648" lon="7.008334128186107">
        <ele>1358.48</ele>
        <time>2012-05-27T11:57:00Z</time>
      </trkpt>
      <trkpt lat="46.529503874480724" lon="7.008694298565388">
        <ele>1360.4000000000001</ele>
        <time>2012-05-27T11:57:13Z</time>
      </trkpt>
      <trkpt lat="46.529934285208583" lon="7.008816255256534">
        <ele>1364.73</ele>
        <time>2012-05-27T11:57:25Z</time>
      </trkpt>
      <trkpt lat="46.530050039291382" lon="7.008812483400106">
        <ele>1365.21</ele>
        <time>2012-05-27T11:57:28Z</time>
      </trkpt>
      <trkpt lat="46.530087422579527" lon="7.008788175880909">
        <ele>1365.21</ele>
        <time>2012-05-27T11:57:29Z</time>
      </trkpt>
      <trkpt lat="46.530119525268674" lon="7.008749870583415">
        <ele>1365.21</ele>
        <time>2012-05-27T11:57:30Z</time>
      </trkpt>
      <trkpt lat="46.530147017911077" lon="7.008696645498276">
        <ele>1365.21</ele>
        <time>2012-05-27T11:57:31Z</time>
      </trkpt>
      <trkpt lat="46.53016964904964" lon="7.008634703233838">
        <ele>1365.21</ele>
        <time>2012-05-27T11:57:32Z</time>
      </trkpt>
      <trkpt lat="46.530183311551809" lon="7.008564462885261">
        <ele>1365.6900000000001</ele>
        <time>2012-05-27T11:57:33Z</time>
      </trkpt>
      <trkpt lat="46.530187502503395" lon="7.008490702137351">
        <ele>1365.6900000000001</ele>
        <time>2012-05-27T11:57:34Z</time>
      </trkpt>
      <trkpt lat="46.530185155570507" lon="7.008415265008807">
        <ele>1365.6900000000001</ele>
        <time>2012-05-27T11:57:35Z</time>
      </trkpt>
      <trkpt lat="46.530179874971509" lon="7.00834209099412">
        <ele>1365.6900000000001</ele>
        <time>2012-05-27T11:57:36Z</time>
      </trkpt>
      <trkpt lat="46.530178869143128" lon="7.00827369466424">
        <ele>1365.6900000000001</ele>
        <time>2012-05-27T11:57:37Z</time>
      </trkpt>
      <trkpt lat="46.530226394534111" lon="7.007984686642885">
        <ele>1366.1700000000001</ele>
        <time>2012-05-27T11:57:46Z</time>
      </trkpt>
      <trkpt lat="46.530336448922753" lon="7.00781880877912">
        <ele>1369.05</ele>
        <time>2012-05-27T11:57:57Z</time>
      </trkpt>
      <trkpt lat="46.530349859967828" lon="7.007808834314346">
        <ele>1369.54</ele>
        <time>2012-05-27T11:57:58Z</time>
      </trkpt>
      <trkpt lat="46.5303651150316" lon="7.007798440754414">
        <ele>1369.54</ele>
        <time>2012-05-27T11:57:59Z</time>
      </trkpt>
      <trkpt lat="46.5305136423558" lon="7.007815288379788">
        <ele>1372.9000000000001</ele>
        <time>2012-05-27T11:58:09Z</time>
      </trkpt>
      <trkpt lat="46.530525293201208" lon="7.007830543443561">
        <ele>1373.3800000000001</ele>
        <time>2012-05-27T11:58:10Z</time>
      </trkpt>
      <trkpt lat="46.530536441132426" lon="7.007844960317016">
        <ele>1373.3800000000001</ele>
        <time>2012-05-27T11:58:11Z</time>
      </trkpt>
      <trkpt lat="46.530546667054296" lon="7.007857533171773">
        <ele>1373.8599999999999</ele>
        <time>2012-05-27T11:58:12Z</time>
      </trkpt>
      <trkpt lat="46.530557395890355" lon="7.007871530950069">
        <ele>1373.8599999999999</ele>
        <time>2012-05-27T11:58:13Z</time>
      </trkpt>
      <trkpt lat="46.530568292364478" lon="7.007877733558416">
        <ele>1373.3800000000001</ele>
        <time>2012-05-27T11:58:14Z</time>
      </trkpt>
      <trkpt lat="46.530581703409553" lon="7.007885277271271">
        <ele>1373.3800000000001</ele>
        <time>2012-05-27T11:58:15Z</time>
      </trkpt>
      <trkpt lat="46.530785718932748" lon="7.008002959191799">
        <ele>1377.23</ele>
        <time>2012-05-27T11:58:29Z</time>
      </trkpt>
      <trkpt lat="46.530845817178488" lon="7.008131705224514">
        <ele>1380.1099999999999</ele>
        <time>2012-05-27T11:58:37Z</time>
      </trkpt>
      <trkpt lat="46.530842296779156" lon="7.008151570335031">
        <ele>1380.1099999999999</ele>
        <time>2012-05-27T11:58:38Z</time>
      </trkpt>
      <trkpt lat="46.530835591256618" lon="7.00817059725523">
        <ele>1380.1099999999999</ele>
        <time>2012-05-27T11:58:39Z</time>
      </trkpt>
      <trkpt lat="46.530827879905701" lon="7.008186103776097">
        <ele>1379.6300000000001</ele>
        <time>2012-05-27T11:58:40Z</time>
      </trkpt>
      <trkpt lat="46.53082150965929" lon="7.008202783763409">
        <ele>1379.6300000000001</ele>
        <time>2012-05-27T11:58:41Z</time>
      </trkpt>
      <trkpt lat="46.530813882127404" lon="7.008218038827181">
        <ele>1379.6300000000001</ele>
        <time>2012-05-27T11:58:42Z</time>
      </trkpt>
      <trkpt lat="46.53080583550036" lon="7.008234802633524">
        <ele>1380.1099999999999</ele>
        <time>2012-05-27T11:58:43Z</time>
      </trkpt>
      <trkpt lat="46.530798962339759" lon="7.00825366191566">
        <ele>1380.1099999999999</ele>
        <time>2012-05-27T11:58:44Z</time>
      </trkpt>
      <trkpt lat="46.530793262645602" lon="7.008273527026177">
        <ele>1380.1099999999999</ele>
        <time>2012-05-27T11:58:45Z</time>
      </trkpt>
      <trkpt lat="46.530791418626904" lon="7.008292386308312">
        <ele>1380.5899999999999</ele>
        <time>2012-05-27T11:58:46Z</time>
      </trkpt>
      <trkpt lat="46.530794184654951" lon="7.008316777646542">
        <ele>1380.5899999999999</ele>
        <time>2012-05-27T11:58:47Z</time>
      </trkpt>
      <trkpt lat="46.530797621235251" lon="7.008341168984771">
        <ele>1380.5899999999999</ele>
        <time>2012-05-27T11:58:48Z</time>
      </trkpt>
      <trkpt lat="46.530840871855617" lon="7.008454073220491">
        <ele>1382.03</ele>
        <time>2012-05-27T11:59:00Z</time>
      </trkpt>
      <trkpt lat="46.530825700610876" lon="7.00846329331398">
        <ele>1382.03</ele>
        <time>2012-05-27T11:59:29Z</time>
      </trkpt>
      <trkpt lat="46.530812038108706" lon="7.0084657240659">
        <ele>1380.5899999999999</ele>
        <time>2012-05-27T11:59:57Z</time>
      </trkpt>
      <trkpt lat="46.530826622620225" lon="7.008487097918987">
        <ele>1380.5899999999999</ele>
        <time>2012-05-27T12:00:16Z</time>
      </trkpt>
      <trkpt lat="46.530836932361126" lon="7.008496318012476">
        <ele>1381.0699999999999</ele>
        <time>2012-05-27T12:00:17Z</time>
      </trkpt>
      <trkpt lat="46.530845146626234" lon="7.008510567247868">
        <ele>1381.0699999999999</ele>
        <time>2012-05-27T12:00:18Z</time>
      </trkpt>
      <trkpt lat="46.53085520491004" lon="7.008525151759386">
        <ele>1381.55</ele>
        <time>2012-05-27T12:00:19Z</time>
      </trkpt>
      <trkpt lat="46.530869202688336" lon="7.008537305518985">
        <ele>1382.03</ele>
        <time>2012-05-27T12:00:20Z</time>
      </trkpt>
      <trkpt lat="46.531105739995837" lon="7.008746014907956">
        <ele>1382.51</ele>
        <time>2012-05-27T12:00:33Z</time>
      </trkpt>
      <trkpt lat="46.531324675306678" lon="7.009228644892573">
        <ele>1383.96</ele>
        <time>2012-05-27T12:00:47Z</time>
      </trkpt>
      <trkpt lat="46.531305061653256" lon="7.009870782494545">
        <ele>1384.9200000000001</ele>
        <time>2012-05-27T12:01:01Z</time>
      </trkpt>
      <trkpt lat="46.531680068001151" lon="7.010183511301875">
        <ele>1383.47</ele>
        <time>2012-05-27T12:01:12Z</time>
      </trkpt>
      <trkpt lat="46.531716948375106" lon="7.010227600112557">
        <ele>1383.47</ele>
        <time>2012-05-27T12:01:13Z</time>
      </trkpt>
      <trkpt lat="46.531751230359077" lon="7.010279064998031">
        <ele>1383.47</ele>
        <time>2012-05-27T12:01:14Z</time>
      </trkpt>
      <trkpt lat="46.531778555363417" lon="7.010343354195356">
        <ele>1382.99</ele>
        <time>2012-05-27T12:01:15Z</time>
      </trkpt>
      <trkpt lat="46.53180219233036" lon="7.010412337258458">
        <ele>1382.99</ele>
        <time>2012-05-27T12:01:16Z</time>
      </trkpt>
      <trkpt lat="46.53184468857944" lon="7.010554410517216">
        <ele>1383.47</ele>
        <time>2012-05-27T12:01:18Z</time>
      </trkpt>
      <trkpt lat="46.531858602538705" lon="7.010628171265125">
        <ele>1382.99</ele>
        <time>2012-05-27T12:01:19Z</time>
      </trkpt>
      <trkpt lat="46.53187595307827" lon="7.010776782408357">
        <ele>1382.99</ele>
        <time>2012-05-27T12:01:21Z</time>
      </trkpt>
      <trkpt lat="46.531871594488621" lon="7.010851465165615">
        <ele>1382.99</ele>
        <time>2012-05-27T12:01:22Z</time>
      </trkpt>
      <trkpt lat="46.531856926158071" lon="7.010926734656096">
        <ele>1382.99</ele>
        <time>2012-05-27T12:01:23Z</time>
      </trkpt>
      <trkpt lat="46.531751984730363" lon="7.011279445141554">
        <ele>1381.0699999999999</ele>
        <time>2012-05-27T12:01:27Z</time>
      </trkpt>
      <trkpt lat="46.531699514016509" lon="7.011366533115506">
        <ele>1380.5899999999999</ele>
        <time>2012-05-27T12:01:28Z</time>
      </trkpt>
      <trkpt lat="46.531631201505661" lon="7.011427218094468">
        <ele>1380.5899999999999</ele>
        <time>2012-05-27T12:01:29Z</time>
      </trkpt>
      <trkpt lat="46.531560122966766" lon="7.011460913345218">
        <ele>1380.5899999999999</ele>
        <time>2012-05-27T12:01:30Z</time>
      </trkpt>
      <trkpt lat="46.531495833769441" lon="7.011477928608656">
        <ele>1381.0699999999999</ele>
        <time>2012-05-27T12:01:31Z</time>
      </trkpt>
      <trkpt lat="46.531440680846572" lon="7.011489579454064">
        <ele>1381.55</ele>
        <time>2012-05-27T12:01:32Z</time>
      </trkpt>
      <trkpt lat="46.530951596796513" lon="7.011569961905479">
        <ele>1386.8399999999999</ele>
        <time>2012-05-27T12:01:44Z</time>
      </trkpt>
      <trkpt lat="46.530873226001859" lon="7.011613631621003">
        <ele>1387.3199999999999</ele>
        <time>2012-05-27T12:01:46Z</time>
      </trkpt>
      <trkpt lat="46.530833495780826" lon="7.011644057929516">
        <ele>1387.3199999999999</ele>
        <time>2012-05-27T12:01:47Z</time>
      </trkpt>
      <trkpt lat="46.530527388677001" lon="7.011997774243355">
        <ele>1386.3599999999999</ele>
        <time>2012-05-27T12:01:54Z</time>
      </trkpt>
      <trkpt lat="46.530483886599541" lon="7.012081509456039">
        <ele>1385.4000000000001</ele>
        <time>2012-05-27T12:01:55Z</time>
      </trkpt>
      <trkpt lat="46.530444826930761" lon="7.012179158627987">
        <ele>1384.9200000000001</ele>
        <time>2012-05-27T12:01:56Z</time>
      </trkpt>
      <trkpt lat="46.530410796403885" lon="7.012285441160202">
        <ele>1384.4400000000001</ele>
        <time>2012-05-27T12:01:57Z</time>
      </trkpt>
      <trkpt lat="46.530383974313736" lon="7.012404128909111">
        <ele>1383.47</ele>
        <time>2012-05-27T12:01:58Z</time>
      </trkpt>
      <trkpt lat="46.530364863574505" lon="7.012533880770207">
        <ele>1382.51</ele>
        <time>2012-05-27T12:01:59Z</time>
      </trkpt>
      <trkpt lat="46.530350027605891" lon="7.012671427801251">
        <ele>1381.55</ele>
        <time>2012-05-27T12:02:00Z</time>
      </trkpt>
      <trkpt lat="46.530338963493705" lon="7.012816267088056">
        <ele>1380.5899999999999</ele>
        <time>2012-05-27T12:02:01Z</time>
      </trkpt>
      <trkpt lat="46.530432924628258" lon="7.014158461242914">
        <ele>1373.8599999999999</ele>
        <time>2012-05-27T12:02:10Z</time>
      </trkpt>
      <trkpt lat="46.530435020104051" lon="7.014283938333392">
        <ele>1372.9000000000001</ele>
        <time>2012-05-27T12:02:11Z</time>
      </trkpt>
      <trkpt lat="46.530432086437941" lon="7.014406062662602">
        <ele>1371.9400000000001</ele>
        <time>2012-05-27T12:02:12Z</time>
      </trkpt>
      <trkpt lat="46.530440971255302" lon="7.014525756239891">
        <ele>1370.98</ele>
        <time>2012-05-27T12:02:13Z</time>
      </trkpt>
      <trkpt lat="46.530464356765151" lon="7.014638995751739">
        <ele>1370.5</ele>
        <time>2012-05-27T12:02:14Z</time>
      </trkpt>
      <trkpt lat="46.530496375635266" lon="7.014738321304321">
        <ele>1370.5</ele>
        <time>2012-05-27T12:02:15Z</time>
      </trkpt>
      <trkpt lat="46.530533088371158" lon="7.014808310195804">
        <ele>1370.5</ele>
        <time>2012-05-27T12:02:16Z</time>
      </trkpt>
      <trkpt lat="46.530572902411222" lon="7.014835383743048">
        <ele>1370.5</ele>
        <time>2012-05-27T12:02:17Z</time>
      </trkpt>
      <trkpt lat="46.530613638460636" lon="7.014827588573098">
        <ele>1370.02</ele>
        <time>2012-05-27T12:02:18Z</time>
      </trkpt>
      <trkpt lat="46.530648926272988" lon="7.014799760654569">
        <ele>1369.54</ele>
        <time>2012-05-27T12:02:19Z</time>
      </trkpt>
      <trkpt lat="46.530677760019898" lon="7.014763550832868">
        <ele>1369.54</ele>
        <time>2012-05-27T12:02:20Z</time>
      </trkpt>
      <trkpt lat="46.530702570453286" lon="7.014722395688295">
        <ele>1370.02</ele>
        <time>2012-05-27T12:02:21Z</time>
      </trkpt>
      <trkpt lat="46.530728051438928" lon="7.014683755114675">
        <ele>1370.02</ele>
        <time>2012-05-27T12:02:22Z</time>
      </trkpt>
      <trkpt lat="46.530759902670979" lon="7.014656933024526">
        <ele>1370.5</ele>
        <time>2012-05-27T12:02:23Z</time>
      </trkpt>
      <trkpt lat="46.530795944854617" lon="7.014640085399151">
        <ele>1370.98</ele>
        <time>2012-05-27T12:02:24Z</time>
      </trkpt>
      <trkpt lat="46.530834417790174" lon="7.01462734490633">
        <ele>1370.98</ele>
        <time>2012-05-27T12:02:25Z</time>
      </trkpt>
      <trkpt lat="46.531373038887978" lon="7.014548135921359">
        <ele>1373.3800000000001</ele>
        <time>2012-05-27T12:02:38Z</time>
      </trkpt>
      <trkpt lat="46.531479740515351" lon="7.014552745968103">
        <ele>1374.8199999999999</ele>
        <time>2012-05-27T12:02:46Z</time>
      </trkpt>
      <trkpt lat="46.531880730763078" lon="7.014600858092308">
        <ele>1377.71</ele>
        <time>2012-05-27T12:02:58Z</time>
      </trkpt>
      <trkpt lat="46.532278368249536" lon="7.014668164774776">
        <ele>1378.6700000000001</ele>
        <time>2012-05-27T12:03:08Z</time>
      </trkpt>
      <trkpt lat="46.532330755144358" lon="7.014648215845227">
        <ele>1378.6700000000001</ele>
        <time>2012-05-27T12:03:09Z</time>
      </trkpt>
      <trkpt lat="46.53238414786756" lon="7.014616364613175">
        <ele>1378.6700000000001</ele>
        <time>2012-05-27T12:03:10Z</time>
      </trkpt>
      <trkpt lat="46.532436953857541" lon="7.014571437612176">
        <ele>1378.1900000000001</ele>
        <time>2012-05-27T12:03:11Z</time>
      </trkpt>
      <trkpt lat="46.532493615522981" lon="7.014527935534716">
        <ele>1377.71</ele>
        <time>2012-05-27T12:03:12Z</time>
      </trkpt>
      <trkpt lat="46.532551953569055" lon="7.014508573338389">
        <ele>1377.71</ele>
        <time>2012-05-27T12:03:13Z</time>
      </trkpt>
      <trkpt lat="46.532604675740004" lon="7.014502286911011">
        <ele>1377.71</ele>
        <time>2012-05-27T12:03:14Z</time>
      </trkpt>
      <trkpt lat="46.532652704045177" lon="7.014502286911011">
        <ele>1377.71</ele>
        <time>2012-05-27T12:03:15Z</time>
      </trkpt>
      <trkpt lat="46.532692182809114" lon="7.014511087909341">
        <ele>1377.71</ele>
        <time>2012-05-27T12:03:16Z</time>
      </trkpt>
      <trkpt lat="46.532723279669881" lon="7.014525420963764">
        <ele>1378.1900000000001</ele>
        <time>2012-05-27T12:03:17Z</time>
      </trkpt>
      <trkpt lat="46.532747251912951" lon="7.014545537531376">
        <ele>1378.1900000000001</ele>
        <time>2012-05-27T12:03:18Z</time>
      </trkpt>
      <trkpt lat="46.532764686271548" lon="7.014569593593478">
        <ele>1378.6700000000001</ele>
        <time>2012-05-27T12:03:19Z</time>
      </trkpt>
      <trkpt lat="46.532779270783067" lon="7.014592727646232">
        <ele>1379.1500000000001</ele>
        <time>2012-05-27T12:03:20Z</time>
      </trkpt>
      <trkpt lat="46.533068530261517" lon="7.014770256355405">
        <ele>1379.1500000000001</ele>
        <time>2012-05-27T12:03:35Z</time>
      </trkpt>
      <trkpt lat="46.53328025713563" lon="7.015043925493956">
        <ele>1377.23</ele>
        <time>2012-05-27T12:03:46Z</time>
      </trkpt>
      <trkpt lat="46.533349407836795" lon="7.015183484181762">
        <ele>1376.75</ele>
        <time>2012-05-27T12:03:49Z</time>
      </trkpt>
      <trkpt lat="46.533668674528599" lon="7.016067691147327">
        <ele>1372.4200000000001</ele>
        <time>2012-05-27T12:04:01Z</time>
      </trkpt>
      <trkpt lat="46.533709494397044" lon="7.016118066385388">
        <ele>1372.4200000000001</ele>
        <time>2012-05-27T12:04:02Z</time>
      </trkpt>
      <trkpt lat="46.533756852149963" lon="7.016147486865521">
        <ele>1371.9400000000001</ele>
        <time>2012-05-27T12:04:03Z</time>
      </trkpt>
      <trkpt lat="46.533807311207056" lon="7.016154024749994">
        <ele>1371.46</ele>
        <time>2012-05-27T12:04:04Z</time>
      </trkpt>
      <trkpt lat="46.533857686445117" lon="7.016138099133968">
        <ele>1371.46</ele>
        <time>2012-05-27T12:04:05Z</time>
      </trkpt>
      <trkpt lat="46.533904876559973" lon="7.016099207103252">
        <ele>1370.98</ele>
        <time>2012-05-27T12:04:06Z</time>
      </trkpt>
      <trkpt lat="46.533947540447116" lon="7.01603701338172">
        <ele>1370.5</ele>
        <time>2012-05-27T12:04:07Z</time>
      </trkpt>
      <trkpt lat="46.533985259011388" lon="7.015959061682224">
        <ele>1370.02</ele>
        <time>2012-05-27T12:04:08Z</time>
      </trkpt>
      <trkpt lat="46.53402054682374" lon="7.015873230993748">
        <ele>1369.54</ele>
        <time>2012-05-27T12:04:09Z</time>
      </trkpt>
      <trkpt lat="46.534050889313221" lon="7.015780778601766">
        <ele>1368.5699999999999</ele>
        <time>2012-05-27T12:04:10Z</time>
      </trkpt>
      <trkpt lat="46.534074358642101" lon="7.015686985105276">
        <ele>1368.0899999999999</ele>
        <time>2012-05-27T12:04:11Z</time>
      </trkpt>
      <trkpt lat="46.534096319228411" lon="7.015595203265548">
        <ele>1367.6099999999999</ele>
        <time>2012-05-27T12:04:12Z</time>
      </trkpt>
      <trkpt lat="46.534122806042433" lon="7.015506438910961">
        <ele>1366.6500000000001</ele>
        <time>2012-05-27T12:04:13Z</time>
      </trkpt>
      <trkpt lat="46.534156082198024" lon="7.015422619879246">
        <ele>1365.6900000000001</ele>
        <time>2012-05-27T12:04:14Z</time>
      </trkpt>
      <trkpt lat="46.534195393323898" lon="7.015345925465226">
        <ele>1364.73</ele>
        <time>2012-05-27T12:04:15Z</time>
      </trkpt>
      <trkpt lat="46.534243002533913" lon="7.015272164717317">
        <ele>1363.77</ele>
        <time>2012-05-27T12:04:16Z</time>
      </trkpt>
      <trkpt lat="46.53430494479835" lon="7.015202594920993">
        <ele>1362.8099999999999</ele>
        <time>2012-05-27T12:04:17Z</time>
      </trkpt>
      <trkpt lat="46.534378621727228" lon="7.0151452627033">
        <ele>1361.8399999999999</ele>
        <time>2012-05-27T12:04:18Z</time>
      </trkpt>
      <trkpt lat="46.534456992521882" lon="7.015101509168744">
        <ele>1360.8800000000001</ele>
        <time>2012-05-27T12:04:19Z</time>
      </trkpt>
      <trkpt lat="46.534537291154265" lon="7.015070160850883">
        <ele>1360.4000000000001</ele>
        <time>2012-05-27T12:04:20Z</time>
      </trkpt>
      <trkpt lat="46.534614488482475" lon="7.015054151415825">
        <ele>1359.9200000000001</ele>
        <time>2012-05-27T12:04:21Z</time>
      </trkpt>
      <trkpt lat="46.534685231745243" lon="7.015044176951051">
        <ele>1358.96</ele>
        <time>2012-05-27T12:04:22Z</time>
      </trkpt>
      <trkpt lat="46.534874076023698" lon="7.015058426186442">
        <ele>1357.52</ele>
        <time>2012-05-27T12:04:27Z</time>
      </trkpt>
      <trkpt lat="46.534893102943897" lon="7.015095641836524">
        <ele>1357.52</ele>
        <time>2012-05-27T12:04:28Z</time>
      </trkpt>
      <trkpt lat="46.534907100722194" lon="7.015141071751714">
        <ele>1357.52</ele>
        <time>2012-05-27T12:04:29Z</time>
      </trkpt>
      <trkpt lat="46.534917159006" lon="7.015197649598122">
        <ele>1357.52</ele>
        <time>2012-05-27T12:04:30Z</time>
      </trkpt>
      <trkpt lat="46.534930486232042" lon="7.015263866633177">
        <ele>1357.04</ele>
        <time>2012-05-27T12:04:31Z</time>
      </trkpt>
      <trkpt lat="46.534948339685798" lon="7.015331760048866">
        <ele>1356.5599999999999</ele>
        <time>2012-05-27T12:04:32Z</time>
      </trkpt>
      <trkpt lat="46.534968623891473" lon="7.01540476642549">
        <ele>1356.0799999999999</ele>
        <time>2012-05-27T12:04:33Z</time>
      </trkpt>
      <trkpt lat="46.53499242849648" lon="7.015481377020478">
        <ele>1355.5999999999999</ele>
        <time>2012-05-27T12:04:34Z</time>
      </trkpt>
      <trkpt lat="46.53502319008112" lon="7.015557149425149">
        <ele>1355.1199999999999</ele>
        <time>2012-05-27T12:04:35Z</time>
      </trkpt>
      <trkpt lat="46.535061076283455" lon="7.015624959021807">
        <ele>1354.6300000000001</ele>
        <time>2012-05-27T12:04:36Z</time>
      </trkpt>
      <trkpt lat="46.535191666334867" lon="7.015795698389411">
        <ele>1353.6700000000001</ele>
        <time>2012-05-27T12:04:39Z</time>
      </trkpt>
      <trkpt lat="46.53544882312417" lon="7.016208255663514">
        <ele>1351.75</ele>
        <time>2012-05-27T12:04:45Z</time>
      </trkpt>
      <trkpt lat="46.535486793145537" lon="7.01629257760942">
        <ele>1351.75</ele>
        <time>2012-05-27T12:04:46Z</time>
      </trkpt>
      <trkpt lat="46.535518560558558" lon="7.016387125477195">
        <ele>1351.27</ele>
        <time>2012-05-27T12:04:47Z</time>
      </trkpt>
      <trkpt lat="46.535606905817986" lon="7.016657944768667">
        <ele>1350.3099999999999</ele>
        <time>2012-05-27T12:04:50Z</time>
      </trkpt>
      <trkpt lat="46.535653257742524" lon="7.016718462109566">
        <ele>1350.3099999999999</ele>
        <time>2012-05-27T12:04:51Z</time>
      </trkpt>
      <trkpt lat="46.535711176693439" lon="7.016761964187026">
        <ele>1349.8299999999999</ele>
        <time>2012-05-27T12:04:52Z</time>
      </trkpt>
      <trkpt lat="46.535991299897432" lon="7.016926584765315">
        <ele>1347.9100000000001</ele>
        <time>2012-05-27T12:04:56Z</time>
      </trkpt>
      <trkpt lat="46.536069000139832" lon="7.016941336914897">
        <ele>1347.4300000000001</ele>
        <time>2012-05-27T12:04:57Z</time>
      </trkpt>
      <trkpt lat="46.536146868020296" lon="7.016935972496867">
        <ele>1347.4300000000001</ele>
        <time>2012-05-27T12:04:58Z</time>
      </trkpt>
      <trkpt lat="46.536216689273715" lon="7.016926668584347">
        <ele>1346.9400000000001</ele>
        <time>2012-05-27T12:04:59Z</time>
      </trkpt>
      <trkpt lat="46.536271590739489" lon="7.016934882849455">
        <ele>1346.9400000000001</ele>
        <time>2012-05-27T12:05:00Z</time>
      </trkpt>
      <trkpt lat="46.53631710447371" lon="7.016961453482509">
        <ele>1347.4300000000001</ele>
        <time>2012-05-27T12:05:01Z</time>
      </trkpt>
      <trkpt lat="46.53635473921895" lon="7.016999758780003">
        <ele>1347.4300000000001</ele>
        <time>2012-05-27T12:05:02Z</time>
      </trkpt>
      <trkpt lat="46.536390194669366" lon="7.017040746286511">
        <ele>1346.9400000000001</ele>
        <time>2012-05-27T12:05:03Z</time>
      </trkpt>
      <trkpt lat="46.536427494138479" lon="7.017078967764974">
        <ele>1346.9400000000001</ele>
        <time>2012-05-27T12:05:04Z</time>
      </trkpt>
      <trkpt lat="46.536499662324786" lon="7.017146358266473">
        <ele>1346.9400000000001</ele>
        <time>2012-05-27T12:05:06Z</time>
      </trkpt>
      <trkpt lat="46.536531513556838" lon="7.01718483120203">
        <ele>1347.4300000000001</ele>
        <time>2012-05-27T12:05:07Z</time>
      </trkpt>
      <trkpt lat="46.536555318161845" lon="7.017228836193681">
        <ele>1347.4300000000001</ele>
        <time>2012-05-27T12:05:08Z</time>
      </trkpt>
      <trkpt lat="46.536568896844983" lon="7.017275523394346">
        <ele>1347.4300000000001</ele>
        <time>2012-05-27T12:05:09Z</time>
      </trkpt>
      <trkpt lat="46.536578955128789" lon="7.017320450395346">
        <ele>1347.4300000000001</ele>
        <time>2012-05-27T12:05:10Z</time>
      </trkpt>
      <trkpt lat="46.536588678136468" lon="7.017365964129567">
        <ele>1347.9100000000001</ele>
        <time>2012-05-27T12:05:11Z</time>
      </trkpt>
      <trkpt lat="46.536600328981876" lon="7.017411896958947">
        <ele>1347.9100000000001</ele>
        <time>2012-05-27T12:05:12Z</time>
      </trkpt>
      <trkpt lat="46.536656655371189" lon="7.017509629949927">
        <ele>1348.3900000000001</ele>
        <time>2012-05-27T12:05:15Z</time>
      </trkpt>
      <trkpt lat="46.536683980375528" lon="7.017523543909192">
        <ele>1348.8699999999999</ele>
        <time>2012-05-27T12:05:16Z</time>
      </trkpt>
      <trkpt lat="46.536885146051645" lon="7.017582049593329">
        <ele>1348.8699999999999</ele>
        <time>2012-05-27T12:05:21Z</time>
      </trkpt>
      <trkpt lat="46.536933844909072" lon="7.017604513093829">
        <ele>1348.8699999999999</ele>
        <time>2012-05-27T12:05:22Z</time>
      </trkpt>
      <trkpt lat="46.536978352814913" lon="7.017635609954596">
        <ele>1348.8699999999999</ele>
        <time>2012-05-27T12:05:23Z</time>
      </trkpt>
      <trkpt lat="46.537010790780187" lon="7.017675004899502">
        <ele>1348.8699999999999</ele>
        <time>2012-05-27T12:05:24Z</time>
      </trkpt>
      <trkpt lat="46.537028811872005" lon="7.017722446471453">
        <ele>1348.3900000000001</ele>
        <time>2012-05-27T12:05:25Z</time>
      </trkpt>
      <trkpt lat="46.537036020308733" lon="7.017772402614355">
        <ele>1348.3900000000001</ele>
        <time>2012-05-27T12:05:26Z</time>
      </trkpt>
      <trkpt lat="46.537036187946796" lon="7.017818754538894">
        <ele>1348.3900000000001</ele>
        <time>2012-05-27T12:05:27Z</time>
      </trkpt>
      <trkpt lat="46.537034595385194" lon="7.017864687368274">
        <ele>1348.8699999999999</ele>
        <time>2012-05-27T12:05:28Z</time>
      </trkpt>
      <trkpt lat="46.537035265937448" lon="7.01790894381702">
        <ele>1348.8699999999999</ele>
        <time>2012-05-27T12:05:29Z</time>
      </trkpt>
      <trkpt lat="46.537053789943457" lon="7.01850263401866">
        <ele>1348.8699999999999</ele>
        <time>2012-05-27T12:05:44Z</time>
      </trkpt>
      <trkpt lat="46.537045324221253" lon="7.018703548237681">
        <ele>1345.02</ele>
        <time>2012-05-27T12:05:53Z</time>
      </trkpt>
      <trkpt lat="46.537040630355477" lon="7.018710756674409">
        <ele>1345.02</ele>
        <time>2012-05-27T12:05:55Z</time>
      </trkpt>
      <trkpt lat="46.537039205431938" lon="7.018731879070401">
        <ele>1343.0999999999999</ele>
        <time>2012-05-27T12:06:07Z</time>
      </trkpt>
      <trkpt lat="46.537043396383524" lon="7.018761299550533">
        <ele>1342.1400000000001</ele>
        <time>2012-05-27T12:06:19Z</time>
      </trkpt>
      <trkpt lat="46.537297116592526" lon="7.019185423851013">
        <ele>1334.45</ele>
        <time>2012-05-27T12:06:32Z</time>
      </trkpt>
      <trkpt lat="46.537557793781161" lon="7.019691942259669">
        <ele>1322.9100000000001</ele>
        <time>2012-05-27T12:06:44Z</time>
      </trkpt>
      <trkpt lat="46.537426030263305" lon="7.019771821796894">
        <ele>1317.1400000000001</ele>
        <time>2012-05-27T12:06:51Z</time>
      </trkpt>
      <trkpt lat="46.537368446588516" lon="7.019845331087709">
        <ele>1312.8199999999999</ele>
        <time>2012-05-27T12:06:57Z</time>
      </trkpt>
      <trkpt lat="46.537636332213879" lon="7.019945830106735">
        <ele>1311.3800000000001</ele>
        <time>2012-05-27T12:07:07Z</time>
      </trkpt>
      <trkpt lat="46.537866666913033" lon="7.019855054095388">
        <ele>1309.9300000000001</ele>
        <time>2012-05-27T12:07:17Z</time>
      </trkpt>
      <trkpt lat="46.537882927805185" lon="7.019847929477692">
        <ele>1309.45</ele>
        <time>2012-05-27T12:07:27Z</time>
      </trkpt>
      <trkpt lat="46.537894997745752" lon="7.019848180934787">
        <ele>1309.9300000000001</ele>
        <time>2012-05-27T12:07:39Z</time>
      </trkpt>
      <trkpt lat="46.537907905876637" lon="7.019849773496389">
        <ele>1309.9300000000001</ele>
        <time>2012-05-27T12:07:50Z</time>
      </trkpt>
      <trkpt lat="46.537921316921711" lon="7.01983954757452">
        <ele>1309.9300000000001</ele>
        <time>2012-05-27T12:08:04Z</time>
      </trkpt>
      <trkpt lat="46.537942858412862" lon="7.019847426563501">
        <ele>1310.9000000000001</ele>
        <time>2012-05-27T12:08:17Z</time>
      </trkpt>
      <trkpt lat="46.53800530359149" lon="7.01985371299088">
        <ele>1312.3399999999999</ele>
        <time>2012-05-27T12:08:45Z</time>
      </trkpt>
      <trkpt lat="46.538004213944077" lon="7.019866956397891">
        <ele>1312.3399999999999</ele>
        <time>2012-05-27T12:08:58Z</time>
      </trkpt>
      <trkpt lat="46.538003208115697" lon="7.019868548959494">
        <ele>1312.3399999999999</ele>
        <time>2012-05-27T12:09:00Z</time>
      </trkpt>
      <trkpt lat="46.538016870617867" lon="7.019913643598557">
        <ele>1312.3399999999999</ele>
        <time>2012-05-27T12:09:14Z</time>
      </trkpt>
      <trkpt lat="46.538021480664611" lon="7.019926970824599">
        <ele>1311.8599999999999</ele>
        <time>2012-05-27T12:09:15Z</time>
      </trkpt>
      <trkpt lat="46.538041345775127" lon="7.019999558106065">
        <ele>1310.9000000000001</ele>
        <time>2012-05-27T12:09:20Z</time>
      </trkpt>
      <trkpt lat="46.538027096539736" lon="7.02010533772409">
        <ele>1311.3800000000001</ele>
        <time>2012-05-27T12:09:25Z</time>
      </trkpt>
      <trkpt lat="46.538129607215524" lon="7.020445559173822">
        <ele>1308.49</ele>
        <time>2012-05-27T12:09:37Z</time>
      </trkpt>
      <trkpt lat="46.538257682695985" lon="7.020561983808875">
        <ele>1307.53</ele>
        <time>2012-05-27T12:09:41Z</time>
      </trkpt>
      <trkpt lat="46.5383933018893" lon="7.020849315449596">
        <ele>1307.05</ele>
        <time>2012-05-27T12:09:52Z</time>
      </trkpt>
      <trkpt lat="46.538408640772104" lon="7.020878400653601">
        <ele>1307.05</ele>
        <time>2012-05-27T12:09:53Z</time>
      </trkpt>
      <trkpt lat="46.538587342947721" lon="7.021233374252915">
        <ele>1301.76</ele>
        <time>2012-05-27T12:10:05Z</time>
      </trkpt>
      <trkpt lat="46.538540320470929" lon="7.021335465833545">
        <ele>1300.8</ele>
        <time>2012-05-27T12:10:10Z</time>
      </trkpt>
      <trkpt lat="46.538230692967772" lon="7.021273775026202">
        <ele>1299.8399999999999</ele>
        <time>2012-05-27T12:10:21Z</time>
      </trkpt>
      <trkpt lat="46.537920478731394" lon="7.021134467795491">
        <ele>1299.3599999999999</ele>
        <time>2012-05-27T12:10:32Z</time>
      </trkpt>
      <trkpt lat="46.537631973624229" lon="7.021091133356094">
        <ele>1298.8800000000001</ele>
        <time>2012-05-27T12:10:43Z</time>
      </trkpt>
      <trkpt lat="46.537375319749117" lon="7.021209988743067">
        <ele>1298.4000000000001</ele>
        <time>2012-05-27T12:10:53Z</time>
      </trkpt>
      <trkpt lat="46.537170382216573" lon="7.021605614572763">
        <ele>1280.1300000000001</ele>
        <time>2012-05-27T12:11:06Z</time>
      </trkpt>
      <trkpt lat="46.5369738265872" lon="7.021776353940368">
        <ele>1270.04</ele>
        <time>2012-05-27T12:11:17Z</time>
      </trkpt>
      <trkpt lat="46.536726392805576" lon="7.02179454267025">
        <ele>1260.9100000000001</ele>
        <time>2012-05-27T12:11:28Z</time>
      </trkpt>
      <trkpt lat="46.536690685898066" lon="7.021745257079601">
        <ele>1259.46</ele>
        <time>2012-05-27T12:11:32Z</time>
      </trkpt>
      <trkpt lat="46.536662187427282" lon="7.021728493273258">
        <ele>1258.98</ele>
        <time>2012-05-27T12:11:43Z</time>
      </trkpt>
      <trkpt lat="46.536661265417933" lon="7.021730504930019">
        <ele>1258.98</ele>
        <time>2012-05-27T12:11:47Z</time>
      </trkpt>
      <trkpt lat="46.536582307890058" lon="7.021708963438869">
        <ele>1254.1800000000001</ele>
        <time>2012-05-27T12:11:57Z</time>
      </trkpt>
      <trkpt lat="46.536584906280041" lon="7.02169731259346">
        <ele>1253.7</ele>
        <time>2012-05-27T12:12:01Z</time>
      </trkpt>
      <trkpt lat="46.536596724763513" lon="7.021695384755731">
        <ele>1253.7</ele>
        <time>2012-05-27T12:12:14Z</time>
      </trkpt>
      <trkpt lat="46.536604017019272" lon="7.021706784144044">
        <ele>1256.0999999999999</ele>
        <time>2012-05-27T12:12:34Z</time>
      </trkpt>
      <trkpt lat="46.536592449992895" lon="7.021706197410822">
        <ele>1251.77</ele>
        <time>2012-05-27T12:13:00Z</time>
      </trkpt>
      <trkpt lat="46.536584990099072" lon="7.021683985367417">
        <ele>1250.8099999999999</ele>
        <time>2012-05-27T12:13:17Z</time>
      </trkpt>
      <trkpt lat="46.536583648994565" lon="7.02168214134872">
        <ele>1250.8099999999999</ele>
        <time>2012-05-27T12:13:20Z</time>
      </trkpt>
      <trkpt lat="46.536350296810269" lon="7.021359689533711">
        <ele>1239.76</ele>
        <time>2012-05-27T12:13:33Z</time>
      </trkpt>
      <trkpt lat="46.536104455590248" lon="7.021147208288312">
        <ele>1232.55</ele>
        <time>2012-05-27T12:13:42Z</time>
      </trkpt>
      <trkpt lat="46.535915024578571" lon="7.020898684859276">
        <ele>1232.55</ele>
        <time>2012-05-27T12:13:51Z</time>
      </trkpt>
      <trkpt lat="46.535883843898773" lon="7.020930452272296">
        <ele>1232.0699999999999</ele>
        <time>2012-05-27T12:14:05Z</time>
      </trkpt>
      <trkpt lat="46.53587244451046" lon="7.020958531647921">
        <ele>1232.0699999999999</ele>
        <time>2012-05-27T12:14:16Z</time>
      </trkpt>
      <trkpt lat="46.535858614370227" lon="7.020984599366784">
        <ele>1231.5899999999999</ele>
        <time>2012-05-27T12:14:29Z</time>
      </trkpt>
      <trkpt lat="46.535816034302115" lon="7.020971355959773">
        <ele>1232.55</ele>
        <time>2012-05-27T12:14:48Z</time>
      </trkpt>
      <trkpt lat="46.535679828375578" lon="7.020839424803853">
        <ele>1237.3499999999999</ele>
        <time>2012-05-27T12:14:57Z</time>
      </trkpt>
      <trkpt lat="46.53559098020196" lon="7.020771699026227">
        <ele>1238.8</ele>
        <time>2012-05-27T12:15:01Z</time>
      </trkpt>
      <trkpt lat="46.535377996042371" lon="7.020669858902693">
        <ele>1238.8</ele>
        <time>2012-05-27T12:15:09Z</time>
      </trkpt>
      <trkpt lat="46.535365674644709" lon="7.020667176693678">
        <ele>1238.8</ele>
        <time>2012-05-27T12:15:10Z</time>
      </trkpt>
      <trkpt lat="46.535279676318169" lon="7.020613448694348">
        <ele>1237.8299999999999</ele>
        <time>2012-05-27T12:15:15Z</time>
      </trkpt>
      <trkpt lat="46.535072224214673" lon="7.020666170865297">
        <ele>1231.5899999999999</ele>
        <time>2012-05-27T12:15:23Z</time>
      </trkpt>
      <trkpt lat="46.535007515922189" lon="7.021082667633891">
        <ele>1224.8599999999999</ele>
        <time>2012-05-27T12:15:33Z</time>
      </trkpt>
      <trkpt lat="46.534890336915851" lon="7.021506791934371">
        <ele>1222.45</ele>
        <time>2012-05-27T12:15:44Z</time>
      </trkpt>
      <trkpt lat="46.534807356074452" lon="7.021682308986783">
        <ele>1221.01</ele>
        <time>2012-05-27T12:15:48Z</time>
      </trkpt>
      <trkpt lat="46.534506026655436" lon="7.022048262879252">
        <ele>1216.21</ele>
        <time>2012-05-27T12:16:00Z</time>
      </trkpt>
      <trkpt lat="46.534387171268463" lon="7.022210201248527">
        <ele>1202.75</ele>
        <time>2012-05-27T12:16:09Z</time>
      </trkpt>
      <trkpt lat="46.534368060529232" lon="7.022202908992767">
        <ele>1194.0899999999999</ele>
        <time>2012-05-27T12:16:22Z</time>
      </trkpt>
      <trkpt lat="46.534379040822387" lon="7.022206513211131">
        <ele>1190.25</ele>
        <time>2012-05-27T12:16:39Z</time>
      </trkpt>
      <trkpt lat="46.534265801310539" lon="7.02241170220077">
        <ele>1187.3699999999999</ele>
        <time>2012-05-27T12:16:49Z</time>
      </trkpt>
      <trkpt lat="46.534077124670148" lon="7.02276298776269">
        <ele>1182.5599999999999</ele>
        <time>2012-05-27T12:16:54Z</time>
      </trkpt>
      <trkpt lat="46.533959107473493" lon="7.023135060444474">
        <ele>1176.79</ele>
        <time>2012-05-27T12:17:00Z</time>
      </trkpt>
      <trkpt lat="46.533591393381357" lon="7.023694971576333">
        <ele>1159.97</ele>
        <time>2012-05-27T12:17:13Z</time>
      </trkpt>
      <trkpt lat="46.533201551064849" lon="7.024147929623723">
        <ele>1146.99</ele>
        <time>2012-05-27T12:17:26Z</time>
      </trkpt>
      <trkpt lat="46.533035673201084" lon="7.024360913783312">
        <ele>1140.26</ele>
        <time>2012-05-27T12:17:37Z</time>
      </trkpt>
      <trkpt lat="46.533025363460183" lon="7.024357477203012">
        <ele>1136.9000000000001</ele>
        <time>2012-05-27T12:17:50Z</time>
      </trkpt>
      <trkpt lat="46.532853869721293" lon="7.02475561760366">
        <ele>1131.1300000000001</ele>
        <time>2012-05-27T12:17:59Z</time>
      </trkpt>
      <trkpt lat="46.532850852236152" lon="7.024789145216346">
        <ele>1130.6500000000001</ele>
        <time>2012-05-27T12:18:00Z</time>
      </trkpt>
      <trkpt lat="46.532835680991411" lon="7.024829294532538">
        <ele>1129.6900000000001</ele>
        <time>2012-05-27T12:18:12Z</time>
      </trkpt>
      <trkpt lat="46.532831322401762" lon="7.024829294532538">
        <ele>1128.73</ele>
        <time>2012-05-27T12:18:16Z</time>
      </trkpt>
      <trkpt lat="46.53267097659409" lon="7.025286611169577">
        <ele>1123.9200000000001</ele>
        <time>2012-05-27T12:18:26Z</time>
      </trkpt>
      <trkpt lat="46.532655553892255" lon="7.025360371917486">
        <ele>1122.96</ele>
        <time>2012-05-27T12:18:27Z</time>
      </trkpt>
      <trkpt lat="46.532553127035499" lon="7.025689110159874">
        <ele>1119.5899999999999</ele>
        <time>2012-05-27T12:18:31Z</time>
      </trkpt>
      <trkpt lat="46.532210223376751" lon="7.026520427316427">
        <ele>1109.98</ele>
        <time>2012-05-27T12:18:42Z</time>
      </trkpt>
      <trkpt lat="46.532162697985768" lon="7.02680834569037">
        <ele>1108.0599999999999</ele>
        <time>2012-05-27T12:18:45Z</time>
      </trkpt>
      <trkpt lat="46.532090697437525" lon="7.027278319001198">
        <ele>1107.0999999999999</ele>
        <time>2012-05-27T12:18:50Z</time>
      </trkpt>
      <trkpt lat="46.53199715539813" lon="7.02761946246028">
        <ele>1106.6099999999999</ele>
        <time>2012-05-27T12:18:54Z</time>
      </trkpt>
      <trkpt lat="46.531626507639885" lon="7.028165627270937">
        <ele>1104.6900000000001</ele>
        <time>2012-05-27T12:19:02Z</time>
      </trkpt>
      <trkpt lat="46.531573450192809" lon="7.028425466269255">
        <ele>1103.73</ele>
        <time>2012-05-27T12:19:05Z</time>
      </trkpt>
      <trkpt lat="46.531410589814186" lon="7.028772225603461">
        <ele>1102.77</ele>
        <time>2012-05-27T12:19:10Z</time>
      </trkpt>
      <trkpt lat="46.531244041398168" lon="7.028945311903954">
        <ele>1102.77</ele>
        <time>2012-05-27T12:19:14Z</time>
      </trkpt>
      <trkpt lat="46.531165670603514" lon="7.029103729873896">
        <ele>1101.8099999999999</ele>
        <time>2012-05-27T12:19:17Z</time>
      </trkpt>
      <trkpt lat="46.530955955386162" lon="7.029537493363023">
        <ele>1096.04</ele>
        <time>2012-05-27T12:19:24Z</time>
      </trkpt>
      <trkpt lat="46.530885379761457" lon="7.029672861099243">
        <ele>1095.0799999999999</ele>
        <time>2012-05-27T12:19:26Z</time>
      </trkpt>
      <trkpt lat="46.530733415856957" lon="7.029842594638467">
        <ele>1092.2</ele>
        <time>2012-05-27T12:19:30Z</time>
      </trkpt>
      <trkpt lat="46.530801393091679" lon="7.030027415603399">
        <ele>1089.79</ele>
        <time>2012-05-27T12:19:35Z</time>
      </trkpt>
      <trkpt lat="46.530907088890672" lon="7.030068822205067">
        <ele>1088.8299999999999</ele>
        <time>2012-05-27T12:19:37Z</time>
      </trkpt>
      <trkpt lat="46.53095587156713" lon="7.030075946822763">
        <ele>1088.8299999999999</ele>
        <time>2012-05-27T12:19:38Z</time>
      </trkpt>
      <trkpt lat="46.5309988707304" lon="7.03006848692894">
        <ele>1088.8299999999999</ele>
        <time>2012-05-27T12:19:39Z</time>
      </trkpt>
      <trkpt lat="46.531036337837577" lon="7.030064044520259">
        <ele>1088.8299999999999</ele>
        <time>2012-05-27T12:19:40Z</time>
      </trkpt>
      <trkpt lat="46.531066428869963" lon="7.030068822205067">
        <ele>1088.8299999999999</ele>
        <time>2012-05-27T12:19:41Z</time>
      </trkpt>
      <trkpt lat="46.531088389456272" lon="7.030090866610408">
        <ele>1088.8299999999999</ele>
        <time>2012-05-27T12:19:42Z</time>
      </trkpt>
      <trkpt lat="46.531083360314369" lon="7.030150042846799">
        <ele>1088.3499999999999</ele>
        <time>2012-05-27T12:19:44Z</time>
      </trkpt>
      <trkpt lat="46.531053939834237" lon="7.030170327052474">
        <ele>1087.8699999999999</ele>
        <time>2012-05-27T12:19:45Z</time>
      </trkpt>
      <trkpt lat="46.531011611223221" lon="7.030182145535946">
        <ele>1087.8699999999999</ele>
        <time>2012-05-27T12:19:46Z</time>
      </trkpt>
      <trkpt lat="46.530958469957113" lon="7.030196059495211">
        <ele>1087.3900000000001</ele>
        <time>2012-05-27T12:19:47Z</time>
      </trkpt>
      <trkpt lat="46.530895102769136" lon="7.030213158577681">
        <ele>1086.9100000000001</ele>
        <time>2012-05-27T12:19:48Z</time>
      </trkpt>
      <trkpt lat="46.530698128044605" lon="7.030248614028096">
        <ele>1084.02</ele>
        <time>2012-05-27T12:19:51Z</time>
      </trkpt>
      <trkpt lat="46.530657140538096" lon="7.030284572392702">
        <ele>1083.0599999999999</ele>
        <time>2012-05-27T12:19:52Z</time>
      </trkpt>
      <trkpt lat="46.530639035627246" lon="7.030339390039444">
        <ele>1082.5799999999999</ele>
        <time>2012-05-27T12:19:53Z</time>
      </trkpt>
      <trkpt lat="46.530651021748781" lon="7.030403511598706">
        <ele>1081.6199999999999</ele>
        <time>2012-05-27T12:19:54Z</time>
      </trkpt>
      <trkpt lat="46.530688991770148" lon="7.030456066131592">
        <ele>1080.6600000000001</ele>
        <time>2012-05-27T12:19:55Z</time>
      </trkpt>
      <trkpt lat="46.530742971226573" lon="7.030485235154629">
        <ele>1080.1800000000001</ele>
        <time>2012-05-27T12:19:56Z</time>
      </trkpt>
      <trkpt lat="46.530803823843598" lon="7.030503004789352">
        <ele>1080.1800000000001</ele>
        <time>2012-05-27T12:19:57Z</time>
      </trkpt>
      <trkpt lat="46.530863167718053" lon="7.030528569594026">
        <ele>1079.7</ele>
        <time>2012-05-27T12:19:58Z</time>
      </trkpt>
      <trkpt lat="46.530910357832909" lon="7.030571736395359">
        <ele>1079.7</ele>
        <time>2012-05-27T12:19:59Z</time>
      </trkpt>
      <trkpt lat="46.530937096104026" lon="7.03063627704978">
        <ele>1079.22</ele>
        <time>2012-05-27T12:20:00Z</time>
      </trkpt>
      <trkpt lat="46.530937179923058" lon="7.030706349760294">
        <ele>1079.22</ele>
        <time>2012-05-27T12:20:01Z</time>
      </trkpt>
      <trkpt lat="46.530912788584828" lon="7.030762173235416">
        <ele>1078.74</ele>
        <time>2012-05-27T12:20:02Z</time>
      </trkpt>
      <trkpt lat="46.530864760279655" lon="7.030789162963629">
        <ele>1078.26</ele>
        <time>2012-05-27T12:20:03Z</time>
      </trkpt>
      <trkpt lat="46.530801728367805" lon="7.030791928991675">
        <ele>1077.78</ele>
        <time>2012-05-27T12:20:04Z</time>
      </trkpt>
      <trkpt lat="46.530728805810213" lon="7.030792683362961">
        <ele>1076.8099999999999</ele>
        <time>2012-05-27T12:20:05Z</time>
      </trkpt>
      <trkpt lat="46.530646914616227" lon="7.03079947270453">
        <ele>1075.8499999999999</ele>
        <time>2012-05-27T12:20:06Z</time>
      </trkpt>
      <trkpt lat="46.530558401718736" lon="7.030803496018052">
        <ele>1074.8900000000001</ele>
        <time>2012-05-27T12:20:07Z</time>
      </trkpt>
      <trkpt lat="46.530472654849291" lon="7.030780697241426">
        <ele>1073.9300000000001</ele>
        <time>2012-05-27T12:20:08Z</time>
      </trkpt>
      <trkpt lat="46.530395373702049" lon="7.030737698078156">
        <ele>1072.49</ele>
        <time>2012-05-27T12:20:09Z</time>
      </trkpt>
      <trkpt lat="46.530329408124089" lon="7.030698973685503">
        <ele>1072.01</ele>
        <time>2012-05-27T12:20:10Z</time>
      </trkpt>
      <trkpt lat="46.530274171382189" lon="7.030699728056788">
        <ele>1071.05</ele>
        <time>2012-05-27T12:20:11Z</time>
      </trkpt>
      <trkpt lat="46.530236368998885" lon="7.03074331395328">
        <ele>1070.5699999999999</ele>
        <time>2012-05-27T12:20:12Z</time>
      </trkpt>
      <trkpt lat="46.53023075312376" lon="7.030816404148936">
        <ele>1069.5999999999999</ele>
        <time>2012-05-27T12:20:13Z</time>
      </trkpt>
      <trkpt lat="46.530257910490036" lon="7.030891673639417">
        <ele>1068.6400000000001</ele>
        <time>2012-05-27T12:20:14Z</time>
      </trkpt>
      <trkpt lat="46.530307698994875" lon="7.030954621732235">
        <ele>1068.1600000000001</ele>
        <time>2012-05-27T12:20:15Z</time>
      </trkpt>
      <trkpt lat="46.530363606289029" lon="7.031026287004352">
        <ele>1067.2</ele>
        <time>2012-05-27T12:20:16Z</time>
      </trkpt>
      <trkpt lat="46.530418004840612" lon="7.031116392463446">
        <ele>1065.76</ele>
        <time>2012-05-27T12:20:17Z</time>
      </trkpt>
      <trkpt lat="46.530469218268991" lon="7.031224016100168">
        <ele>1064.8</ele>
        <time>2012-05-27T12:20:18Z</time>
      </trkpt>
      <trkpt lat="46.530515151098371" lon="7.031341530382633">
        <ele>1063.3599999999999</ele>
        <time>2012-05-27T12:20:19Z</time>
      </trkpt>
      <trkpt lat="46.530549852177501" lon="7.031460637226701">
        <ele>1061.9100000000001</ele>
        <time>2012-05-27T12:20:20Z</time>
      </trkpt>
      <trkpt lat="46.530579943209887" lon="7.031571613624692">
        <ele>1060.47</ele>
        <time>2012-05-27T12:20:21Z</time>
      </trkpt>
      <trkpt lat="46.530621768906713" lon="7.031664401292801">
        <ele>1059.03</ele>
        <time>2012-05-27T12:20:22Z</time>
      </trkpt>
      <trkpt lat="46.530665857717395" lon="7.031746711581945">
        <ele>1057.5899999999999</ele>
        <time>2012-05-27T12:20:23Z</time>
      </trkpt>
      <trkpt lat="46.530685052275658" lon="7.031843522563577">
        <ele>1056.6300000000001</ele>
        <time>2012-05-27T12:20:24Z</time>
      </trkpt>
      <trkpt lat="46.530677257105708" lon="7.031957767903805">
        <ele>1055.1800000000001</ele>
        <time>2012-05-27T12:20:25Z</time>
      </trkpt>
      <trkpt lat="46.530663762241602" lon="7.03207821585238">
        <ele>1053.74</ele>
        <time>2012-05-27T12:20:26Z</time>
      </trkpt>
      <trkpt lat="46.530659822747111" lon="7.032193131744862">
        <ele>1052.3</ele>
        <time>2012-05-27T12:20:27Z</time>
      </trkpt>
      <trkpt lat="46.530656553804874" lon="7.032291954383254">
        <ele>1051.3399999999999</ele>
        <time>2012-05-27T12:20:28Z</time>
      </trkpt>
      <trkpt lat="46.530638197436929" lon="7.032370492815971">
        <ele>1050.8599999999999</ele>
        <time>2012-05-27T12:20:29Z</time>
      </trkpt>
      <trkpt lat="46.530601149424911" lon="7.032418940216303">
        <ele>1049.9000000000001</ele>
        <time>2012-05-27T12:20:30Z</time>
      </trkpt>
      <trkpt lat="46.53055228292942" lon="7.032424388453364">
        <ele>1049.4200000000001</ele>
        <time>2012-05-27T12:20:31Z</time>
      </trkpt>
      <trkpt lat="46.530506266281009" lon="7.032389268279076">
        <ele>1048.9400000000001</ele>
        <time>2012-05-27T12:20:32Z</time>
      </trkpt>
      <trkpt lat="46.530479863286018" lon="7.032318189740181">
        <ele>1048.45</ele>
        <time>2012-05-27T12:20:33Z</time>
      </trkpt>
      <trkpt lat="46.530482545495033" lon="7.032233281061053">
        <ele>1047.97</ele>
        <time>2012-05-27T12:20:34Z</time>
      </trkpt>
      <trkpt lat="46.530497800558805" lon="7.032146863639355">
        <ele>1047.49</ele>
        <time>2012-05-27T12:20:35Z</time>
      </trkpt>
      <trkpt lat="46.530499393120408" lon="7.032057847827673">
        <ele>1046.53</ele>
        <time>2012-05-27T12:20:36Z</time>
      </trkpt>
      <trkpt lat="46.530478438362479" lon="7.031983081251383">
        <ele>1046.05</ele>
        <time>2012-05-27T12:20:37Z</time>
      </trkpt>
      <trkpt lat="46.530438037589192" lon="7.031927760690451">
        <ele>1045.0899999999999</ele>
        <time>2012-05-27T12:20:38Z</time>
      </trkpt>
      <trkpt lat="46.530381962656975" lon="7.031898507848382">
        <ele>1044.1300000000001</ele>
        <time>2012-05-27T12:20:39Z</time>
      </trkpt>
      <trkpt lat="46.53031574562192" lon="7.031893311068416">
        <ele>1043.1700000000001</ele>
        <time>2012-05-27T12:20:40Z</time>
      </trkpt>
      <trkpt lat="46.530241398140788" lon="7.031907392665744">
        <ele>1041.73</ele>
        <time>2012-05-27T12:20:41Z</time>
      </trkpt>
      <trkpt lat="46.530170319601893" lon="7.03193505294621">
        <ele>1040.76</ele>
        <time>2012-05-27T12:20:42Z</time>
      </trkpt>
      <trkpt lat="46.530103432014585" lon="7.031957851722837">
        <ele>1039.8</ele>
        <time>2012-05-27T12:20:43Z</time>
      </trkpt>
      <trkpt lat="46.530027827247977" lon="7.031955672428012">
        <ele>1038.3599999999999</ele>
        <time>2012-05-27T12:20:44Z</time>
      </trkpt>
      <trkpt lat="46.529943253844976" lon="7.031927760690451">
        <ele>1037.4000000000001</ele>
        <time>2012-05-27T12:20:45Z</time>
      </trkpt>
      <trkpt lat="46.529856501147151" lon="7.031897166743875">
        <ele>1036.4400000000001</ele>
        <time>2012-05-27T12:20:46Z</time>
      </trkpt>
      <trkpt lat="46.529772011563182" lon="7.031879564747214">
        <ele>1035</ele>
        <time>2012-05-27T12:20:47Z</time>
      </trkpt>
      <trkpt lat="46.529690539464355" lon="7.031879564747214">
        <ele>1034.04</ele>
        <time>2012-05-27T12:20:48Z</time>
      </trkpt>
      <trkpt lat="46.529618455097079" lon="7.031888030469418">
        <ele>1032.5899999999999</ele>
        <time>2012-05-27T12:20:49Z</time>
      </trkpt>
      <trkpt lat="46.529556345194578" lon="7.031880402937532">
        <ele>1031.6300000000001</ele>
        <time>2012-05-27T12:20:50Z</time>
      </trkpt>
      <trkpt lat="46.52950219810009" lon="7.031851401552558">
        <ele>1030.6700000000001</ele>
        <time>2012-05-27T12:20:51Z</time>
      </trkpt>
      <trkpt lat="46.529453499242663" lon="7.031835727393627">
        <ele>1029.71</ele>
        <time>2012-05-27T12:20:52Z</time>
      </trkpt>
      <trkpt lat="46.529414523392916" lon="7.031861459836364">
        <ele>1028.75</ele>
        <time>2012-05-27T12:20:53Z</time>
      </trkpt>
      <trkpt lat="46.529397675767541" lon="7.031921809539199">
        <ele>1027.3099999999999</ele>
        <time>2012-05-27T12:20:54Z</time>
      </trkpt>
      <trkpt lat="46.529413685202599" lon="7.031998001039028">
        <ele>1026.3399999999999</ele>
        <time>2012-05-27T12:20:55Z</time>
      </trkpt>
      <trkpt lat="46.529447548091412" lon="7.032085675746203">
        <ele>1025.3800000000001</ele>
        <time>2012-05-27T12:20:56Z</time>
      </trkpt>
      <trkpt lat="46.529469257220626" lon="7.032175529748201">
        <ele>1023.9400000000001</ele>
        <time>2012-05-27T12:20:57Z</time>
      </trkpt>
      <trkpt lat="46.529471352696419" lon="7.032264294102788">
        <ele>1022.5</ele>
        <time>2012-05-27T12:20:58Z</time>
      </trkpt>
      <trkpt lat="46.529456852003932" lon="7.032343503087759">
        <ele>1021.54</ele>
        <time>2012-05-27T12:20:59Z</time>
      </trkpt>
      <trkpt lat="46.529450733214617" lon="7.032423801720142">
        <ele>1020.1</ele>
        <time>2012-05-27T12:21:00Z</time>
      </trkpt>
      <trkpt lat="46.529466575011611" lon="7.032512398436666">
        <ele>1019.13</ele>
        <time>2012-05-27T12:21:01Z</time>
      </trkpt>
      <trkpt lat="46.529495492577553" lon="7.032606778666377">
        <ele>1017.6900000000001</ele>
        <time>2012-05-27T12:21:02Z</time>
      </trkpt>
      <trkpt lat="46.529528349637985" lon="7.032702583819628">
        <ele>1016.73</ele>
        <time>2012-05-27T12:21:03Z</time>
      </trkpt>
      <trkpt lat="46.529581407085061" lon="7.032788246870041">
        <ele>1015.77</ele>
        <time>2012-05-27T12:21:04Z</time>
      </trkpt>
      <trkpt lat="46.529649551957846" lon="7.032852452248335">
        <ele>1014.8099999999999</ele>
        <time>2012-05-27T12:21:05Z</time>
      </trkpt>
      <trkpt lat="46.529708476737142" lon="7.032919088378549">
        <ele>1013.37</ele>
        <time>2012-05-27T12:21:06Z</time>
      </trkpt>
      <trkpt lat="46.52974359691143" lon="7.033001482486725">
        <ele>1012.41</ele>
        <time>2012-05-27T12:21:07Z</time>
      </trkpt>
      <trkpt lat="46.529758851975203" lon="7.033091085031629">
        <ele>1010.96</ele>
        <time>2012-05-27T12:21:08Z</time>
      </trkpt>
      <trkpt lat="46.529762959107757" lon="7.033183537423611">
        <ele>1010</ele>
        <time>2012-05-27T12:21:09Z</time>
      </trkpt>
      <trkpt lat="46.52974602766335" lon="7.033263416960836">
        <ele>1008.5599999999999</ele>
        <time>2012-05-27T12:21:10Z</time>
      </trkpt>
      <trkpt lat="46.529701938852668" lon="7.033310187980533">
        <ele>1007.12</ele>
        <time>2012-05-27T12:21:11Z</time>
      </trkpt>
      <trkpt lat="46.52963656000793" lon="7.033337512984872">
        <ele>1005.6799999999999</ele>
        <time>2012-05-27T12:21:12Z</time>
      </trkpt>
      <trkpt lat="46.529555590823293" lon="7.033365340903401">
        <ele>1003.75</ele>
        <time>2012-05-27T12:21:13Z</time>
      </trkpt>
      <trkpt lat="46.529469592496753" lon="7.033393336459994">
        <ele>1002.3099999999999</ele>
        <time>2012-05-27T12:21:14Z</time>
      </trkpt>
      <trkpt lat="46.529370183125138" lon="7.033409178256989">
        <ele>1001.35</ele>
        <time>2012-05-27T12:21:15Z</time>
      </trkpt>
      <trkpt lat="46.529264990240335" lon="7.033418733626604">
        <ele>1001.35</ele>
        <time>2012-05-27T12:21:16Z</time>
      </trkpt>
      <trkpt lat="46.529165497049689" lon="7.033418398350477">
        <ele>1001.35</ele>
        <time>2012-05-27T12:21:17Z</time>
      </trkpt>
      <trkpt lat="46.52907463721931" lon="7.033412950113416">
        <ele>1001.35</ele>
        <time>2012-05-27T12:21:18Z</time>
      </trkpt>
      <trkpt lat="46.528998026624322" lon="7.033422254025936">
        <ele>1001.35</ele>
        <time>2012-05-27T12:21:19Z</time>
      </trkpt>
      <trkpt lat="46.528939940035343" lon="7.03346692956984">
        <ele>1001.35</ele>
        <time>2012-05-27T12:21:20Z</time>
      </trkpt>
      <trkpt lat="46.528897192329168" lon="7.033553849905729">
        <ele>1000.87</ele>
        <time>2012-05-27T12:21:21Z</time>
      </trkpt>
      <trkpt lat="46.528866849839687" lon="7.033672453835607">
        <ele>999.90999999999997</ele>
        <time>2012-05-27T12:21:22Z</time>
      </trkpt>
      <trkpt lat="46.528839273378253" lon="7.03381041996181">
        <ele>998.95000000000005</ele>
        <time>2012-05-27T12:21:23Z</time>
      </trkpt>
      <trkpt lat="46.52860214933753" lon="7.034688843414187">
        <ele>989.33000000000004</ele>
        <time>2012-05-27T12:21:29Z</time>
      </trkpt>
      <trkpt lat="46.528540709987283" lon="7.034813314676285">
        <ele>987.88999999999999</ele>
        <time>2012-05-27T12:21:30Z</time>
      </trkpt>
      <trkpt lat="46.528304759413004" lon="7.035163091495633">
        <ele>980.67999999999995</ele>
        <time>2012-05-27T12:21:34Z</time>
      </trkpt>
      <trkpt lat="46.528232088312507" lon="7.035223692655563">
        <ele>978.75999999999999</ele>
        <time>2012-05-27T12:21:35Z</time>
      </trkpt>
      <trkpt lat="46.528147263452411" lon="7.035274570807815">
        <ele>977.32000000000005</ele>
        <time>2012-05-27T12:21:36Z</time>
      </trkpt>
      <trkpt lat="46.528058499097824" lon="7.035311115905643">
        <ele>975.38999999999999</ele>
        <time>2012-05-27T12:21:37Z</time>
      </trkpt>
      <trkpt lat="46.527975853532553" lon="7.035330226644874">
        <ele>974.90999999999997</ele>
        <time>2012-05-27T12:21:38Z</time>
      </trkpt>
      <trkpt lat="46.527899662032723" lon="7.035327879711986">
        <ele>974.42999999999995</ele>
        <time>2012-05-27T12:21:39Z</time>
      </trkpt>
      <trkpt lat="46.527821207419038" lon="7.035298207774758">
        <ele>974.42999999999995</ele>
        <time>2012-05-27T12:21:40Z</time>
      </trkpt>
      <trkpt lat="46.527737472206354" lon="7.035251688212156">
        <ele>973.95000000000005</ele>
        <time>2012-05-27T12:21:41Z</time>
      </trkpt>
      <trkpt lat="46.527661783620715" lon="7.035219334065914">
        <ele>973.95000000000005</ele>
        <time>2012-05-27T12:21:42Z</time>
      </trkpt>
      <trkpt lat="46.527592465281487" lon="7.035209778696299">
        <ele>973.47000000000003</ele>
        <time>2012-05-27T12:21:43Z</time>
      </trkpt>
      <trkpt lat="46.527531277388334" lon="7.035224111750722">
        <ele>972.99000000000001</ele>
        <time>2012-05-27T12:21:44Z</time>
      </trkpt>
      <trkpt lat="46.527482829988003" lon="7.035279180854559">
        <ele>972.50999999999999</ele>
        <time>2012-05-27T12:21:45Z</time>
      </trkpt>
      <trkpt lat="46.527446452528238" lon="7.03536719083786">
        <ele>972.02999999999997</ele>
        <time>2012-05-27T12:21:46Z</time>
      </trkpt>
      <trkpt lat="46.527411080896854" lon="7.035471377894282">
        <ele>971.07000000000005</ele>
        <time>2012-05-27T12:21:47Z</time>
      </trkpt>
      <trkpt lat="46.527371015399694" lon="7.03558562323451">
        <ele>970.11000000000001</ele>
        <time>2012-05-27T12:21:48Z</time>
      </trkpt>
      <trkpt lat="46.52732684276998" lon="7.035709088668227">
        <ele>969.63</ele>
        <time>2012-05-27T12:21:49Z</time>
      </trkpt>
      <trkpt lat="46.527275545522571" lon="7.035829536616802">
        <ele>968.66999999999996</ele>
        <time>2012-05-27T12:21:50Z</time>
      </trkpt>
      <trkpt lat="46.527219470590353" lon="7.035940010100603">
        <ele>967.70000000000005</ele>
        <time>2012-05-27T12:21:51Z</time>
      </trkpt>
      <trkpt lat="46.527160378172994" lon="7.036049142479897">
        <ele>966.74000000000001</ele>
        <time>2012-05-27T12:21:52Z</time>
      </trkpt>
      <trkpt lat="46.527093825861812" lon="7.036147294566035">
        <ele>965.77999999999997</ele>
        <time>2012-05-27T12:21:53Z</time>
      </trkpt>
      <trkpt lat="46.527021825313568" lon="7.036226922646165">
        <ele>964.34000000000003</ele>
        <time>2012-05-27T12:21:54Z</time>
      </trkpt>
      <trkpt lat="46.526878494769335" lon="7.036330439150333">
        <ele>962.41999999999996</ele>
        <time>2012-05-27T12:21:56Z</time>
      </trkpt>
      <trkpt lat="46.526666181162" lon="7.036419790238142">
        <ele>958.09000000000003</ele>
        <time>2012-05-27T12:21:59Z</time>
      </trkpt>
      <trkpt lat="46.526612620800734" lon="7.03649589791894">
        <ele>956.64999999999998</ele>
        <time>2012-05-27T12:22:00Z</time>
      </trkpt>
      <trkpt lat="46.526564927771688" lon="7.036599833518267">
        <ele>955.21000000000004</ele>
        <time>2012-05-27T12:22:01Z</time>
      </trkpt>
      <trkpt lat="46.526394942775369" lon="7.036965284496546">
        <ele>950.39999999999998</ele>
        <time>2012-05-27T12:22:04Z</time>
      </trkpt>
      <trkpt lat="46.526326211169362" lon="7.037065532058477">
        <ele>949.44000000000005</ele>
        <time>2012-05-27T12:22:05Z</time>
      </trkpt>
      <trkpt lat="46.52621422894299" lon="7.037241216748953">
        <ele>946.55999999999995</ele>
        <time>2012-05-27T12:22:07Z</time>
      </trkpt>
      <trkpt lat="46.526168212294579" lon="7.037331070750952">
        <ele>945.59000000000003</ele>
        <time>2012-05-27T12:22:08Z</time>
      </trkpt>
      <trkpt lat="46.526127308607101" lon="7.037404999136925">
        <ele>944.14999999999998</ele>
        <time>2012-05-27T12:22:09Z</time>
      </trkpt>
      <trkpt lat="46.525993952527642" lon="7.037554951384664">
        <ele>940.30999999999995</ele>
        <time>2012-05-27T12:22:12Z</time>
      </trkpt>
      <trkpt lat="46.525930752977729" lon="7.037583868950605">
        <ele>939.35000000000002</ele>
        <time>2012-05-27T12:22:13Z</time>
      </trkpt>
      <trkpt lat="46.525858920067549" lon="7.037597615271807">
        <ele>938.38</ele>
        <time>2012-05-27T12:22:14Z</time>
      </trkpt>
      <trkpt lat="46.525779459625483" lon="7.037598788738251">
        <ele>937.41999999999996</ele>
        <time>2012-05-27T12:22:15Z</time>
      </trkpt>
      <trkpt lat="46.525693042203784" lon="7.037589233368635">
        <ele>936.46000000000004</ele>
        <time>2012-05-27T12:22:16Z</time>
      </trkpt>
      <trkpt lat="46.525607546791434" lon="7.037572134286165">
        <ele>935.01999999999998</ele>
        <time>2012-05-27T12:22:17Z</time>
      </trkpt>
      <trkpt lat="46.52553110383451" lon="7.037560483440757">
        <ele>934.05999999999995</ele>
        <time>2012-05-27T12:22:18Z</time>
      </trkpt>
      <trkpt lat="46.52546907775104" lon="7.037561992183328">
        <ele>933.58000000000004</ele>
        <time>2012-05-27T12:22:19Z</time>
      </trkpt>
      <trkpt lat="46.525421300902963" lon="7.037575403228402">
        <ele>933.58000000000004</ele>
        <time>2012-05-27T12:22:20Z</time>
      </trkpt>
      <trkpt lat="46.525384923443198" lon="7.037623347714543">
        <ele>933.58000000000004</ele>
        <time>2012-05-27T12:22:21Z</time>
      </trkpt>
      <trkpt lat="46.525366567075253" lon="7.037708340212703">
        <ele>933.10000000000002</ele>
        <time>2012-05-27T12:22:22Z</time>
      </trkpt>
      <trkpt lat="46.525362879037857" lon="7.037814036011696">
        <ele>933.10000000000002</ele>
        <time>2012-05-27T12:22:23Z</time>
      </trkpt>
      <trkpt lat="46.525361035019159" lon="7.037918977439404">
        <ele>933.10000000000002</ele>
        <time>2012-05-27T12:22:24Z</time>
      </trkpt>
      <trkpt lat="46.525356089696288" lon="7.038008915260434">
        <ele>932.62</ele>
        <time>2012-05-27T12:22:25Z</time>
      </trkpt>
      <trkpt lat="46.525349551811814" lon="7.038081670179963">
        <ele>932.62</ele>
        <time>2012-05-27T12:22:26Z</time>
      </trkpt>
      <trkpt lat="46.525329519063234" lon="7.038145205006003">
        <ele>932.62</ele>
        <time>2012-05-27T12:22:27Z</time>
      </trkpt>
      <trkpt lat="46.525283837690949" lon="7.038197675719857">
        <ele>932.62</ele>
        <time>2012-05-27T12:22:28Z</time>
      </trkpt>
      <trkpt lat="46.525221057236195" lon="7.038236651569605">
        <ele>932.62</ele>
        <time>2012-05-27T12:22:29Z</time>
      </trkpt>
      <trkpt lat="46.525151738896966" lon="7.038273196667433">
        <ele>932.62</ele>
        <time>2012-05-27T12:22:30Z</time>
      </trkpt>
      <trkpt lat="46.525078397244215" lon="7.038321141153574">
        <ele>932.62</ele>
        <time>2012-05-27T12:22:31Z</time>
      </trkpt>
      <trkpt lat="46.525001367554069" lon="7.038375791162252">
        <ele>932.62</ele>
        <time>2012-05-27T12:22:32Z</time>
      </trkpt>
      <trkpt lat="46.524836663156748" lon="7.038490204140544">
        <ele>932.13999999999999</ele>
        <time>2012-05-27T12:22:34Z</time>
      </trkpt>
      <trkpt lat="46.524749072268605" lon="7.038535550236702">
        <ele>932.13999999999999</ele>
        <time>2012-05-27T12:22:35Z</time>
      </trkpt>
      <trkpt lat="46.524658212438226" lon="7.038575951009989">
        <ele>932.13999999999999</ele>
        <time>2012-05-27T12:22:36Z</time>
      </trkpt>
      <trkpt lat="46.524374401196837" lon="7.038688017055392">
        <ele>931.64999999999998</ele>
        <time>2012-05-27T12:22:39Z</time>
      </trkpt>
      <trkpt lat="46.524271639063954" lon="7.038750629872084">
        <ele>931.64999999999998</ele>
        <time>2012-05-27T12:22:40Z</time>
      </trkpt>
      <trkpt lat="46.524173654615879" lon="7.038833359256387">
        <ele>931.64999999999998</ele>
        <time>2012-05-27T12:22:41Z</time>
      </trkpt>
      <trkpt lat="46.523766377940774" lon="7.039210461080074">
        <ele>931.16999999999996</ele>
        <time>2012-05-27T12:22:46Z</time>
      </trkpt>
      <trkpt lat="46.52363134548068" lon="7.03930115327239">
        <ele>930.69000000000005</ele>
        <time>2012-05-27T12:22:48Z</time>
      </trkpt>
      <trkpt lat="46.522813942283392" lon="7.03990900889039">
        <ele>930.69000000000005</ele>
        <time>2012-05-27T12:22:59Z</time>
      </trkpt>
      <trkpt lat="46.522323181852698" lon="7.040156442672014">
        <ele>930.69000000000005</ele>
        <time>2012-05-27T12:23:05Z</time>
      </trkpt>
      <trkpt lat="46.5220330003649" lon="7.040202962234616">
        <ele>930.69000000000005</ele>
        <time>2012-05-27T12:23:09Z</time>
      </trkpt>
      <trkpt lat="46.521955216303468" lon="7.040205141529441">
        <ele>930.69000000000005</ele>
        <time>2012-05-27T12:23:10Z</time>
      </trkpt>
      <trkpt lat="46.521805766969919" lon="7.040230622515082">
        <ele>930.21000000000004</ele>
        <time>2012-05-27T12:23:12Z</time>
      </trkpt>
      <trkpt lat="46.521686995401978" lon="7.040229700505734">
        <ele>930.69000000000005</ele>
        <time>2012-05-27T12:23:13Z</time>
      </trkpt>
      <trkpt lat="46.521601499989629" lon="7.040273454040289">
        <ele>930.69000000000005</ele>
        <time>2012-05-27T12:23:14Z</time>
      </trkpt>
      <trkpt lat="46.521518938243389" lon="7.040341347455978">
        <ele>930.69000000000005</ele>
        <time>2012-05-27T12:23:15Z</time>
      </trkpt>
      <trkpt lat="46.521434700116515" lon="7.04042349010706">
        <ele>930.69000000000005</ele>
        <time>2012-05-27T12:23:16Z</time>
      </trkpt>
      <trkpt lat="46.521343924105167" lon="7.040514182299376">
        <ele>930.69000000000005</ele>
        <time>2012-05-27T12:23:17Z</time>
      </trkpt>
      <trkpt lat="46.521254489198327" lon="7.040614681318402">
        <ele>930.69000000000005</ele>
        <time>2012-05-27T12:23:18Z</time>
      </trkpt>
      <trkpt lat="46.520649902522564" lon="7.041423032060266">
        <ele>930.69000000000005</ele>
        <time>2012-05-27T12:23:26Z</time>
      </trkpt>
      <trkpt lat="46.520526017993689" lon="7.041570888832212">
        <ele>929.73000000000002</ele>
        <time>2012-05-27T12:23:28Z</time>
      </trkpt>
      <trkpt lat="46.520531633868814" lon="7.041705083101988">
        <ele>929.25</ele>
        <time>2012-05-27T12:23:29Z</time>
      </trkpt>
      <trkpt lat="46.520591815933585" lon="7.041882863268256">
        <ele>927.80999999999995</ele>
        <time>2012-05-27T12:23:30Z</time>
      </trkpt>
      <trkpt lat="46.520644705742598" lon="7.042056536301971">
        <ele>926.37</ele>
        <time>2012-05-27T12:23:31Z</time>
      </trkpt>
      <trkpt lat="46.520677981898189" lon="7.042214786633849">
        <ele>925.40999999999997</ele>
        <time>2012-05-27T12:23:32Z</time>
      </trkpt>
      <trkpt lat="46.520704887807369" lon="7.042373875156045">
        <ele>924.92999999999995</ele>
        <time>2012-05-27T12:23:33Z</time>
      </trkpt>
      <trkpt lat="46.520723076537251" lon="7.042535059154034">
        <ele>924.45000000000005</ele>
        <time>2012-05-27T12:23:34Z</time>
      </trkpt>
      <trkpt lat="46.520779822021723" lon="7.042740331962705">
        <ele>923.96000000000004</ele>
        <time>2012-05-27T12:23:35Z</time>
      </trkpt>
      <trkpt lat="46.520801112055779" lon="7.043643146753311">
        <ele>920.12</ele>
        <time>2012-05-27T12:23:41Z</time>
      </trkpt>
      <trkpt lat="46.520786695182323" lon="7.043753787875176">
        <ele>919.15999999999997</ele>
        <time>2012-05-27T12:23:42Z</time>
      </trkpt>
      <trkpt lat="46.520649315789342" lon="7.043977249413729">
        <ele>914.35000000000002</ele>
        <time>2012-05-27T12:23:45Z</time>
      </trkpt>
      <trkpt lat="46.520508835092187" lon="7.044075904414058">
        <ele>910.02999999999997</ele>
        <time>2012-05-27T12:23:47Z</time>
      </trkpt>
      <trkpt lat="46.520461393520236" lon="7.044137930497527">
        <ele>907.13999999999999</ele>
        <time>2012-05-27T12:23:48Z</time>
      </trkpt>
      <trkpt lat="46.520091081038117" lon="7.045228416100144">
        <ele>890.79999999999995</ele>
        <time>2012-05-27T12:24:02Z</time>
      </trkpt>
      <trkpt lat="46.520054452121258" lon="7.045296225696802">
        <ele>890.79999999999995</ele>
        <time>2012-05-27T12:24:03Z</time>
      </trkpt>
      <trkpt lat="46.52001447044313" lon="7.045360095798969">
        <ele>890.32000000000005</ele>
        <time>2012-05-27T12:24:04Z</time>
      </trkpt>
      <trkpt lat="46.519943978637457" lon="7.045495714992285">
        <ele>888.88</ele>
        <time>2012-05-27T12:24:06Z</time>
      </trkpt>
      <trkpt lat="46.519861919805408" lon="7.045620605349541">
        <ele>887.42999999999995</ele>
        <time>2012-05-27T12:24:08Z</time>
      </trkpt>
      <trkpt lat="46.519831493496895" lon="7.045698808506131">
        <ele>886.95000000000005</ele>
        <time>2012-05-27T12:24:09Z</time>
      </trkpt>
      <trkpt lat="46.519787488505244" lon="7.045873906463385">
        <ele>883.59000000000003</ele>
        <time>2012-05-27T12:24:11Z</time>
      </trkpt>
      <trkpt lat="46.51977801695466" lon="7.04596359282732">
        <ele>882.63</ele>
        <time>2012-05-27T12:24:12Z</time>
      </trkpt>
      <trkpt lat="46.519766366109252" lon="7.046053195372224">
        <ele>881.66999999999996</ele>
        <time>2012-05-27T12:24:13Z</time>
      </trkpt>
      <trkpt lat="46.519747674465179" lon="7.046138858422637">
        <ele>881.19000000000005</ele>
        <time>2012-05-27T12:24:14Z</time>
      </trkpt>
      <trkpt lat="46.519727641716599" lon="7.046230724081397">
        <ele>880.22000000000003</ele>
        <time>2012-05-27T12:24:15Z</time>
      </trkpt>
      <trkpt lat="46.519709536805749" lon="7.04632711596787">
        <ele>879.25999999999999</ele>
        <time>2012-05-27T12:24:16Z</time>
      </trkpt>
      <trkpt lat="46.519601074978709" lon="7.046869760379195">
        <ele>873.98000000000002</ele>
        <time>2012-05-27T12:24:21Z</time>
      </trkpt>
      <trkpt lat="46.519599230960011" lon="7.047009989619255">
        <ele>873.00999999999999</ele>
        <time>2012-05-27T12:24:22Z</time>
      </trkpt>
      <trkpt lat="46.519600488245487" lon="7.047157511115074">
        <ele>871.57000000000005</ele>
        <time>2012-05-27T12:24:23Z</time>
      </trkpt>
      <trkpt lat="46.519615324214101" lon="7.04731659963727">
        <ele>870.13</ele>
        <time>2012-05-27T12:24:24Z</time>
      </trkpt>
      <trkpt lat="46.519639547914267" lon="7.047480633482337">
        <ele>868.69000000000005</ele>
        <time>2012-05-27T12:24:25Z</time>
      </trkpt>
      <trkpt lat="46.519659161567688" lon="7.047643745318055">
        <ele>867.25</ele>
        <time>2012-05-27T12:24:26Z</time>
      </trkpt>
      <trkpt lat="46.519689420238137" lon="7.047813227400184">
        <ele>865.32000000000005</ele>
        <time>2012-05-27T12:24:27Z</time>
      </trkpt>
      <trkpt lat="46.519724372774363" lon="7.047967705875635">
        <ele>863.88</ele>
        <time>2012-05-27T12:24:28Z</time>
      </trkpt>
      <trkpt lat="46.519760414958" lon="7.048107516020536">
        <ele>862.44000000000005</ele>
        <time>2012-05-27T12:24:29Z</time>
      </trkpt>
      <trkpt lat="46.519788326695561" lon="7.048244643956423">
        <ele>861</ele>
        <time>2012-05-27T12:24:30Z</time>
      </trkpt>
      <trkpt lat="46.519823698326945" lon="7.048542788252235">
        <ele>858.11000000000001</ele>
        <time>2012-05-27T12:24:32Z</time>
      </trkpt>
      <trkpt lat="46.519828392192721" lon="7.048701792955399">
        <ele>856.66999999999996</ele>
        <time>2012-05-27T12:24:33Z</time>
      </trkpt>
      <trkpt lat="46.519833086058497" lon="7.048860881477594">
        <ele>854.75</ele>
        <time>2012-05-27T12:24:34Z</time>
      </trkpt>
      <trkpt lat="46.519861249253154" lon="7.049176041036844">
        <ele>851.38</ele>
        <time>2012-05-27T12:24:36Z</time>
      </trkpt>
      <trkpt lat="46.519893854856491" lon="7.049339069053531">
        <ele>849.46000000000004</ele>
        <time>2012-05-27T12:24:37Z</time>
      </trkpt>
      <trkpt lat="46.519951103255153" lon="7.049510730430484">
        <ele>847.53999999999996</ele>
        <time>2012-05-27T12:24:38Z</time>
      </trkpt>
      <trkpt lat="46.520271124318242" lon="7.050284715369344">
        <ele>836</ele>
        <time>2012-05-27T12:24:44Z</time>
      </trkpt>
      <trkpt lat="46.520352428779006" lon="7.050383957102895">
        <ele>834.08000000000004</ele>
        <time>2012-05-27T12:24:45Z</time>
      </trkpt>
      <trkpt lat="46.520453095436096" lon="7.05047020688653">
        <ele>832.15999999999997</ele>
        <time>2012-05-27T12:24:46Z</time>
      </trkpt>
      <trkpt lat="46.521052904427052" lon="7.050846135243774">
        <ele>820.62</ele>
        <time>2012-05-27T12:24:52Z</time>
      </trkpt>
      <trkpt lat="46.521126748993993" lon="7.050919644534588">
        <ele>819.17999999999995</ele>
        <time>2012-05-27T12:24:53Z</time>
      </trkpt>
      <trkpt lat="46.521194726228714" lon="7.051010085269809">
        <ele>818.22000000000003</ele>
        <time>2012-05-27T12:24:54Z</time>
      </trkpt>
      <trkpt lat="46.521871145814657" lon="7.051957240328193">
        <ele>805.24000000000001</ele>
        <time>2012-05-27T12:25:02Z</time>
      </trkpt>
      <trkpt lat="46.522027719765902" lon="7.052219677716494">
        <ele>801.88</ele>
        <time>2012-05-27T12:25:04Z</time>
      </trkpt>
      <trkpt lat="46.52209117077291" lon="7.052370216697455">
        <ele>800.44000000000005</ele>
        <time>2012-05-27T12:25:05Z</time>
      </trkpt>
      <trkpt lat="46.522134589031339" lon="7.052542800083756">
        <ele>798.99000000000001</ele>
        <time>2012-05-27T12:25:06Z</time>
      </trkpt>
      <trkpt lat="46.522159399464726" lon="7.052723346278071">
        <ele>797.54999999999995</ele>
        <time>2012-05-27T12:25:07Z</time>
      </trkpt>
      <trkpt lat="46.522173816338181" lon="7.052894588559866">
        <ele>796.11000000000001</ele>
        <time>2012-05-27T12:25:08Z</time>
      </trkpt>
      <trkpt lat="46.522193932905793" lon="7.053061304613948">
        <ele>794.66999999999996</ele>
        <time>2012-05-27T12:25:09Z</time>
      </trkpt>
      <trkpt lat="46.522231483832002" lon="7.053219806402922">
        <ele>793.71000000000004</ele>
        <time>2012-05-27T12:25:10Z</time>
      </trkpt>
      <trkpt lat="46.522291246801615" lon="7.053367914631963">
        <ele>792.25999999999999</ele>
        <time>2012-05-27T12:25:11Z</time>
      </trkpt>
      <trkpt lat="46.522369030863047" lon="7.053501438349485">
        <ele>790.82000000000005</ele>
        <time>2012-05-27T12:25:12Z</time>
      </trkpt>
      <trkpt lat="46.522451927885413" lon="7.053622137755156">
        <ele>789.86000000000001</ele>
        <time>2012-05-27T12:25:13Z</time>
      </trkpt>
      <trkpt lat="46.52267069555819" lon="7.054004687815905">
        <ele>786.01999999999998</ele>
        <time>2012-05-27T12:25:16Z</time>
      </trkpt>
      <trkpt lat="46.522724507376552" lon="7.054158663377166">
        <ele>785.04999999999995</ele>
        <time>2012-05-27T12:25:17Z</time>
      </trkpt>
      <trkpt lat="46.522765578702092" lon="7.054324457421899">
        <ele>783.61000000000001</ele>
        <time>2012-05-27T12:25:18Z</time>
      </trkpt>
      <trkpt lat="46.522919051349163" lon="7.054951842874289">
        <ele>781.21000000000004</ele>
        <time>2012-05-27T12:25:22Z</time>
      </trkpt>
      <trkpt lat="46.522968336939812" lon="7.055074973031879">
        <ele>780.73000000000002</ele>
        <time>2012-05-27T12:25:23Z</time>
      </trkpt>
      <trkpt lat="46.523024495691061" lon="7.055187206715345">
        <ele>780.73000000000002</ele>
        <time>2012-05-27T12:25:24Z</time>
      </trkpt>
      <trkpt lat="46.523088701069355" lon="7.055290136486292">
        <ele>780.25</ele>
        <time>2012-05-27T12:25:25Z</time>
      </trkpt>
      <trkpt lat="46.523159109055996" lon="7.055388120934367">
        <ele>779.76999999999998</ele>
        <time>2012-05-27T12:25:26Z</time>
      </trkpt>
      <trkpt lat="46.523794708773494" lon="7.056386070325971">
        <ele>775.91999999999996</ele>
        <time>2012-05-27T12:25:36Z</time>
      </trkpt>
      <trkpt lat="46.523980032652617" lon="7.056589750573039">
        <ele>774.96000000000004</ele>
        <time>2012-05-27T12:25:39Z</time>
      </trkpt>
      <trkpt lat="46.52404423803091" lon="7.056642388924956">
        <ele>774.48000000000002</ele>
        <time>2012-05-27T12:25:40Z</time>
      </trkpt>
      <trkpt lat="46.524627031758428" lon="7.056980598717928">
        <ele>772.55999999999995</ele>
        <time>2012-05-27T12:25:48Z</time>
      </trkpt>
      <trkpt lat="46.524699199944735" lon="7.057035667821765">
        <ele>772.08000000000004</ele>
        <time>2012-05-27T12:25:49Z</time>
      </trkpt>
      <trkpt lat="46.525188200175762" lon="7.057479238137603">
        <ele>768.71000000000004</ele>
        <time>2012-05-27T12:25:56Z</time>
      </trkpt>
      <trkpt lat="46.525250058621168" lon="7.057559452950954">
        <ele>768.23000000000002</ele>
        <time>2012-05-27T12:25:57Z</time>
      </trkpt>
      <trkpt lat="46.525303116068244" lon="7.057645618915558">
        <ele>767.75</ele>
        <time>2012-05-27T12:25:58Z</time>
      </trkpt>
      <trkpt lat="46.525345193222165" lon="7.057733293622732">
        <ele>767.26999999999998</ele>
        <time>2012-05-27T12:25:59Z</time>
      </trkpt>
      <trkpt lat="46.525377379730344" lon="7.057815017178655">
        <ele>766.78999999999996</ele>
        <time>2012-05-27T12:26:00Z</time>
      </trkpt>
      <trkpt lat="46.525409482419491" lon="7.057884754613042">
        <ele>766.30999999999995</ele>
        <time>2012-05-27T12:26:01Z</time>
      </trkpt>
      <trkpt lat="46.525437058880925" lon="7.057955749332905">
        <ele>765.83000000000004</ele>
        <time>2012-05-27T12:26:02Z</time>
      </trkpt>
      <trkpt lat="46.525447620078921" lon="7.058042166754603">
        <ele>765.35000000000002</ele>
        <time>2012-05-27T12:26:03Z</time>
      </trkpt>
      <trkpt lat="46.525438232347369" lon="7.058137133717537">
        <ele>764.87</ele>
        <time>2012-05-27T12:26:04Z</time>
      </trkpt>
      <trkpt lat="46.525423228740692" lon="7.058232519775629">
        <ele>764.38999999999999</ele>
        <time>2012-05-27T12:26:05Z</time>
      </trkpt>
      <trkpt lat="46.525415433570743" lon="7.058326480910182">
        <ele>763.89999999999998</ele>
        <time>2012-05-27T12:26:06Z</time>
      </trkpt>
      <trkpt lat="46.525422725826502" lon="7.058421615511179">
        <ele>763.41999999999996</ele>
        <time>2012-05-27T12:26:07Z</time>
      </trkpt>
      <trkpt lat="46.525447955355048" lon="7.058518007397652">
        <ele>762.94000000000005</ele>
        <time>2012-05-27T12:26:08Z</time>
      </trkpt>
      <trkpt lat="46.52548567391932" lon="7.058612471446395">
        <ele>762.46000000000004</ele>
        <time>2012-05-27T12:26:09Z</time>
      </trkpt>
      <trkpt lat="46.525529092177749" lon="7.058703415095806">
        <ele>761.5</ele>
        <time>2012-05-27T12:26:10Z</time>
      </trkpt>
      <trkpt lat="46.525633195415139" lon="7.058883290737867">
        <ele>760.05999999999995</ele>
        <time>2012-05-27T12:26:13Z</time>
      </trkpt>
      <trkpt lat="46.525667561218143" lon="7.05888194963336">
        <ele>759.58000000000004</ele>
        <time>2012-05-27T12:26:14Z</time>
      </trkpt>
      <trkpt lat="46.525700753554702" lon="7.058838196098805">
        <ele>758.62</ele>
        <time>2012-05-27T12:26:15Z</time>
      </trkpt>
      <trkpt lat="46.525732018053532" lon="7.058770973235369">
        <ele>758.13999999999999</ele>
        <time>2012-05-27T12:26:16Z</time>
      </trkpt>
      <trkpt lat="46.525767389684916" lon="7.058693775907159">
        <ele>757.17999999999995</ele>
        <time>2012-05-27T12:26:17Z</time>
      </trkpt>
      <trkpt lat="46.525812484323978" lon="7.058609956875444">
        <ele>756.69000000000005</ele>
        <time>2012-05-27T12:26:18Z</time>
      </trkpt>
      <trkpt lat="46.526334090158343" lon="7.057904954999685">
        <ele>754.28999999999996</ele>
        <time>2012-05-27T12:26:27Z</time>
      </trkpt>
      <trkpt lat="46.526499968022108" lon="7.057750811800361">
        <ele>758.13999999999999</ele>
        <time>2012-05-27T12:26:36Z</time>
      </trkpt>
      <trkpt lat="46.526702893897891" lon="7.057575713843107">
        <ele>764.38999999999999</ele>
        <time>2012-05-27T12:26:52Z</time>
      </trkpt>
      <trkpt lat="46.526900371536613" lon="7.057506144046783">
        <ele>767.75</ele>
        <time>2012-05-27T12:27:07Z</time>
      </trkpt>
      <trkpt lat="46.527030542492867" lon="7.057426515966654">
        <ele>771.11000000000001</ele>
        <time>2012-05-27T12:27:18Z</time>
      </trkpt>
      <trkpt lat="46.527038589119911" lon="7.057416876778007">
        <ele>771.60000000000002</ele>
        <time>2012-05-27T12:27:19Z</time>
      </trkpt>
      <trkpt lat="46.527052083984017" lon="7.057396592572331">
        <ele>772.08000000000004</ele>
        <time>2012-05-27T12:27:32Z</time>
      </trkpt>
      <trkpt lat="46.527046049013734" lon="7.057396676391363">
        <ele>772.55999999999995</ele>
        <time>2012-05-27T12:28:02Z</time>
      </trkpt>
      <trkpt lat="46.5270512457937" lon="7.057405980303884">
        <ele>773.03999999999996</ele>
        <time>2012-05-27T12:28:45Z</time>
      </trkpt>
      <trkpt lat="46.527095502242446" lon="7.057354683056474">
        <ele>773.51999999999998</ele>
        <time>2012-05-27T12:28:56Z</time>
      </trkpt>
      <trkpt lat="46.527107236906886" lon="7.057329956442118">
        <ele>774.48000000000002</ele>
        <time>2012-05-27T12:28:58Z</time>
      </trkpt>
      <trkpt lat="46.527115032076836" lon="7.057316126301885">
        <ele>774.96000000000004</ele>
        <time>2012-05-27T12:28:59Z</time>
      </trkpt>
      <trkpt lat="46.527162557467818" lon="7.057101046666503">
        <ele>776.88</ele>
        <time>2012-05-27T12:29:11Z</time>
      </trkpt>
      <trkpt lat="46.527171190828085" lon="7.057091575115919">
        <ele>777.36000000000001</ele>
        <time>2012-05-27T12:29:12Z</time>
      </trkpt>
      <trkpt lat="46.527179991826415" lon="7.057083109393716">
        <ele>777.36000000000001</ele>
        <time>2012-05-27T12:29:13Z</time>
      </trkpt>
      <trkpt lat="46.52731410227716" lon="7.056980011984706">
        <ele>784.09000000000003</ele>
        <time>2012-05-27T12:29:28Z</time>
      </trkpt>
      <trkpt lat="46.5273258369416" lon="7.056984705850482">
        <ele>784.09000000000003</ele>
        <time>2012-05-27T12:29:29Z</time>
      </trkpt>
      <trkpt lat="46.527408817782998" lon="7.05701295286417">
        <ele>785.52999999999997</ele>
        <time>2012-05-27T12:29:37Z</time>
      </trkpt>
      <trkpt lat="46.527435388416052" lon="7.057080511003733">
        <ele>786.01999999999998</ele>
        <time>2012-05-27T12:29:43Z</time>
      </trkpt>
      <trkpt lat="46.527587519958615" lon="7.057221075519919">
        <ele>786.5</ele>
        <time>2012-05-27T12:29:57Z</time>
      </trkpt>
      <trkpt lat="46.527731269598007" lon="7.057271953672171">
        <ele>789.38</ele>
        <time>2012-05-27T12:30:10Z</time>
      </trkpt>
      <trkpt lat="46.527823135256767" lon="7.057305397465825">
        <ele>791.77999999999997</ele>
        <time>2012-05-27T12:30:18Z</time>
      </trkpt>
      <trkpt lat="46.527859261259437" lon="7.057303972542286">
        <ele>793.71000000000004</ele>
        <time>2012-05-27T12:30:22Z</time>
      </trkpt>
      <trkpt lat="46.527953306213021" lon="7.057328028604388">
        <ele>796.59000000000003</ele>
        <time>2012-05-27T12:30:33Z</time>
      </trkpt>
      <trkpt lat="46.528099570423365" lon="7.057380499318242">
        <ele>797.54999999999995</ele>
        <time>2012-05-27T12:30:48Z</time>
      </trkpt>
      <trkpt lat="46.528234016150236" lon="7.057412434369326">
        <ele>799.47000000000003</ele>
        <time>2012-05-27T12:31:04Z</time>
      </trkpt>
      <trkpt lat="46.528374329209328" lon="7.057455014437437">
        <ele>800.91999999999996</ele>
        <time>2012-05-27T12:31:20Z</time>
      </trkpt>
      <trkpt lat="46.528480611741543" lon="7.057491559535265">
        <ele>803.79999999999995</ele>
        <time>2012-05-27T12:31:34Z</time>
      </trkpt>
      <trkpt lat="46.528629390522838" lon="7.057578647509217">
        <ele>806.67999999999995</ele>
        <time>2012-05-27T12:31:51Z</time>
      </trkpt>
      <trkpt lat="46.528770877048373" lon="7.057649055495858">
        <ele>807.63999999999999</ele>
        <time>2012-05-27T12:32:08Z</time>
      </trkpt>
      <trkpt lat="46.528936587274075" lon="7.057715859264135">
        <ele>809.57000000000005</ele>
        <time>2012-05-27T12:32:25Z</time>
      </trkpt>
      <trkpt lat="46.528960056602955" lon="7.057724744081497">
        <ele>810.04999999999995</ele>
        <time>2012-05-27T12:32:28Z</time>
      </trkpt>
      <trkpt lat="46.529104895889759" lon="7.057867906987667">
        <ele>811.49000000000001</ele>
        <time>2012-05-27T12:32:42Z</time>
      </trkpt>
      <trkpt lat="46.52931603603065" lon="7.058052392676473">
        <ele>814.85000000000002</ele>
        <time>2012-05-27T12:32:54Z</time>
      </trkpt>
      <trkpt lat="46.529572019353509" lon="7.05817443318665">
        <ele>816.77999999999997</ele>
        <time>2012-05-27T12:33:07Z</time>
      </trkpt>
      <trkpt lat="46.529783327132463" lon="7.058314075693488">
        <ele>815.34000000000003</ele>
        <time>2012-05-27T12:33:14Z</time>
      </trkpt>
      <trkpt lat="46.53024734929204" lon="7.058718921616674">
        <ele>810.52999999999997</ele>
        <time>2012-05-27T12:33:26Z</time>
      </trkpt>
      <trkpt lat="46.530742384493351" lon="7.059145895764232">
        <ele>806.20000000000005</ele>
        <time>2012-05-27T12:33:36Z</time>
      </trkpt>
      <trkpt lat="46.531179836019874" lon="7.059466419741511">
        <ele>801.88</ele>
        <time>2012-05-27T12:33:48Z</time>
      </trkpt>
      <trkpt lat="46.531376140192151" lon="7.059641350060701">
        <ele>800.44000000000005</ele>
        <time>2012-05-27T12:33:54Z</time>
      </trkpt>
      <trkpt lat="46.531812166795135" lon="7.059911666437984">
        <ele>796.59000000000003</ele>
        <time>2012-05-27T12:34:04Z</time>
      </trkpt>
      <trkpt lat="46.531905205920339" lon="7.059951229020953">
        <ele>797.54999999999995</ele>
        <time>2012-05-27T12:34:13Z</time>
      </trkpt>
      <trkpt lat="46.532057002186775" lon="7.060034545138478">
        <ele>800.91999999999996</ele>
        <time>2012-05-27T12:34:26Z</time>
      </trkpt>
      <trkpt lat="46.532194968312979" lon="7.060087267309427">
        <ele>804.75999999999999</ele>
        <time>2012-05-27T12:34:38Z</time>
      </trkpt>
      <trkpt lat="46.532213659957051" lon="7.060100175440311">
        <ele>805.24000000000001</ele>
        <time>2012-05-27T12:34:40Z</time>
      </trkpt>
      <trkpt lat="46.532232100144029" lon="7.060123393312097">
        <ele>805.24000000000001</ele>
        <time>2012-05-27T12:34:42Z</time>
      </trkpt>
      <trkpt lat="46.53233134187758" lon="7.060202015563846">
        <ele>808.13</ele>
        <time>2012-05-27T12:34:53Z</time>
      </trkpt>
      <trkpt lat="46.532474588602781" lon="7.060304023325443">
        <ele>810.52999999999997</ele>
        <time>2012-05-27T12:35:06Z</time>
      </trkpt>
      <trkpt lat="46.532580871134996" lon="7.060419861227274">
        <ele>811.00999999999999</ele>
        <time>2012-05-27T12:35:18Z</time>
      </trkpt>
      <trkpt lat="46.532701067626476" lon="7.060548271983862">
        <ele>815.82000000000005</ele>
        <time>2012-05-27T12:35:34Z</time>
      </trkpt>
      <trkpt lat="46.532793771475554" lon="7.06063418649137">
        <ele>817.25999999999999</ele>
        <time>2012-05-27T12:35:47Z</time>
      </trkpt>
      <trkpt lat="46.532861581072211" lon="7.060757484287024">
        <ele>816.77999999999997</ele>
        <time>2012-05-27T12:35:58Z</time>
      </trkpt>
      <trkpt lat="46.533004743978381" lon="7.061006342992187">
        <ele>816.77999999999997</ele>
        <time>2012-05-27T12:36:13Z</time>
      </trkpt>
      <trkpt lat="46.533120581880212" lon="7.061208346858621">
        <ele>817.25999999999999</ele>
        <time>2012-05-27T12:36:25Z</time>
      </trkpt>
      <trkpt lat="46.533194677904248" lon="7.061356203630567">
        <ele>817.74000000000001</ele>
        <time>2012-05-27T12:36:34Z</time>
      </trkpt>
      <trkpt lat="46.533254776149988" lon="7.061423594132066">
        <ele>817.74000000000001</ele>
        <time>2012-05-27T12:36:39Z</time>
      </trkpt>
      <trkpt lat="46.533449487760663" lon="7.061649989336729">
        <ele>820.13999999999999</ele>
        <time>2012-05-27T12:36:55Z</time>
      </trkpt>
      <trkpt lat="46.533603882417083" lon="7.061825087293983">
        <ele>820.62</ele>
        <time>2012-05-27T12:37:09Z</time>
      </trkpt>
      <trkpt lat="46.53366775251925" lon="7.061874289065599">
        <ele>820.62</ele>
        <time>2012-05-27T12:37:21Z</time>
      </trkpt>
      <trkpt lat="46.533703627064824" lon="7.061898009851575">
        <ele>824.47000000000003</ele>
        <time>2012-05-27T12:37:41Z</time>
      </trkpt>
      <trkpt lat="46.533713266253471" lon="7.06191292963922">
        <ele>823.99000000000001</ele>
        <time>2012-05-27T12:37:57Z</time>
      </trkpt>
      <trkpt lat="46.533715277910233" lon="7.061923826113343">
        <ele>823.99000000000001</ele>
        <time>2012-05-27T12:38:10Z</time>
      </trkpt>
      <trkpt lat="46.53371368534863" lon="7.06192365847528">
        <ele>823.99000000000001</ele>
        <time>2012-05-27T12:38:11Z</time>
      </trkpt>
      <trkpt lat="46.533889872953296" lon="7.062089033424854">
        <ele>824.95000000000005</ele>
        <time>2012-05-27T12:38:27Z</time>
      </trkpt>
      <trkpt lat="46.534118950366974" lon="7.062309896573424">
        <ele>824.47000000000003</ele>
        <time>2012-05-27T12:38:40Z</time>
      </trkpt>
      <trkpt lat="46.534343920648098" lon="7.062581637874246">
        <ele>823.50999999999999</ele>
        <time>2012-05-27T12:38:56Z</time>
      </trkpt>
      <trkpt lat="46.534589845687151" lon="7.06280660815537">
        <ele>823.02999999999997</ele>
        <time>2012-05-27T12:39:08Z</time>
      </trkpt>
      <trkpt lat="46.534825628623366" lon="7.062928145751357">
        <ele>826.87</ele>
        <time>2012-05-27T12:39:21Z</time>
      </trkpt>
      <trkpt lat="46.534915566444397" lon="7.06296251155436">
        <ele>827.83000000000004</ele>
        <time>2012-05-27T12:39:28Z</time>
      </trkpt>
      <trkpt lat="46.535178758203983" lon="7.062928648665547">
        <ele>831.20000000000005</ele>
        <time>2012-05-27T12:39:47Z</time>
      </trkpt>
      <trkpt lat="46.535340612754226" lon="7.063059993088245">
        <ele>831.20000000000005</ele>
        <time>2012-05-27T12:40:00Z</time>
      </trkpt>
      <trkpt lat="46.535469526425004" lon="7.063254285603762">
        <ele>832.63999999999999</ele>
        <time>2012-05-27T12:40:13Z</time>
      </trkpt>
      <trkpt lat="46.535651329904795" lon="7.063417145982385">
        <ele>835.03999999999996</ele>
        <time>2012-05-27T12:40:29Z</time>
      </trkpt>
      <trkpt lat="46.535831708461046" lon="7.063532816246152">
        <ele>837.45000000000005</ele>
        <time>2012-05-27T12:40:46Z</time>
      </trkpt>
      <trkpt lat="46.536024659872055" lon="7.063611019402742">
        <ele>841.76999999999998</ele>
        <time>2012-05-27T12:41:03Z</time>
      </trkpt>
      <trkpt lat="46.536195399239659" lon="7.063553771004081">
        <ele>842.73000000000002</ele>
        <time>2012-05-27T12:41:18Z</time>
      </trkpt>
      <trkpt lat="46.536251222714782" lon="7.063574390485883">
        <ele>842.25</ele>
        <time>2012-05-27T12:41:22Z</time>
      </trkpt>
      <trkpt lat="46.536499913781881" lon="7.063817046582699">
        <ele>838.88999999999999</ele>
        <time>2012-05-27T12:41:33Z</time>
      </trkpt>
      <trkpt lat="46.53674466535449" lon="7.064112760126591">
        <ele>832.63999999999999</ele>
        <time>2012-05-27T12:41:39Z</time>
      </trkpt>
      <trkpt lat="46.536960164085031" lon="7.064645765349269">
        <ele>828.30999999999995</ele>
        <time>2012-05-27T12:41:48Z</time>
      </trkpt>
      <trkpt lat="46.537141632288694" lon="7.064830670133233">
        <ele>821.58000000000004</ele>
        <time>2012-05-27T12:41:57Z</time>
      </trkpt>
      <trkpt lat="46.53740574605763" lon="7.065000152215362">
        <ele>816.77999999999997</ele>
        <time>2012-05-27T12:42:06Z</time>
      </trkpt>
      <trkpt lat="46.537502389401197" lon="7.065122444182634">
        <ele>813.88999999999999</ele>
        <time>2012-05-27T12:42:09Z</time>
      </trkpt>
      <trkpt lat="46.537584951147437" lon="7.065356215462089">
        <ele>811.00999999999999</ele>
        <time>2012-05-27T12:42:13Z</time>
      </trkpt>
      <trkpt lat="46.537738088518381" lon="7.065826272591949">
        <ele>802.84000000000003</ele>
        <time>2012-05-27T12:42:24Z</time>
      </trkpt>
      <trkpt lat="46.537744542583823" lon="7.065884191542864">
        <ele>802.36000000000001</ele>
        <time>2012-05-27T12:42:34Z</time>
      </trkpt>
      <trkpt lat="46.537748146802187" lon="7.065893663093448">
        <ele>802.84000000000003</ele>
        <time>2012-05-27T12:42:38Z</time>
      </trkpt>
      <trkpt lat="46.537743285298347" lon="7.06592408940196">
        <ele>802.84000000000003</ele>
        <time>2012-05-27T12:42:53Z</time>
      </trkpt>
      <trkpt lat="46.53774973936379" lon="7.065929537639022">
        <ele>802.36000000000001</ele>
        <time>2012-05-27T12:42:56Z</time>
      </trkpt>
      <trkpt lat="46.537648569792509" lon="7.065950240939856">
        <ele>800.91999999999996</ele>
        <time>2012-05-27T12:43:04Z</time>
      </trkpt>
      <trkpt lat="46.537111038342118" lon="7.065535336732864">
        <ele>798.50999999999999</ele>
        <time>2012-05-27T12:43:16Z</time>
      </trkpt>
      <trkpt lat="46.536891097202897" lon="7.065598536282778">
        <ele>796.11000000000001</ele>
        <time>2012-05-27T12:43:21Z</time>
      </trkpt>
      <trkpt lat="46.536970054730773" lon="7.06597195006907">
        <ele>791.77999999999997</ele>
        <time>2012-05-27T12:43:27Z</time>
      </trkpt>
      <trkpt lat="46.537425108253956" lon="7.06649380736053">
        <ele>784.09000000000003</ele>
        <time>2012-05-27T12:43:34Z</time>
      </trkpt>
      <trkpt lat="46.537663238123059" lon="7.066651554778218">
        <ele>779.76999999999998</ele>
        <time>2012-05-27T12:43:38Z</time>
      </trkpt>
      <trkpt lat="46.537709925323725" lon="7.06716813147068">
        <ele>773.51999999999998</ele>
        <time>2012-05-27T12:43:44Z</time>
      </trkpt>
      <trkpt lat="46.537989461794496" lon="7.067458983510733">
        <ele>767.75</ele>
        <time>2012-05-27T12:43:49Z</time>
      </trkpt>
      <trkpt lat="46.538080489262938" lon="7.067469209432602">
        <ele>765.83000000000004</ele>
        <time>2012-05-27T12:43:50Z</time>
      </trkpt>
      <trkpt lat="46.538382824510336" lon="7.067629219964147">
        <ele>759.10000000000002</ele>
        <time>2012-05-27T12:43:54Z</time>
      </trkpt>
      <trkpt lat="46.538477707654238" lon="7.067760899662972">
        <ele>757.17999999999995</ele>
        <time>2012-05-27T12:43:56Z</time>
      </trkpt>
      <trkpt lat="46.538514420390129" lon="7.067977488040924">
        <ele>754.76999999999998</ele>
        <time>2012-05-27T12:44:01Z</time>
      </trkpt>
      <trkpt lat="46.538600251078606" lon="7.068058373406529">
        <ele>754.76999999999998</ele>
        <time>2012-05-27T12:44:04Z</time>
      </trkpt>
      <trkpt lat="46.539062596857548" lon="7.068297257646918">
        <ele>754.76999999999998</ele>
        <time>2012-05-27T12:44:14Z</time>
      </trkpt>
      <trkpt lat="46.539107020944357" lon="7.068337574601173">
        <ele>754.76999999999998</ele>
        <time>2012-05-27T12:44:15Z</time>
      </trkpt>
      <trkpt lat="46.53915555216372" lon="7.068375460803509">
        <ele>754.28999999999996</ele>
        <time>2012-05-27T12:44:16Z</time>
      </trkpt>
      <trkpt lat="46.539205424487591" lon="7.068416029214859">
        <ele>753.80999999999995</ele>
        <time>2012-05-27T12:44:17Z</time>
      </trkpt>
      <trkpt lat="46.539258565753698" lon="7.068460956215859">
        <ele>753.33000000000004</ele>
        <time>2012-05-27T12:44:18Z</time>
      </trkpt>
      <trkpt lat="46.539928195998073" lon="7.069152211770415">
        <ele>748.51999999999998</ele>
        <time>2012-05-27T12:44:29Z</time>
      </trkpt>
      <trkpt lat="46.540859844535589" lon="7.070141108706594">
        <ele>743.72000000000003</ele>
        <time>2012-05-27T12:44:43Z</time>
      </trkpt>
      <trkpt lat="46.542081758379936" lon="7.071220614016056">
        <ele>739.38999999999999</ele>
        <time>2012-05-27T12:45:01Z</time>
      </trkpt>
      <trkpt lat="46.54341540299356" lon="7.072417130693793">
        <ele>735.54999999999995</ele>
        <time>2012-05-27T12:45:22Z</time>
      </trkpt>
      <trkpt lat="46.543443482369184" lon="7.072490723803639">
        <ele>735.54999999999995</ele>
        <time>2012-05-27T12:45:23Z</time>
      </trkpt>
      <trkpt lat="46.543440883979201" lon="7.072573620826006">
        <ele>735.54999999999995</ele>
        <time>2012-05-27T12:45:24Z</time>
      </trkpt>
      <trkpt lat="46.543411547318101" lon="7.072647549211979">
        <ele>735.54999999999995</ele>
        <time>2012-05-27T12:45:25Z</time>
      </trkpt>
      <trkpt lat="46.543369218707085" lon="7.072711000218988">
        <ele>735.54999999999995</ele>
        <time>2012-05-27T12:45:26Z</time>
      </trkpt>
      <trkpt lat="46.543326638638973" lon="7.072775457054377">
        <ele>735.54999999999995</ele>
        <time>2012-05-27T12:45:27Z</time>
      </trkpt>
      <trkpt lat="46.543283136561513" lon="7.072845529764891">
        <ele>735.54999999999995</ele>
        <time>2012-05-27T12:45:28Z</time>
      </trkpt>
      <trkpt lat="46.542678130790591" lon="7.073857141658664">
        <ele>733.13999999999999</ele>
        <time>2012-05-27T12:45:40Z</time>
      </trkpt>
      <trkpt lat="46.542641166597605" lon="7.073932830244303">
        <ele>733.13999999999999</ele>
        <time>2012-05-27T12:45:41Z</time>
      </trkpt>
      <trkpt lat="46.542624654248357" lon="7.074007010087371">
        <ele>733.13999999999999</ele>
        <time>2012-05-27T12:45:42Z</time>
      </trkpt>
      <trkpt lat="46.542635634541512" lon="7.07408026792109">
        <ele>733.62</ele>
        <time>2012-05-27T12:45:43Z</time>
      </trkpt>
      <trkpt lat="46.542713167145848" lon="7.074202224612236">
        <ele>732.65999999999997</ele>
        <time>2012-05-27T12:45:45Z</time>
      </trkpt>
      <trkpt lat="46.543437531217933" lon="7.074958859011531">
        <ele>726.88999999999999</ele>
        <time>2012-05-27T12:45:57Z</time>
      </trkpt>
      <trkpt lat="46.544227693229914" lon="7.075831666588783">
        <ele>724.00999999999999</ele>
        <time>2012-05-27T12:46:11Z</time>
      </trkpt>
      <trkpt lat="46.544617787003517" lon="7.076245062053204">
        <ele>723.04999999999995</ele>
        <time>2012-05-27T12:46:18Z</time>
      </trkpt>
      <trkpt lat="46.544947447255254" lon="7.076395265758038">
        <ele>722.57000000000005</ele>
        <time>2012-05-27T12:46:23Z</time>
      </trkpt>
      <trkpt lat="46.545948833227158" lon="7.076611770316958">
        <ele>722.09000000000003</ele>
        <time>2012-05-27T12:46:39Z</time>
      </trkpt>
      <trkpt lat="46.546139186248183" lon="7.076629037037492">
        <ele>722.09000000000003</ele>
        <time>2012-05-27T12:46:42Z</time>
      </trkpt>
      <trkpt lat="46.546380165964365" lon="7.076850654557347">
        <ele>721.13</ele>
        <time>2012-05-27T12:46:47Z</time>
      </trkpt>
      <trkpt lat="46.546684261411428" lon="7.077694712206721">
        <ele>721.13</ele>
        <time>2012-05-27T12:46:58Z</time>
      </trkpt>
      <trkpt lat="46.546843266114593" lon="7.077942481264472">
        <ele>720.64999999999998</ele>
        <time>2012-05-27T12:47:02Z</time>
      </trkpt>
      <trkpt lat="46.547139482572675" lon="7.078285552561283">
        <ele>719.20000000000005</ele>
        <time>2012-05-27T12:47:08Z</time>
      </trkpt>
      <trkpt lat="46.547348191961646" lon="7.078437767922878">
        <ele>718.72000000000003</ele>
        <time>2012-05-27T12:47:12Z</time>
      </trkpt>
      <trkpt lat="46.548242373391986" lon="7.078624684363604">
        <ele>718.72000000000003</ele>
        <time>2012-05-27T12:47:27Z</time>
      </trkpt>
      <trkpt lat="46.548419985920191" lon="7.078667264431715">
        <ele>719.20000000000005</ele>
        <time>2012-05-27T12:47:30Z</time>
      </trkpt>
      <trkpt lat="46.54917779378593" lon="7.079109661281109">
        <ele>718.24000000000001</ele>
        <time>2012-05-27T12:47:44Z</time>
      </trkpt>
      <trkpt lat="46.549618598073721" lon="7.079263050109148">
        <ele>718.72000000000003</ele>
        <time>2012-05-27T12:47:52Z</time>
      </trkpt>
      <trkpt lat="46.550318906083703" lon="7.07954803481698">
        <ele>719.20000000000005</ele>
        <time>2012-05-27T12:48:04Z</time>
      </trkpt>
      <trkpt lat="46.550952913239598" lon="7.079860512167215">
        <ele>717.27999999999997</ele>
        <time>2012-05-27T12:48:15Z</time>
      </trkpt>
      <trkpt lat="46.551283495500684" lon="7.079983139410615">
        <ele>718.24000000000001</ele>
        <time>2012-05-27T12:48:21Z</time>
      </trkpt>
      <trkpt lat="46.551492875441909" lon="7.080049943178892">
        <ele>719.67999999999995</ele>
        <time>2012-05-27T12:48:25Z</time>
      </trkpt>
      <trkpt lat="46.551668811589479" lon="7.080100737512112">
        <ele>720.15999999999997</ele>
        <time>2012-05-27T12:48:28Z</time>
      </trkpt>
      <trkpt lat="46.552501805126667" lon="7.08051647990942">
        <ele>718.72000000000003</ele>
        <time>2012-05-27T12:48:43Z</time>
      </trkpt>
      <trkpt lat="46.553324237465858" lon="7.081102123484016">
        <ele>717.27999999999997</ele>
        <time>2012-05-27T12:48:59Z</time>
      </trkpt>
      <trkpt lat="46.554020438343287" lon="7.081707632169128">
        <ele>715.84000000000003</ele>
        <time>2012-05-27T12:49:15Z</time>
      </trkpt>
      <trkpt lat="46.554482532665133" lon="7.082120357081294">
        <ele>714.88</ele>
        <time>2012-05-27T12:49:26Z</time>
      </trkpt>
      <trkpt lat="46.555139841511846" lon="7.082743300125003">
        <ele>714.88</ele>
        <time>2012-05-27T12:49:41Z</time>
      </trkpt>
      <trkpt lat="46.555560445412993" lon="7.083150157704949">
        <ele>711.99000000000001</ele>
        <time>2012-05-27T12:49:51Z</time>
      </trkpt>
      <trkpt lat="46.555914329364896" lon="7.083537150174379">
        <ele>711.02999999999997</ele>
        <time>2012-05-27T12:49:59Z</time>
      </trkpt>
      <trkpt lat="46.556412968784571" lon="7.084001172333956">
        <ele>711.02999999999997</ele>
        <time>2012-05-27T12:50:10Z</time>
      </trkpt>
      <trkpt lat="46.556582115590572" lon="7.084079459309578">
        <ele>711.02999999999997</ele>
        <time>2012-05-27T12:50:14Z</time>
      </trkpt>
      <trkpt lat="46.556722344830632" lon="7.084092870354652">
        <ele>712.47000000000003</ele>
        <time>2012-05-27T12:50:23Z</time>
      </trkpt>
      <trkpt lat="46.556760231032968" lon="7.084136540070176">
        <ele>711.99000000000001</ele>
        <time>2012-05-27T12:50:32Z</time>
      </trkpt>
      <trkpt lat="46.556818736717105" lon="7.08418071269989">
        <ele>711.50999999999999</ele>
        <time>2012-05-27T12:50:34Z</time>
      </trkpt>
      <trkpt lat="46.557009341195226" lon="7.084631826728582">
        <ele>711.99000000000001</ele>
        <time>2012-05-27T12:50:45Z</time>
      </trkpt>
      <trkpt lat="46.557023506611586" lon="7.084628976881504">
        <ele>711.99000000000001</ele>
        <time>2012-05-27T12:50:50Z</time>
      </trkpt>
      <trkpt lat="46.556911692023277" lon="7.084330916404724">
        <ele>711.50999999999999</ele>
        <time>2012-05-27T12:50:57Z</time>
      </trkpt>
      <trkpt lat="46.556712202727795" lon="7.084044171497226">
        <ele>712.47000000000003</ele>
        <time>2012-05-27T12:51:08Z</time>
      </trkpt>
      <trkpt lat="46.556625030934811" lon="7.083903942257166">
        <ele>712.95000000000005</ele>
        <time>2012-05-27T12:51:11Z</time>
      </trkpt>
      <trkpt lat="46.556467451155186" lon="7.083746865391731">
        <ele>712.95000000000005</ele>
        <time>2012-05-27T12:51:15Z</time>
      </trkpt>
      <trkpt lat="46.556368125602603" lon="7.083700262010098">
        <ele>713.44000000000005</ele>
        <time>2012-05-27T12:51:17Z</time>
      </trkpt>
      <trkpt lat="46.556149274110794" lon="7.083446709439158">
        <ele>715.36000000000001</ele>
        <time>2012-05-27T12:51:25Z</time>
      </trkpt>
      <trkpt lat="46.556142484769225" lon="7.083473782986403">
        <ele>715.84000000000003</ele>
        <time>2012-05-27T12:51:27Z</time>
      </trkpt>
      <trkpt lat="46.556193782016635" lon="7.083526756614447">
        <ele>714.88</ele>
        <time>2012-05-27T12:51:31Z</time>
      </trkpt>
      <trkpt lat="46.556297801434994" lon="7.083634212613106">
        <ele>713.44000000000005</ele>
        <time>2012-05-27T12:51:35Z</time>
      </trkpt>
      <trkpt lat="46.556378016248345" lon="7.083685174584389">
        <ele>711.99000000000001</ele>
        <time>2012-05-27T12:51:37Z</time>
      </trkpt>
      <trkpt lat="46.556565016508102" lon="7.083793049678206">
        <ele>710.54999999999995</ele>
        <time>2012-05-27T12:51:42Z</time>
      </trkpt>
      <trkpt lat="46.556679345667362" lon="7.083987761288881">
        <ele>711.02999999999997</ele>
        <time>2012-05-27T12:51:46Z</time>
      </trkpt>
      <trkpt lat="46.556896017864347" lon="7.0843097101897">
        <ele>712.47000000000003</ele>
        <time>2012-05-27T12:51:53Z</time>
      </trkpt>
      <trkpt lat="46.55699391849339" lon="7.084563095122576">
        <ele>711.99000000000001</ele>
        <time>2012-05-27T12:51:57Z</time>
      </trkpt>
      <trkpt lat="46.557266246527433" lon="7.085240688174963">
        <ele>711.99000000000001</ele>
        <time>2012-05-27T12:52:07Z</time>
      </trkpt>
      <trkpt lat="46.557643096894026" lon="7.085611168295145">
        <ele>712.95000000000005</ele>
        <time>2012-05-27T12:52:17Z</time>
      </trkpt>
      <trkpt lat="46.557980552315712" lon="7.086043171584606">
        <ele>712.95000000000005</ele>
        <time>2012-05-27T12:52:26Z</time>
      </trkpt>
      <trkpt lat="46.558267381042242" lon="7.086062114685774">
        <ele>712.47000000000003</ele>
        <time>2012-05-27T12:52:32Z</time>
      </trkpt>
      <trkpt lat="46.558506013825536" lon="7.085962705314159">
        <ele>712.95000000000005</ele>
        <time>2012-05-27T12:52:36Z</time>
      </trkpt>
      <trkpt lat="46.558682369068265" lon="7.085738237947226">
        <ele>712.95000000000005</ele>
        <time>2012-05-27T12:52:40Z</time>
      </trkpt>
      <trkpt lat="46.558870878070593" lon="7.08495469763875">
        <ele>715.36000000000001</ele>
        <time>2012-05-27T12:52:53Z</time>
      </trkpt>
      <trkpt lat="46.559128370136023" lon="7.084940196946263">
        <ele>719.20000000000005</ele>
        <time>2012-05-27T12:53:03Z</time>
      </trkpt>
      <trkpt lat="46.559187211096287" lon="7.084918320178986">
        <ele>720.64999999999998</ele>
        <time>2012-05-27T12:53:06Z</time>
      </trkpt>
      <trkpt lat="46.559213446453214" lon="7.084807427600026">
        <ele>720.64999999999998</ele>
        <time>2012-05-27T12:53:10Z</time>
      </trkpt>
      <trkpt lat="46.559203388169408" lon="7.084770379588008">
        <ele>720.64999999999998</ele>
        <time>2012-05-27T12:53:11Z</time>
      </trkpt>
      <trkpt lat="46.559182349592447" lon="7.084738612174988">
        <ele>720.64999999999998</ele>
        <time>2012-05-27T12:53:12Z</time>
      </trkpt>
      <trkpt lat="46.559154689311981" lon="7.084714220836759">
        <ele>720.64999999999998</ele>
        <time>2012-05-27T12:53:13Z</time>
      </trkpt>
      <trkpt lat="46.559125436469913" lon="7.08469427190721">
        <ele>720.64999999999998</ele>
        <time>2012-05-27T12:53:14Z</time>
      </trkpt>
      <trkpt lat="46.559095848351717" lon="7.08467423915863">
        <ele>720.64999999999998</ele>
        <time>2012-05-27T12:53:15Z</time>
      </trkpt>
      <trkpt lat="46.559065338224173" lon="7.084651943296194">
        <ele>720.64999999999998</ele>
        <time>2012-05-27T12:53:16Z</time>
      </trkpt>
      <trkpt lat="46.558531494811177" lon="7.084193117916584">
        <ele>722.09000000000003</ele>
        <time>2012-05-27T12:53:35Z</time>
      </trkpt>
      <trkpt lat="46.558285653591156" lon="7.083902936428785">
        <ele>723.04999999999995</ele>
        <time>2012-05-27T12:53:45Z</time>
      </trkpt>
      <trkpt lat="46.558285988867283" lon="7.083864966407418">
        <ele>723.52999999999997</ele>
        <time>2012-05-27T12:53:46Z</time>
      </trkpt>
      <trkpt lat="46.558401994407177" lon="7.083817189559341">
        <ele>725.45000000000005</ele>
        <time>2012-05-27T12:53:52Z</time>
      </trkpt>
      <trkpt lat="46.558660827577114" lon="7.083829008042812">
        <ele>730.25999999999999</ele>
        <time>2012-05-27T12:54:09Z</time>
      </trkpt>
      <trkpt lat="46.558714052662253" lon="7.083754912018776">
        <ele>732.17999999999995</ele>
        <time>2012-05-27T12:54:19Z</time>
      </trkpt>
      <trkpt lat="46.558717740699649" lon="7.083738232031465">
        <ele>732.17999999999995</ele>
        <time>2012-05-27T12:54:48Z</time>
      </trkpt>
      <trkpt lat="46.558717489242554" lon="7.083751810714603">
        <ele>730.74000000000001</ele>
        <time>2012-05-27T12:55:13Z</time>
      </trkpt>
      <trkpt lat="46.5587202552706" lon="7.08375952206552">
        <ele>729.77999999999997</ele>
        <time>2012-05-27T12:55:44Z</time>
      </trkpt>
      <trkpt lat="46.558715645223856" lon="7.083752984181047">
        <ele>730.25999999999999</ele>
        <time>2012-05-27T12:56:05Z</time>
      </trkpt>
      <trkpt lat="46.558741293847561" lon="7.083651227876544">
        <ele>732.17999999999995</ele>
        <time>2012-05-27T12:56:11Z</time>
      </trkpt>
      <trkpt lat="46.558824442327023" lon="7.083295416086912">
        <ele>735.54999999999995</ele>
        <time>2012-05-27T12:56:30Z</time>
      </trkpt>
      <trkpt lat="46.558803487569094" lon="7.082947148010135">
        <ele>740.35000000000002</ele>
        <time>2012-05-27T12:56:47Z</time>
      </trkpt>
      <trkpt lat="46.558770211413503" lon="7.082512965425849">
        <ele>744.20000000000005</ele>
        <time>2012-05-27T12:57:08Z</time>
      </trkpt>
      <trkpt lat="46.558740874752402" lon="7.082149107009172">
        <ele>749.97000000000003</ele>
        <time>2012-05-27T12:57:24Z</time>
      </trkpt>
      <trkpt lat="46.558737270534039" lon="7.08166329190135">
        <ele>755.25</ele>
        <time>2012-05-27T12:57:42Z</time>
      </trkpt>
      <trkpt lat="46.558859897777438" lon="7.081479644402862">
        <ele>756.21000000000004</ele>
        <time>2012-05-27T12:57:56Z</time>
      </trkpt>
      <trkpt lat="46.558849755674601" lon="7.081465311348438">
        <ele>756.21000000000004</ele>
        <time>2012-05-27T12:57:58Z</time>
      </trkpt>
      <trkpt lat="46.55887171626091" lon="7.081686342135072">
        <ele>754.76999999999998</ele>
        <time>2012-05-27T12:58:05Z</time>
      </trkpt>
      <trkpt lat="46.559112193062901" lon="7.08187242038548">
        <ele>754.76999999999998</ele>
        <time>2012-05-27T12:58:18Z</time>
      </trkpt>
      <trkpt lat="46.559193832799792" lon="7.082032598555088">
        <ele>753.80999999999995</ele>
        <time>2012-05-27T12:58:23Z</time>
      </trkpt>
      <trkpt lat="46.559159802272916" lon="7.082135276868939">
        <ele>754.28999999999996</ele>
        <time>2012-05-27T12:58:27Z</time>
      </trkpt>
      <trkpt lat="46.559064416214824" lon="7.082549426704645">
        <ele>755.73000000000002</ele>
        <time>2012-05-27T12:58:40Z</time>
      </trkpt>
      <trkpt lat="46.559076905250549" lon="7.082692673429847">
        <ele>754.28999999999996</ele>
        <time>2012-05-27T12:58:42Z</time>
      </trkpt>
      <trkpt lat="46.55922937206924" lon="7.082987884059548">
        <ele>753.33000000000004</ele>
        <time>2012-05-27T12:58:47Z</time>
      </trkpt>
      <trkpt lat="46.559333810582757" lon="7.083090059459209">
        <ele>752.85000000000002</ele>
        <time>2012-05-27T12:58:50Z</time>
      </trkpt>
      <trkpt lat="46.559440176934004" lon="7.083403123542666">
        <ele>749</ele>
        <time>2012-05-27T12:58:56Z</time>
      </trkpt>
      <trkpt lat="46.559688616544008" lon="7.083793384954333">
        <ele>748.03999999999996</ele>
        <time>2012-05-27T12:59:04Z</time>
      </trkpt>
      <trkpt lat="46.560314241796732" lon="7.084238128736615">
        <ele>744.67999999999995</ele>
        <time>2012-05-27T12:59:16Z</time>
      </trkpt>
      <trkpt lat="46.561003820970654" lon="7.08477876149118">
        <ele>741.78999999999996</ele>
        <time>2012-05-27T12:59:29Z</time>
      </trkpt>
      <trkpt lat="46.561375809833407" lon="7.084903065115213">
        <ele>740.35000000000002</ele>
        <time>2012-05-27T12:59:36Z</time>
      </trkpt>
      <trkpt lat="46.561730448156595" lon="7.084823353216052">
        <ele>739.87</ele>
        <time>2012-05-27T12:59:42Z</time>
      </trkpt>
      <trkpt lat="46.562640555202961" lon="7.084204852581024">
        <ele>736.02999999999997</ele>
        <time>2012-05-27T12:59:57Z</time>
      </trkpt>
      <trkpt lat="46.563475057482719" lon="7.083633290603757">
        <ele>731.70000000000005</ele>
        <time>2012-05-27T13:00:10Z</time>
      </trkpt>
      <trkpt lat="46.563791306689382" lon="7.083317711949348">
        <ele>731.22000000000003</ele>
        <time>2012-05-27T13:00:16Z</time>
      </trkpt>
      <trkpt lat="46.563889542594552" lon="7.083154683932662">
        <ele>731.22000000000003</ele>
        <time>2012-05-27T13:00:19Z</time>
      </trkpt>
      <trkpt lat="46.564127337187529" lon="7.083111014217138">
        <ele>731.22000000000003</ele>
        <time>2012-05-27T13:00:25Z</time>
      </trkpt>
      <trkpt lat="46.564341243356466" lon="7.08314043469727">
        <ele>729.77999999999997</ele>
        <time>2012-05-27T13:00:29Z</time>
      </trkpt>
      <trkpt lat="46.564702168107033" lon="7.083361046388745">
        <ele>726.40999999999997</ele>
        <time>2012-05-27T13:00:35Z</time>
      </trkpt>
      <trkpt lat="46.564784310758114" lon="7.08339205943048">
        <ele>724.97000000000003</ele>
        <time>2012-05-27T13:00:36Z</time>
      </trkpt>
      <trkpt lat="46.565323770046234" lon="7.083597416058183">
        <ele>716.32000000000005</ele>
        <time>2012-05-27T13:00:43Z</time>
      </trkpt>
      <trkpt lat="46.565368864685297" lon="7.083628848195076">
        <ele>715.84000000000003</ele>
        <time>2012-05-27T13:00:44Z</time>
      </trkpt>
      <trkpt lat="46.56540616415441" lon="7.083658017218113">
        <ele>715.84000000000003</ele>
        <time>2012-05-27T13:00:45Z</time>
      </trkpt>
      <trkpt lat="46.565439775586128" lon="7.083677798509598">
        <ele>715.36000000000001</ele>
        <time>2012-05-27T13:00:46Z</time>
      </trkpt>
      <trkpt lat="46.565474141389132" lon="7.083700681105256">
        <ele>715.36000000000001</ele>
        <time>2012-05-27T13:00:47Z</time>
      </trkpt>
      <trkpt lat="46.56551412306726" lon="7.083726581186056">
        <ele>715.36000000000001</ele>
        <time>2012-05-27T13:00:48Z</time>
      </trkpt>
      <trkpt lat="46.565556703135371" lon="7.083748625591397">
        <ele>715.36000000000001</ele>
        <time>2012-05-27T13:00:49Z</time>
      </trkpt>
      <trkpt lat="46.565602971240878" lon="7.083765808492899">
        <ele>715.36000000000001</ele>
        <time>2012-05-27T13:00:50Z</time>
      </trkpt>
      <trkpt lat="46.565649909898639" lon="7.083774358034134">
        <ele>715.36000000000001</ele>
        <time>2012-05-27T13:00:51Z</time>
      </trkpt>
      <trkpt lat="46.565696261823177" lon="7.083774944767356">
        <ele>715.84000000000003</ele>
        <time>2012-05-27T13:00:52Z</time>
      </trkpt>
      <trkpt lat="46.565742110833526" lon="7.083777124062181">
        <ele>715.84000000000003</ele>
        <time>2012-05-27T13:00:53Z</time>
      </trkpt>
      <trkpt lat="46.565997339785099" lon="7.083738399669528">
        <ele>717.75999999999999</ele>
        <time>2012-05-27T13:00:59Z</time>
      </trkpt>
      <trkpt lat="46.56603111885488" lon="7.083706380799413">
        <ele>718.24000000000001</ele>
        <time>2012-05-27T13:01:00Z</time>
      </trkpt>
      <trkpt lat="46.566075040027499" lon="7.083540335297585">
        <ele>719.20000000000005</ele>
        <time>2012-05-27T13:01:03Z</time>
      </trkpt>
      <trkpt lat="46.566104209050536" lon="7.082546828314662">
        <ele>722.57000000000005</ele>
        <time>2012-05-27T13:01:21Z</time>
      </trkpt>
      <trkpt lat="46.566011756658554" lon="7.082225130870938">
        <ele>725.45000000000005</ele>
        <time>2012-05-27T13:01:32Z</time>
      </trkpt>
      <trkpt lat="46.56593388877809" lon="7.081839730963111">
        <ele>729.29999999999995</ele>
        <time>2012-05-27T13:01:50Z</time>
      </trkpt>
      <trkpt lat="46.566040925681591" lon="7.081531276926398">
        <ele>733.62</ele>
        <time>2012-05-27T13:02:06Z</time>
      </trkpt>
      <trkpt lat="46.566050900146365" lon="7.081509316340089">
        <ele>734.10000000000002</ele>
        <time>2012-05-27T13:02:18Z</time>
      </trkpt>
      <trkpt lat="46.566051570698619" lon="7.081509819254279">
        <ele>734.58000000000004</ele>
        <time>2012-05-27T13:02:29Z</time>
      </trkpt>
      <trkpt lat="46.566187860444188" lon="7.081260373815894">
        <ele>738.42999999999995</ele>
        <time>2012-05-27T13:02:44Z</time>
      </trkpt>
      <trkpt lat="46.566369077190757" lon="7.080984022468329">
        <ele>740.35000000000002</ele>
        <time>2012-05-27T13:03:01Z</time>
      </trkpt>
      <trkpt lat="46.566478796303272" lon="7.080818898975849">
        <ele>742.27999999999997</ele>
        <time>2012-05-27T13:03:11Z</time>
      </trkpt>
      <trkpt lat="46.566662946715951" lon="7.08053408190608">
        <ele>743.24000000000001</ele>
        <time>2012-05-27T13:03:27Z</time>
      </trkpt>
      <trkpt lat="46.566914990544319" lon="7.080340376123786">
        <ele>746.12</ele>
        <time>2012-05-27T13:03:44Z</time>
      </trkpt>
      <trkpt lat="46.567168040201068" lon="7.080441629514098">
        <ele>748.51999999999998</ele>
        <time>2012-05-27T13:03:59Z</time>
      </trkpt>
      <trkpt lat="46.567409103736281" lon="7.080417741090059">
        <ele>750.92999999999995</ele>
        <time>2012-05-27T13:04:15Z</time>
      </trkpt>
      <trkpt lat="46.567643294110894" lon="7.080259071663022">
        <ele>753.33000000000004</ele>
        <time>2012-05-27T13:04:32Z</time>
      </trkpt>
      <trkpt lat="46.567879160866141" lon="7.080125715583563">
        <ele>757.17999999999995</ele>
        <time>2012-05-27T13:04:49Z</time>
      </trkpt>
      <trkpt lat="46.567993154749274" lon="7.079859841614962">
        <ele>760.53999999999996</ele>
        <time>2012-05-27T13:05:05Z</time>
      </trkpt>
      <trkpt lat="46.56788201071322" lon="7.079628584906459">
        <ele>761.5</ele>
        <time>2012-05-27T13:05:18Z</time>
      </trkpt>
      <trkpt lat="46.567706326022744" lon="7.07935793325305">
        <ele>764.38999999999999</ele>
        <time>2012-05-27T13:05:35Z</time>
      </trkpt>
      <trkpt lat="46.56751899048686" lon="7.079060291871429">
        <ele>767.26999999999998</ele>
        <time>2012-05-27T13:05:53Z</time>
      </trkpt>
      <trkpt lat="46.567417988553643" lon="7.078670030459762">
        <ele>769.19000000000005</ele>
        <time>2012-05-27T13:06:12Z</time>
      </trkpt>
      <trkpt lat="46.567427543923259" lon="7.078426284715533">
        <ele>769.19000000000005</ele>
        <time>2012-05-27T13:06:22Z</time>
      </trkpt>
      <trkpt lat="46.56749065965414" lon="7.077992185950279">
        <ele>770.14999999999998</ele>
        <time>2012-05-27T13:06:38Z</time>
      </trkpt>
      <trkpt lat="46.567526701837778" lon="7.077450295910239">
        <ele>772.55999999999995</ele>
        <time>2012-05-27T13:06:56Z</time>
      </trkpt>
      <trkpt lat="46.567571880295873" lon="7.076838836073875">
        <ele>773.51999999999998</ele>
        <time>2012-05-27T13:07:15Z</time>
      </trkpt>
      <trkpt lat="46.56761622056365" lon="7.07625612616539">
        <ele>775.44000000000005</ele>
        <time>2012-05-27T13:07:34Z</time>
      </trkpt>
      <trkpt lat="46.567674893885851" lon="7.075762934982777">
        <ele>779.28999999999996</ele>
        <time>2012-05-27T13:07:53Z</time>
      </trkpt>
      <trkpt lat="46.567766424268484" lon="7.075359094887972">
        <ele>783.13</ele>
        <time>2012-05-27T13:08:11Z</time>
      </trkpt>
      <trkpt lat="46.567870108410716" lon="7.074935892596841">
        <ele>787.46000000000004</ele>
        <time>2012-05-27T13:08:31Z</time>
      </trkpt>
      <trkpt lat="46.567964153364301" lon="7.074587624520063">
        <ele>790.82000000000005</ele>
        <time>2012-05-27T13:08:49Z</time>
      </trkpt>
      <trkpt lat="46.568042691797018" lon="7.074279086664319">
        <ele>793.71000000000004</ele>
        <time>2012-05-27T13:09:05Z</time>
      </trkpt>
      <trkpt lat="46.568129109218717" lon="7.073899554088712">
        <ele>796.59000000000003</ele>
        <time>2012-05-27T13:09:24Z</time>
      </trkpt>
      <trkpt lat="46.568248635157943" lon="7.073587412014604">
        <ele>798.50999999999999</ele>
        <time>2012-05-27T13:09:41Z</time>
      </trkpt>
      <trkpt lat="46.568282414227724" lon="7.073551537469029">
        <ele>799.47000000000003</ele>
        <time>2012-05-27T13:09:53Z</time>
      </trkpt>
      <trkpt lat="46.568280067294836" lon="7.073565199971199">
        <ele>799.47000000000003</ele>
        <time>2012-05-27T13:10:17Z</time>
      </trkpt>
      <trkpt lat="46.568272607401013" lon="7.073558075353503">
        <ele>799.47000000000003</ele>
        <time>2012-05-27T13:10:47Z</time>
      </trkpt>
      <trkpt lat="46.56830663792789" lon="7.073495713993907">
        <ele>800.91999999999996</ele>
        <time>2012-05-27T13:11:11Z</time>
      </trkpt>
      <trkpt lat="46.568488776683807" lon="7.073289435356855">
        <ele>802.84000000000003</ele>
        <time>2012-05-27T13:11:26Z</time>
      </trkpt>
      <trkpt lat="46.568773174658418" lon="7.072934377938509">
        <ele>805.24000000000001</ele>
        <time>2012-05-27T13:11:51Z</time>
      </trkpt>
      <trkpt lat="46.568911727517843" lon="7.072631539776921">
        <ele>808.13</ele>
        <time>2012-05-27T13:12:08Z</time>
      </trkpt>
      <trkpt lat="46.568988841027021" lon="7.072301963344216">
        <ele>810.52999999999997</ele>
        <time>2012-05-27T13:12:24Z</time>
      </trkpt>
      <trkpt lat="46.569047262892127" lon="7.071948833763599">
        <ele>813.40999999999997</ele>
        <time>2012-05-27T13:12:41Z</time>
      </trkpt>
      <trkpt lat="46.569122700020671" lon="7.071627555415034">
        <ele>815.82000000000005</ele>
        <time>2012-05-27T13:12:57Z</time>
      </trkpt>
      <trkpt lat="46.569170476868749" lon="7.071286663413048">
        <ele>819.17999999999995</ele>
        <time>2012-05-27T13:13:14Z</time>
      </trkpt>
      <trkpt lat="46.56909772194922" lon="7.07093738950789">
        <ele>822.05999999999995</ele>
        <time>2012-05-27T13:13:31Z</time>
      </trkpt>
      <trkpt lat="46.569077018648386" lon="7.070836387574673">
        <ele>822.54999999999995</ele>
        <time>2012-05-27T13:13:36Z</time>
      </trkpt>
      <trkpt lat="46.569090764969587" lon="7.070756843313575">
        <ele>823.50999999999999</ele>
        <time>2012-05-27T13:13:40Z</time>
      </trkpt>
      <trkpt lat="46.569136949256063" lon="7.070672940462828">
        <ele>823.99000000000001</ele>
        <time>2012-05-27T13:13:45Z</time>
      </trkpt>
      <trkpt lat="46.569191347807646" lon="7.070658691227436">
        <ele>824.47000000000003</ele>
        <time>2012-05-27T13:13:49Z</time>
      </trkpt>
      <trkpt lat="46.569439452141523" lon="7.070879973471165">
        <ele>828.30999999999995</ele>
        <time>2012-05-27T13:14:08Z</time>
      </trkpt>
      <trkpt lat="46.569606671109796" lon="7.071064962074161">
        <ele>830.24000000000001</ele>
        <time>2012-05-27T13:14:22Z</time>
      </trkpt>
      <trkpt lat="46.569818649441004" lon="7.071272078901529">
        <ele>832.15999999999997</ele>
        <time>2012-05-27T13:14:38Z</time>
      </trkpt>
      <trkpt lat="46.570095838978887" lon="7.071515657007694">
        <ele>833.60000000000002</ele>
        <time>2012-05-27T13:14:56Z</time>
      </trkpt>
      <trkpt lat="46.570409070700407" lon="7.071784464642406">
        <ele>834.55999999999995</ele>
        <time>2012-05-27T13:15:12Z</time>
      </trkpt>
      <trkpt lat="46.570773767307401" lon="7.072117142379284">
        <ele>836.96000000000004</ele>
        <time>2012-05-27T13:15:30Z</time>
      </trkpt>
      <trkpt lat="46.571072833612561" lon="7.0723597984761">
        <ele>838.40999999999997</ele>
        <time>2012-05-27T13:15:46Z</time>
      </trkpt>
      <trkpt lat="46.571359075605869" lon="7.07273849286139">
        <ele>840.33000000000004</ele>
        <time>2012-05-27T13:16:00Z</time>
      </trkpt>
      <trkpt lat="46.571727711707354" lon="7.073344755917788">
        <ele>843.69000000000005</ele>
        <time>2012-05-27T13:16:17Z</time>
      </trkpt>
      <trkpt lat="46.572130713611841" lon="7.073990916833282">
        <ele>845.62</ele>
        <time>2012-05-27T13:16:36Z</time>
      </trkpt>
      <trkpt lat="46.572292987257242" lon="7.074285792186856">
        <ele>847.05999999999995</ele>
        <time>2012-05-27T13:16:45Z</time>
      </trkpt>
      <trkpt lat="46.572411339730024" lon="7.074136845767498">
        <ele>848.5</ele>
        <time>2012-05-27T13:16:53Z</time>
      </trkpt>
      <trkpt lat="46.572383176535368" lon="7.074068197980523">
        <ele>848.5</ele>
        <time>2012-05-27T13:16:55Z</time>
      </trkpt>
      <trkpt lat="46.572210174053907" lon="7.073643989861012">
        <ele>851.38</ele>
        <time>2012-05-27T13:17:12Z</time>
      </trkpt>
      <trkpt lat="46.572182597592473" lon="7.07330284640193">
        <ele>854.75</ele>
        <time>2012-05-27T13:17:28Z</time>
      </trkpt>
      <trkpt lat="46.572199277579784" lon="7.072898000478745">
        <ele>859.08000000000004</ele>
        <time>2012-05-27T13:17:47Z</time>
      </trkpt>
      <trkpt lat="46.572174802422523" lon="7.072571190074086">
        <ele>862.44000000000005</ele>
        <time>2012-05-27T13:18:02Z</time>
      </trkpt>
      <trkpt lat="46.572153093293309" lon="7.072159135714173">
        <ele>864.84000000000003</ele>
        <time>2012-05-27T13:18:21Z</time>
      </trkpt>
      <trkpt lat="46.572161978110671" lon="7.071888819336891">
        <ele>867.73000000000002</ele>
        <time>2012-05-27T13:18:34Z</time>
      </trkpt>
      <trkpt lat="46.572181340306997" lon="7.071522446349263">
        <ele>869.64999999999998</ele>
        <time>2012-05-27T13:18:51Z</time>
      </trkpt>
      <trkpt lat="46.572190728038549" lon="7.071170154958963">
        <ele>873.5</ele>
        <time>2012-05-27T13:19:10Z</time>
      </trkpt>
      <trkpt lat="46.572124930098653" lon="7.070876453071833">
        <ele>882.14999999999998</ele>
        <time>2012-05-27T13:19:26Z</time>
      </trkpt>
      <trkpt lat="46.572033483535051" lon="7.070617116987705">
        <ele>891.27999999999997</ele>
        <time>2012-05-27T13:19:40Z</time>
      </trkpt>
      <trkpt lat="46.57196500338614" lon="7.070298939943314">
        <ele>897.52999999999997</ele>
        <time>2012-05-27T13:19:55Z</time>
      </trkpt>
      <trkpt lat="46.571922674775124" lon="7.069974979385734">
        <ele>903.77999999999997</ele>
        <time>2012-05-27T13:20:07Z</time>
      </trkpt>
      <trkpt lat="46.571922590956092" lon="7.06995964050293">
        <ele>904.25999999999999</ele>
        <time>2012-05-27T13:20:08Z</time>
      </trkpt>
      <trkpt lat="46.571894092485309" lon="7.069825362414122">
        <ele>909.05999999999995</ele>
        <time>2012-05-27T13:20:14Z</time>
      </trkpt>
      <trkpt lat="46.571958130225539" lon="7.069437112659216">
        <ele>903.29999999999995</ele>
        <time>2012-05-27T13:20:24Z</time>
      </trkpt>
      <trkpt lat="46.571976989507675" lon="7.069448092952371">
        <ele>903.29999999999995</ele>
        <time>2012-05-27T13:20:25Z</time>
      </trkpt>
      <trkpt lat="46.572247976437211" lon="7.069478435441852">
        <ele>898.49000000000001</ele>
        <time>2012-05-27T13:20:39Z</time>
      </trkpt>
      <trkpt lat="46.572326263412833" lon="7.069430658593774">
        <ele>896.57000000000005</ele>
        <time>2012-05-27T13:20:51Z</time>
      </trkpt>
      <trkpt lat="46.572332214564085" lon="7.069421103224158">
        <ele>896.57000000000005</ele>
        <time>2012-05-27T13:21:10Z</time>
      </trkpt>
      <trkpt lat="46.572355180978775" lon="7.069420600309968">
        <ele>896.09000000000003</ele>
        <time>2012-05-27T13:21:29Z</time>
      </trkpt>
      <trkpt lat="46.572358701378107" lon="7.069412553682923">
        <ele>895.12</ele>
        <time>2012-05-27T13:21:49Z</time>
      </trkpt>
      <trkpt lat="46.572353420779109" lon="7.069414146244526">
        <ele>895.12</ele>
        <time>2012-05-27T13:21:56Z</time>
      </trkpt>
      <trkpt lat="46.572417542338371" lon="7.069716900587082">
        <ele>888.39999999999998</ele>
        <time>2012-05-27T13:22:06Z</time>
      </trkpt>
      <trkpt lat="46.572446543723345" lon="7.069908091798425">
        <ele>881.66999999999996</ele>
        <time>2012-05-27T13:22:13Z</time>
      </trkpt>
      <trkpt lat="46.572454757988453" lon="7.069987216964364">
        <ele>878.29999999999995</ele>
        <time>2012-05-27T13:22:17Z</time>
      </trkpt>
      <trkpt lat="46.572504797950387" lon="7.070270022377372">
        <ele>864.36000000000001</ele>
        <time>2012-05-27T13:22:29Z</time>
      </trkpt>
      <trkpt lat="46.572514940053225" lon="7.070326767861843">
        <ele>861.48000000000002</ele>
        <time>2012-05-27T13:22:31Z</time>
      </trkpt>
      <trkpt lat="46.572543941438198" lon="7.070370353758335">
        <ele>858.11000000000001</ele>
        <time>2012-05-27T13:22:34Z</time>
      </trkpt>
      <trkpt lat="46.572636310011148" lon="7.070461716502905">
        <ele>855.23000000000002</ele>
        <time>2012-05-27T13:22:40Z</time>
      </trkpt>
      <trkpt lat="46.572762625291944" lon="7.070499435067177">
        <ele>856.19000000000005</ele>
        <time>2012-05-27T13:22:51Z</time>
      </trkpt>
      <trkpt lat="46.57293495722115" lon="7.070249067619443">
        <ele>853.30999999999995</ele>
        <time>2012-05-27T13:23:03Z</time>
      </trkpt>
      <trkpt lat="46.572943925857544" lon="7.070229286327958">
        <ele>852.83000000000004</ele>
        <time>2012-05-27T13:23:04Z</time>
      </trkpt>
      <trkpt lat="46.573078371584415" lon="7.07000364549458">
        <ele>849.94000000000005</ele>
        <time>2012-05-27T13:23:13Z</time>
      </trkpt>
      <trkpt lat="46.573324715718627" lon="7.069811532273889">
        <ele>847.53999999999996</ele>
        <time>2012-05-27T13:23:23Z</time>
      </trkpt>
      <trkpt lat="46.573662757873535" lon="7.069608606398106">
        <ele>845.13999999999999</ele>
        <time>2012-05-27T13:23:33Z</time>
      </trkpt>
      <trkpt lat="46.573829893022776" lon="7.06959561444819">
        <ele>842.25</ele>
        <time>2012-05-27T13:23:38Z</time>
      </trkpt>
      <trkpt lat="46.573927793651819" lon="7.069437196478248">
        <ele>840.33000000000004</ele>
        <time>2012-05-27T13:23:43Z</time>
      </trkpt>
      <trkpt lat="46.574307745322585" lon="7.069161767140031">
        <ele>838.88999999999999</ele>
        <time>2012-05-27T13:23:52Z</time>
      </trkpt>
      <trkpt lat="46.574531458318233" lon="7.069260589778423">
        <ele>836.48000000000002</ele>
        <time>2012-05-27T13:23:57Z</time>
      </trkpt>
      <trkpt lat="46.574618881568313" lon="7.069383971393108">
        <ele>834.55999999999995</ele>
        <time>2012-05-27T13:23:59Z</time>
      </trkpt>
      <trkpt lat="46.574686774984002" lon="7.069562170654535">
        <ele>832.63999999999999</ele>
        <time>2012-05-27T13:24:01Z</time>
      </trkpt>
      <trkpt lat="46.574756009504199" lon="7.069903314113617">
        <ele>829.75999999999999</ele>
        <time>2012-05-27T13:24:04Z</time>
      </trkpt>
      <trkpt lat="46.574753997847438" lon="7.070265663787723">
        <ele>826.87</ele>
        <time>2012-05-27T13:24:07Z</time>
      </trkpt>
      <trkpt lat="46.574759781360626" lon="7.070493651553989">
        <ele>824.47000000000003</ele>
        <time>2012-05-27T13:24:09Z</time>
      </trkpt>
      <trkpt lat="46.574888778850436" lon="7.071093795821071">
        <ele>814.85000000000002</ele>
        <time>2012-05-27T13:24:16Z</time>
      </trkpt>
      <trkpt lat="46.574876122176647" lon="7.071314239874482">
        <ele>811.49000000000001</ele>
        <time>2012-05-27T13:24:18Z</time>
      </trkpt>
      <trkpt lat="46.574956253170967" lon="7.071858812123537">
        <ele>804.27999999999997</ele>
        <time>2012-05-27T13:24:22Z</time>
      </trkpt>
      <trkpt lat="46.575019117444754" lon="7.072060396894813">
        <ele>801.39999999999998</ele>
        <time>2012-05-27T13:24:24Z</time>
      </trkpt>
      <trkpt lat="46.574824657291174" lon="7.072707312181592">
        <ele>792.25999999999999</ele>
        <time>2012-05-27T13:24:31Z</time>
      </trkpt>
      <trkpt lat="46.574758104979992" lon="7.073156833648682">
        <ele>787.94000000000005</ele>
        <time>2012-05-27T13:24:37Z</time>
      </trkpt>
      <trkpt lat="46.574855670332909" lon="7.073579784482718">
        <ele>782.64999999999998</ele>
        <time>2012-05-27T13:24:41Z</time>
      </trkpt>
      <trkpt lat="46.575048118829727" lon="7.074064593762159">
        <ele>778.80999999999995</ele>
        <time>2012-05-27T13:24:45Z</time>
      </trkpt>
      <trkpt lat="46.575453383848071" lon="7.074667168781161">
        <ele>776.39999999999998</ele>
        <time>2012-05-27T13:24:51Z</time>
      </trkpt>
      <trkpt lat="46.575581710785627" lon="7.075039995834231">
        <ele>774.48000000000002</ele>
        <time>2012-05-27T13:24:55Z</time>
      </trkpt>
      <trkpt lat="46.57561993226409" lon="7.075330931693316">
        <ele>774.48000000000002</ele>
        <time>2012-05-27T13:24:58Z</time>
      </trkpt>
      <trkpt lat="46.575623704120517" lon="7.075521871447563">
        <ele>774</ele>
        <time>2012-05-27T13:25:00Z</time>
      </trkpt>
      <trkpt lat="46.575728310272098" lon="7.075928980484605">
        <ele>775.44000000000005</ele>
        <time>2012-05-27T13:25:04Z</time>
      </trkpt>
      <trkpt lat="46.575889913365245" lon="7.076268363744021">
        <ele>775.91999999999996</ele>
        <time>2012-05-27T13:25:07Z</time>
      </trkpt>
      <trkpt lat="46.576186800375581" lon="7.077435962855816">
        <ele>764.87</ele>
        <time>2012-05-27T13:25:15Z</time>
      </trkpt>
      <trkpt lat="46.576424343511462" lon="7.077966034412384">
        <ele>759.10000000000002</ele>
        <time>2012-05-27T13:25:19Z</time>
      </trkpt>
      <trkpt lat="46.576642272993922" lon="7.078404240310192">
        <ele>752.85000000000002</ele>
        <time>2012-05-27T13:25:23Z</time>
      </trkpt>
      <trkpt lat="46.577018452808261" lon="7.078918134793639">
        <ele>746.60000000000002</ele>
        <time>2012-05-27T13:25:28Z</time>
      </trkpt>
      <trkpt lat="46.577288266271353" lon="7.079065488651395">
        <ele>741.78999999999996</ele>
        <time>2012-05-27T13:25:32Z</time>
      </trkpt>
      <trkpt lat="46.577358758077025" lon="7.078999690711498">
        <ele>739.87</ele>
        <time>2012-05-27T13:25:33Z</time>
      </trkpt>
      <trkpt lat="46.577489012852311" lon="7.078830879181624">
        <ele>739.87</ele>
        <time>2012-05-27T13:25:35Z</time>
      </trkpt>
      <trkpt lat="46.577541483566165" lon="7.078745132312179">
        <ele>739.87</ele>
        <time>2012-05-27T13:25:36Z</time>
      </trkpt>
      <trkpt lat="46.577600575983524" lon="7.078697271645069">
        <ele>739.38999999999999</ele>
        <time>2012-05-27T13:25:37Z</time>
      </trkpt>
      <trkpt lat="46.577665284276009" lon="7.078688386827707">
        <ele>738.42999999999995</ele>
        <time>2012-05-27T13:25:38Z</time>
      </trkpt>
      <trkpt lat="46.577733680605888" lon="7.078708335757256">
        <ele>737.95000000000005</ele>
        <time>2012-05-27T13:25:39Z</time>
      </trkpt>
      <trkpt lat="46.577805178239942" lon="7.078736582770944">
        <ele>737.47000000000003</ele>
        <time>2012-05-27T13:25:40Z</time>
      </trkpt>
      <trkpt lat="46.577881537377834" lon="7.078761141747236">
        <ele>736.99000000000001</ele>
        <time>2012-05-27T13:25:41Z</time>
      </trkpt>
      <trkpt lat="46.577960997819901" lon="7.078769020736218">
        <ele>737.47000000000003</ele>
        <time>2012-05-27T13:25:42Z</time>
      </trkpt>
      <trkpt lat="46.578040290623903" lon="7.078754771500826">
        <ele>736.99000000000001</ele>
        <time>2012-05-27T13:25:43Z</time>
      </trkpt>
      <trkpt lat="46.578112626448274" lon="7.078717472031713">
        <ele>737.47000000000003</ele>
        <time>2012-05-27T13:25:44Z</time>
      </trkpt>
      <trkpt lat="46.578173227608204" lon="7.078661313280463">
        <ele>737.47000000000003</ele>
        <time>2012-05-27T13:25:45Z</time>
      </trkpt>
      <trkpt lat="46.57821748405695" lon="7.078592916950584">
        <ele>737.95000000000005</ele>
        <time>2012-05-27T13:25:46Z</time>
      </trkpt>
      <trkpt lat="46.578245144337416" lon="7.078514965251088">
        <ele>738.42999999999995</ele>
        <time>2012-05-27T13:25:47Z</time>
      </trkpt>
      <trkpt lat="46.578264338895679" lon="7.078437097370625">
        <ele>738.42999999999995</ele>
        <time>2012-05-27T13:25:48Z</time>
      </trkpt>
      <trkpt lat="46.578364251181483" lon="7.078095870092511">
        <ele>739.38999999999999</ele>
        <time>2012-05-27T13:25:53Z</time>
      </trkpt>
      <trkpt lat="46.578719727694988" lon="7.076945453882217">
        <ele>741.78999999999996</ele>
        <time>2012-05-27T13:26:11Z</time>
      </trkpt>
      <trkpt lat="46.578877307474613" lon="7.076403815299273">
        <ele>743.24000000000001</ele>
        <time>2012-05-27T13:26:20Z</time>
      </trkpt>
      <trkpt lat="46.578896837309003" lon="7.07634455524385">
        <ele>743.24000000000001</ele>
        <time>2012-05-27T13:26:21Z</time>
      </trkpt>
      <trkpt lat="46.579336216673255" lon="7.075339062139392">
        <ele>746.60000000000002</ele>
        <time>2012-05-27T13:26:40Z</time>
      </trkpt>
      <trkpt lat="46.579454988241196" lon="7.075172262266278">
        <ele>747.08000000000004</ele>
        <time>2012-05-27T13:26:44Z</time>
      </trkpt>
      <trkpt lat="46.579483402892947" lon="7.07513228058815">
        <ele>747.08000000000004</ele>
        <time>2012-05-27T13:26:45Z</time>
      </trkpt>
      <trkpt lat="46.579893110319972" lon="7.074555354192853">
        <ele>749.49000000000001</ele>
        <time>2012-05-27T13:27:00Z</time>
      </trkpt>
      <trkpt lat="46.580074327066541" lon="7.07397029735148">
        <ele>750.92999999999995</ele>
        <time>2012-05-27T13:27:14Z</time>
      </trkpt>
      <trkpt lat="46.580273816362023" lon="7.073446931317449">
        <ele>752.85000000000002</ele>
        <time>2012-05-27T13:27:28Z</time>
      </trkpt>
      <trkpt lat="46.580581767484546" lon="7.073038564994931">
        <ele>753.80999999999995</ele>
        <time>2012-05-27T13:27:43Z</time>
      </trkpt>
      <trkpt lat="46.580867255106568" lon="7.072634976357222">
        <ele>755.25</ele>
        <time>2012-05-27T13:27:57Z</time>
      </trkpt>
      <trkpt lat="46.581155341118574" lon="7.072311937808991">
        <ele>755.25</ele>
        <time>2012-05-27T13:28:08Z</time>
      </trkpt>
      <trkpt lat="46.58119959756732" lon="7.07230556756258">
        <ele>755.25</ele>
        <time>2012-05-27T13:28:09Z</time>
      </trkpt>
      <trkpt lat="46.581562869250774" lon="7.072424087673426">
        <ele>752.37</ele>
        <time>2012-05-27T13:28:16Z</time>
      </trkpt>
      <trkpt lat="46.581610227003694" lon="7.072462979704142">
        <ele>751.88999999999999</ele>
        <time>2012-05-27T13:28:17Z</time>
      </trkpt>
      <trkpt lat="46.58164911903441" lon="7.072497764602304">
        <ele>751.40999999999997</ele>
        <time>2012-05-27T13:28:18Z</time>
      </trkpt>
      <trkpt lat="46.581680634990335" lon="7.072523832321167">
        <ele>751.40999999999997</ele>
        <time>2012-05-27T13:28:19Z</time>
      </trkpt>
      <trkpt lat="46.581706199795008" lon="7.072550738230348">
        <ele>750.92999999999995</ele>
        <time>2012-05-27T13:28:20Z</time>
      </trkpt>
      <trkpt lat="46.581759424880147" lon="7.072585355490446">
        <ele>750.92999999999995</ele>
        <time>2012-05-27T13:28:22Z</time>
      </trkpt>
      <trkpt lat="46.581791276112199" lon="7.072575381025672">
        <ele>750.92999999999995</ele>
        <time>2012-05-27T13:28:23Z</time>
      </trkpt>
      <trkpt lat="46.581816338002682" lon="7.072547050192952">
        <ele>750.92999999999995</ele>
        <time>2012-05-27T13:28:24Z</time>
      </trkpt>
      <trkpt lat="46.581865707412362" lon="7.072405144572258">
        <ele>750.92999999999995</ele>
        <time>2012-05-27T13:28:27Z</time>
      </trkpt>
      <trkpt lat="46.581905521452427" lon="7.072171708568931">
        <ele>751.40999999999997</ele>
        <time>2012-05-27T13:28:31Z</time>
      </trkpt>
      <trkpt lat="46.582228476181626" lon="7.071757977828383">
        <ele>752.85000000000002</ele>
        <time>2012-05-27T13:28:43Z</time>
      </trkpt>
      <trkpt lat="46.582319252192974" lon="7.07171531394124">
        <ele>752.85000000000002</ele>
        <time>2012-05-27T13:28:46Z</time>
      </trkpt>
      <trkpt lat="46.582350265234709" lon="7.071736101061106">
        <ele>752.85000000000002</ele>
        <time>2012-05-27T13:28:47Z</time>
      </trkpt>
      <trkpt lat="46.582376835867763" lon="7.071772897616029">
        <ele>752.37</ele>
        <time>2012-05-27T13:28:48Z</time>
      </trkpt>
      <trkpt lat="46.582389660179615" lon="7.071819081902504">
        <ele>752.37</ele>
        <time>2012-05-27T13:28:49Z</time>
      </trkpt>
      <trkpt lat="46.582380859181285" lon="7.071870546787977">
        <ele>752.37</ele>
        <time>2012-05-27T13:28:50Z</time>
      </trkpt>
      <trkpt lat="46.582365604117513" lon="7.071922179311514">
        <ele>751.88999999999999</ele>
        <time>2012-05-27T13:28:51Z</time>
      </trkpt>
      <trkpt lat="46.582359233871102" lon="7.071972554549575">
        <ele>751.40999999999997</ele>
        <time>2012-05-27T13:28:52Z</time>
      </trkpt>
      <trkpt lat="46.582364346832037" lon="7.07201530225575">
        <ele>751.40999999999997</ele>
        <time>2012-05-27T13:28:53Z</time>
      </trkpt>
      <trkpt lat="46.582376835867763" lon="7.072047824040055">
        <ele>751.40999999999997</ele>
        <time>2012-05-27T13:28:54Z</time>
      </trkpt>
      <trkpt lat="46.582399886101484" lon="7.072091409936547">
        <ele>750.92999999999995</ele>
        <time>2012-05-27T13:28:56Z</time>
      </trkpt>
      <trkpt lat="46.582410279661417" lon="7.072104653343558">
        <ele>751.40999999999997</ele>
        <time>2012-05-27T13:28:57Z</time>
      </trkpt>
      <trkpt lat="46.58242360688746" lon="7.072124602273107">
        <ele>751.88999999999999</ele>
        <time>2012-05-27T13:29:09Z</time>
      </trkpt>
      <trkpt lat="46.582430731505156" lon="7.072128541767597">
        <ele>752.37</ele>
        <time>2012-05-27T13:29:23Z</time>
      </trkpt>
    </trkseg>
  </trk>

</gpx>